# Wetter Temperatur Luftdruck Luftfeuchtigkeit Sichtweite Windgeschwindigkeit Windrichtung Zeit
1 Clouds -3 1026 76 10000 4.63 10 14:22 01.02.2023
2 Clouds -3 1024 80 10000 4.63 10 13:19 01.02.2023
3 Snow -3 1025 82 10000 4.63 360 12:26 01.02.2023
4 Snow -3 1023 83 3219 6.17 360 11:49 01.02.2023
5 Snow -1 1023 55 10000 6.17 360 08:42 01.02.2023
6 Clouds 3 1023 48 10000 2.24 344 23:58 31.01.2023
7 Clouds 3 1022 54 10000 7.2 320 21:26 31.01.2023
8 Clouds 3 1022 62 10000 5.14 330 19:24 31.01.2023
9 Clouds 3 1023 69 10000 4.92 338 17:54 31.01.2023
10 Rain 2 1023 83 10000 3.6 330 15:36 31.01.2023
11 Rain 1 1023 84 10000 3.6 340 15:18 31.01.2023
12 Rain 2 1022 85 9656 5.14 360 13:44 31.01.2023
13 Rain 3 1020 78 10000 6.17 360 11:41 31.01.2023
14 Drizzle 4 1019 76 10000 7.72 10 10:26 31.01.2023
15 Drizzle 5 1019 78 10000 7.2 360 09:44 31.01.2023
16 Drizzle 6 1018 78 10000 5.66 350 08:56 31.01.2023
17 Clouds 7 1018 76 10000 6.17 340 08:31 31.01.2023
18 Clouds 8 1019 77 10000 5.36 360 04:52 31.01.2023
19 Clear 9 1019 70 10000 4.63 170 23:36 30.01.2023
20 Clear 11 1019 63 10000 5.14 190 22:50 30.01.2023
21 Clouds 12 1019 59 10000 5.14 180 21:48 30.01.2023
22 Clouds 12 1020 59 10000 4.63 200 20:45 30.01.2023
23 Clouds 11 1021 62 10000 2.57 0 18:55 30.01.2023
24 Clouds 10 1022 66 10000 1.54 250 17:26 30.01.2023
25 Clear 6 1023 79 10000 1.54 250 14:57 30.01.2023
26 Clear 5 1022 78 10000 1.54 270 13:56 30.01.2023
27 Clear 5 1022 76 10000 4.02 360 12:21 30.01.2023
28 Clear 5 1021 76 10000 3.09 310 12:21 30.01.2023
29 Clear 5 1021 77 10000 3.58 360 10:30 30.01.2023
30 Clear 5 1021 77 10000 6.71 360 09:54 30.01.2023
31 Clear 6 1021 75 10000 7.15 360 08:40 30.01.2023
32 Clear 7 1021 71 10000 4.92 360 06:23 30.01.2023
33 Clouds 9 1020 62 10000 6.17 230 01:31 30.01.2023
34 Clouds 10 1020 54 10000 7.2 220 23:34 29.01.2023
35 Clouds 11 1020 50 10000 7.2 220 22:37 29.01.2023
36 Clouds 11 1019 49 10000 5.66 210 21:20 29.01.2023
37 Clouds 11 1020 51 10000 8.23 200 20:36 29.01.2023
38 Clouds 10 1020 57 10000 5.66 190 19:33 29.01.2023
39 Clouds 10 1022 56 10000 5.36 360 18:35 29.01.2023
40 Clear 8 1024 63 10000 4.92 360 16:53 29.01.2023
41 Clear 7 1025 67 10000 4.12 190 16:20 29.01.2023
42 Clear 8 1024 66 10000 4.12 190 16:20 29.01.2023
43 Clear 5 1025 78 10000 3.6 170 14:20 29.01.2023
44 Clear 5 1026 75 10000 2.68 360 13:25 29.01.2023
45 Clear 4 1026 73 10000 2.06 40 12:39 29.01.2023
46 Clear 4 1025 72 10000 2.24 142 12:20 29.01.2023
47 Clear 4 1026 70 10000 2.06 170 11:38 29.01.2023
48 Clear 4 1025 72 10000 1.34 130 10:54 29.01.2023
49 Clear 5 1027 66 10000 2.24 360 08:55 29.01.2023
50 Clear 6 1027 61 10000 4.47 360 06:49 29.01.2023
51 Clear 9 1025 47 10000 4.47 360 00:19 29.01.2023
52 Clear 11 1024 41 10000 5.66 270 21:50 28.01.2023
53 Clear 11 1023 40 10000 6.69 250 20:24 28.01.2023
54 Clear 11 1023 39 10000 8.75 280 19:46 28.01.2023
55 Clear 10 1023 46 10000 6.69 250 18:21 28.01.2023
56 Clear 8 1024 53 10000 6.26 283 16:59 28.01.2023
57 Clear 8 1024 53 10000 6.26 283 16:59 28.01.2023
58 Clear 7 1024 55 10000 5.66 220 16:20 28.01.2023
59 Clouds 5 1024 60 10000 5.14 220 15:38 28.01.2023
60 Clouds 5 1024 60 10000 5.14 220 15:38 28.01.2023
61 Clouds 3 1023 64 10000 5.14 220 14:21 28.01.2023
62 Clouds 2 1023 62 10000 6.26 360 12:49 28.01.2023
63 Clouds 2 1022 61 10000 5.81 360 11:54 28.01.2023
64 Clouds 3 1022 60 10000 6.69 210 10:34 28.01.2023
65 Clear 1 1022 60 10000 4.47 360 07:21 28.01.2023
66 Clear 3 1021 57 10000 3.58 261 01:40 28.01.2023
67 Clouds 3 1021 54 10000 4.12 250 00:25 28.01.2023
68 Clouds 5 1019 48 10000 3.58 263 20:59 27.01.2023
69 Clouds 6 1019 57 10000 4.63 240 18:45 27.01.2023
70 Clouds 5 1019 61 10000 3.13 249 17:57 27.01.2023
71 Clouds 5 1020 59 10000 5.66 240 17:19 27.01.2023
72 Clear 5 1020 60 10000 3.6 240 16:35 27.01.2023
73 Clear 3 1020 71 10000 4.47 360 14:58 27.01.2023
74 Clear 2 1019 74 10000 3.6 270 14:25 27.01.2023
75 Clear 1 1018 75 10000 5.36 360 13:18 27.01.2023
76 Clouds 3 1015 68 10000 7.15 360 08:47 27.01.2023
77 Clouds 4 1013 63 10000 6.17 260 06:20 27.01.2023
78 Clouds 6 1008 53 10000 8.75 260 00:24 27.01.2023
79 Clouds 7 1005 55 10000 11.83 250 21:43 26.01.2023
80 Clouds 7 1004 56 10000 11.32 260 20:39 26.01.2023
81 Clouds 7 1003 57 10000 10.29 260 19:54 26.01.2023
82 Clouds 7 1002 62 10000 9.77 260 17:56 26.01.2023
83 Clouds 7 1003 63 10000 9.26 260 16:30 26.01.2023
84 Clear 7 1002 67 10000 4.47 281 15:58 26.01.2023
85 Clouds 7 1001 67 10000 8.23 240 15:38 26.01.2023
86 Clouds 7 1001 68 10000 8.23 240 15:20 26.01.2023
87 Clouds 7 1000 72 10000 9.26 260 13:47 26.01.2023
88 Clouds 8 998 83 10000 8.75 270 12:31 26.01.2023
89 Clouds 10 997 88 10000 5.66 250 10:34 26.01.2023
90 Clouds 11 996 90 10000 8.23 260 09:44 26.01.2023
91 Mist 11 997 91 10000 6.71 360 09:19 26.01.2023
92 Rain 12 999 93 8047 7.72 180 06:39 26.01.2023
93 Clouds 5 1013 89 10000 7.2 100 23:41 25.01.2023
94 Rain 4 1015 89 6437 6.26 360 22:48 25.01.2023
95 Rain 3 1018 89 6437 7.2 100 21:26 25.01.2023
96 Mist 2 1019 87 4828 6.17 100 20:59 25.01.2023
97 Clouds 4 1024 64 10000 4.12 130 18:29 25.01.2023
98 Clear 3 1026 60 10000 4.12 90 16:22 25.01.2023
99 Clear 3 1026 62 10000 2.06 0 15:21 25.01.2023
100 Clear 1 1028 63 10000 2.06 320 12:29 25.01.2023
101 Clear 1 1026 62 10000 3.09 320 09:53 25.01.2023
102 Clear 1 1027 61 10000 3.09 320 09:29 25.01.2023
103 Clouds 2 1026 57 10000 1.79 360 06:52 25.01.2023
104 Clouds 5 1023 56 10000 6.69 290 00:31 25.01.2023
105 Clouds 6 1022 54 10000 10.29 300 22:39 24.01.2023
106 Clouds 7 1021 52 10000 9.77 310 21:28 24.01.2023
107 Clouds 8 1019 50 10000 8.75 290 19:39 24.01.2023
108 Clear 7 1019 51 10000 6.17 290 18:30 24.01.2023
109 Clear 6 1019 53 10000 6.69 260 17:19 24.01.2023
110 Clouds 5 1020 57 10000 3.58 248 16:52 24.01.2023
111 Clouds 3 1019 64 10000 7.2 250 14:49 24.01.2023
112 Clouds 2 1018 67 10000 5.66 260 12:29 24.01.2023
113 Clouds 2 1018 65 10000 5.81 360 11:20 24.01.2023
114 Clouds 2 1016 63 10000 5.14 280 08:21 24.01.2023
115 Clouds 2 1016 63 10000 7.72 290 07:50 24.01.2023
116 Clouds 2 1015 67 10000 8.23 320 05:22 24.01.2023
117 Clouds 3 1008 71 10000 12.35 300 00:49 24.01.2023
118 Clouds 3 1008 73 10000 4.92 16 23:51 23.01.2023
119 Clouds 3 1005 84 10000 8.23 310 22:20 23.01.2023
120 Rain 3 1001 91 10000 8.23 310 19:46 23.01.2023
121 Rain 3 1001 91 4828 5.66 330 18:00 23.01.2023
122 Mist 4 1001 91 3219 5.66 310 16:19 23.01.2023
123 Clouds 4 1000 92 10000 6.17 340 14:45 23.01.2023
124 Mist 4 1000 92 10000 4.63 360 13:44 23.01.2023
125 Mist 3 1000 93 10000 7.72 360 12:54 23.01.2023
126 Mist 3 1001 92 4828 5.66 350 11:44 23.01.2023
127 Mist 3 1002 92 6437 7.2 10 08:49 23.01.2023
128 Rain 3 1003 94 4828 7.2 20 07:38 23.01.2023
129 Rain 4 1015 77 10000 4.12 130 23:31 22.01.2023
130 Clouds 5 1017 68 10000 3.6 170 21:49 22.01.2023
131 Clouds 5 1017 66 10000 1.79 135 20:57 22.01.2023
132 Clear 5 1019 61 10000 4.63 200 19:53 22.01.2023
133 Clear 5 1019 61 10000 4.63 200 19:20 22.01.2023
134 Clear 5 1020 60 10000 5.66 190 18:22 22.01.2023
135 Clouds 5 1021 59 10000 3.6 180 17:44 22.01.2023
136 Clouds 5 1021 59 10000 3.6 180 17:23 22.01.2023
137 Clouds 3 1023 63 10000 3.13 360 14:59 22.01.2023
138 Clouds 3 1023 63 10000 2.24 184 13:51 22.01.2023
139 Clouds 3 1023 63 10000 2.68 360 13:25 22.01.2023
140 Clouds 2 1023 62 10000 4.12 200 12:28 22.01.2023
141 Clouds 2 1023 62 10000 3.6 220 10:40 22.01.2023
142 Clouds 2 1024 64 10000 3.6 260 08:51 22.01.2023
143 Clouds 3 1024 63 10000 2.24 341 02:58 22.01.2023
144 Clouds 4 1023 60 10000 4.63 310 23:43 21.01.2023
145 Clouds 4 1022 60 10000 5.14 310 22:48 21.01.2023
146 Clouds 4 1021 59 10000 4.12 280 21:28 21.01.2023
147 Clouds 5 1020 59 10000 5.66 350 18:52 21.01.2023
148 Clouds 3 1021 64 10000 6.69 330 15:37 21.01.2023
149 Clouds 3 1019 64 10000 6.17 340 13:50 21.01.2023
150 Clouds 3 1018 63 10000 3.13 325 12:56 21.01.2023
151 Clouds 3 1017 62 10000 8.75 330 11:39 21.01.2023
152 Clouds 3 1016 63 10000 9.26 310 10:48 21.01.2023
153 Clouds 4 1014 67 10000 5.81 322 08:47 21.01.2023
154 Clouds 6 1013 64 10000 5.14 260 04:30 21.01.2023
155 Clouds 8 1007 60 10000 8.75 280 22:28 20.01.2023
156 Clouds 8 1006 60 10000 7.72 290 21:37 20.01.2023
157 Clouds 8 1005 62 10000 4.02 321 20:54 20.01.2023
158 Rain 8 1004 64 10000 10.8 300 19:20 20.01.2023
159 Clouds 9 1004 69 10000 8.23 260 16:37 20.01.2023
160 Fog 6 1004 80 10000 6.69 270 14:46 20.01.2023
161 Fog 5 1003 87 10000 5.14 260 13:37 20.01.2023
162 Mist 5 1003 92 10000 2.24 328 10:24 20.01.2023
163 Mist 5 1003 92 10000 1.79 360 08:51 20.01.2023
164 Rain 5 1003 92 6437 6.69 360 04:22 20.01.2023
165 Rain 5 1004 93 4023 5.14 50 02:29 20.01.2023
166 Rain 5 1010 91 8047 6.17 60 22:33 19.01.2023
167 Mist 5 1011 91 8047 3.6 100 20:32 19.01.2023
168 Rain 5 1012 90 6437 4.12 100 19:28 19.01.2023
169 Rain 5 1017 83 6437 4.12 70 16:29 19.01.2023
170 Clear 5 1018 73 10000 1.79 307 13:29 19.01.2023
171 Clear 4 1017 75 10000 4.02 360 09:36 19.01.2023
172 Clouds 8 1015 64 10000 2.68 270 02:59 19.01.2023
173 Clouds 11 1011 52 10000 8.23 310 22:24 18.01.2023
174 Clouds 11 1008 52 10000 11.32 310 20:20 18.01.2023
175 Clouds 11 1008 54 10000 8.75 300 19:38 18.01.2023
176 Clouds 11 1008 58 10000 1.79 352 17:51 18.01.2023
177 Clouds 10 1008 70 10000 3.13 301 15:56 18.01.2023
178 Clouds 7 1007 78 10000 7.15 360 13:49 18.01.2023
179 Clouds 6 1005 81 10000 8.05 360 11:44 18.01.2023
180 Clouds 6 1004 78 10000 4.47 360 09:27 18.01.2023
181 Clouds 7 1005 50 10000 4.12 230 02:59 18.01.2023
182 Clouds 7 1005 45 10000 3.6 230 00:35 18.01.2023
183 Clouds 7 1004 39 10000 3.58 360 20:57 17.01.2023
184 Clouds 7 1005 38 10000 2.06 210 19:36 17.01.2023
185 Clouds 7 1006 36 10000 2.57 230 18:48 17.01.2023
186 Clear 6 1007 35 10000 1.34 292 17:37 17.01.2023
187 Clouds 4 1008 41 10000 3.09 250 15:26 17.01.2023
188 Clouds 2 1008 45 10000 3.09 220 14:34 17.01.2023
189 Clouds 1 1008 50 10000 2.68 360 13:31 17.01.2023
190 Clear 1 1009 49 10000 3.13 360 11:46 17.01.2023
191 Clear 1 1008 48 10000 3.58 360 09:36 17.01.2023
192 Clear 2 1009 47 10000 5.66 300 08:20 17.01.2023
193 Clouds 2 1010 47 10000 4.47 360 06:51 17.01.2023
194 Clear 6 1010 30 10000 6.69 310 01:32 17.01.2023
195 Clear 6 1010 30 10000 6.69 310 01:32 17.01.2023
196 Clear 6 1009 29 10000 7.2 310 00:47 17.01.2023
197 Clear 8 1009 25 10000 6.17 320 22:29 16.01.2023
198 Clear 8 1009 25 10000 6.17 300 20:50 16.01.2023
199 Clear 7 1010 29 10000 6.17 320 19:50 16.01.2023
200 Clouds 5 1011 35 10000 2.68 286 18:57 16.01.2023
201 Clear 5 1011 37 10000 4.63 300 18:29 16.01.2023
202 Clouds 4 1012 40 10000 4.92 332 17:59 16.01.2023
203 Clouds 3 1013 41 10000 4.63 300 17:20 16.01.2023
204 Clouds -1 1014 54 10000 7.2 340 14:18 16.01.2023
205 Clouds -2 1015 54 10000 8.23 340 13:35 16.01.2023
206 Clouds -2 1015 53 10000 7.72 350 10:23 16.01.2023
207 Clear -1 1016 51 10000 9.77 340 08:20 16.01.2023
208 Clear 5 1016 39 10000 8.75 350 22:44 15.01.2023
209 Clear 6 1015 40 10000 9.26 350 21:23 15.01.2023
210 Clear 5 1016 43 10000 11.32 330 20:26 15.01.2023
211 Clear 4 1016 48 10000 9.77 350 19:31 15.01.2023
212 Clear 2 1017 60 10000 10.8 360 17:24 15.01.2023
213 Clouds -1 1016 70 10000 10.29 360 13:46 15.01.2023
214 Clouds -1 1015 69 10000 10.8 350 12:21 15.01.2023
215 Clouds -1 1015 69 10000 10.29 340 11:28 15.01.2023
216 Clouds -1 1015 69 10000 10.29 340 11:28 15.01.2023
217 Clouds -1 1014 69 10000 10.29 340 10:21 15.01.2023
218 Clouds -1 1013 69 10000 8.49 45 07:56 15.01.2023
219 Clouds 1 1012 62 10000 8.49 333 23:39 14.01.2023
220 Clouds 1 1012 62 10000 9.77 330 22:43 14.01.2023
221 Clouds 2 1011 60 10000 7.72 360 21:36 14.01.2023
222 Clouds 2 1010 60 10000 8.23 340 21:18 14.01.2023
223 Clouds 2 1009 62 10000 8.23 340 20:56 14.01.2023
224 Clouds 2 1011 61 10000 8.23 10 20:26 14.01.2023
225 Clouds 1 1010 71 10000 8.75 360 17:53 14.01.2023
226 Clouds 1 1010 72 10000 7.2 360 15:38 14.01.2023
227 Clouds 1 1010 73 10000 7.2 360 15:19 14.01.2023
228 Clouds 1 1009 75 4828 8.23 350 14:19 14.01.2023
229 Clouds 1 1008 70 10000 8.75 350 12:50 14.01.2023
230 Clouds 1 1008 75 10000 9.77 350 10:50 14.01.2023
231 Clouds 2 1007 68 10000 8.23 340 08:41 14.01.2023
232 Clouds 4 1006 68 10000 5.66 320 02:36 14.01.2023
233 Clouds 6 1005 68 10000 7.2 320 22:59 13.01.2023
234 Clouds 6 1004 67 10000 8.75 320 22:41 13.01.2023
235 Clouds 7 1002 67 10000 8.75 310 21:58 13.01.2023
236 Clouds 9 1002 73 10000 9.77 310 20:38 13.01.2023
237 Clouds 11 1001 76 10000 6.17 250 19:27 13.01.2023
238 Clouds 12 1001 85 10000 5.14 180 17:40 13.01.2023
239 Clouds 11 1000 89 10000 5.66 200 15:20 13.01.2023
240 Rain 12 1002 87 10000 5.14 190 12:25 13.01.2023
241 Clouds 12 1002 87 10000 5.14 190 12:25 13.01.2023
242 Clouds 12 1001 89 10000 6.69 160 10:43 13.01.2023
243 Clouds 12 1001 88 10000 6.69 160 10:23 13.01.2023
244 Clouds 13 1001 89 10000 5.36 360 09:44 13.01.2023
245 Clouds 13 1003 91 10000 8.05 360 08:51 13.01.2023
246 Rain 12 1004 90 10000 6.26 360 06:57 13.01.2023
247 Clouds 12 1004 91 10000 6.69 180 06:30 13.01.2023
248 Mist 11 1010 93 8047 6.71 360 02:29 13.01.2023
249 Clouds 10 1014 84 10000 7.6 360 22:57 12.01.2023
250 Clouds 9 1015 84 10000 8.94 360 21:59 12.01.2023
251 Clouds 9 1016 85 10000 5.66 50 20:54 12.01.2023
252 Clouds 7 1019 86 10000 4.63 50 18:40 12.01.2023
253 Clouds 7 1021 86 10000 4.12 40 17:33 12.01.2023
254 Clouds 6 1022 88 10000 5.14 60 15:45 12.01.2023
255 Rain 5 1022 87 9656 4.63 60 14:43 12.01.2023
256 Rain 5 1022 87 10000 4.63 60 14:20 12.01.2023
257 Rain 5 1022 82 10000 4.47 93 12:44 12.01.2023
258 Clouds 4 1022 76 10000 3.6 50 10:30 12.01.2023
259 Clouds 3 1024 71 10000 4.12 70 07:44 12.01.2023
260 Clear 3 1025 62 10000 4.63 70 01:40 12.01.2023
261 Clouds 3 1025 61 10000 2.68 360 23:59 11.01.2023
262 Clear 3 1025 58 10000 4.63 50 23:39 11.01.2023
263 Clear 3 1025 57 10000 4.63 50 23:20 11.01.2023
264 Clouds 4 1025 55 10000 3.09 40 21:41 11.01.2023
265 Clouds 4 1024 56 10000 4.63 40 19:40 11.01.2023
266 Clouds 4 1024 59 10000 4.63 40 18:26 11.01.2023
267 Clouds 3 1025 60 10000 4.12 50 16:42 11.01.2023
268 Clouds 2 1024 63 10000 5.66 70 14:44 11.01.2023
269 Clouds 2 1023 61 10000 5.66 50 12:38 11.01.2023
270 Clouds 2 1023 61 10000 4.63 20 11:54 11.01.2023
271 Clouds 3 1023 63 10000 5.14 50 10:20 11.01.2023
272 Clouds 3 1022 64 10000 3.13 93 07:59 11.01.2023
273 Clouds 3 1021 61 10000 4.92 52 07:22 11.01.2023
274 Clouds 3 1021 61 10000 3.6 50 07:22 11.01.2023
275 Clouds 5 1019 64 10000 5.14 300 00:34 11.01.2023
276 Clouds 5 1018 65 10000 3.13 292 22:45 10.01.2023
277 Clouds 5 1017 64 10000 3.6 290 21:32 10.01.2023
278 Clouds 5 1017 65 10000 4.12 290 20:39 10.01.2023
279 Clouds 5 1017 64 10000 4.02 252 19:38 10.01.2023
280 Clouds 5 1017 64 10000 4.12 260 18:47 10.01.2023
281 Clouds 5 1018 65 10000 4.12 260 17:58 10.01.2023
282 Clouds 4 1018 66 10000 4.12 280 16:39 10.01.2023
283 Clouds 4 1018 66 10000 3.6 250 15:31 10.01.2023
284 Clouds 3 1018 67 10000 4.02 360 14:31 10.01.2023
285 Clouds 3 1017 67 10000 4.12 320 12:23 10.01.2023
286 Clouds 2 1016 65 10000 4.12 290 09:25 10.01.2023
287 Clear 2 1016 64 10000 4.47 360 08:29 10.01.2023
288 Clear 3 1015 62 10000 5.36 360 07:27 10.01.2023
289 Clouds 3 1015 63 10000 4.47 360 04:54 10.01.2023
290 Clear 5 1013 50 10000 6.69 300 23:29 09.01.2023
291 Clear 7 1012 50 10000 3.13 315 21:51 09.01.2023
292 Clear 7 1012 52 10000 6.17 310 20:45 09.01.2023
293 Clear 7 1012 55 10000 6.17 310 19:30 09.01.2023
294 Clouds 6 1014 64 10000 3.6 300 17:55 09.01.2023
295 Clouds 5 1014 66 10000 6.17 320 17:26 09.01.2023
296 Clouds 5 1015 73 10000 4.12 320 16:32 09.01.2023
297 Clouds 3 1015 82 10000 3.6 320 15:30 09.01.2023
298 Mist 3 1015 84 10000 4.12 320 14:46 09.01.2023
299 Haze 3 1015 86 10000 2.57 290 13:39 09.01.2023
300 Mist 3 1015 86 10000 3.09 310 12:49 09.01.2023
301 Clouds 3 1015 87 10000 2.57 340 11:43 09.01.2023
302 Mist 3 1016 86 9656 2.57 210 10:35 09.01.2023
303 Clouds 3 1020 74 10000 4.12 210 06:44 09.01.2023
304 Clouds 2 1023 72 10000 3.13 205 02:54 09.01.2023
305 Clear 3 1024 61 10000 4.12 210 23:53 08.01.2023
306 Clear 4 1025 51 10000 3.09 190 21:41 08.01.2023
307 Clear 5 1025 52 10000 3.09 190 21:20 08.01.2023
308 Clear 5 1025 50 10000 4.02 241 20:29 08.01.2023
309 Clear 4 1027 56 10000 2.57 0 17:53 08.01.2023
310 Clear 3 1027 58 10000 2.57 0 17:20 08.01.2023
311 Clear 2 1028 62 10000 3.6 320 15:47 08.01.2023
312 Clear 1 1028 62 10000 3.6 320 15:24 08.01.2023
313 Clouds 0 1028 64 10000 3.09 320 13:57 08.01.2023
314 Clear 0 1027 63 10000 4.63 330 13:29 08.01.2023
315 Clear 1 1027 63 10000 4.63 320 12:20 08.01.2023
316 Clear 2 1026 66 10000 5.14 290 09:39 08.01.2023
317 Clear 2 1026 65 10000 6.69 320 08:45 08.01.2023
318 Clear 3 1025 65 10000 6.26 317 07:22 08.01.2023
319 Clear 5 1022 60 10000 5.14 300 23:58 07.01.2023
320 Clouds 6 1022 59 10000 5.66 310 22:46 07.01.2023
321 Clouds 6 1021 60 10000 5.66 310 22:22 07.01.2023
322 Clouds 7 1021 60 10000 6.69 290 21:40 07.01.2023
323 Clouds 7 1020 59 10000 5.66 300 20:31 07.01.2023
324 Clouds 7 1020 57 10000 7.72 290 19:28 07.01.2023
325 Clouds 7 1020 58 10000 5.66 320 18:23 07.01.2023
326 Clouds 6 1021 62 10000 5.14 300 17:43 07.01.2023
327 Clouds 6 1022 65 10000 5.14 300 17:20 07.01.2023
328 Clouds 5 1022 70 10000 5.66 300 16:29 07.01.2023
329 Clouds 4 1022 72 10000 4.12 280 15:46 07.01.2023
330 Clouds 4 1022 72 10000 4.12 280 15:22 07.01.2023
331 Clouds 3 1021 74 10000 4.63 300 14:26 07.01.2023
332 Clear 3 1021 76 10000 4.12 300 13:43 07.01.2023
333 Clear 3 1021 76 10000 4.12 300 13:22 07.01.2023
334 Clear 2 1021 78 10000 5.14 290 12:21 07.01.2023
335 Clear 2 1020 77 10000 5.66 290 10:57 07.01.2023
336 Clear 2 1020 77 10000 5.66 290 10:23 07.01.2023
337 Clear 3 1020 74 10000 5.66 290 08:21 07.01.2023
338 Clear 3 1020 74 10000 4.12 290 07:43 07.01.2023
339 Clear 3 1020 72 10000 5.66 290 06:49 07.01.2023
340 Clouds 7 1018 71 10000 3.58 360 23:55 06.01.2023
341 Clouds 8 1016 73 10000 6.69 280 22:22 06.01.2023
342 Clouds 8 1016 75 10000 6.69 280 21:58 06.01.2023
343 Clouds 8 1015 81 10000 2.68 301 20:52 06.01.2023
344 Clouds 9 1015 80 10000 2.57 290 19:56 06.01.2023
345 Mist 8 1015 81 10000 3.09 70 19:38 06.01.2023
346 Mist 8 1015 82 10000 3.09 70 19:20 06.01.2023
347 Mist 8 1015 90 8047 2.57 40 18:25 06.01.2023
348 Mist 7 1016 90 8047 2.57 60 16:55 06.01.2023
349 Rain 7 1016 90 8047 2.06 40 16:23 06.01.2023
350 Mist 6 1016 91 8047 1.34 360 15:53 06.01.2023
351 Mist 6 1016 91 9656 3.09 50 15:34 06.01.2023
352 Rain 6 1015 92 10000 4.12 100 13:48 06.01.2023
353 Clouds 6 1015 91 10000 2.57 70 12:21 06.01.2023
354 Clouds 6 1016 91 10000 3.6 50 10:57 06.01.2023
355 Rain 7 1016 91 3219 2.57 30 08:55 06.01.2023
356 Mist 7 1014 93 6437 3.6 60 05:31 06.01.2023
357 Clouds 9 1014 90 10000 3.09 120 23:48 05.01.2023
358 Clouds 9 1014 89 10000 4.12 90 22:54 05.01.2023
359 Clouds 10 1014 87 10000 4.63 40 21:23 05.01.2023
360 Mist 10 1015 89 9656 3.09 40 19:18 05.01.2023
361 Mist 9 1016 92 10000 3.09 60 17:27 05.01.2023
362 Mist 9 1016 94 2414 3.09 50 15:59 05.01.2023
363 Mist 10 1015 94 4828 3.09 50 15:38 05.01.2023
364 Mist 10 1014 93 2012 3.09 60 14:34 05.01.2023
365 Mist 10 1014 93 2414 2.06 360 12:42 05.01.2023
366 Mist 10 1013 92 10000 2.06 10 11:44 05.01.2023
367 Mist 10 1012 92 10000 3.09 30 09:50 05.01.2023
368 Mist 10 1011 92 6437 2.57 70 08:24 05.01.2023
369 Drizzle 11 1010 94 2816 2.06 70 06:57 05.01.2023
370 Mist 12 1010 90 9656 2.06 60 03:34 05.01.2023
371 Rain 15 1010 85 10000 1.54 160 22:33 04.01.2023
372 Clear 16 1010 79 10000 3.6 190 21:33 04.01.2023
373 Clear 16 1011 79 10000 5.14 180 20:26 04.01.2023
374 Clear 17 1011 77 10000 4.12 190 19:54 04.01.2023
375 Clear 17 1011 75 10000 4.12 190 19:30 04.01.2023
376 Clear 17 1011 75 10000 4.12 190 19:30 04.01.2023
377 Clear 17 1012 76 10000 3.6 200 18:19 04.01.2023
378 Fog 15 1013 87 10000 4.12 230 16:31 04.01.2023
379 Clouds 13 1014 90 10000 4.47 360 14:53 04.01.2023
380 Mist 12 1012 90 10000 6.71 360 13:36 04.01.2023
381 Clear 12 1010 88 10000 4.02 360 11:40 04.01.2023
382 Clouds 12 1010 89 10000 4.47 360 11:18 04.01.2023
383 Clouds 12 1009 88 10000 4.63 210 10:42 04.01.2023
384 Clouds 12 1009 89 10000 4.63 210 10:21 04.01.2023
385 Mist 11 1009 93 8047 1.79 130 05:40 04.01.2023
386 Mist 11 1010 92 8047 2.57 220 01:42 04.01.2023
387 Mist 12 1011 92 9656 4.92 360 23:52 03.01.2023
388 Mist 12 1010 92 9656 5.81 360 23:31 03.01.2023
389 Mist 11 1011 92 8047 4.92 360 21:43 03.01.2023
390 Clouds 11 1012 92 10000 5.36 360 20:51 03.01.2023
391 Rain 10 1014 92 2414 2.06 60 18:52 03.01.2023
392 Rain 9 1017 90 4828 3.09 50 16:46 03.01.2023
393 Mist 9 1017 91 4828 2.57 10 15:43 03.01.2023
394 Mist 9 1018 91 4828 1.34 128 13:51 03.01.2023
395 Mist 9 1018 91 4828 2.24 132 13:29 03.01.2023
396 Mist 9 1019 89 9656 3.6 60 12:57 03.01.2023
397 Mist 9 1019 89 9656 4.12 60 12:29 03.01.2023
398 Clouds 9 1019 88 10000 3.09 60 10:25 03.01.2023
399 Mist 10 1021 87 10000 1.34 131 06:21 03.01.2023
400 Rain 11 1022 83 10000 4.63 220 03:56 03.01.2023
401 Clouds 11 1021 81 10000 4.63 220 03:35 03.01.2023
402 Clouds 11 1021 71 10000 3.13 360 23:36 02.01.2023
403 Clouds 12 1020 69 10000 3.6 240 22:41 02.01.2023
404 Clouds 12 1020 68 10000 5.36 360 21:52 02.01.2023
405 Clouds 13 1020 63 10000 3.6 240 20:38 02.01.2023
406 Clear 13 1020 61 10000 3.09 0 19:27 02.01.2023
407 Clouds 10 1021 71 10000 2.06 250 16:54 02.01.2023
408 Clear 7 1020 78 10000 2.68 360 14:31 02.01.2023
409 Clouds 6 1020 81 10000 0.89 248 12:57 02.01.2023
410 Clouds 6 1019 79 10000 4.47 360 11:40 02.01.2023
411 Clouds 7 1019 77 10000 2.06 260 09:48 02.01.2023
412 Clouds 7 1018 72 10000 4.02 360 07:30 02.01.2023
413 Clouds 9 1016 63 10000 2.24 301 00:39 02.01.2023
414 Clear 12 1014 49 10000 5.14 320 21:55 01.01.2023
415 Clear 12 1015 49 10000 5.14 320 21:22 01.01.2023
416 Clear 12 1014 50 10000 6.17 310 20:42 01.01.2023
417 Clear 12 1014 52 10000 8.23 310 19:42 01.01.2023
418 Clouds 11 1014 63 10000 3.58 353 17:53 01.01.2023
419 Clear 11 1014 61 10000 6.17 320 17:20 01.01.2023
420 Clear 11 1015 67 10000 5.66 310 16:31 01.01.2023
421 Fog 9 1012 88 10000 5.36 360 14:47 01.01.2023
422 Clouds 9 1010 91 10000 4.92 360 13:29 01.01.2023
423 Clouds 9 1010 92 10000 5.81 360 12:32 01.01.2023
424 Mist 9 1010 93 10000 6.26 360 11:36 01.01.2023
425 Mist 10 1009 93 8047 6.26 360 10:23 01.01.2023
426 Clouds 11 1008 93 10000 7.6 360 08:48 01.01.2023
427 Clouds 11 1008 93 10000 8.05 360 08:18 01.01.2023
428 Clouds 11 1008 93 10000 8.05 360 08:18 01.01.2023
429 Mist 11 1008 94 4828 4.02 360 06:54 01.01.2023
430 Mist 10 1011 95 4023 1.54 60 00:52 01.01.2023
431 Mist 10 1012 95 4828 2.57 70 23:41 31.12.2022
432 Mist 10 1012 95 2414 2.57 70 22:32 31.12.2022
433 Rain 10 1013 94 1207 2.57 60 21:34 31.12.2022
434 Rain 10 1014 95 1609 2.57 50 20:43 31.12.2022
435 Mist 11 1014 95 4023 1.54 0 19:32 31.12.2022
436 Mist 11 1015 92 1609 1.79 142 18:40 31.12.2022
437 Mist 10 1015 92 805 1.54 70 18:18 31.12.2022
438 Mist 10 1017 93 805 1.79 153 17:45 31.12.2022
439 Mist 9 1018 94 402 1.54 160 16:40 31.12.2022
440 Mist 9 1018 94 402 1.54 160 16:19 31.12.2022
441 Mist 8 1020 92 6437 1.54 0 14:36 31.12.2022
442 Mist 9 1019 89 8047 2.57 100 13:33 31.12.2022
443 Mist 9 1020 87 10000 5.36 360 12:39 31.12.2022
444 Mist 8 1020 87 10000 4.63 40 12:19 31.12.2022
445 Clouds 8 1020 88 10000 2.68 360 11:50 31.12.2022
446 Mist 8 1020 87 9656 2.57 90 10:34 31.12.2022
447 Clouds 8 1021 90 10000 0.89 78 09:53 31.12.2022
448 Clouds 8 1022 88 10000 2.57 0 09:18 31.12.2022
449 Clouds 8 1022 86 10000 2.06 230 07:22 31.12.2022
450 Clear 9 1024 72 10000 2.57 160 00:35 31.12.2022
451 Clear 10 1023 69 10000 2.57 190 23:44 30.12.2022
452 Clear 11 1023 63 10000 3.09 180 22:45 30.12.2022
453 Clouds 12 1023 60 10000 4.63 160 21:42 30.12.2022
454 Clear 13 1024 53 10000 4.63 160 21:22 30.12.2022
455 Clouds 13 1024 50 10000 3.6 210 18:57 30.12.2022
456 Clear 12 1026 53 10000 3.09 200 17:35 30.12.2022
457 Clear 10 1027 58 10000 1.79 183 16:52 30.12.2022
458 Clear 8 1027 62 10000 3.58 360 15:50 30.12.2022
459 Clouds 4 1026 74 10000 2.57 170 13:56 30.12.2022
460 Clouds 5 1026 67 10000 3.09 190 09:51 30.12.2022
461 Clouds 5 1027 68 10000 1.54 180 07:59 30.12.2022
462 Clouds 5 1026 63 10000 2.57 220 02:41 30.12.2022
463 Clouds 5 1026 66 10000 0.89 204 00:53 30.12.2022
464 Clouds 8 1025 58 10000 3.09 190 22:46 29.12.2022
465 Clear 10 1024 49 10000 4.63 220 21:31 29.12.2022
466 Clouds 9 1024 50 10000 3.09 200 20:54 29.12.2022
467 Clear 9 1025 50 10000 4.63 190 20:21 29.12.2022
468 Clear 7 1026 55 10000 4.12 220 17:57 29.12.2022
469 Clear 6 1027 57 10000 3.6 220 17:29 29.12.2022
470 Clear 6 1027 58 10000 5.14 240 16:55 29.12.2022
471 Clouds 5 1028 62 10000 5.14 240 15:59 29.12.2022
472 Clear 4 1027 63 10000 5.36 360 15:18 29.12.2022
473 Clouds 2 1026 70 10000 3.09 200 13:33 29.12.2022
474 Clouds 2 1026 69 10000 4.12 200 11:28 29.12.2022
475 Clouds 2 1027 66 10000 0.89 225 07:43 29.12.2022
476 Clear 4 1025 61 10000 3.6 210 00:18 29.12.2022
477 Clear 6 1025 50 10000 4.63 220 23:27 28.12.2022
478 Clear 8 1025 35 10000 6.17 210 21:21 28.12.2022
479 Clear 7 1026 41 10000 5.66 220 20:25 28.12.2022
480 Clear 7 1025 48 10000 4.63 220 19:23 28.12.2022
481 Clear 4 1028 56 10000 4.63 220 16:56 28.12.2022
482 Clear 0 1027 67 10000 5.36 360 14:42 28.12.2022
483 Clouds -1 1028 72 10000 2.68 360 12:55 28.12.2022
484 Clear -1 1027 71 10000 3.09 200 11:53 28.12.2022
485 Clouds 0 1026 69 10000 2.06 170 10:39 28.12.2022
486 Clouds 0 1027 64 10000 2.06 270 08:42 28.12.2022
487 Clouds 1 1027 63 10000 2.06 300 06:50 28.12.2022
488 Clouds 1 1027 60 10000 3.13 360 03:45 28.12.2022
489 Clouds 1 1026 56 10000 5.14 240 23:35 27.12.2022
490 Clouds 1 1025 51 10000 4.12 240 19:58 27.12.2022
491 Clouds 1 1025 50 10000 5.66 310 19:27 27.12.2022
492 Clouds 0 1026 52 10000 5.14 310 17:20 27.12.2022
493 Clouds -1 1026 52 10000 4.63 260 16:39 27.12.2022
494 Clouds -1 1026 52 10000 4.63 270 15:25 27.12.2022
495 Clouds -2 1024 49 10000 5.66 270 12:34 27.12.2022
496 Clouds -2 1025 47 10000 5.66 250 11:28 27.12.2022
497 Clouds -2 1025 48 10000 4.63 230 09:46 27.12.2022
498 Clouds -2 1025 48 10000 4.63 230 09:23 27.12.2022
499 Clouds -2 1025 47 10000 5.66 250 06:49 27.12.2022
500 Clouds -2 1025 49 10000 6.69 250 04:29 27.12.2022
501 Clear -2 1023 49 10000 6.69 250 22:21 26.12.2022
502 Clear -2 1022 47 10000 6.69 240 20:51 26.12.2022
503 Clear -2 1023 47 10000 6.69 240 20:29 26.12.2022
504 Clear -3 1024 49 10000 4.12 270 18:43 26.12.2022
505 Clear -4 1024 51 10000 5.66 270 17:44 26.12.2022
506 Clear -5 1025 54 10000 4.63 300 16:20 26.12.2022
507 Clear -8 1023 60 10000 7.2 290 13:46 26.12.2022
508 Clear -8 1022 58 10000 3.6 260 11:56 26.12.2022
509 Clear -7 1019 57 10000 8.23 270 07:28 26.12.2022
510 Clouds -4 1016 49 10000 6.69 260 23:56 25.12.2022
511 Clear -3 1014 48 10000 7.2 270 23:35 25.12.2022
512 Clear -3 1013 47 10000 7.2 250 22:26 25.12.2022
513 Clouds -2 1012 45 10000 5.81 286 21:35 25.12.2022
514 Clear -3 1012 49 10000 7.2 250 18:49 25.12.2022
515 Clear -4 1013 51 10000 5.36 253 17:52 25.12.2022
516 Clouds -4 1013 52 10000 7.2 260 17:33 25.12.2022
517 Clear -7 1014 60 10000 7.72 230 15:19 25.12.2022
518 Clear -10 1013 62 10000 7.72 240 11:50 25.12.2022
519 Clear -10 1013 58 10000 7.72 240 08:39 25.12.2022
520 Clear -10 1011 49 10000 7.2 250 23:30 24.12.2022
521 Clouds -10 1010 47 10000 9.77 250 21:25 24.12.2022
522 Clear -11 1010 48 10000 12.35 260 18:18 24.12.2022
523 Clear -12 1011 49 10000 11.32 270 16:38 24.12.2022
524 Clouds -13 1010 52 10000 6.71 308 14:52 24.12.2022
525 Clear -14 1008 54 10000 11.83 240 12:42 24.12.2022
526 Clouds -14 1008 54 10000 10.29 250 10:45 24.12.2022
527 Clouds -14 1007 54 10000 10.29 250 10:20 24.12.2022
528 Clouds -14 1007 54 10000 7.72 260 09:36 24.12.2022
529 Clouds -13 1003 55 10000 12.86 260 05:48 24.12.2022
530 Clouds -11 999 53 10000 13.38 260 02:20 24.12.2022
531 Clouds -7 994 56 10000 13.38 270 23:37 23.12.2022
532 Clouds -5 992 61 10000 14.4 270 22:27 23.12.2022
533 Clouds 0 987 80 8047 14.92 250 20:41 23.12.2022
534 Rain 4 985 77 8047 13.38 260 19:39 23.12.2022
535 Rain 5 985 82 8047 12.86 250 19:21 23.12.2022
536 Rain 7 984 80 2816 10.73 303 18:45 23.12.2022
537 Clouds 9 984 86 10000 6.69 180 18:19 23.12.2022
538 Mist 8 988 86 10000 9.77 190 16:34 23.12.2022
539 Mist 9 989 88 8047 10.73 226 15:30 23.12.2022
540 Mist 13 990 93 4828 9.26 180 11:47 23.12.2022
541 Rain 13 995 91 10000 13.38 130 09:37 23.12.2022
542 Mist 12 1000 93 4828 8.75 120 07:59 23.12.2022
543 Rain 11 1003 93 4023 8.94 148 06:52 23.12.2022
544 Rain 11 1004 92 6437 10.28 142 06:23 23.12.2022
545 Clouds 7 1020 89 10000 5.66 50 23:23 22.12.2022
546 Clouds 6 1022 88 10000 6.17 70 22:38 22.12.2022
547 Rain 6 1023 88 10000 6.17 60 21:23 22.12.2022
548 Rain 5 1025 86 4828 8.23 50 19:26 22.12.2022
549 Rain 5 1026 82 10000 7.72 50 18:41 22.12.2022
550 Rain 5 1028 77 10000 6.17 50 17:29 22.12.2022
551 Clouds 5 1028 76 10000 6.17 60 16:39 22.12.2022
552 Clouds 3 1029 75 10000 6.17 60 15:35 22.12.2022
553 Clouds 2 1030 75 10000 4.92 86 14:51 22.12.2022
554 Clear 1 1030 73 10000 3.6 50 13:34 22.12.2022
555 Clouds 1 1030 72 10000 3.09 30 12:59 22.12.2022
556 Clear 1 1031 70 10000 3.09 60 10:51 22.12.2022
557 Clear 1 1031 70 10000 3.09 60 10:30 22.12.2022
558 Clear 1 1032 68 10000 2.57 60 09:21 22.12.2022
559 Clear 1 1033 69 10000 3.09 30 08:27 22.12.2022
560 Clear 1 1032 68 10000 2.57 90 06:41 22.12.2022
561 Clear 1 1033 65 10000 1.54 250 04:18 22.12.2022
562 Clouds 2 1033 62 10000 1.34 157 23:51 21.12.2022
563 Clear 4 1032 52 10000 0.89 165 21:58 21.12.2022
564 Clear 5 1033 50 10000 1.79 360 21:23 21.12.2022
565 Clear 4 1032 52 10000 2.57 260 20:54 21.12.2022
566 Clear 4 1032 51 10000 2.57 260 20:29 21.12.2022
567 Clear 4 1032 53 10000 1.54 0 19:44 21.12.2022
568 Clear 4 1032 53 10000 2.24 324 19:24 21.12.2022
569 Clear 3 1032 55 10000 2.24 324 18:47 21.12.2022
570 Clear 2 1032 60 10000 3.09 50 17:49 21.12.2022
571 Clouds -1 1034 71 10000 3.09 20 14:59 21.12.2022
572 Clear -2 1033 73 10000 2.06 10 13:28 21.12.2022
573 Clear -2 1032 72 10000 3.09 360 11:48 21.12.2022
574 Clear -2 1032 71 10000 3.13 9 11:20 21.12.2022
575 Clear -2 1032 70 10000 3.09 330 09:50 21.12.2022
576 Clear -2 1031 68 10000 3.6 340 07:48 21.12.2022
577 Clear -1 1032 66 10000 4.12 360 06:24 21.12.2022
578 Clear 3 1030 52 10000 4.63 320 23:21 20.12.2022
579 Clear 4 1028 49 10000 4.63 330 21:47 20.12.2022
580 Clear 4 1028 49 10000 6.17 310 20:26 20.12.2022
581 Clear 4 1029 49 10000 5.66 360 19:42 20.12.2022
582 Clear 3 1029 50 10000 6.69 330 18:38 20.12.2022
583 Clear 3 1029 51 10000 6.69 330 18:19 20.12.2022
584 Clear 3 1030 53 10000 6.17 360 17:46 20.12.2022
585 Clear 2 1030 56 10000 4.47 308 16:53 20.12.2022
586 Clear 1 1030 57 10000 6.17 340 15:48 20.12.2022
587 Clear 0 1030 60 10000 7.2 330 14:50 20.12.2022
588 Clear 0 1030 61 10000 7.2 330 14:29 20.12.2022
589 Clear -1 1030 63 10000 3.6 320 13:25 20.12.2022
590 Clear 0 1028 63 10000 5.66 320 12:32 20.12.2022
591 Clear 0 1028 65 10000 7.2 320 11:38 20.12.2022
592 Clear 0 1027 65 10000 4.92 360 08:51 20.12.2022
593 Clear 0 1027 62 10000 4.63 280 04:41 20.12.2022
594 Clouds 1 1025 56 10000 6.69 310 23:46 19.12.2022
595 Clouds 2 1025 55 10000 9.77 300 22:21 19.12.2022
596 Clouds 3 1023 52 10000 9.26 310 20:41 19.12.2022
597 Clouds 3 1023 50 10000 10.29 280 19:39 19.12.2022
598 Clouds 3 1023 51 10000 8.75 300 18:42 19.12.2022
599 Clear 3 1024 53 10000 8.75 310 17:36 19.12.2022
600 Clear 0 1022 64 10000 7.2 270 14:45 19.12.2022
601 Clear -1 1022 67 10000 6.26 360 12:34 19.12.2022
602 Clear -1 1022 66 10000 5.81 360 11:30 19.12.2022
603 Clear 0 1020 64 10000 6.69 260 07:47 19.12.2022
604 Clouds 0 1019 61 10000 8.75 270 06:31 19.12.2022
605 Clouds 3 1016 55 10000 4.92 299 22:59 18.12.2022
606 Clouds 4 1014 49 10000 7.2 280 21:47 18.12.2022
607 Clouds 4 1014 49 10000 7.2 280 21:24 18.12.2022
608 Clouds 4 1013 51 10000 5.36 296 20:53 18.12.2022
609 Clouds 4 1012 51 10000 7.72 290 19:43 18.12.2022
610 Clouds 4 1013 52 10000 4.47 329 18:57 18.12.2022
611 Clouds 4 1013 55 10000 3.13 290 17:52 18.12.2022
612 Clear 2 1014 62 10000 7.72 290 15:41 18.12.2022
613 Clear 2 1013 63 10000 7.72 290 15:23 18.12.2022
614 Clear 0 1013 67 10000 5.14 290 14:29 18.12.2022
615 Clear 0 1012 66 10000 5.66 290 13:28 18.12.2022
616 Clear 0 1013 66 10000 5.14 260 12:42 18.12.2022
617 Clear 0 1012 66 10000 5.36 360 11:49 18.12.2022
618 Clear 1 1012 65 10000 6.17 270 09:34 18.12.2022
619 Clouds 1 1012 65 10000 5.14 290 08:46 18.12.2022
620 Clouds 2 1011 62 10000 5.66 260 06:36 18.12.2022
621 Clouds 2 1012 61 10000 5.81 360 06:18 18.12.2022
622 Clouds 4 1010 50 10000 7.2 260 01:49 18.12.2022
623 Clouds 5 1009 53 10000 5.36 333 22:57 17.12.2022
624 Clouds 6 1006 54 10000 6.69 300 20:46 17.12.2022
625 Clouds 6 1008 64 10000 7.2 290 17:21 17.12.2022
626 Clouds 6 1008 64 10000 7.2 290 17:21 17.12.2022
627 Clear 4 1008 76 10000 7.2 270 15:32 17.12.2022
628 Clouds 3 1006 79 10000 6.17 280 13:18 17.12.2022
629 Clouds 3 1005 79 10000 8.75 290 11:19 17.12.2022
630 Clouds 4 1004 80 10000 6.26 360 10:40 17.12.2022
631 Clouds 4 1003 82 10000 7.72 290 08:37 17.12.2022
632 Clouds 4 1003 82 10000 7.72 290 08:37 17.12.2022
633 Clouds 4 1004 85 10000 6.17 270 07:22 17.12.2022
634 Clouds 4 1004 87 10000 7.72 300 06:44 17.12.2022
635 Clouds 4 1003 91 10000 8.23 330 22:55 16.12.2022
636 Rain 6 1002 91 1609 6.69 330 20:29 16.12.2022
637 Mist 7 1001 91 4828 11.83 40 18:41 16.12.2022
638 Mist 7 1003 92 2414 11.83 50 15:36 16.12.2022
639 Mist 7 1004 92 3219 10.29 50 14:46 16.12.2022
640 Mist 6 1004 91 3219 11.32 60 13:21 16.12.2022
641 Rain 6 1006 90 4828 10.8 60 11:57 16.12.2022
642 Rain 6 1008 87 10000 10.8 60 09:41 16.12.2022
643 Rain 6 1009 87 10000 11.32 70 08:50 16.12.2022
644 Rain 6 1009 88 10000 8.05 77 07:55 16.12.2022
645 Clouds 6 1010 87 10000 12.86 70 06:58 16.12.2022
646 Mist 4 1019 86 9656 7.2 70 23:19 15.12.2022
647 Rain 4 1019 84 10000 6.69 70 21:58 15.12.2022
648 Rain 4 1021 81 10000 6.69 80 20:24 15.12.2022
649 Rain 4 1021 79 10000 7.2 60 19:21 15.12.2022
650 Clouds 4 1022 74 10000 7.2 60 17:28 15.12.2022
651 Clouds 3 1024 74 10000 7.2 70 16:31 15.12.2022
652 Clouds 2 1025 74 10000 4.63 40 14:57 15.12.2022
653 Clear 1 1025 73 10000 4.63 30 13:18 15.12.2022
654 Clear 1 1024 71 10000 4.63 20 12:25 15.12.2022
655 Clear 0 1024 67 10000 6.17 20 09:28 15.12.2022
656 Clear 0 1023 67 10000 5.66 20 08:46 15.12.2022
657 Clear 0 1024 62 10000 5.66 20 05:47 15.12.2022
658 Clear 1 1023 58 10000 6.26 65 02:38 15.12.2022
659 Clear 4 1021 45 10000 6.17 310 21:25 14.12.2022
660 Clear 4 1020 43 10000 5.66 330 20:57 14.12.2022
661 Clear 4 1021 42 10000 5.66 330 20:23 14.12.2022
662 Clear 2 1021 43 10000 1.79 37 17:56 14.12.2022
663 Clouds 1 1022 44 10000 5.14 310 16:57 14.12.2022
664 Clear 0 1022 48 10000 5.66 340 15:39 14.12.2022
665 Clear -1 1022 62 10000 7.2 330 13:41 14.12.2022
666 Clear 0 1021 66 10000 6.69 290 11:20 14.12.2022
667 Clear 0 1020 66 10000 6.71 360 10:31 14.12.2022
668 Clear -1 1021 66 10000 5.81 348 08:51 14.12.2022
669 Clear 3 1025 46 10000 3.6 10 22:49 13.12.2022
670 Clear 5 1024 42 10000 4.12 350 21:48 13.12.2022
671 Clear 4 1024 44 10000 6.17 340 20:48 13.12.2022
672 Clear 5 1024 44 10000 6.17 340 20:48 13.12.2022
673 Clear 4 1025 46 10000 4.63 350 19:59 13.12.2022
674 Clear 1 1026 57 10000 4.63 340 17:40 13.12.2022
675 Clear 1 1026 57 10000 4.63 340 17:40 13.12.2022
676 Clear -2 1027 66 10000 5.66 330 15:45 13.12.2022
677 Clear -3 1026 71 10000 4.12 330 14:44 13.12.2022
678 Clear -3 1025 73 10000 4.63 330 11:18 13.12.2022
679 Clear -3 1025 75 10000 4.92 339 10:36 13.12.2022
680 Clear -3 1026 76 10000 4.63 340 09:23 13.12.2022
681 Clear -2 1025 74 10000 5.66 350 06:20 13.12.2022
682 Clouds 2 1023 75 10000 6.69 360 22:23 12.12.2022
683 Clouds 2 1023 75 10000 7.72 360 21:27 12.12.2022
684 Clouds 3 1022 77 10000 5.66 350 18:34 12.12.2022
685 Clouds 2 1022 79 10000 7.2 20 17:19 12.12.2022
686 Clouds 1 1023 82 10000 4.63 20 15:22 12.12.2022
687 Clouds 0 1020 85 10000 5.14 360 12:24 12.12.2022
688 Mist 0 1019 89 10000 5.66 10 09:19 12.12.2022
689 Snow 1 1019 90 2816 6.69 10 04:55 12.12.2022
690 Snow 1 1019 91 4828 3.58 335 03:51 12.12.2022
691 Rain 3 1020 88 8047 4.63 20 22:57 11.12.2022
692 Rain 4 1021 84 10000 4.63 50 20:54 11.12.2022
693 Rain 4 1021 82 10000 4.63 70 19:48 11.12.2022
694 Clouds 4 1022 81 10000 4.63 70 19:30 11.12.2022
695 Rain 4 1023 78 10000 5.66 60 18:22 11.12.2022
696 Clouds 4 1024 77 10000 5.14 80 17:32 11.12.2022
697 Rain 3 1025 76 10000 5.14 70 16:52 11.12.2022
698 Clouds 3 1026 77 10000 5.66 60 15:47 11.12.2022
699 Clouds 3 1026 77 10000 5.66 60 14:50 11.12.2022
700 Clouds 3 1026 77 10000 6.17 70 13:21 11.12.2022
701 Clouds 3 1026 76 10000 8.23 60 12:40 11.12.2022
702 Clouds 2 1028 78 10000 6.69 70 08:56 11.12.2022
703 Clear 3 1029 69 10000 4.63 70 00:35 11.12.2022
704 Clouds 3 1029 67 10000 4.12 60 23:32 10.12.2022
705 Clouds 4 1029 66 10000 3.6 60 22:33 10.12.2022
706 Clouds 4 1029 67 10000 4.63 50 21:22 10.12.2022
707 Clouds 4 1029 65 10000 5.14 50 20:39 10.12.2022
708 Clouds 4 1028 64 10000 2.57 30 19:54 10.12.2022
709 Clear 3 1030 57 10000 8.23 50 17:18 10.12.2022
710 Clear 2 1030 56 10000 8.23 50 16:36 10.12.2022
711 Clear 1 1030 56 10000 5.81 40 15:39 10.12.2022
712 Clear 1 1030 58 10000 8.05 41 14:58 10.12.2022
713 Clear -1 1028 57 10000 4.63 10 12:55 10.12.2022
714 Clear 0 1027 57 10000 5.66 20 11:49 10.12.2022
715 Clear 0 1027 55 10000 5.66 30 10:45 10.12.2022
716 Clear 0 1027 53 10000 4.12 20 09:38 10.12.2022
717 Clear 1 1026 44 10000 4.12 10 07:21 10.12.2022
718 Clear 3 1026 46 10000 5.66 10 03:18 10.12.2022
719 Clear 5 1025 48 10000 6.17 30 23:34 09.12.2022
720 Clear 7 1025 45 10000 5.66 360 22:41 09.12.2022
721 Clear 8 1026 43 10000 5.66 360 21:27 09.12.2022
722 Clear 8 1026 45 10000 1.79 359 20:57 09.12.2022
723 Clear 7 1026 46 10000 4.12 350 19:43 09.12.2022
724 Clear 6 1025 54 10000 6.17 10 17:56 09.12.2022
725 Clear 5 1027 58 10000 7.72 10 16:47 09.12.2022
726 Clear 4 1027 60 10000 6.17 10 16:18 09.12.2022
727 Clear 3 1027 65 10000 7.2 10 15:24 09.12.2022
728 Clear 2 1026 67 10000 5.14 10 12:25 09.12.2022
729 Clear 2 1026 66 10000 5.14 30 10:48 09.12.2022
730 Clear 3 1025 66 10000 6.69 360 09:44 09.12.2022
731 Clear 6 1025 67 10000 5.66 10 05:37 09.12.2022
732 Clear 7 1024 64 10000 6.69 340 03:18 09.12.2022
733 Clear 10 1023 60 10000 7.72 320 22:41 08.12.2022
734 Clear 12 1023 57 10000 6.69 310 20:51 08.12.2022
735 Clouds 12 1024 56 10000 6.17 310 18:54 08.12.2022
736 Clear 10 1024 67 10000 6.26 36 16:23 08.12.2022
737 Clear 9 1024 75 10000 5.14 320 14:29 08.12.2022
738 Clouds 10 1022 75 10000 4.63 330 11:47 08.12.2022
739 Clear 10 1021 75 10000 5.66 320 10:34 08.12.2022
740 Clear 11 1021 74 10000 4.63 300 09:28 08.12.2022
741 Clear 12 1020 86 10000 6.69 290 06:49 08.12.2022
742 Mist 14 1020 93 9656 4.02 360 22:36 07.12.2022
743 Mist 14 1019 92 9656 5.14 240 22:18 07.12.2022
744 Mist 14 1019 92 9656 5.36 360 21:45 07.12.2022
745 Mist 14 1020 94 2816 3.6 230 19:49 07.12.2022
746 Fog 14 1021 94 805 2.57 210 17:51 07.12.2022
747 Mist 14 1023 93 1609 2.57 230 15:29 07.12.2022
748 Mist 13 1023 93 4828 2.57 170 13:20 07.12.2022
749 Mist 14 1022 93 9656 5.14 190 10:47 07.12.2022
750 Mist 13 1023 93 9656 4.47 360 09:58 07.12.2022
751 Mist 13 1023 93 6437 6.69 170 08:55 07.12.2022
752 Rain 13 1023 93 4828 9.39 360 06:50 07.12.2022
753 Mist 13 1024 94 3219 4.12 180 05:24 07.12.2022
754 Mist 13 1025 89 8047 4.92 360 23:58 06.12.2022
755 Rain 13 1025 86 9656 8.05 360 21:41 06.12.2022
756 Rain 13 1026 84 8047 7.15 360 18:59 06.12.2022
757 Clouds 12 1027 82 10000 8.05 360 17:19 06.12.2022
758 Clouds 11 1026 84 10000 4.92 360 16:29 06.12.2022
759 Clouds 10 1026 83 10000 7.15 360 15:35 06.12.2022
760 Clouds 8 1027 83 10000 5.36 360 14:35 06.12.2022
761 Clouds 7 1027 84 10000 4.02 360 13:49 06.12.2022
762 Clouds 6 1026 82 10000 4.63 20 12:41 06.12.2022
763 Clouds 6 1026 82 10000 3.6 30 11:34 06.12.2022
764 Clear 5 1027 77 10000 2.57 30 07:50 06.12.2022
765 Clear 5 1027 73 10000 2.68 360 03:20 06.12.2022
766 Clear 6 1026 58 10000 3.6 170 23:43 05.12.2022
767 Clear 8 1025 38 10000 3.6 160 21:40 05.12.2022
768 Clouds 8 1024 39 10000 2.24 212 20:52 05.12.2022
769 Clear 8 1024 38 10000 4.63 180 19:54 05.12.2022
770 Clear 8 1024 37 10000 4.63 180 19:35 05.12.2022
771 Clear 6 1026 46 10000 1.79 225 16:51 05.12.2022
772 Clear 4 1026 60 10000 3.13 360 15:29 05.12.2022
773 Clear 3 1026 63 10000 2.06 190 14:49 05.12.2022
774 Clear 2 1024 68 10000 2.24 360 12:58 05.12.2022
775 Clear 1 1024 68 10000 2.57 210 12:38 05.12.2022
776 Clear 1 1023 68 10000 2.57 170 11:42 05.12.2022
777 Clear 2 1023 63 10000 1.54 170 08:37 05.12.2022
778 Clear 5 1022 50 10000 3.09 270 00:19 05.12.2022
779 Clear 6 1022 45 10000 4.63 300 22:44 04.12.2022
780 Clear 7 1022 44 10000 4.63 300 22:19 04.12.2022
781 Clear 7 1021 42 10000 3.09 310 21:37 04.12.2022
782 Clear 8 1021 42 10000 4.63 290 20:20 04.12.2022
783 Clear 7 1021 43 10000 5.66 300 19:23 04.12.2022
784 Clear 7 1021 44 10000 4.63 330 18:37 04.12.2022
785 Clear 6 1022 45 10000 5.66 320 17:22 04.12.2022
786 Clear 6 1023 47 10000 6.69 330 16:37 04.12.2022
787 Clear 5 1023 48 10000 6.69 330 16:19 04.12.2022
788 Clear 5 1023 51 10000 4.12 350 15:31 04.12.2022
789 Clear 4 1023 54 10000 4.12 330 14:32 04.12.2022
790 Clouds 3 1023 55 10000 3.09 310 12:59 04.12.2022
791 Clouds 3 1023 54 10000 5.14 300 12:40 04.12.2022
792 Clear 4 1022 51 10000 4.63 300 11:35 04.12.2022
793 Clear 5 1021 49 10000 6.69 330 09:19 04.12.2022
794 Clouds 10 1018 57 10000 10.8 300 02:52 04.12.2022
795 Rain 13 1015 84 10000 9.26 240 23:44 03.12.2022
796 Clouds 14 1015 84 10000 6.69 230 22:51 03.12.2022
797 Clouds 14 1015 86 10000 9.26 230 21:53 03.12.2022
798 Clouds 14 1015 86 10000 9.26 230 21:19 03.12.2022
799 Mist 13 1015 92 4828 8.23 210 18:57 03.12.2022
800 Rain 13 1016 89 4023 7.72 200 18:38 03.12.2022
801 Rain 12 1020 86 10000 8.49 360 15:53 03.12.2022
802 Rain 11 1022 86 10000 5.81 360 13:54 03.12.2022
803 Clouds 11 1023 83 10000 6.71 360 12:53 03.12.2022
804 Clouds 10 1023 83 10000 5.36 360 12:22 03.12.2022
805 Clouds 9 1025 79 10000 5.36 360 10:20 03.12.2022
806 Clouds 6 1029 72 10000 4.47 360 06:53 03.12.2022
807 Clear 5 1032 62 10000 5.36 360 00:31 03.12.2022
808 Clear 6 1032 51 10000 4.63 190 22:22 02.12.2022
809 Clouds 7 1032 47 10000 2.06 0 20:53 02.12.2022
810 Clear 6 1033 48 10000 4.12 200 19:23 02.12.2022
811 Clouds 3 1035 57 10000 2.24 133 15:59 02.12.2022
812 Clear 1 1035 64 10000 2.24 307 14:43 02.12.2022
813 Clear 1 1035 64 10000 1.79 310 14:23 02.12.2022
814 Clear 0 1034 65 10000 1.34 288 12:55 02.12.2022
815 Clear 0 1033 64 10000 2.57 280 11:32 02.12.2022
816 Clear 0 1033 60 10000 3.09 280 08:35 02.12.2022
817 Clear 0 1032 59 10000 3.6 290 07:24 02.12.2022
818 Clear 4 1029 47 10000 6.26 295 23:49 01.12.2022
819 Clear 6 1026 43 10000 11.32 290 21:49 01.12.2022
820 Clear 6 1026 43 10000 12.52 284 21:31 01.12.2022
821 Clouds 6 1024 44 10000 11.32 290 19:48 01.12.2022
822 Clouds 5 1024 44 10000 10.29 290 18:23 01.12.2022
823 Clouds 4 1023 48 10000 7.72 270 15:59 01.12.2022
824 Clouds 2 1019 52 10000 5.36 276 11:55 01.12.2022
825 Clear 2 1016 50 10000 8.23 280 10:28 01.12.2022
826 Clouds 3 1016 51 10000 7.15 279 09:54 01.12.2022
827 Clear 3 1016 50 10000 9.26 280 09:36 01.12.2022
828 Clouds 10 1008 62 10000 12.86 260 02:00 01.12.2022
829 Mist 14 1005 91 8047 8.75 200 22:38 30.11.2022
830 Rain 14 1005 91 10000 12.35 180 21:19 30.11.2022
831 Rain 14 1006 89 4828 12.96 169 20:47 30.11.2022
832 Rain 14 1006 90 4828 12.52 174 20:23 30.11.2022
833 Rain 13 1009 88 4828 13.86 172 18:34 30.11.2022
834 Rain 12 1012 86 3219 12.52 165 17:36 30.11.2022
835 Clouds 11 1015 83 10000 7.6 163 16:19 30.11.2022
836 Clouds 9 1018 79 10000 3.13 360 14:39 30.11.2022
837 Clouds 9 1018 79 10000 3.13 360 14:20 30.11.2022
838 Clouds 5 1021 72 10000 2.57 10 11:34 30.11.2022
839 Clouds 5 1023 72 10000 4.47 111 08:40 30.11.2022
840 Clouds 5 1023 72 10000 4.47 111 08:40 30.11.2022
841 Clear 4 1023 72 10000 4.02 109 07:58 30.11.2022
842 Clear 5 1025 62 10000 4.12 50 23:42 29.11.2022
843 Clear 5 1025 61 10000 4.12 50 23:21 29.11.2022
844 Clouds 6 1025 59 10000 1.54 0 21:47 29.11.2022
845 Clouds 6 1025 59 10000 4.12 270 20:38 29.11.2022
846 Clouds 6 1025 59 10000 2.24 216 19:20 29.11.2022
847 Clouds 5 1026 63 10000 4.12 60 17:36 29.11.2022
848 Clouds 4 1026 65 10000 4.12 350 16:27 29.11.2022
849 Clouds 3 1026 68 10000 4.02 342 14:51 29.11.2022
850 Clear 2 1024 70 10000 3.58 327 13:36 29.11.2022
851 Clear 2 1023 69 10000 3.09 310 12:22 29.11.2022
852 Clear 2 1022 69 10000 2.68 346 11:30 29.11.2022
853 Clear 3 1022 69 10000 4.63 330 10:23 29.11.2022
854 Clear 3 1021 67 10000 3.6 350 08:42 29.11.2022
855 Clouds 4 1019 66 10000 2.24 304 05:52 29.11.2022
856 Clear 8 1012 61 10000 6.69 320 23:38 28.11.2022
857 Clear 8 1012 61 10000 6.69 320 23:19 28.11.2022
858 Clouds 10 1009 57 10000 10.28 301 21:55 28.11.2022
859 Clouds 10 1009 56 10000 10.28 301 21:36 28.11.2022
860 Clouds 11 1008 55 10000 10.29 310 20:20 28.11.2022
861 Clouds 11 1006 57 10000 7.72 330 18:40 28.11.2022
862 Clouds 11 1005 57 10000 6.71 342 17:54 28.11.2022
863 Clouds 11 1005 57 10000 9.83 300 17:21 28.11.2022
864 Drizzle 10 1003 70 10000 8.75 320 14:43 28.11.2022
865 Clouds 11 1002 76 10000 8.49 306 13:52 28.11.2022
866 Clear 12 1000 75 10000 9.39 360 12:44 28.11.2022
867 Clear 12 999 76 10000 7.2 230 11:31 28.11.2022
868 Clouds 12 997 78 10000 7.15 360 07:54 28.11.2022
869 Clouds 13 996 82 10000 8.05 279 04:54 28.11.2022
870 Clouds 13 996 83 10000 8.49 360 04:36 28.11.2022
871 Clouds 14 995 89 10000 9.77 240 03:20 28.11.2022
872 Mist 12 998 90 8047 5.81 360 23:44 27.11.2022
873 Mist 10 1001 89 4828 7.6 360 21:54 27.11.2022
874 Rain 10 1004 84 2012 4.47 360 20:38 27.11.2022
875 Rain 11 1007 65 10000 5.14 190 18:25 27.11.2022
876 Clear 9 1011 64 10000 4.12 190 15:40 27.11.2022
877 Clouds 7 1011 63 10000 4.63 210 13:37 27.11.2022
878 Clouds 7 1013 59 10000 5.81 360 11:31 27.11.2022
879 Clouds 8 1014 57 10000 5.36 360 08:59 27.11.2022
880 Clear 9 1015 50 10000 5.36 360 05:20 27.11.2022
881 Clear 12 1015 39 10000 4.63 260 23:18 26.11.2022
882 Clear 14 1014 36 10000 6.26 283 20:57 26.11.2022
883 Clear 13 1015 38 10000 7.15 311 19:40 26.11.2022
884 Clear 12 1016 40 10000 5.14 310 18:38 26.11.2022
885 Clear 9 1017 47 10000 6.69 290 16:27 26.11.2022
886 Clear 7 1017 54 10000 8.23 300 14:34 26.11.2022
887 Clouds 6 1016 54 10000 6.17 310 12:42 26.11.2022
888 Clouds 6 1016 55 10000 7.72 300 10:52 26.11.2022
889 Clouds 7 1015 54 10000 8.94 314 09:36 26.11.2022
890 Clouds 7 1013 52 10000 10.8 310 07:29 26.11.2022
891 Clouds 12 1008 59 10000 8.05 318 22:41 25.11.2022
892 Clouds 13 1007 66 10000 5.81 288 21:32 25.11.2022
893 Clouds 12 1008 73 10000 6.69 270 20:20 25.11.2022
894 Haze 9 1012 88 8047 6.17 240 16:50 25.11.2022
895 Mist 9 1013 88 8047 5.81 360 15:26 25.11.2022
896 Clear 8 1019 79 10000 4.47 360 09:44 25.11.2022
897 Clear 8 1020 77 10000 3.6 230 08:43 25.11.2022
898 Clouds 8 1021 76 10000 5.36 360 06:59 25.11.2022
899 Clouds 8 1021 76 10000 5.36 360 06:59 25.11.2022
900 Clear 8 1021 76 10000 5.36 360 06:40 25.11.2022
901 Clear 8 1025 73 10000 4.92 188 01:25 25.11.2022
902 Clouds 10 1025 70 10000 4.47 150 22:59 24.11.2022
903 Clear 10 1026 64 10000 4.12 180 22:19 24.11.2022
904 Clear 12 1026 56 10000 3.6 190 21:26 24.11.2022
905 Clear 12 1027 56 10000 4.12 210 19:39 24.11.2022
906 Clear 10 1029 59 10000 2.06 0 17:46 24.11.2022
907 Clear 9 1029 60 10000 2.06 0 17:22 24.11.2022
908 Clear 8 1030 64 10000 2.57 40 16:19 24.11.2022
909 Clear 5 1030 71 10000 3.09 60 14:23 24.11.2022
910 Clear 4 1029 68 10000 2.57 40 12:38 24.11.2022
911 Clear 5 1029 64 10000 2.68 314 10:50 24.11.2022
912 Clear 5 1028 62 10000 4.92 76 08:32 24.11.2022
913 Clear 6 1027 54 10000 6.26 60 04:42 24.11.2022
914 Smoke 10 1024 44 10000 2.68 360 23:49 23.11.2022
915 Smoke 10 1024 42 10000 2.68 360 23:31 23.11.2022
916 Clear 13 1022 37 10000 4.92 295 21:44 23.11.2022
917 Clear 13 1022 36 10000 5.14 330 20:49 23.11.2022
918 Clear 13 1022 37 10000 5.36 292 19:33 23.11.2022
919 Clear 13 1022 37 10000 4.63 300 19:33 23.11.2022
920 Clear 12 1022 37 10000 5.14 330 18:48 23.11.2022
921 Clear 12 1023 40 10000 5.66 310 17:29 23.11.2022
922 Clear 12 1023 40 10000 5.66 310 17:29 23.11.2022
923 Clear 5 1022 54 10000 3.09 240 13:42 23.11.2022
924 Clear 4 1022 56 10000 3.58 360 13:21 23.11.2022
925 Clear 4 1022 55 10000 4.47 360 12:22 23.11.2022
926 Clear 4 1022 55 10000 4.02 360 11:45 23.11.2022
927 Clear 4 1021 54 10000 4.92 360 10:46 23.11.2022
928 Clear 5 1022 53 10000 4.47 360 09:45 23.11.2022
929 Clear 5 1021 52 10000 5.36 360 09:27 23.11.2022
930 Clear 5 1022 52 10000 5.81 360 08:58 23.11.2022
931 Clear 5 1022 51 10000 6.71 360 08:35 23.11.2022
932 Clear 6 1023 48 10000 5.81 360 05:19 23.11.2022
933 Clear 8 1024 45 10000 4.92 360 01:22 23.11.2022
934 Clear 10 1024 41 10000 5.14 240 22:37 22.11.2022
935 Clear 11 1024 38 10000 5.36 360 21:49 22.11.2022
936 Clear 11 1024 36 10000 4.63 250 21:23 22.11.2022
937 Clear 11 1024 37 10000 5.66 250 20:43 22.11.2022
938 Clear 10 1025 38 10000 6.26 258 19:45 22.11.2022
939 Clear 9 1027 42 10000 2.68 254 17:54 22.11.2022
940 Clear 7 1028 43 10000 4.12 310 16:39 22.11.2022
941 Clear 4 1029 51 10000 4.12 300 14:31 22.11.2022
942 Clear 2 1028 59 10000 4.02 360 12:51 22.11.2022
943 Clear 3 1027 62 10000 4.63 240 09:28 22.11.2022
944 Clear 3 1027 62 10000 4.63 240 09:28 22.11.2022
945 Clear 3 1027 64 10000 3.58 271 08:57 22.11.2022
946 Clear 3 1026 61 10000 7.2 240 06:44 22.11.2022
947 Clouds 4 1025 37 10000 8.49 219 00:54 22.11.2022
948 Clear 5 1025 32 10000 6.71 214 22:57 21.11.2022
949 Clear 5 1026 30 10000 6.69 200 22:24 21.11.2022
950 Clear 5 1026 30 10000 5.66 210 21:32 21.11.2022
951 Clear 5 1027 31 10000 6.17 230 20:31 21.11.2022
952 Clear 4 1028 34 10000 6.71 252 19:39 21.11.2022
953 Clear 4 1029 37 10000 2.68 262 18:52 21.11.2022
954 Clear 2 1031 41 10000 6.17 240 17:32 21.11.2022
955 Clear 1 1032 43 10000 4.63 210 16:43 21.11.2022
956 Clear 1 1032 43 10000 4.63 210 16:19 21.11.2022
957 Clear 0 1033 47 10000 6.26 271 15:23 21.11.2022
958 Smoke -2 1033 53 10000 4.92 259 13:54 21.11.2022
959 Smoke -3 1033 54 10000 4.63 240 13:27 21.11.2022
960 Clear -3 1031 54 10000 4.63 250 10:19 21.11.2022
961 Clear -3 1029 51 10000 5.14 290 08:19 21.11.2022
962 Clear -1 1026 39 10000 7.15 276 02:18 21.11.2022
963 Clouds 2 1021 33 10000 10.73 295 21:59 20.11.2022
964 Clear 2 1020 31 10000 11.32 300 20:48 20.11.2022
965 Clouds 2 1019 33 10000 10.28 289 19:57 20.11.2022
966 Clear 2 1019 34 10000 12.35 290 17:49 20.11.2022
967 Clear 1 1019 41 10000 10.28 279 15:52 20.11.2022
968 Clouds 1 1019 41 10000 12.52 300 15:24 20.11.2022
969 Clouds 1 1018 42 10000 12.96 290 14:25 20.11.2022
970 Clear 1 1017 43 10000 8.23 260 13:32 20.11.2022
971 Clear 1 1016 42 10000 8.49 284 12:25 20.11.2022
972 Clear 1 1016 51 10000 5.36 360 10:58 20.11.2022
973 Clouds 1 1016 58 10000 6.26 360 09:47 20.11.2022
974 Clear 1 1016 61 10000 4.92 360 08:59 20.11.2022
975 Clear 1 1016 62 10000 4.92 360 08:33 20.11.2022
976 Clouds 2 1016 63 10000 4.47 285 07:28 20.11.2022
977 Clear 3 1020 47 10000 2.57 210 01:31 20.11.2022
978 Clear 3 1020 46 10000 3.58 229 00:58 20.11.2022
979 Clear 3 1020 45 10000 6.26 360 00:39 20.11.2022
980 Clear 3 1020 45 10000 6.26 360 00:20 20.11.2022
981 Clear 3 1020 45 10000 6.17 230 23:47 19.11.2022
982 Clear 3 1020 44 10000 6.17 230 23:21 19.11.2022
983 Clear 4 1020 42 10000 8.05 269 22:28 19.11.2022
984 Clear 4 1020 40 10000 7.72 230 21:31 19.11.2022
985 Clear 5 1020 39 10000 9.83 263 20:42 19.11.2022
986 Clear 5 1020 40 10000 10.73 274 20:23 19.11.2022
987 Clear 4 1021 43 10000 8.49 282 18:55 19.11.2022
988 Clear 3 1023 46 10000 8.94 274 17:39 19.11.2022
989 Clear 3 1024 47 10000 7.6 282 17:19 19.11.2022
990 Clear 1 1024 53 10000 6.26 283 15:36 19.11.2022
991 Clear -1 1025 63 10000 4.92 272 13:46 19.11.2022
992 Clouds -1 1024 62 10000 3.58 288 11:57 19.11.2022
993 Clear 0 1023 58 10000 7.6 310 10:20 19.11.2022
994 Clear 1 1023 58 10000 8.05 276 08:38 19.11.2022
995 Clouds 2 1022 72 10000 5.14 270 04:50 19.11.2022
996 Clouds 4 1020 58 10000 10.28 360 01:55 19.11.2022
997 Clouds 5 1018 44 10000 8.23 230 23:44 18.11.2022
998 Clouds 6 1018 42 10000 8.49 259 22:35 18.11.2022
999 Clouds 6 1017 38 10000 8.49 263 21:37 18.11.2022
1000 Clouds 7 1017 39 10000 11.62 266 20:59 18.11.2022
1001 Clouds 7 1017 39 10000 9.83 270 20:26 18.11.2022
1002 Clouds 7 1018 38 10000 8.94 274 19:46 18.11.2022
1003 Clear 6 1018 42 10000 11.18 269 18:36 18.11.2022
1004 Clear 4 1020 49 10000 8.75 260 16:44 18.11.2022
1005 Clear 1 1020 65 10000 6.26 360 13:57 18.11.2022
1006 Clear 1 1019 69 10000 6.17 270 11:31 18.11.2022
1007 Clear 2 1019 66 10000 4.47 264 08:46 18.11.2022
1008 Clear 2 1020 64 10000 4.47 360 07:51 18.11.2022
1009 Clouds 3 1019 59 10000 6.17 250 05:18 18.11.2022
1010 Clouds 5 1017 51 10000 9.83 309 00:50 18.11.2022
1011 Clouds 6 1014 50 10000 10.73 288 21:52 17.11.2022
1012 Clear 7 1013 45 10000 11.18 278 20:46 17.11.2022
1013 Clouds 8 1013 47 10000 9.83 269 19:51 17.11.2022
1014 Clouds 7 1013 49 10000 10.73 286 18:35 17.11.2022
1015 Clouds 7 1013 52 10000 9.77 300 17:32 17.11.2022
1016 Clouds 6 1013 54 10000 9.77 270 16:53 17.11.2022
1017 Clouds 4 1013 64 10000 9.39 267 14:40 17.11.2022
1018 Clouds 3 1012 68 10000 8.23 270 11:22 17.11.2022
1019 Clouds 3 1012 68 10000 8.23 270 11:22 17.11.2022
1020 Clear 3 1013 68 10000 6.69 270 08:32 17.11.2022
1021 Clear 4 1014 63 10000 6.71 360 05:30 17.11.2022
1022 Clouds 8 1013 58 10000 8.94 283 00:21 17.11.2022
1023 Clouds 8 1012 61 10000 9.83 289 22:30 16.11.2022
1024 Clouds 10 1012 61 10000 10.73 283 20:54 16.11.2022
1025 Clouds 10 1011 66 10000 8.94 281 19:54 16.11.2022
1026 Clouds 9 1011 72 10000 10.29 290 18:45 16.11.2022
1027 Clouds 8 1012 78 10000 8.94 286 17:26 16.11.2022
1028 Mist 5 1012 91 6437 6.26 295 13:59 16.11.2022
1029 Mist 7 1013 90 4828 8.94 34 09:56 16.11.2022
1030 Rain 5 1018 92 4023 13.41 50 06:38 16.11.2022
1031 Rain 6 1025 78 8047 6.69 60 01:26 16.11.2022
1032 Clouds 7 1027 65 10000 7.2 70 22:33 15.11.2022
1033 Clouds 7 1028 57 10000 6.26 57 20:45 15.11.2022
1034 Clouds 7 1028 54 10000 6.26 56 19:34 15.11.2022
1035 Clouds 7 1030 53 10000 4.63 40 18:42 15.11.2022
1036 Clouds 6 1031 55 10000 5.36 54 17:22 15.11.2022
1037 Clouds 5 1032 56 10000 4.12 30 16:19 15.11.2022
1038 Clouds 4 1032 61 10000 4.02 49 14:54 15.11.2022
1039 Clouds 3 1031 62 10000 4.92 63 13:38 15.11.2022
1040 Clear 2 1032 63 10000 5.14 10 11:43 15.11.2022
1041 Clear 2 1032 63 10000 5.14 10 11:18 15.11.2022
1042 Clouds 3 1030 60 10000 4.47 53 08:52 15.11.2022
1043 Clear 5 1028 52 10000 5.81 322 00:37 15.11.2022
1044 Clear 6 1028 51 10000 4.92 316 23:56 14.11.2022
1045 Clear 7 1026 45 10000 5.14 280 21:35 14.11.2022
1046 Clear 8 1026 45 10000 6.71 318 20:40 14.11.2022
1047 Clear 7 1026 47 10000 4.02 324 18:52 14.11.2022
1048 Clear 5 1027 52 10000 6.69 330 15:54 14.11.2022
1049 Clear 3 1025 57 10000 6.71 307 12:55 14.11.2022
1050 Clouds 4 1024 64 10000 5.66 300 11:42 14.11.2022
1051 Clear 4 1022 63 10000 6.17 290 09:32 14.11.2022
1052 Clear 4 1021 61 10000 6.71 296 07:54 14.11.2022
1053 Clear 5 1021 57 10000 7.15 296 06:43 14.11.2022
1054 Clouds 9 1016 53 10000 10.29 290 00:19 14.11.2022
1055 Clouds 10 1013 50 10000 9.83 278 22:39 13.11.2022
1056 Clouds 11 1012 49 10000 9.77 330 21:40 13.11.2022
1057 Clouds 11 1011 53 10000 9.39 298 20:22 13.11.2022
1058 Clouds 11 1011 60 10000 8.94 289 18:28 13.11.2022
1059 Clouds 10 1011 64 10000 7.72 330 17:49 13.11.2022
1060 Clouds 9 1011 82 10000 6.17 340 15:20 13.11.2022
1061 Rain 9 1011 85 10000 8.94 310 14:30 13.11.2022
1062 Clouds 10 1009 83 9656 5.36 339 12:55 13.11.2022
1063 Clouds 12 1009 84 10000 6.17 340 11:34 13.11.2022
1064 Clouds 14 1007 79 10000 5.81 349 09:44 13.11.2022
1065 Rain 16 1007 72 10000 2.06 100 05:52 13.11.2022
1066 Clear 18 1006 62 10000 3.6 240 23:44 12.11.2022
1067 Clear 20 1005 55 10000 4.63 300 21:24 12.11.2022
1068 Clear 20 1004 56 10000 6.17 290 20:25 12.11.2022
1069 Clouds 20 1004 59 10000 9.26 290 18:56 12.11.2022
1070 Clear 20 1003 68 10000 11.18 288 16:52 12.11.2022
1071 Clouds 20 1002 72 10000 9.39 283 15:37 12.11.2022
1072 Mist 19 998 87 9656 10.28 299 13:32 12.11.2022
1073 Mist 21 997 88 9656 9.26 170 09:39 12.11.2022
1074 Clouds 20 1001 89 10000 7.6 137 07:47 12.11.2022
1075 Rain 19 1008 94 3219 9.26 160 23:37 11.11.2022
1076 Rain 18 1012 91 4828 7.6 142 20:56 11.11.2022
1077 Rain 18 1013 91 4828 6.26 129 20:30 11.11.2022
1078 Rain 18 1014 90 4828 5.81 117 19:27 11.11.2022
1079 Mist 18 1015 88 4828 4.12 50 18:32 11.11.2022
1080 Rain 18 1017 84 4828 3.6 50 17:40 11.11.2022
1081 Rain 18 1017 84 4828 3.6 50 17:40 11.11.2022
1082 Clouds 15 1019 86 10000 3.09 50 14:31 11.11.2022
1083 Clouds 15 1019 87 10000 2.68 360 13:55 11.11.2022
1084 Clouds 14 1019 88 10000 3.58 360 12:26 11.11.2022
1085 Clouds 14 1022 86 10000 2.68 360 08:59 11.11.2022
1086 Clouds 14 1022 84 10000 2.68 118 08:26 11.11.2022
1087 Clear 15 1025 82 10000 4.63 190 00:39 11.11.2022
1088 Clear 16 1025 76 10000 1.34 143 22:53 10.11.2022
1089 Clear 18 1025 62 10000 4.63 230 21:50 10.11.2022
1090 Clear 19 1025 59 10000 4.63 230 21:27 10.11.2022
1091 Clear 19 1026 56 10000 5.66 230 20:43 10.11.2022
1092 Clear 19 1026 56 10000 5.66 230 20:19 10.11.2022
1093 Clear 18 1028 57 10000 3.6 240 18:50 10.11.2022
1094 Clear 17 1028 61 10000 5.14 230 17:44 10.11.2022
1095 Clear 14 1029 67 10000 3.6 220 16:25 10.11.2022
1096 Clear 8 1030 78 10000 3.13 360 13:37 10.11.2022
1097 Clear 9 1030 78 10000 3.13 186 09:53 10.11.2022
1098 Clear 8 1031 77 10000 1.54 280 08:20 10.11.2022
1099 Clear 9 1035 71 10000 3.13 360 01:21 10.11.2022
1100 Clear 10 1035 66 10000 4.12 170 23:21 09.11.2022
1101 Clear 11 1035 57 10000 2.68 179 21:57 09.11.2022
1102 Clear 12 1037 46 10000 2.57 270 20:46 09.11.2022
1103 Clear 12 1037 45 10000 2.57 270 20:28 09.11.2022
1104 Clear 12 1037 43 10000 3.09 220 19:29 09.11.2022
1105 Clear 10 1038 45 10000 2.57 30 17:50 09.11.2022
1106 Clear 8 1038 50 10000 4.12 20 15:45 09.11.2022
1107 Clear 6 1039 52 10000 4.47 41 14:41 09.11.2022
1108 Clear 6 1039 52 10000 5.81 68 14:22 09.11.2022
1109 Clouds 5 1038 53 10000 1.34 62 12:57 09.11.2022
1110 Clear 6 1037 45 10000 6.71 34 09:45 09.11.2022
1111 Clear 7 1037 43 10000 7.6 13 07:47 09.11.2022
1112 Clear 7 1037 42 10000 7.6 23 06:55 09.11.2022
1113 Clear 13 1034 30 10000 9.39 358 23:27 08.11.2022
1114 Clouds 15 1033 26 10000 8.94 42 21:44 08.11.2022
1115 Clouds 15 1033 26 10000 10.28 51 21:23 08.11.2022
1116 Clear 15 1033 27 10000 8.49 44 20:40 08.11.2022
1117 Clear 15 1033 29 10000 6.17 350 19:36 08.11.2022
1118 Clear 14 1033 34 10000 8.23 350 18:23 08.11.2022
1119 Clear 11 1034 43 10000 6.17 30 16:20 08.11.2022
1120 Clear 10 1034 50 10000 6.69 330 14:55 08.11.2022
1121 Clear 8 1033 55 10000 5.66 350 13:36 08.11.2022
1122 Clear 8 1032 56 10000 4.63 340 12:40 08.11.2022
1123 Clear 10 1030 50 10000 7.72 320 09:18 08.11.2022
1124 Clear 11 1029 44 10000 8.49 345 07:25 08.11.2022
1125 Clear 20 1022 23 10000 5.14 310 00:33 08.11.2022
1126 Clear 23 1021 25 10000 8.49 304 22:24 07.11.2022
1127 Clear 24 1021 31 10000 7.2 310 21:21 07.11.2022
1128 Clear 25 1020 31 10000 8.23 300 20:33 07.11.2022
1129 Clear 25 1021 47 10000 6.26 296 17:52 07.11.2022
1130 Clear 24 1021 48 10000 7.6 289 17:19 07.11.2022
1131 Clear 22 1022 77 10000 5.66 250 15:35 07.11.2022
1132 Clouds 21 1022 82 10000 5.14 230 14:47 07.11.2022
1133 Clouds 19 1022 85 10000 4.92 360 12:38 07.11.2022
1134 Clouds 20 1021 84 10000 6.71 360 11:30 07.11.2022
1135 Clear 20 1021 83 10000 6.17 200 09:36 07.11.2022
1136 Clouds 20 1021 82 10000 4.12 180 07:50 07.11.2022
1137 Clouds 20 1022 81 10000 4.12 190 04:27 07.11.2022
1138 Clear 20 1022 81 10000 4.12 180 01:29 07.11.2022
1139 Clouds 22 1021 75 10000 4.92 159 22:26 06.11.2022
1140 Clouds 22 1022 76 10000 4.12 180 21:20 06.11.2022
1141 Clouds 22 1022 76 10000 3.6 170 20:32 06.11.2022
1142 Clouds 22 1023 76 10000 2.24 360 19:55 06.11.2022
1143 Clouds 22 1023 73 10000 6.69 210 18:41 06.11.2022
1144 Clouds 23 1023 73 10000 6.69 210 18:41 06.11.2022
1145 Clouds 23 1023 73 10000 6.69 210 18:19 06.11.2022
1146 Clouds 23 1023 72 10000 5.81 147 17:22 06.11.2022
1147 Clouds 22 1024 74 10000 4.92 156 16:40 06.11.2022
1148 Clouds 22 1024 78 10000 4.02 160 15:53 06.11.2022
1149 Clouds 19 1024 85 10000 4.47 360 14:24 06.11.2022
1150 Clear 18 1023 87 10000 4.02 360 12:39 06.11.2022
1151 Clear 18 1022 86 10000 5.81 360 10:48 06.11.2022
1152 Clouds 18 1022 86 10000 6.26 155 09:30 06.11.2022
1153 Clouds 18 1023 87 10000 5.36 360 06:39 06.11.2022
1154 Clear 20 1022 76 10000 7.2 170 23:22 05.11.2022
1155 Clouds 24 1022 66 10000 4.92 360 19:57 05.11.2022
1156 Clouds 24 1024 65 10000 5.81 360 18:20 05.11.2022
1157 Clear 22 1026 73 10000 4.63 190 16:21 05.11.2022
1158 Clouds 18 1025 86 10000 4.92 178 14:34 05.11.2022
1159 Clouds 17 1024 92 10000 3.09 200 13:18 05.11.2022
1160 Fog 16 1024 89 10000 4.47 360 10:42 05.11.2022
1161 Fog 16 1025 89 10000 3.13 152 08:48 05.11.2022
1162 Fog 16 1025 88 10000 4.02 360 07:22 05.11.2022
1163 Fog 16 1025 88 10000 4.47 360 06:54 05.11.2022
1164 Clear 18 1026 80 10000 3.09 170 23:35 04.11.2022
1165 Clouds 20 1026 73 10000 5.66 160 22:35 04.11.2022
1166 Clear 21 1026 64 10000 4.12 210 20:29 04.11.2022
1167 Clear 21 1026 64 10000 4.12 210 20:29 04.11.2022
1168 Clear 21 1026 64 10000 4.12 210 20:27 04.11.2022
1169 Clear 21 1027 63 10000 4.12 210 20:26 04.11.2022
1170 Haze 19 1029 74 6437 1.79 225 17:46 04.11.2022
1171 Haze 17 1029 79 6437 0.89 298 16:46 04.11.2022
1172 Mist 12 1029 89 6437 2.57 50 13:46 04.11.2022
1173 Fog 11 1028 88 10000 3.09 10 12:26 04.11.2022
1174 Fog 11 1028 88 10000 3.09 360 10:38 04.11.2022
1175 Fog 12 1027 86 10000 2.06 80 08:45 04.11.2022
1176 Clear 12 1027 89 10000 1.54 60 07:42 04.11.2022
1177 Clear 13 1028 82 10000 4.47 360 03:51 04.11.2022
1178 Clear 17 1027 61 10000 3.6 180 22:50 03.11.2022
1179 Clear 19 1028 52 10000 4.63 160 20:50 03.11.2022
1180 Clear 19 1028 51 10000 4.63 160 20:22 03.11.2022
1181 Clouds 19 1029 48 10000 3.6 180 19:27 03.11.2022
1182 Clear 19 1029 55 10000 2.68 206 17:49 03.11.2022
1183 Clear 18 1030 61 10000 2.57 30 16:52 03.11.2022
1184 Clear 13 1030 79 10000 2.57 10 14:19 03.11.2022
1185 Clear 11 1030 78 10000 2.57 40 12:39 03.11.2022
1186 Clear 11 1030 78 10000 2.06 20 11:47 03.11.2022
1187 Clear 12 1029 72 10000 1.54 10 09:25 03.11.2022
1188 Clear 13 1028 71 10000 1.54 160 07:43 03.11.2022
1189 Clear 21 1025 41 10000 2.24 32 21:30 02.11.2022
1190 Clear 21 1025 41 10000 3.09 10 20:39 02.11.2022
1191 Clear 21 1026 43 10000 3.09 0 19:56 02.11.2022
1192 Clear 19 1026 53 10000 7.2 10 17:18 02.11.2022
1193 Clear 17 1026 63 10000 7.2 20 15:54 02.11.2022
1194 Fog 15 1026 69 10000 4.92 340 14:47 02.11.2022
1195 Fog 13 1024 77 10000 3.58 349 12:44 02.11.2022
1196 Fog 13 1023 76 10000 3.13 319 11:39 02.11.2022
1197 Fog 14 1022 81 10000 3.09 340 09:22 02.11.2022
1198 Clear 15 1019 82 10000 4.12 310 05:35 02.11.2022
1199 Clear 17 1017 79 10000 4.63 310 00:27 02.11.2022
1200 Clouds 19 1016 72 10000 5.14 320 22:19 01.11.2022
1201 Clouds 20 1015 72 10000 4.92 306 21:38 01.11.2022
1202 Clouds 19 1015 73 10000 4.63 320 20:26 01.11.2022
1203 Clouds 19 1015 76 10000 4.63 260 19:43 01.11.2022
1204 Clouds 19 1015 80 10000 3.58 271 18:53 01.11.2022
1205 Clouds 18 1015 85 10000 3.13 253 17:33 01.11.2022
1206 Mist 17 1016 91 8047 3.6 260 16:22 01.11.2022
1207 Mist 16 1016 94 4828 4.12 230 14:29 01.11.2022
1208 Clouds 15 1015 91 10000 3.6 190 12:29 01.11.2022
1209 Mist 15 1015 92 6437 3.13 208 11:24 01.11.2022
1210 Mist 15 1015 94 4828 2.68 153 10:57 01.11.2022
1211 Rain 15 1016 93 4023 1.79 223 08:44 01.11.2022
1212 Clouds 15 1016 91 10000 2.57 190 07:46 01.11.2022
1213 Clouds 15 1016 91 10000 2.57 190 07:26 01.11.2022
1214 Mist 15 1016 93 4828 3.13 171 06:44 01.11.2022
1215 Rain 16 1017 86 10000 2.57 210 03:55 01.11.2022
1216 Clear 17 1016 71 10000 5.14 180 22:22 31.10.2022
1217 Clouds 17 1015 68 10000 4.47 169 21:26 31.10.2022
1218 Clouds 18 1015 66 10000 5.66 230 19:56 31.10.2022
1219 Clear 17 1018 65 10000 4.12 230 18:28 31.10.2022
1220 Clear 16 1018 71 10000 2.57 240 16:43 31.10.2022
1221 Clouds 11 1019 81 10000 3.58 360 13:49 31.10.2022
1222 Clouds 11 1019 81 10000 3.58 302 11:57 31.10.2022
1223 Clouds 12 1019 83 10000 2.06 60 09:28 31.10.2022
1224 Clear 12 1020 79 10000 3.09 280 05:39 31.10.2022
1225 Clear 12 1021 70 10000 3.13 200 02:34 31.10.2022
1226 Clear 13 1021 56 10000 3.58 155 00:34 31.10.2022
1227 Clear 17 1021 39 10000 3.6 50 21:45 30.10.2022
1228 Clear 17 1022 36 10000 2.68 199 20:37 30.10.2022
1229 Clear 17 1022 36 10000 2.68 199 20:37 30.10.2022
1230 Clear 17 1023 37 10000 2.57 40 19:31 30.10.2022
1231 Clear 13 1025 52 10000 2.06 70 16:26 30.10.2022
1232 Clear 9 1026 72 10000 2.06 20 14:23 30.10.2022
1233 Clear 8 1026 73 10000 1.54 250 13:33 30.10.2022
1234 Clear 8 1025 69 10000 2.06 40 11:56 30.10.2022
1235 Clear 9 1026 73 10000 0.89 360 09:56 30.10.2022
1236 Clear 8 1026 72 10000 2.68 304 08:54 30.10.2022
1237 Clear 9 1027 72 10000 2.68 307 07:27 30.10.2022
1238 Clear 13 1029 54 10000 3.13 24 00:29 30.10.2022
1239 Clear 14 1029 45 10000 2.06 30 23:46 29.10.2022
1240 Clouds 16 1030 41 10000 1.79 360 21:56 29.10.2022
1241 Clear 13 1032 58 10000 4.12 60 18:38 29.10.2022
1242 Clear 11 1033 64 10000 3.6 360 17:22 29.10.2022
1243 Clear 9 1032 72 10000 5.14 360 15:38 29.10.2022
1244 Clear 8 1031 73 10000 1.34 312 14:52 29.10.2022
1245 Clear 7 1031 73 10000 3.6 20 13:29 29.10.2022
1246 Clear 7 1032 71 10000 5.36 53 12:32 29.10.2022
1247 Clouds 8 1032 73 10000 3.09 20 08:56 29.10.2022
1248 Clear 9 1033 66 10000 3.13 300 06:50 29.10.2022
1249 Clear 10 1033 64 10000 2.57 360 05:53 29.10.2022
1250 Clear 13 1032 46 10000 4.12 40 23:44 28.10.2022
1251 Clear 14 1032 44 10000 7.15 58 21:37 28.10.2022
1252 Clouds 13 1031 49 10000 4.63 40 19:59 28.10.2022
1253 Clear 12 1034 52 10000 8.23 40 18:33 28.10.2022
1254 Clouds 12 1032 55 10000 7.15 54 17:52 28.10.2022
1255 Clear 9 1033 62 10000 8.49 61 15:28 28.10.2022
1256 Clear 7 1032 65 10000 8.49 17 13:43 28.10.2022
1257 Clear 8 1031 63 10000 8.05 37 11:56 28.10.2022
1258 Clear 8 1030 63 10000 8.94 18 11:33 28.10.2022
1259 Clear 8 1030 62 10000 5.81 18 10:45 28.10.2022
1260 Clear 9 1029 60 10000 8.75 360 09:44 28.10.2022
1261 Clear 10 1029 56 10000 6.26 20 07:51 28.10.2022
1262 Clear 14 1025 43 10000 7.2 10 02:58 28.10.2022
1263 Clear 18 1022 37 10000 7.72 340 23:47 27.10.2022
1264 Clear 18 1021 38 10000 7.72 360 22:39 27.10.2022
1265 Clear 18 1020 39 10000 8.23 320 21:33 27.10.2022
1266 Clear 17 1019 52 10000 7.72 330 18:34 27.10.2022
1267 Clear 16 1019 55 10000 8.94 323 17:28 27.10.2022
1268 Clear 13 1015 76 10000 8.05 311 13:34 27.10.2022
1269 Clouds 14 1011 82 10000 4.02 246 08:58 27.10.2022
1270 Clouds 18 1008 82 10000 7.15 285 03:40 27.10.2022
1271 Clouds 19 1006 87 10000 4.63 180 23:54 26.10.2022
1272 Clouds 21 1007 80 10000 4.02 360 22:47 26.10.2022
1273 Clouds 21 1007 79 10000 3.6 230 22:22 26.10.2022
1274 Haze 20 1008 88 10000 2.57 270 19:27 26.10.2022
1275 Mist 18 1010 94 9656 2.06 80 16:35 26.10.2022
1276 Mist 17 1011 94 6437 2.06 80 14:33 26.10.2022
1277 Mist 17 1012 95 4023 2.06 60 12:37 26.10.2022
1278 Mist 18 1014 95 2414 0 0 09:41 26.10.2022
1279 Mist 18 1014 94 2816 2.06 30 08:53 26.10.2022
1280 Mist 18 1014 94 4828 3.09 40 08:22 26.10.2022
1281 Mist 19 1016 90 10000 4.47 105 00:45 26.10.2022
1282 Mist 19 1016 89 10000 4.47 115 00:21 26.10.2022
1283 Mist 21 1017 89 10000 3.6 150 21:52 25.10.2022
1284 Mist 21 1017 89 10000 1.79 360 21:22 25.10.2022
1285 Mist 20 1018 93 6437 4.63 50 19:40 25.10.2022
1286 Mist 19 1019 95 1207 3.58 93 17:51 25.10.2022
1287 Fog 17 1019 94 805 2.57 40 14:37 25.10.2022
1288 Fog 17 1019 94 805 2.06 20 11:38 25.10.2022
1289 Fog 17 1019 94 805 3.6 20 10:37 25.10.2022
1290 Fog 16 1018 94 805 3.6 20 09:53 25.10.2022
1291 Mist 16 1019 94 1609 5.14 50 08:19 25.10.2022
1292 Mist 16 1019 94 2414 5.66 50 07:54 25.10.2022
1293 Mist 16 1019 93 8047 5.14 40 06:57 25.10.2022
1294 Rain 16 1019 95 2816 6.69 50 03:48 25.10.2022
1295 Clouds 16 1019 93 10000 6.71 38 00:40 25.10.2022
1296 Mist 16 1019 93 8047 7.2 50 23:49 24.10.2022
1297 Mist 16 1019 93 3219 5.14 50 22:24 24.10.2022
1298 Mist 15 1020 93 10000 6.17 50 21:33 24.10.2022
1299 Mist 15 1020 93 10000 7.72 40 20:42 24.10.2022
1300 Mist 14 1021 94 8047 7.72 60 18:53 24.10.2022
1301 Mist 14 1021 94 9656 6.69 40 17:51 24.10.2022
1302 Mist 13 1021 95 6437 6.69 40 16:45 24.10.2022
1303 Mist 13 1021 95 4828 5.81 40 14:23 24.10.2022
1304 Mist 13 1021 95 4023 5.36 355 13:41 24.10.2022
1305 Mist 13 1021 94 9656 6.17 30 11:55 24.10.2022
1306 Clouds 13 1021 90 10000 7.2 40 08:50 24.10.2022
1307 Rain 14 1023 75 10000 9.26 50 00:55 24.10.2022
1308 Clouds 16 1024 64 10000 7.15 57 21:24 23.10.2022
1309 Rain 15 1024 70 10000 5.36 45 19:53 23.10.2022
1310 Rain 15 1024 67 10000 8.94 46 18:25 23.10.2022
1311 Rain 15 1025 68 10000 7.6 56 17:27 23.10.2022
1312 Clouds 14 1026 74 10000 4.47 355 15:21 23.10.2022
1313 Clouds 13 1025 78 10000 5.36 15 13:22 23.10.2022
1314 Clouds 13 1025 79 10000 3.6 20 11:18 23.10.2022
1315 Clouds 13 1025 74 10000 4.02 39 08:59 23.10.2022
1316 Clear 15 1024 56 10000 3.09 130 00:33 23.10.2022
1317 Clear 18 1024 47 10000 4.63 180 22:32 22.10.2022
1318 Clear 18 1024 46 10000 4.47 155 21:42 22.10.2022
1319 Clear 19 1024 47 10000 2.24 145 20:55 22.10.2022
1320 Clear 19 1025 43 10000 4.12 170 19:46 22.10.2022
1321 Clear 19 1025 43 10000 4.12 170 19:27 22.10.2022
1322 Clear 16 1025 56 10000 2.06 40 17:37 22.10.2022
1323 Clear 14 1025 65 10000 0.89 190 15:57 22.10.2022
1324 Fog 10 1024 75 10000 4.47 225 14:44 22.10.2022
1325 Clear 10 1024 77 10000 3.13 360 13:45 22.10.2022
1326 Clear 9 1024 76 10000 3.13 360 13:45 22.10.2022
1327 Clear 10 1022 72 10000 3.58 360 10:26 22.10.2022
1328 Clear 11 1022 71 10000 4.47 171 09:39 22.10.2022
1329 Clear 11 1023 68 10000 3.13 360 08:29 22.10.2022
1330 Clear 13 1021 61 10000 4.92 183 03:42 22.10.2022
1331 Clear 16 1020 38 10000 5.66 180 23:51 21.10.2022
1332 Clear 17 1019 29 10000 3.09 240 21:35 21.10.2022
1333 Clear 18 1018 32 10000 1.34 187 20:59 21.10.2022
1334 Clear 17 1020 34 10000 2.24 284 19:36 21.10.2022
1335 Clear 13 1021 57 10000 1.79 324 16:51 21.10.2022
1336 Clear 9 1019 70 10000 1.79 303 13:59 21.10.2022
1337 Clear 9 1019 71 10000 2.68 302 12:59 21.10.2022
1338 Clear 8 1018 72 10000 1.79 360 11:33 21.10.2022
1339 Clear 9 1017 71 10000 3.09 280 10:20 21.10.2022
1340 Clear 10 1017 68 10000 3.6 210 08:39 21.10.2022
1341 Clear 10 1017 65 10000 3.6 210 07:32 21.10.2022
1342 Clear 12 1014 47 10000 6.26 195 01:20 21.10.2022
1343 Clear 15 1013 33 10000 7.2 210 22:26 20.10.2022
1344 Clear 15 1014 35 10000 9.77 220 20:38 20.10.2022
1345 Clear 14 1014 38 10000 7.72 220 19:39 20.10.2022
1346 Clear 13 1015 47 10000 6.26 238 17:54 20.10.2022
1347 Clear 12 1016 49 10000 8.05 252 17:33 20.10.2022
1348 Clear 6 1015 73 10000 5.14 220 13:22 20.10.2022
1349 Clear 6 1015 71 10000 5.36 360 12:28 20.10.2022
1350 Clear 6 1014 70 10000 5.14 250 11:23 20.10.2022
1351 Clear 7 1014 70 10000 6.26 360 10:50 20.10.2022
1352 Clear 7 1014 65 10000 7.6 283 08:27 20.10.2022
1353 Clear 9 1013 59 10000 6.69 240 05:45 20.10.2022
1354 Clouds 9 1012 54 10000 4.02 360 01:52 20.10.2022
1355 Clouds 12 1010 45 10000 7.2 240 22:46 19.10.2022
1356 Clouds 12 1009 45 10000 5.81 255 21:59 19.10.2022
1357 Clear 12 1009 44 10000 8.49 263 21:18 19.10.2022
1358 Clear 11 1009 47 10000 8.49 266 18:53 19.10.2022
1359 Clear 10 1010 50 10000 8.23 240 17:39 19.10.2022
1360 Clear 9 1011 60 10000 6.17 230 16:21 19.10.2022
1361 Clear 5 1009 75 10000 4.47 261 13:53 19.10.2022
1362 Clear 6 1008 70 10000 6.26 219 10:23 19.10.2022
1363 Clear 7 1008 66 10000 5.81 259 08:35 19.10.2022
1364 Clear 7 1008 64 10000 4.47 360 07:21 19.10.2022
1365 Clear 11 1005 53 10000 5.14 300 01:29 19.10.2022
1366 Clouds 13 1004 46 10000 7.2 290 23:22 18.10.2022
1367 Clouds 14 1003 43 10000 8.05 262 21:48 18.10.2022
1368 Clouds 14 1003 43 10000 7.6 266 21:18 18.10.2022
1369 Clouds 14 1004 44 10000 5.14 270 20:24 18.10.2022
1370 Clouds 12 1005 49 10000 6.17 240 18:32 18.10.2022
1371 Clouds 10 1004 50 10000 2.24 307 16:55 18.10.2022
1372 Clouds 9 1003 50 10000 6.26 295 14:58 18.10.2022
1373 Clouds 9 1003 51 10000 4.63 290 13:38 18.10.2022
1374 Clouds 10 1003 52 10000 4.63 320 11:39 18.10.2022
1375 Clouds 10 1002 56 10000 5.14 310 10:24 18.10.2022
1376 Clouds 11 1002 66 10000 5.14 300 08:40 18.10.2022
1377 Mist 13 1002 89 8047 3.09 270 05:45 18.10.2022
1378 Mist 13 1002 89 8047 3.09 270 05:45 18.10.2022
1379 Clouds 19 1002 71 10000 6.69 170 23:25 17.10.2022
1380 Clouds 19 1002 66 10000 6.26 169 21:28 17.10.2022
1381 Clouds 19 1003 68 10000 5.36 203 20:45 17.10.2022
1382 Clouds 19 1003 69 10000 5.14 220 20:27 17.10.2022
1383 Clouds 18 1004 72 10000 5.66 210 19:37 17.10.2022
1384 Clouds 17 1005 75 10000 5.14 210 17:40 17.10.2022
1385 Clouds 15 1006 85 8047 5.36 196 15:54 17.10.2022
1386 Clouds 14 1007 85 10000 4.47 360 14:36 17.10.2022
1387 Clouds 13 1008 86 10000 3.13 360 12:42 17.10.2022
1388 Clear 14 1010 63 10000 1.54 0 07:34 17.10.2022
1389 Clear 17 1011 51 10000 3.6 230 00:28 17.10.2022
1390 Clear 19 1012 44 10000 3.6 290 22:34 16.10.2022
1391 Clouds 18 1013 48 10000 2.57 310 21:21 16.10.2022
1392 Clear 17 1014 52 10000 2.68 290 19:51 16.10.2022
1393 Clear 17 1014 54 10000 2.24 293 19:24 16.10.2022
1394 Clear 16 1015 61 10000 3.09 10 17:44 16.10.2022
1395 Clear 14 1016 66 10000 3.6 30 16:26 16.10.2022
1396 Clouds 13 1015 71 10000 5.14 20 15:53 16.10.2022
1397 Clear 13 1014 81 10000 2.57 310 12:25 16.10.2022
1398 Clear 13 1014 81 10000 3.6 310 11:27 16.10.2022
1399 Clear 13 1014 81 10000 3.13 360 10:26 16.10.2022
1400 Clear 15 1015 70 10000 4.63 200 04:52 16.10.2022
1401 Clear 19 1014 57 10000 8.23 170 23:43 15.10.2022
1402 Clear 20 1013 51 10000 8.49 151 21:53 15.10.2022
1403 Clear 20 1014 48 10000 8.94 153 21:18 15.10.2022
1404 Clear 20 1015 45 10000 5.81 155 19:32 15.10.2022
1405 Clear 18 1017 59 10000 4.47 360 17:24 15.10.2022
1406 Clear 18 1017 59 10000 4.47 360 17:24 15.10.2022
1407 Clear 15 1018 69 10000 1.54 80 15:45 15.10.2022
1408 Clear 11 1016 79 10000 2.57 20 13:27 15.10.2022
1409 Clear 12 1017 69 10000 2.57 310 11:50 15.10.2022
1410 Clear 12 1017 67 10000 2.68 319 09:43 15.10.2022
1411 Clear 13 1017 66 10000 2.57 320 07:38 15.10.2022
1412 Clear 17 1013 49 10000 2.06 330 00:41 15.10.2022
1413 Clear 20 1012 38 10000 2.68 324 22:59 14.10.2022
1414 Clear 20 1012 38 10000 4.63 320 22:22 14.10.2022
1415 Clear 19 1012 42 10000 4.63 320 20:53 14.10.2022
1416 Clear 18 1012 59 10000 5.14 320 19:22 14.10.2022
1417 Clouds 14 1012 79 10000 6.69 310 16:19 14.10.2022
1418 Clouds 12 1008 88 10000 4.12 10 13:20 14.10.2022
1419 Clouds 12 1008 91 10000 4.47 27 11:36 14.10.2022
1420 Rain 12 1009 93 4828 6.69 330 08:59 14.10.2022
1421 Rain 12 1009 91 3219 6.17 360 06:53 14.10.2022
1422 Rain 13 1009 90 4023 6.17 360 06:18 14.10.2022
1423 Mist 16 1009 90 4828 6.69 310 05:42 14.10.2022
1424 Mist 19 1007 92 6437 7.15 138 03:24 14.10.2022
1425 Rain 19 1008 89 10000 7.6 148 23:43 13.10.2022
1426 Clouds 20 1008 87 10000 8.49 154 22:21 13.10.2022
1427 Clouds 20 1008 86 10000 8.05 143 21:21 13.10.2022
1428 Clouds 19 1010 83 10000 9.39 139 19:43 13.10.2022
1429 Rain 20 1011 81 10000 9.83 157 18:53 13.10.2022
1430 Clouds 20 1012 80 10000 9.83 142 18:22 13.10.2022
1431 Clouds 19 1013 80 10000 9.39 158 16:28 13.10.2022
1432 Fog 19 1013 79 10000 6.71 360 15:42 13.10.2022
1433 Fog 17 1013 86 10000 5.36 360 14:18 13.10.2022
1434 Fog 17 1014 89 10000 5.81 360 12:45 13.10.2022
1435 Fog 16 1014 87 10000 4.47 360 11:34 13.10.2022
1436 Clear 16 1016 84 10000 3.58 360 09:21 13.10.2022
1437 Clouds 16 1017 86 10000 4.02 360 07:39 13.10.2022
1438 Clear 16 1018 84 10000 6.71 360 06:29 13.10.2022
1439 Clear 17 1019 73 10000 7.15 165 01:47 13.10.2022
1440 Clear 17 1019 72 10000 7.6 164 00:45 13.10.2022
1441 Clear 19 1019 62 10000 8.94 154 22:46 12.10.2022
1442 Clouds 20 1019 59 10000 8.05 158 21:55 12.10.2022
1443 Clear 21 1021 53 10000 7.2 170 21:20 12.10.2022
1444 Clear 21 1021 50 10000 6.17 190 20:46 12.10.2022
1445 Clear 21 1023 48 10000 5.66 180 19:26 12.10.2022
1446 Clear 20 1024 48 10000 4.63 240 18:21 12.10.2022
1447 Clear 20 1024 49 10000 3.6 210 17:47 12.10.2022
1448 Clear 16 1024 64 10000 2.57 210 15:35 12.10.2022
1449 Clouds 13 1024 74 10000 4.92 360 13:55 12.10.2022
1450 Fog 13 1024 72 10000 3.58 360 12:34 12.10.2022
1451 Clear 14 1024 70 10000 4.02 215 09:40 12.10.2022
1452 Clear 14 1025 68 10000 3.13 180 07:42 12.10.2022
1453 Clear 15 1025 69 10000 3.13 360 06:55 12.10.2022
1454 Clear 15 1025 68 10000 3.13 360 06:37 12.10.2022
1455 Clear 18 1024 68 10000 2.68 185 00:58 12.10.2022
1456 Clear 22 1024 45 10000 4.02 182 21:59 11.10.2022
1457 Clear 22 1025 44 10000 4.63 240 20:39 11.10.2022
1458 Clear 20 1027 49 10000 2.68 271 18:46 11.10.2022
1459 Clear 16 1027 62 10000 3.09 320 16:38 11.10.2022
1460 Clear 12 1027 73 10000 3.09 320 14:35 11.10.2022
1461 Clear 11 1025 73 10000 2.24 293 12:44 11.10.2022
1462 Clear 12 1024 70 10000 2.24 360 10:29 11.10.2022
1463 Clear 12 1024 67 10000 2.06 280 09:30 11.10.2022
1464 Clear 12 1024 67 10000 2.06 280 09:30 11.10.2022
1465 Clear 12 1024 67 10000 2.06 280 09:30 11.10.2022
1466 Clear 13 1024 61 10000 3.09 0 06:46 11.10.2022
1467 Clouds 16 1022 49 10000 3.6 240 02:26 11.10.2022
1468 Clear 18 1021 44 10000 4.92 277 00:31 11.10.2022
1469 Clear 20 1021 37 10000 5.66 250 21:35 10.10.2022
1470 Clouds 20 1021 39 10000 5.81 254 19:56 10.10.2022
1471 Clear 18 1023 44 10000 3.6 210 18:33 10.10.2022
1472 Clouds 16 1023 56 10000 1.79 246 16:58 10.10.2022
1473 Clear 13 1023 62 10000 2.57 210 15:44 10.10.2022
1474 Clouds 10 1022 69 10000 2.24 287 12:54 10.10.2022
1475 Clear 10 1022 66 10000 1.34 266 11:56 10.10.2022
1476 Clear 11 1022 64 10000 2.57 200 09:21 10.10.2022
1477 Clear 12 1021 58 10000 2.57 220 05:43 10.10.2022
1478 Clear 12 1021 58 10000 2.68 360 04:57 10.10.2022
1479 Clouds 16 1019 45 10000 6.17 250 00:34 10.10.2022
1480 Clear 17 1019 42 10000 7.72 230 23:31 09.10.2022
1481 Clear 17 1019 42 10000 6.69 270 22:19 09.10.2022
1482 Clouds 17 1019 43 10000 7.72 260 21:26 09.10.2022
1483 Clear 17 1019 42 10000 7.2 240 20:30 09.10.2022
1484 Clear 16 1020 43 10000 6.69 270 19:46 09.10.2022
1485 Clear 15 1020 49 10000 7.6 269 18:44 09.10.2022
1486 Clear 13 1021 54 10000 6.17 250 17:32 09.10.2022
1487 Clear 12 1021 59 10000 5.81 262 16:37 09.10.2022
1488 Clear 10 1022 64 10000 4.92 283 15:45 09.10.2022
1489 Clear 8 1022 73 10000 5.36 217 14:34 09.10.2022
1490 Clear 7 1021 73 10000 2.68 190 13:48 09.10.2022
1491 Clear 7 1021 74 10000 2.24 360 12:46 09.10.2022
1492 Clear 7 1021 71 10000 5.14 270 10:52 09.10.2022
1493 Clear 8 1021 68 10000 2.68 360 08:31 09.10.2022
1494 Clear 10 1021 59 10000 3.09 330 04:19 09.10.2022
1495 Clear 11 1021 55 10000 3.6 330 03:19 09.10.2022
1496 Clear 13 1019 47 10000 7.2 300 00:40 09.10.2022
1497 Clear 14 1019 44 10000 5.66 280 23:19 08.10.2022
1498 Clear 15 1019 46 10000 6.69 330 22:24 08.10.2022
1499 Clouds 14 1020 50 10000 5.66 300 20:33 08.10.2022
1500 Clouds 14 1021 52 10000 7.2 330 19:27 08.10.2022
1501 Clouds 13 1022 54 10000 6.17 330 17:39 08.10.2022
1502 Clear 11 1022 63 10000 6.26 359 15:34 08.10.2022
1503 Clear 9 1021 68 10000 5.14 310 13:32 08.10.2022
1504 Clouds 10 1020 73 10000 4.02 305 11:24 08.10.2022
1505 Clouds 10 1019 71 10000 7.2 290 10:33 08.10.2022
1506 Rain 12 1019 56 10000 8.75 340 09:25 08.10.2022
1507 Clouds 15 1018 62 10000 6.69 330 06:20 08.10.2022
1508 Clouds 19 1015 59 10000 7.15 318 02:32 08.10.2022
1509 Clear 23 1013 46 10000 6.17 250 23:48 07.10.2022
1510 Clear 24 1013 44 10000 6.17 250 23:20 07.10.2022
1511 Clear 25 1013 44 10000 6.71 294 21:53 07.10.2022
1512 Clear 25 1013 44 10000 5.66 260 20:23 07.10.2022
1513 Clear 23 1015 51 10000 5.14 270 18:22 07.10.2022
1514 Clear 20 1015 63 10000 2.68 212 16:53 07.10.2022
1515 Fog 18 1015 72 10000 2.57 300 15:47 07.10.2022
1516 Fog 15 1015 85 10000 3.13 360 14:23 07.10.2022
1517 Fog 15 1014 84 10000 4.47 360 11:42 07.10.2022
1518 Clear 16 1014 76 10000 4.02 360 09:25 07.10.2022
1519 Clear 16 1014 78 10000 2.57 240 08:29 07.10.2022
1520 Clear 17 1015 73 10000 2.57 220 05:51 07.10.2022
1521 Clear 22 1014 47 10000 3.58 200 00:28 07.10.2022
1522 Clear 24 1014 40 10000 2.57 310 22:50 06.10.2022
1523 Clear 24 1014 40 10000 1.79 272 21:42 06.10.2022
1524 Clear 23 1014 43 10000 1.34 168 20:54 06.10.2022
1525 Clear 22 1015 45 10000 3.13 49 19:46 06.10.2022
1526 Clear 21 1015 47 10000 2.57 280 18:37 06.10.2022
1527 Clear 19 1016 56 10000 4.12 20 17:26 06.10.2022
1528 Fog 13 1015 80 10000 3.58 319 14:19 06.10.2022
1529 Fog 13 1014 82 10000 3.13 316 11:24 06.10.2022
1530 Clouds 14 1014 85 10000 3.13 308 06:53 06.10.2022
1531 Clouds 14 1013 89 10000 5.14 350 03:29 06.10.2022
1532 Clouds 15 1012 91 10000 5.81 328 22:55 05.10.2022
1533 Clouds 15 1012 89 10000 2.68 1 19:57 05.10.2022
1534 Mist 14 1013 90 10000 7.72 10 17:58 05.10.2022
1535 Mist 14 1014 92 10000 6.69 10 17:34 05.10.2022
1536 Mist 13 1014 92 10000 6.69 10 17:34 05.10.2022
1537 Rain 13 1013 93 8047 5.66 360 15:54 05.10.2022
1538 Rain 13 1013 93 8047 5.66 360 15:54 05.10.2022
1539 Rain 13 1013 93 2816 7.6 4 14:47 05.10.2022
1540 Clouds 13 1013 93 10000 8.94 13 13:54 05.10.2022
1541 Mist 13 1013 94 9656 5.81 14 12:20 05.10.2022
1542 Clouds 13 1011 93 10000 6.26 360 08:53 05.10.2022
1543 Mist 12 1012 93 8047 7.15 342 07:35 05.10.2022
1544 Mist 13 1012 91 4828 8.94 6 05:35 05.10.2022
1545 Drizzle 12 1013 91 10000 8.49 1 03:32 05.10.2022
1546 Mist 12 1013 91 10000 12.96 22 00:45 05.10.2022
1547 Mist 12 1013 91 10000 10.73 34 00:24 05.10.2022
1548 Mist 12 1013 92 4023 11.18 39 22:22 04.10.2022
1549 Mist 11 1014 92 9656 11.18 20 20:31 04.10.2022
1550 Mist 11 1015 91 2816 11.18 19 18:58 04.10.2022
1551 Mist 11 1015 91 2816 11.18 19 18:58 04.10.2022
1552 Rain 11 1015 91 10000 11.62 41 18:36 04.10.2022
1553 Mist 10 1015 90 10000 9.83 40 17:44 04.10.2022
1554 Mist 10 1016 92 8047 9.39 31 16:28 04.10.2022
1555 Rain 8 1017 91 6437 5.66 360 12:41 04.10.2022
1556 Rain 8 1018 91 1207 6.17 10 09:32 04.10.2022
1557 Rain 9 1019 87 8047 9.83 36 07:23 04.10.2022
1558 Rain 10 1021 86 10000 8.49 23 02:19 04.10.2022
1559 Rain 11 1022 72 10000 8.23 30 23:40 03.10.2022
1560 Rain 11 1022 72 10000 8.23 30 23:40 03.10.2022
1561 Rain 11 1018 73 10000 12.52 28 21:52 03.10.2022
1562 Rain 11 1022 67 10000 10.28 37 20:56 03.10.2022
1563 Clouds 11 1023 70 10000 10.29 40 19:38 03.10.2022
1564 Clouds 11 1023 69 10000 12.96 56 17:59 03.10.2022
1565 Clouds 11 1023 68 10000 11.62 46 17:18 03.10.2022
1566 Rain 11 1023 68 10000 11.62 58 15:42 03.10.2022
1567 Clouds 10 1023 66 10000 12.52 46 13:45 03.10.2022
1568 Rain 10 1022 66 10000 12.52 40 12:28 03.10.2022
1569 Rain 10 1022 68 10000 11.62 47 10:39 03.10.2022
1570 Rain 11 1022 60 10000 9.39 28 09:37 03.10.2022
1571 Rain 11 1022 57 10000 10.73 49 06:35 03.10.2022
1572 Clouds 12 1022 55 10000 10.28 45 02:53 03.10.2022
1573 Clouds 13 1020 72 10000 10.28 39 22:35 02.10.2022
1574 Rain 13 1019 81 10000 9.83 53 20:51 02.10.2022
1575 Rain 14 1019 81 10000 10.29 50 18:47 02.10.2022
1576 Rain 14 1018 80 10000 10.28 25 17:52 02.10.2022
1577 Rain 14 1017 78 10000 11.32 40 16:44 02.10.2022
1578 Clouds 14 1017 79 10000 12.96 46 16:18 02.10.2022
1579 Clouds 15 1016 72 10000 12.07 49 14:52 02.10.2022
1580 Clouds 16 1016 64 10000 12.96 42 13:45 02.10.2022
1581 Clouds 16 1015 57 10000 12.35 50 12:30 02.10.2022
1582 Clouds 16 1014 62 10000 13.86 55 11:40 02.10.2022
1583 Clouds 16 1015 64 10000 13.86 49 11:19 02.10.2022
1584 Clouds 16 1014 70 10000 11.18 49 09:29 02.10.2022
1585 Clouds 16 1015 71 10000 10.73 49 07:41 02.10.2022
1586 Clouds 15 1014 90 10000 7.6 2 02:55 02.10.2022
1587 Mist 15 1014 93 4828 8.49 40 00:50 02.10.2022
1588 Mist 15 1015 91 8047 9.39 44 00:22 02.10.2022
1589 Clouds 15 1015 88 10000 9.83 41 22:53 01.10.2022
1590 Clouds 15 1014 88 10000 11.83 60 20:54 01.10.2022
1591 Mist 14 1015 92 6437 9.39 27 18:51 01.10.2022
1592 Clouds 13 1017 87 10000 11.83 40 16:42 01.10.2022
1593 Rain 12 1018 90 10000 12.07 50 14:43 01.10.2022
1594 Rain 12 1018 90 4828 11.18 49 13:35 01.10.2022
1595 Rain 12 1018 89 4023 9.83 27 12:33 01.10.2022
1596 Rain 13 1018 85 9656 11.18 39 11:21 01.10.2022
1597 Rain 13 1018 83 10000 8.94 43 10:38 01.10.2022
1598 Rain 14 1019 81 10000 10.28 41 10:20 01.10.2022
1599 Rain 14 1019 81 10000 7.6 41 09:18 01.10.2022
1600 Rain 14 1020 78 10000 5.14 10 08:19 01.10.2022
1601 Clear 15 1022 66 10000 5.66 90 03:37 01.10.2022
1602 Clear 16 1022 66 10000 5.66 80 01:22 01.10.2022
1603 Clear 16 1023 62 10000 6.17 70 23:20 30.09.2022
1604 Clear 17 1024 61 10000 6.71 44 21:44 30.09.2022
1605 Clear 17 1024 61 10000 6.17 50 20:45 30.09.2022
1606 Clear 17 1025 60 10000 6.17 50 20:20 30.09.2022
1607 Clouds 15 1026 62 10000 5.14 30 17:59 30.09.2022
1608 Clear 13 1027 65 10000 5.66 10 16:31 30.09.2022
1609 Clouds 11 1027 67 10000 5.66 40 14:22 30.09.2022
1610 Clouds 11 1027 70 10000 6.71 39 12:29 30.09.2022
1611 Clouds 12 1027 70 10000 6.26 32 11:54 30.09.2022
1612 Clouds 13 1027 67 10000 6.26 53 08:51 30.09.2022
1613 Clear 14 1027 59 10000 6.26 57 06:38 30.09.2022
1614 Clear 16 1027 55 10000 5.81 346 02:51 30.09.2022
1615 Clouds 17 1027 52 10000 5.81 17 00:53 30.09.2022
1616 Clear 19 1027 47 10000 6.26 44 21:39 29.09.2022
1617 Clear 19 1026 47 10000 5.66 80 21:19 29.09.2022
1618 Clouds 18 1028 52 10000 5.14 40 18:56 29.09.2022
1619 Clouds 17 1028 56 10000 8.23 10 17:49 29.09.2022
1620 Clear 16 1028 61 10000 9.83 41 16:29 29.09.2022
1621 Clear 14 1028 65 10000 7.72 30 15:37 29.09.2022
1622 Clouds 14 1028 66 10000 5.66 360 14:59 29.09.2022
1623 Clear 12 1026 72 10000 4.63 360 12:22 29.09.2022
1624 Clear 14 1025 68 10000 6.69 360 08:45 29.09.2022
1625 Clouds 17 1023 65 10000 6.17 350 04:46 29.09.2022
1626 Clouds 19 1022 58 10000 6.17 310 02:36 29.09.2022
1627 Clouds 21 1020 50 10000 5.36 321 23:21 28.09.2022
1628 Clouds 21 1019 49 10000 6.17 310 21:40 28.09.2022
1629 Clouds 21 1019 50 10000 6.17 310 21:22 28.09.2022
1630 Clouds 20 1019 52 10000 5.14 300 19:56 28.09.2022
1631 Clouds 16 1019 65 10000 4.92 289 16:46 28.09.2022
1632 Clear 12 1018 74 10000 4.12 290 14:19 28.09.2022
1633 Clear 12 1017 74 10000 5.14 270 11:45 28.09.2022
1634 Clear 13 1016 70 10000 4.47 360 09:49 28.09.2022
1635 Clouds 14 1016 65 10000 5.81 360 07:52 28.09.2022
1636 Clear 16 1015 58 10000 4.63 250 05:48 28.09.2022
1637 Clear 18 1013 54 10000 4.63 310 01:45 28.09.2022
1638 Clear 18 1012 53 10000 4.63 310 01:25 28.09.2022
1639 Clouds 20 1011 48 10000 6.69 280 22:49 27.09.2022
1640 Clouds 21 1011 48 10000 8.75 280 21:20 27.09.2022
1641 Clouds 21 1010 48 10000 7.72 270 20:35 27.09.2022
1642 Clear 21 1011 48 10000 6.69 270 19:45 27.09.2022
1643 Clear 19 1011 51 10000 6.17 250 17:47 27.09.2022
1644 Clear 19 1011 52 10000 6.17 250 17:29 27.09.2022
1645 Clear 16 1011 58 10000 5.66 240 15:18 27.09.2022
1646 Clear 15 1010 61 10000 5.14 260 14:24 27.09.2022
1647 Clear 15 1009 65 10000 6.26 360 12:39 27.09.2022
1648 Clear 16 1009 62 10000 4.02 276 10:49 27.09.2022
1649 Clouds 17 1009 57 10000 4.92 276 08:42 27.09.2022
1650 Clouds 19 1009 51 10000 4.12 230 05:48 27.09.2022
1651 Clouds 20 1006 54 10000 4.12 220 01:40 27.09.2022
1652 Clouds 22 1006 49 10000 5.66 260 00:32 27.09.2022
1653 Clouds 23 1005 42 10000 8.05 272 23:25 26.09.2022
1654 Clouds 24 1005 43 10000 5.66 230 21:44 26.09.2022
1655 Clouds 23 1005 49 10000 6.69 220 20:26 26.09.2022
1656 Clouds 22 1006 53 10000 6.17 220 19:24 26.09.2022
1657 Clear 22 1006 57 10000 7.2 240 18:30 26.09.2022
1658 Clear 18 1006 76 10000 4.92 235 15:49 26.09.2022
1659 Clear 14 1005 87 10000 6.71 196 13:25 26.09.2022
1660 Clear 15 1004 89 10000 4.12 230 11:29 26.09.2022
1661 Clear 15 1004 89 10000 4.47 255 10:37 26.09.2022
1662 Clear 15 1004 89 10000 4.47 274 10:19 26.09.2022
1663 Clear 15 1003 90 10000 4.92 360 09:53 26.09.2022
1664 Clear 15 1003 90 10000 4.47 234 09:22 26.09.2022
1665 Clouds 16 1003 87 10000 4.47 188 06:21 26.09.2022
1666 Thunderstorm 18 1003 79 10000 5.14 200 02:44 26.09.2022
1667 Clouds 20 1003 67 10000 5.66 190 23:28 25.09.2022
1668 Drizzle 22 1004 61 10000 5.14 240 21:49 25.09.2022
1669 Drizzle 22 1004 61 10000 5.14 240 21:25 25.09.2022
1670 Clear 22 1004 60 10000 4.63 230 20:44 25.09.2022
1671 Clouds 21 1006 66 10000 5.14 190 19:31 25.09.2022
1672 Clear 20 1006 64 10000 5.66 180 18:34 25.09.2022
1673 Clouds 20 1007 65 10000 6.69 200 17:49 25.09.2022
1674 Clouds 18 1008 67 10000 6.26 360 16:22 25.09.2022
1675 Clouds 18 1009 66 10000 4.47 210 15:43 25.09.2022
1676 Clouds 16 1009 72 10000 4.02 216 14:21 25.09.2022
1677 Clouds 15 1010 72 10000 4.02 161 12:49 25.09.2022
1678 Clouds 15 1011 65 10000 3.09 210 10:26 25.09.2022
1679 Clouds 15 1012 61 10000 3.13 195 08:23 25.09.2022
1680 Clear 16 1013 56 10000 4.92 360 05:36 25.09.2022
1681 Clear 20 1012 44 10000 4.12 260 00:39 25.09.2022
1682 Clear 21 1013 40 10000 4.12 270 22:34 24.09.2022
1683 Clear 21 1013 42 10000 5.81 290 20:54 24.09.2022
1684 Clear 19 1016 43 10000 3.09 300 19:22 24.09.2022
1685 Clear 16 1016 50 10000 6.69 350 17:19 24.09.2022
1686 Clear 14 1017 57 10000 6.17 300 16:23 24.09.2022
1687 Clear 12 1017 63 10000 3.6 300 15:19 24.09.2022
1688 Clear 9 1017 69 10000 3.6 320 13:23 24.09.2022
1689 Clear 9 1016 67 10000 4.63 290 12:41 24.09.2022
1690 Clear 9 1017 67 10000 4.47 270 10:38 24.09.2022
1691 Clear 9 1017 65 10000 6.17 330 09:35 24.09.2022
1692 Clear 10 1016 64 10000 6.17 330 08:43 24.09.2022
1693 Clear 10 1017 59 10000 7.15 317 06:53 24.09.2022
1694 Clear 11 1017 54 10000 10.8 310 04:35 24.09.2022
1695 Clear 13 1015 46 10000 8.94 302 01:45 24.09.2022
1696 Clear 17 1012 36 10000 10.29 310 22:28 23.09.2022
1697 Clear 18 1012 37 10000 11.18 314 21:27 23.09.2022
1698 Clouds 17 1012 39 10000 8.23 320 20:55 23.09.2022
1699 Clear 17 1012 39 10000 10.73 293 20:19 23.09.2022
1700 Clear 16 1013 46 10000 8.75 330 18:26 23.09.2022
1701 Clear 11 1013 62 10000 8.23 340 13:44 23.09.2022
1702 Clear 11 1013 62 10000 8.23 340 13:44 23.09.2022
1703 Clear 12 1010 69 10000 8.49 290 10:26 23.09.2022
1704 Clear 13 1010 69 10000 7.15 310 08:57 23.09.2022
1705 Clear 15 1008 64 10000 7.15 300 04:56 23.09.2022
1706 Clear 21 1002 60 10000 6.17 300 23:31 22.09.2022
1707 Clear 19 1003 72 10000 5.14 310 22:29 22.09.2022
1708 Clouds 18 1002 77 10000 6.71 314 21:47 22.09.2022
1709 Rain 17 1002 78 10000 6.69 320 20:44 22.09.2022
1710 Clouds 19 1003 81 10000 10.8 310 19:23 22.09.2022
1711 Clouds 24 1001 80 10000 4.92 269 16:53 22.09.2022
1712 Clouds 21 1005 77 10000 6.17 220 11:36 22.09.2022
1713 Clouds 21 1006 78 10000 4.92 193 10:20 22.09.2022
1714 Clear 21 1008 78 10000 4.63 190 08:39 22.09.2022
1715 Clear 22 1009 71 10000 6.26 198 06:27 22.09.2022
1716 Clear 22 1010 76 10000 4.63 180 02:39 22.09.2022
1717 Clear 26 1011 57 10000 7.72 270 22:50 21.09.2022
1718 Clear 27 1012 51 10000 3.6 290 21:40 21.09.2022
1719 Clear 26 1014 53 10000 2.57 290 19:36 21.09.2022
1720 Clear 24 1015 58 10000 3.09 0 17:47 21.09.2022
1721 Clear 21 1015 65 10000 1.79 190 16:22 21.09.2022
1722 Clear 21 1015 65 10000 1.79 190 16:22 21.09.2022
1723 Clear 17 1015 77 10000 2.06 350 13:59 21.09.2022
1724 Clear 17 1014 78 10000 2.24 327 12:41 21.09.2022
1725 Clear 17 1014 76 10000 4.12 320 11:28 21.09.2022
1726 Clear 18 1014 74 10000 4.12 330 09:49 21.09.2022
1727 Clear 19 1014 71 10000 4.12 330 08:58 21.09.2022
1728 Clear 20 1014 67 10000 4.63 310 06:22 21.09.2022
1729 Clear 23 1013 59 10000 6.26 300 02:45 21.09.2022
1730 Clear 23 1013 59 10000 6.17 310 02:25 21.09.2022
1731 Clouds 24 1012 54 10000 6.17 300 00:34 21.09.2022
1732 Clouds 26 1011 49 10000 9.26 300 22:43 20.09.2022
1733 Clouds 26 1011 50 10000 2.68 318 20:51 20.09.2022
1734 Clouds 25 1012 51 10000 6.17 310 19:32 20.09.2022
1735 Clouds 22 1012 66 10000 6.17 310 16:25 20.09.2022
1736 Fog 21 1012 78 10000 4.12 270 14:46 20.09.2022
1737 Fog 19 1011 85 10000 4.12 270 13:22 20.09.2022
1738 Clear 21 1010 84 10000 4.12 260 09:34 20.09.2022
1739 Clear 21 1011 85 10000 4.12 230 08:26 20.09.2022
1740 Clouds 21 1011 83 10000 5.14 250 05:24 20.09.2022
1741 Clouds 21 1011 84 10000 2.57 260 03:59 20.09.2022
1742 Clouds 28 1010 48 10000 7.2 230 22:55 19.09.2022
1743 Clouds 29 1010 49 10000 6.17 240 21:46 19.09.2022
1744 Clouds 29 1011 49 10000 9.26 200 20:51 19.09.2022
1745 Clouds 29 1011 49 10000 9.26 200 20:31 19.09.2022
1746 Clear 28 1013 53 10000 3.6 240 17:45 19.09.2022
1747 Clouds 23 1014 73 10000 3.6 210 15:34 19.09.2022
1748 Clouds 21 1014 76 10000 3.13 360 13:32 19.09.2022
1749 Clouds 21 1014 75 10000 4.02 252 11:28 19.09.2022
1750 Clouds 22 1014 69 10000 3.13 202 08:51 19.09.2022
1751 Clear 22 1015 63 10000 5.66 230 07:25 19.09.2022
1752 Clear 26 1015 57 10000 5.66 230 01:55 19.09.2022
1753 Clear 28 1015 49 10000 8.23 270 23:22 18.09.2022
1754 Clear 29 1015 52 10000 6.69 240 21:45 18.09.2022
1755 Clear 28 1016 54 10000 6.17 230 20:29 18.09.2022
1756 Clear 26 1018 59 10000 7.72 260 18:33 18.09.2022
1757 Clear 25 1019 63 10000 7.72 240 17:39 18.09.2022
1758 Clouds 22 1019 77 10000 4.92 226 15:53 18.09.2022
1759 Clear 19 1020 83 10000 5.14 230 14:23 18.09.2022
1760 Clear 18 1020 84 10000 4.92 200 12:35 18.09.2022
1761 Clear 19 1020 83 10000 6.71 186 11:24 18.09.2022
1762 Clear 21 1022 74 10000 6.71 360 04:28 18.09.2022
1763 Clear 21 1022 73 10000 5.36 148 01:26 18.09.2022
1764 Clear 22 1023 69 10000 4.63 170 00:27 18.09.2022
1765 Clouds 23 1023 61 10000 3.13 127 21:52 17.09.2022
1766 Clouds 24 1025 56 10000 2.24 192 19:51 17.09.2022
1767 Clouds 23 1025 55 10000 4.47 222 18:59 17.09.2022
1768 Clouds 21 1026 57 10000 2.68 360 16:52 17.09.2022
1769 Clouds 18 1025 70 10000 2.57 50 13:59 17.09.2022
1770 Clouds 18 1024 65 10000 4.63 20 11:55 17.09.2022
1771 Clouds 19 1023 61 10000 4.47 53 09:40 17.09.2022
1772 Clouds 20 1023 54 10000 4.92 54 06:28 17.09.2022
1773 Smoke 21 1021 47 10000 2.06 330 02:43 17.09.2022
1774 Clear 25 1020 32 10000 3.13 311 22:58 16.09.2022
1775 Smoke 24 1020 31 10000 4.12 320 21:32 16.09.2022
1776 Smoke 24 1021 34 10000 3.09 310 20:31 16.09.2022
1777 Smoke 21 1022 41 10000 3.09 290 18:18 16.09.2022
1778 Clouds 18 1023 58 10000 1.54 300 15:57 16.09.2022
1779 Clear 14 1023 65 10000 3.13 310 14:32 16.09.2022
1780 Clouds 14 1022 66 10000 2.68 312 11:56 16.09.2022
1781 Clear 15 1022 58 10000 3.09 330 09:34 16.09.2022
1782 Clear 16 1022 51 10000 4.12 330 07:21 16.09.2022
1783 Clear 16 1022 50 10000 3.6 330 06:47 16.09.2022
1784 Clear 18 1022 47 10000 5.14 310 04:42 16.09.2022
1785 Clear 23 1020 35 10000 5.36 297 23:50 15.09.2022
1786 Clear 23 1020 36 10000 5.14 300 21:24 15.09.2022
1787 Clear 23 1020 38 10000 4.63 320 20:26 15.09.2022
1788 Clear 22 1021 44 10000 7.2 360 18:54 15.09.2022
1789 Clear 20 1021 50 10000 5.66 330 17:34 15.09.2022
1790 Clear 20 1021 50 10000 5.66 330 17:34 15.09.2022
1791 Clear 20 1021 54 10000 7.2 360 16:57 15.09.2022
1792 Clear 18 1021 57 10000 7.72 330 14:58 15.09.2022
1793 Clear 18 1019 61 10000 8.05 333 12:49 15.09.2022
1794 Clear 20 1018 67 10000 6.69 320 10:42 15.09.2022
1795 Clear 20 1017 68 10000 5.14 300 09:42 15.09.2022
1796 Clear 22 1016 64 10000 5.36 227 04:46 15.09.2022
1797 Clear 24 1015 58 10000 4.12 270 02:18 15.09.2022
1798 Clouds 27 1014 48 10000 7.72 320 22:44 14.09.2022
1799 Clear 26 1014 47 10000 6.69 260 20:24 14.09.2022
1800 Clear 26 1014 48 10000 5.14 310 19:32 14.09.2022
1801 Clear 23 1014 58 10000 5.36 305 17:28 14.09.2022
1802 Clear 22 1014 63 10000 5.14 240 16:36 14.09.2022
1803 Clear 18 1014 71 10000 4.63 290 14:46 14.09.2022
1804 Clear 17 1012 72 10000 5.14 300 12:33 14.09.2022
1805 Clear 18 1011 67 10000 4.63 270 09:50 14.09.2022
1806 Clear 20 1011 63 10000 6.17 300 07:55 14.09.2022
1807 Clear 20 1010 60 10000 6.69 300 06:48 14.09.2022
1808 Clear 21 1010 60 10000 6.69 300 06:23 14.09.2022
1809 Clear 25 1008 54 10000 6.71 276 01:55 14.09.2022
1810 Clouds 26 1007 53 10000 7.15 258 01:30 14.09.2022
1811 Clouds 27 1007 56 10000 7.6 274 00:52 14.09.2022
1812 Clouds 27 1006 62 10000 5.81 271 23:54 13.09.2022
1813 Clouds 27 1006 64 10000 7.2 230 23:36 13.09.2022
1814 Clouds 27 1006 65 10000 7.2 230 23:18 13.09.2022
1815 Clouds 28 1006 66 10000 6.69 160 22:22 13.09.2022
1816 Clouds 28 1006 70 10000 3.6 260 20:41 13.09.2022
1817 Clouds 26 1007 80 10000 3.58 186 18:37 13.09.2022
1818 Clouds 23 1007 90 10000 2.57 40 15:58 13.09.2022
1819 Clouds 23 1007 89 10000 2.57 50 14:50 13.09.2022
1820 Clouds 21 1007 91 10000 3.6 110 13:31 13.09.2022
1821 Rain 22 1007 93 6437 4.47 39 09:51 13.09.2022
1822 Mist 23 1009 90 8047 4.02 155 07:31 13.09.2022
1823 Clouds 25 1008 75 10000 4.02 210 00:52 13.09.2022
1824 Clouds 27 1008 68 10000 3.13 207 22:52 12.09.2022
1825 Clouds 27 1009 68 10000 3.13 208 22:26 12.09.2022
1826 Clouds 27 1010 67 10000 3.09 50 20:46 12.09.2022
1827 Clouds 26 1011 71 10000 2.57 90 19:26 12.09.2022
1828 Clouds 24 1011 80 10000 2.57 60 17:46 12.09.2022
1829 Mist 21 1011 90 9656 2.57 350 15:40 12.09.2022
1830 Mist 20 1011 92 8047 3.6 350 12:26 12.09.2022
1831 Mist 21 1012 93 3219 3.13 319 10:24 12.09.2022
1832 Mist 21 1015 93 2012 3.58 146 05:57 12.09.2022
1833 Mist 20 1015 92 4023 4.02 96 04:32 12.09.2022
1834 Clouds 21 1017 85 10000 3.6 60 00:42 12.09.2022
1835 Rain 22 1018 81 10000 4.47 36 22:45 11.09.2022
1836 Clouds 22 1019 78 10000 4.47 50 21:22 11.09.2022
1837 Mist 22 1019 79 9656 4.92 53 20:43 11.09.2022
1838 Rain 22 1021 80 8047 2.57 320 19:27 11.09.2022
1839 Rain 23 1021 79 9656 1.54 220 18:58 11.09.2022
1840 Rain 24 1021 70 10000 3.09 210 17:26 11.09.2022
1841 Clouds 23 1021 71 10000 2.68 219 15:46 11.09.2022
1842 Clouds 21 1022 75 10000 2.06 230 13:19 11.09.2022
1843 Clouds 21 1021 77 10000 1.79 232 10:51 11.09.2022
1844 Clear 22 1022 76 10000 3.6 230 08:19 11.09.2022
1845 Clear 22 1023 75 10000 3.09 220 05:19 11.09.2022
1846 Clear 27 1022 46 10000 4.12 170 23:50 10.09.2022
1847 Clear 29 1023 36 10000 4.63 170 22:21 10.09.2022
1848 Clear 29 1024 32 10000 3.6 190 20:33 10.09.2022
1849 Clear 28 1024 35 10000 2.57 350 19:43 10.09.2022
1850 Clear 28 1024 35 10000 2.57 350 19:24 10.09.2022
1851 Clear 26 1024 50 10000 2.57 160 17:27 10.09.2022
1852 Clear 22 1024 65 10000 2.06 360 15:35 10.09.2022
1853 Clear 19 1023 77 10000 2.57 290 13:36 10.09.2022
1854 Fog 18 1023 80 10000 2.06 290 12:29 10.09.2022
1855 Clear 18 1022 83 10000 2.24 360 10:31 10.09.2022
1856 Clear 19 1022 82 10000 1.79 360 08:41 10.09.2022
1857 Clear 19 1022 82 10000 1.79 223 08:20 10.09.2022
1858 Clear 21 1021 76 10000 3.6 220 03:48 10.09.2022
1859 Clear 26 1018 46 10000 4.12 60 23:36 09.09.2022
1860 Clear 26 1018 41 10000 4.92 58 22:36 09.09.2022
1861 Clear 26 1019 43 10000 4.92 51 20:57 09.09.2022
1862 Clear 26 1018 42 10000 4.63 40 20:19 09.09.2022
1863 Clear 26 1018 43 10000 5.66 40 19:22 09.09.2022
1864 Clear 24 1019 50 10000 4.92 77 17:29 09.09.2022
1865 Clear 20 1018 64 10000 5.66 50 15:19 09.09.2022
1866 Smoke 17 1017 77 10000 4.12 10 13:31 09.09.2022
1867 Clear 18 1015 80 10000 4.02 48 10:42 09.09.2022
1868 Clear 18 1015 80 10000 4.02 48 10:42 09.09.2022
1869 Clear 18 1014 78 10000 1.79 307 07:57 09.09.2022
1870 Clear 21 1013 67 10000 2.06 120 03:37 09.09.2022
1871 Clouds 25 1011 54 10000 3.09 90 22:40 08.09.2022
1872 Clouds 25 1012 53 10000 4.02 42 21:51 08.09.2022
1873 Clouds 25 1013 52 10000 5.14 20 20:49 08.09.2022
1874 Clouds 25 1013 53 10000 5.14 20 20:27 08.09.2022
1875 Clouds 24 1013 55 10000 3.6 60 19:18 08.09.2022
1876 Clouds 22 1013 63 10000 6.17 60 17:25 08.09.2022
1877 Clouds 21 1014 70 10000 6.17 50 15:53 08.09.2022
1878 Clouds 18 1014 79 10000 4.63 10 13:30 08.09.2022
1879 Clouds 18 1014 79 10000 3.6 20 12:41 08.09.2022
1880 Clouds 18 1014 80 10000 3.6 10 11:23 08.09.2022
1881 Clouds 19 1014 79 10000 4.47 10 09:46 08.09.2022
1882 Clouds 20 1014 77 10000 4.12 10 07:25 08.09.2022
1883 Clouds 21 1015 73 10000 5.14 20 04:43 08.09.2022
1884 Clouds 21 1014 71 10000 6.71 41 02:36 08.09.2022
1885 Clouds 21 1014 72 10000 5.81 5 02:18 08.09.2022
1886 Clouds 22 1014 74 10000 5.66 60 23:25 07.09.2022
1887 Clouds 22 1015 75 10000 7.6 63 21:46 07.09.2022
1888 Clouds 22 1014 76 10000 7.15 55 21:24 07.09.2022
1889 Clouds 22 1015 77 10000 6.26 58 20:29 07.09.2022
1890 Clouds 21 1015 78 10000 7.2 50 19:20 07.09.2022
1891 Mist 19 1016 88 8047 6.26 13 16:24 07.09.2022
1892 Clouds 19 1016 86 10000 7.72 60 11:28 07.09.2022
1893 Clouds 19 1015 86 10000 8.23 50 10:32 07.09.2022
1894 Mist 19 1015 90 10000 8.75 50 08:29 07.09.2022
1895 Clouds 20 1016 89 10000 5.66 60 06:31 07.09.2022
1896 Clouds 20 1016 89 10000 5.66 60 06:31 07.09.2022
1897 Rain 21 1015 93 1609 2.57 50 00:49 07.09.2022
1898 Rain 21 1015 92 4023 4.63 60 21:58 06.09.2022
1899 Mist 21 1015 92 4828 4.92 165 21:36 06.09.2022
1900 Rain 21 1015 88 4828 3.6 110 19:39 06.09.2022
1901 Rain 22 1016 87 6437 4.92 120 18:40 06.09.2022
1902 Rain 22 1015 91 2012 3.6 150 17:50 06.09.2022
1903 Rain 22 1015 91 2012 3.6 150 17:50 06.09.2022
1904 Rain 22 1016 89 4828 3.13 119 16:47 06.09.2022
1905 Rain 22 1016 89 4828 3.09 130 16:25 06.09.2022
1906 Rain 23 1016 89 3219 5.81 160 14:49 06.09.2022
1907 Rain 23 1016 90 6437 3.58 157 13:44 06.09.2022
1908 Rain 23 1016 89 6437 4.92 136 13:19 06.09.2022
1909 Clouds 23 1015 84 10000 4.47 201 10:56 06.09.2022
1910 Clouds 23 1016 86 10000 5.36 178 09:56 06.09.2022
1911 Rain 23 1017 87 8047 2.57 50 08:27 06.09.2022
1912 Rain 23 1017 84 10000 4.12 210 06:22 06.09.2022
1913 Clouds 25 1017 78 10000 6.69 180 01:22 06.09.2022
1914 Clear 27 1017 68 10000 7.15 146 23:19 05.09.2022
1915 Clouds 29 1017 61 10000 6.26 153 21:39 05.09.2022
1916 Clouds 29 1018 58 10000 5.66 190 20:32 05.09.2022
1917 Clouds 29 1019 62 10000 3.58 191 18:59 05.09.2022
1918 Clouds 29 1019 63 10000 3.6 40 18:38 05.09.2022
1919 Clouds 28 1020 66 10000 3.6 40 18:19 05.09.2022
1920 Clouds 25 1019 76 10000 2.06 60 16:25 05.09.2022
1921 Clear 24 1019 82 10000 3.09 60 15:29 05.09.2022
1922 Clouds 23 1019 86 10000 3.09 20 13:21 05.09.2022
1923 Clouds 23 1018 85 10000 0.45 318 11:53 05.09.2022
1924 Clouds 23 1018 84 10000 0.45 349 08:58 05.09.2022
1925 Clouds 24 1018 83 10000 2.24 227 06:40 05.09.2022
1926 Thunderstorm 26 1017 73 10000 3.13 108 01:56 05.09.2022
1927 Clouds 29 1018 60 10000 3.6 180 22:44 04.09.2022
1928 Clouds 29 1017 59 10000 4.47 170 22:25 04.09.2022
1929 Clouds 31 1019 53 10000 4.47 174 20:43 04.09.2022
1930 Clouds 30 1019 56 10000 2.68 181 19:20 04.09.2022
1931 Clouds 28 1020 65 10000 4.63 230 17:43 04.09.2022
1932 Clear 25 1021 72 10000 4.12 240 16:28 04.09.2022
1933 Clear 22 1021 81 10000 5.81 164 14:27 04.09.2022
1934 Clouds 21 1021 82 10000 2.24 278 12:57 04.09.2022
1935 Clouds 21 1021 81 10000 2.68 228 11:52 04.09.2022
1936 Clouds 22 1021 79 10000 3.13 232 09:56 04.09.2022
1937 Clear 22 1022 76 10000 3.13 223 07:27 04.09.2022
1938 Clear 22 1022 74 10000 5.36 210 04:44 04.09.2022
1939 Clear 24 1022 65 10000 5.14 190 00:42 04.09.2022
1940 Clear 26 1023 60 10000 5.14 140 22:21 03.09.2022
1941 Clear 26 1023 58 10000 4.47 183 21:23 03.09.2022
1942 Clouds 27 1024 56 10000 2.24 161 18:59 03.09.2022
1943 Clouds 25 1025 62 10000 2.68 0 17:26 03.09.2022
1944 Clear 24 1026 66 10000 2.57 40 16:27 03.09.2022
1945 Clear 21 1026 76 10000 2.57 20 14:45 03.09.2022
1946 Clouds 20 1026 79 10000 0.89 360 13:58 03.09.2022
1947 Clouds 19 1026 80 10000 3.6 30 12:19 03.09.2022
1948 Clear 19 1025 78 10000 2.06 130 10:41 03.09.2022
1949 Clear 20 1025 76 10000 2.24 118 08:28 03.09.2022
1950 Clouds 20 1025 76 10000 1.79 114 06:58 03.09.2022
1951 Clear 20 1025 72 10000 3.58 122 04:34 03.09.2022
1952 Clear 24 1024 58 10000 4.12 170 00:29 03.09.2022
1953 Clouds 25 1024 56 10000 4.02 216 22:57 02.09.2022
1954 Clouds 25 1024 52 10000 2.24 175 20:59 02.09.2022
1955 Clear 25 1024 50 10000 5.14 50 20:39 02.09.2022
1956 Clear 25 1024 49 10000 5.66 50 19:30 02.09.2022
1957 Clear 24 1025 51 10000 5.66 40 18:43 02.09.2022
1958 Clear 24 1025 52 10000 5.66 40 18:24 02.09.2022
1959 Clear 22 1025 54 10000 5.14 40 16:48 02.09.2022
1960 Clear 20 1024 59 10000 5.14 60 15:21 02.09.2022
1961 Clear 16 1023 62 10000 5.66 10 12:39 02.09.2022
1962 Clear 17 1021 57 10000 6.26 50 10:22 02.09.2022
1963 Clear 18 1020 57 10000 7.15 57 09:41 02.09.2022
1964 Clear 20 1019 53 10000 6.69 40 07:36 02.09.2022
1965 Clear 21 1018 49 10000 5.66 50 06:40 02.09.2022
1966 Clear 25 1016 38 10000 3.58 33 02:55 02.09.2022
1967 Clear 30 1013 30 10000 7.72 280 22:45 01.09.2022
1968 Clear 30 1013 31 10000 7.72 260 21:44 01.09.2022
1969 Clear 30 1013 31 10000 7.72 310 21:25 01.09.2022
1970 Clear 30 1013 33 10000 8.49 297 20:46 01.09.2022
1971 Clear 28 1013 40 10000 2.24 336 18:57 01.09.2022
1972 Clear 27 1014 44 10000 7.72 300 17:47 01.09.2022
1973 Clear 25 1013 52 10000 5.14 270 16:29 01.09.2022
1974 Haze 22 1013 60 2816 4.63 300 14:33 01.09.2022
1975 Clear 20 1013 65 10000 4.47 275 12:59 01.09.2022
1976 Clear 20 1012 64 10000 4.47 360 11:54 01.09.2022
1977 Clear 21 1012 61 10000 5.66 260 11:33 01.09.2022
1978 Clear 21 1011 59 10000 5.81 194 10:40 01.09.2022
1979 Clear 22 1011 54 10000 5.14 260 08:31 01.09.2022
1980 Clear 23 1011 49 10000 6.17 270 06:23 01.09.2022
1981 Clear 26 1010 37 10000 7.2 310 01:34 01.09.2022
1982 Clouds 28 1009 36 10000 7.2 280 00:18 01.09.2022
1983 Clouds 29 1008 38 10000 6.69 310 21:45 31.08.2022
1984 Clear 28 1008 49 10000 6.71 294 19:59 31.08.2022
1985 Clouds 27 1009 57 10000 6.17 310 18:19 31.08.2022
1986 Clear 25 1009 68 10000 6.69 290 16:31 31.08.2022
1987 Clear 23 1009 81 10000 5.66 300 14:44 31.08.2022
1988 Clear 21 1008 85 10000 2.57 260 12:24 31.08.2022
1989 Clear 21 1008 83 10000 4.63 290 11:37 31.08.2022
1990 Clouds 22 1008 87 10000 3.6 270 09:20 31.08.2022
1991 Mist 23 1008 91 9656 3.09 270 06:19 31.08.2022
1992 Clear 29 1008 66 10000 10.73 148 23:25 30.08.2022
1993 Clouds 31 1009 64 10000 11.62 150 21:49 30.08.2022
1994 Clouds 31 1010 67 10000 3.13 168 20:59 30.08.2022
1995 Clear 31 1012 63 10000 1.79 114 18:52 30.08.2022
1996 Clouds 26 1014 78 10000 4.63 190 15:43 30.08.2022
1997 Clouds 24 1015 85 10000 4.02 193 13:25 30.08.2022
1998 Clouds 24 1015 87 10000 3.6 230 11:22 30.08.2022
1999 Clouds 24 1015 87 10000 4.12 210 10:57 30.08.2022
2000 Clear 24 1016 85 10000 3.6 190 08:46 30.08.2022
2001 Clear 25 1017 78 10000 6.17 180 03:33 30.08.2022
2002 Clear 28 1017 69 10000 8.94 150 23:45 29.08.2022
2003 Clouds 29 1017 67 10000 7.2 170 22:33 29.08.2022
2004 Clouds 30 1018 63 10000 6.17 160 21:34 29.08.2022
2005 Clouds 30 1018 64 10000 6.17 160 21:34 29.08.2022
2006 Clouds 30 1019 63 10000 5.14 150 20:34 29.08.2022
2007 Clouds 29 1020 66 10000 4.63 210 18:39 29.08.2022
2008 Clouds 28 1021 68 10000 3.6 200 17:25 29.08.2022
2009 Clouds 28 1022 70 10000 3.09 170 16:50 29.08.2022
2010 Clouds 26 1021 79 10000 3.13 188 15:18 29.08.2022
2011 Clouds 24 1020 86 10000 3.6 180 13:34 29.08.2022
2012 Clouds 23 1020 86 10000 4.12 180 11:33 29.08.2022
2013 Clouds 24 1020 86 10000 4.02 155 10:39 29.08.2022
2014 Clouds 24 1021 84 10000 2.57 130 08:40 29.08.2022
2015 Clouds 24 1020 85 10000 3.09 160 06:26 29.08.2022
2016 Clouds 24 1020 81 10000 5.81 122 01:53 29.08.2022
2017 Clouds 27 1020 70 10000 4.47 155 22:55 28.08.2022
2018 Clouds 27 1021 68 10000 6.17 50 21:46 28.08.2022
2019 Clouds 27 1021 69 10000 4.47 110 20:59 28.08.2022
2020 Clouds 27 1021 69 10000 5.66 50 19:59 28.08.2022
2021 Clouds 26 1022 69 10000 5.14 40 18:22 28.08.2022
2022 Clouds 25 1022 71 10000 4.12 80 17:50 28.08.2022
2023 Clouds 25 1022 74 10000 4.12 90 16:42 28.08.2022
2024 Clouds 23 1021 76 10000 5.14 70 14:46 28.08.2022
2025 Clouds 23 1021 76 10000 5.14 70 14:46 28.08.2022
2026 Clouds 23 1020 82 10000 5.36 128 12:57 28.08.2022
2027 Clouds 23 1019 84 10000 4.12 80 11:24 28.08.2022
2028 Clouds 23 1019 83 10000 4.63 80 10:19 28.08.2022
2029 Clouds 24 1019 84 10000 3.6 60 08:49 28.08.2022
2030 Clouds 24 1018 84 10000 4.02 65 07:51 28.08.2022
2031 Clouds 25 1018 78 10000 2.68 146 04:55 28.08.2022
2032 Clouds 28 1016 65 10000 4.92 117 00:36 28.08.2022
2033 Clouds 30 1015 54 10000 3.58 233 22:58 27.08.2022
2034 Clear 30 1016 47 10000 3.09 70 22:24 27.08.2022
2035 Clear 31 1016 45 10000 3.13 69 20:35 27.08.2022
2036 Clouds 31 1015 46 10000 2.68 356 18:57 27.08.2022
2037 Clear 28 1016 60 10000 3.6 360 16:26 27.08.2022
2038 Clear 26 1016 65 10000 4.47 53 15:31 27.08.2022
2039 Clouds 23 1014 72 10000 4.63 350 13:18 27.08.2022
2040 Clouds 23 1014 71 10000 3.13 9 11:58 27.08.2022
2041 Clear 24 1013 70 10000 3.13 309 10:27 27.08.2022
2042 Clear 24 1013 73 10000 2.06 250 09:31 27.08.2022
2043 Clouds 25 1013 69 10000 2.68 360 06:52 27.08.2022
2044 Clouds 30 1011 54 10000 4.92 290 00:52 27.08.2022
2045 Clouds 30 1011 54 10000 4.92 290 00:52 27.08.2022
2046 Thunderstorm 29 1010 62 10000 6.69 270 23:36 26.08.2022
2047 Thunderstorm 30 1012 68 10000 6.69 150 21:46 26.08.2022
2048 Clouds 30 1013 62 10000 7.72 160 19:50 26.08.2022
2049 Clouds 30 1013 66 10000 1.34 167 17:53 26.08.2022
2050 Clouds 28 1014 69 10000 4.12 230 16:32 26.08.2022
2051 Clouds 26 1014 73 10000 3.6 220 15:24 26.08.2022
2052 Clear 23 1015 76 10000 3.6 190 13:18 26.08.2022
2053 Clear 23 1015 74 10000 3.6 210 11:48 26.08.2022
2054 Clear 23 1015 74 10000 3.6 210 11:22 26.08.2022
2055 Clouds 24 1016 69 10000 3.09 230 08:55 26.08.2022
2056 Clouds 26 1017 56 10000 3.6 190 03:59 26.08.2022
2057 Clear 29 1015 49 10000 7.72 170 00:44 26.08.2022
2058 Clear 31 1016 40 10000 5.14 180 22:44 25.08.2022
2059 Clouds 32 1017 37 10000 2.68 276 20:55 25.08.2022
2060 Clear 32 1017 38 10000 2.57 0 19:36 25.08.2022
2061 Clear 31 1017 39 10000 3.09 290 18:35 25.08.2022
2062 Clear 30 1018 44 10000 3.6 320 17:32 25.08.2022
2063 Clear 29 1018 47 10000 3.09 310 16:45 25.08.2022
2064 Clear 27 1017 57 10000 2.68 52 15:37 25.08.2022
2065 Clouds 24 1017 68 10000 2.24 311 13:59 25.08.2022
2066 Clear 22 1016 69 10000 1.79 284 11:34 25.08.2022
2067 Clear 23 1016 67 10000 2.24 297 10:45 25.08.2022
2068 Clouds 24 1016 61 10000 2.06 360 07:55 25.08.2022
2069 Clear 27 1015 52 10000 3.13 227 03:54 25.08.2022
2070 Clouds 31 1013 43 10000 5.66 280 23:56 24.08.2022
2071 Clouds 31 1014 38 10000 5.14 290 23:25 24.08.2022
2072 Clouds 32 1013 39 10000 5.66 280 21:59 24.08.2022
2073 Clouds 32 1014 38 10000 5.66 240 21:31 24.08.2022
2074 Clear 31 1014 38 10000 4.92 291 20:23 24.08.2022
2075 Clear 29 1015 56 10000 5.66 310 17:38 24.08.2022
2076 Clear 27 1015 62 10000 4.63 320 16:22 24.08.2022
2077 Clear 25 1015 66 10000 4.12 310 15:40 24.08.2022
2078 Clear 21 1014 81 10000 2.24 264 12:53 24.08.2022
2079 Fog 21 1013 80 10000 4.12 290 11:22 24.08.2022
2080 Clear 22 1012 79 10000 3.09 300 09:19 24.08.2022
2081 Clear 23 1012 74 10000 4.12 310 07:33 24.08.2022
2082 Clouds 28 1009 55 10000 6.26 289 01:43 24.08.2022
2083 Clouds 29 1008 59 10000 4.92 243 22:53 23.08.2022
2084 Clouds 29 1008 55 10000 7.2 230 22:24 23.08.2022
2085 Clouds 29 1008 56 10000 5.66 270 21:22 23.08.2022
2086 Clouds 29 1008 59 10000 6.69 270 19:54 23.08.2022
2087 Clouds 28 1009 65 10000 4.12 240 18:30 23.08.2022
2088 Clouds 27 1010 71 10000 3.6 260 17:46 23.08.2022
2089 Mist 26 1010 78 4828 2.06 40 16:35 23.08.2022
2090 Mist 24 1009 89 3219 2.57 60 15:20 23.08.2022
2091 Mist 22 1010 92 2414 3.09 40 13:26 23.08.2022
2092 Mist 22 1009 92 6437 3.09 330 11:24 23.08.2022
2093 Mist 23 1009 91 4828 2.06 30 10:35 23.08.2022
2094 Mist 23 1009 91 6437 3.58 302 09:52 23.08.2022
2095 Mist 23 1009 91 4828 2.24 294 08:51 23.08.2022
2096 Mist 23 1009 91 4828 2.06 40 08:20 23.08.2022
2097 Mist 23 1010 90 6437 2.06 10 07:34 23.08.2022
2098 Mist 23 1010 89 8047 3.58 113 06:27 23.08.2022
2099 Clouds 23 1011 88 10000 3.58 134 03:24 23.08.2022
2100 Rain 24 1010 86 10000 3.6 80 00:28 23.08.2022
2101 Rain 25 1010 83 10000 3.09 190 23:33 22.08.2022
2102 Rain 25 1011 80 10000 4.12 70 22:44 22.08.2022
2103 Thunderstorm 26 1011 75 10000 6.17 50 21:25 22.08.2022
2104 Clouds 25 1013 83 10000 4.12 110 19:47 22.08.2022
2105 Mist 24 1013 89 1609 5.36 129 18:45 22.08.2022
2106 Clouds 24 1014 80 10000 5.36 115 17:18 22.08.2022
2107 Clouds 24 1014 80 10000 4.47 115 15:39 22.08.2022
2108 Clouds 24 1014 80 10000 4.47 115 15:39 22.08.2022
2109 Clouds 23 1014 90 10000 4.02 101 13:57 22.08.2022
2110 Rain 23 1015 87 10000 3.13 110 10:43 22.08.2022
2111 Clouds 23 1016 82 10000 3.13 132 07:59 22.08.2022
2112 Clouds 24 1017 81 10000 6.17 150 04:22 22.08.2022
2113 Clear 25 1017 72 10000 5.81 121 00:43 22.08.2022
2114 Clear 26 1017 71 10000 6.71 113 00:23 22.08.2022
2115 Clouds 27 1019 65 10000 5.66 160 22:22 21.08.2022
2116 Clouds 28 1019 66 10000 5.66 160 21:25 21.08.2022
2117 Clouds 28 1019 69 10000 2.68 188 20:56 21.08.2022
2118 Clear 27 1020 69 10000 5.14 140 19:26 21.08.2022
2119 Clouds 27 1020 67 10000 5.14 160 17:35 21.08.2022
2120 Clouds 26 1020 75 10000 3.09 180 15:53 21.08.2022
2121 Clear 25 1021 75 10000 3.09 180 15:22 21.08.2022
2122 Clouds 23 1021 85 10000 2.24 207 13:53 21.08.2022
2123 Fog 22 1021 86 10000 2.06 170 13:30 21.08.2022
2124 Clouds 22 1020 86 10000 2.24 154 11:54 21.08.2022
2125 Clear 22 1020 80 10000 3.09 180 09:31 21.08.2022
2126 Clear 22 1020 79 10000 2.24 174 08:56 21.08.2022
2127 Clear 23 1020 77 10000 4.47 138 08:38 21.08.2022
2128 Clear 23 1020 74 10000 3.6 160 07:27 21.08.2022
2129 Clear 25 1020 66 10000 5.14 180 03:41 21.08.2022
2130 Clouds 28 1020 56 10000 6.26 360 00:24 21.08.2022
2131 Clear 30 1020 50 10000 7.6 160 22:41 20.08.2022
2132 Clear 31 1020 49 10000 5.81 150 21:39 20.08.2022
2133 Clouds 31 1020 49 10000 5.66 140 20:43 20.08.2022
2134 Clouds 31 1021 47 10000 4.12 150 19:41 20.08.2022
2135 Clear 31 1022 48 10000 4.12 150 18:33 20.08.2022
2136 Clouds 30 1022 54 10000 2.57 50 17:52 20.08.2022
2137 Clouds 30 1022 54 10000 2.57 50 17:18 20.08.2022
2138 Clear 27 1021 62 10000 1.79 0 15:50 20.08.2022
2139 Clear 23 1021 73 10000 1.54 280 13:36 20.08.2022
2140 Clouds 23 1020 74 10000 3.58 227 11:53 20.08.2022
2141 Clear 23 1020 70 10000 2.57 230 09:43 20.08.2022
2142 Clouds 24 1020 67 10000 2.24 360 08:53 20.08.2022
2143 Clouds 25 1019 62 10000 5.36 360 05:58 20.08.2022
2144 Clear 26 1018 63 10000 4.92 360 03:28 20.08.2022
2145 Clouds 28 1017 52 10000 6.71 157 00:51 20.08.2022
2146 Clear 29 1017 47 10000 8.49 143 23:19 19.08.2022
2147 Clear 30 1017 45 10000 8.49 147 22:35 19.08.2022
2148 Clear 32 1017 37 10000 2.57 0 20:29 19.08.2022
2149 Clear 31 1019 37 10000 2.24 167 18:51 19.08.2022
2150 Clear 27 1018 50 10000 1.34 324 15:51 19.08.2022
2151 Clear 22 1017 67 10000 2.57 310 13:36 19.08.2022
2152 Clear 21 1016 65 10000 2.57 310 11:39 19.08.2022
2153 Clear 21 1016 63 10000 2.06 300 10:29 19.08.2022
2154 Clear 23 1015 57 10000 3.09 300 07:21 19.08.2022
2155 Clear 28 1012 40 10000 6.17 320 01:24 19.08.2022
2156 Clouds 28 1012 42 10000 6.69 270 00:32 19.08.2022
2157 Clouds 28 1011 43 10000 6.69 160 23:48 18.08.2022
2158 Clouds 28 1011 44 10000 3.58 168 22:52 18.08.2022
2159 Clouds 29 1011 36 10000 5.66 240 22:18 18.08.2022
2160 Clear 30 1012 35 10000 5.14 260 21:40 18.08.2022
2161 Clouds 30 1012 33 10000 5.66 250 20:32 18.08.2022
2162 Clouds 30 1012 36 10000 5.81 285 19:32 18.08.2022
2163 Clear 28 1012 41 10000 4.63 300 18:19 18.08.2022
2164 Clear 27 1012 46 10000 4.12 270 17:19 18.08.2022
2165 Clear 23 1013 58 10000 4.12 320 15:20 18.08.2022
2166 Clear 21 1013 63 10000 5.66 300 14:20 18.08.2022
2167 Clear 20 1013 66 10000 4.12 300 13:36 18.08.2022
2168 Clear 19 1013 69 10000 3.6 290 12:27 18.08.2022
2169 Clear 19 1013 70 10000 4.12 270 10:25 18.08.2022
2170 Clear 19 1013 71 10000 3.13 222 09:42 18.08.2022
2171 Clouds 20 1013 71 10000 1.79 360 07:26 18.08.2022
2172 Clouds 21 1014 71 10000 4.12 10 05:30 18.08.2022
2173 Clouds 25 1014 51 10000 3.09 330 00:23 18.08.2022
2174 Clouds 26 1014 48 10000 3.09 0 22:20 17.08.2022
2175 Clouds 26 1015 48 10000 4.63 340 20:21 17.08.2022
2176 Clouds 26 1015 48 10000 4.63 340 20:21 17.08.2022
2177 Clouds 26 1016 47 10000 4.63 320 19:33 17.08.2022
2178 Clouds 26 1016 47 10000 4.63 320 19:33 17.08.2022
2179 Drizzle 25 1016 50 10000 3.6 320 18:32 17.08.2022
2180 Clouds 23 1017 57 10000 2.57 20 16:50 17.08.2022
2181 Clouds 23 1017 61 10000 3.13 29 15:41 17.08.2022
2182 Clouds 21 1017 65 10000 3.6 20 14:29 17.08.2022
2183 Clear 19 1016 70 10000 3.09 360 12:21 17.08.2022
2184 Clear 20 1016 71 10000 3.09 100 10:25 17.08.2022
2185 Clear 20 1016 71 10000 3.09 100 10:25 17.08.2022
2186 Clear 20 1016 71 10000 3.09 100 10:25 17.08.2022
2187 Clear 21 1016 71 10000 6.17 60 08:25 17.08.2022
2188 Clear 22 1016 70 10000 1.79 162 05:35 17.08.2022
2189 Clouds 26 1015 55 10000 3.6 160 00:49 17.08.2022
2190 Clouds 27 1015 47 10000 1.34 162 22:59 16.08.2022
2191 Clear 27 1015 43 10000 6.71 53 21:21 16.08.2022
2192 Clear 27 1017 45 10000 7.2 40 19:56 16.08.2022
2193 Clear 27 1017 46 10000 7.2 40 19:22 16.08.2022
2194 Clouds 26 1017 47 10000 3.58 42 17:55 16.08.2022
2195 Clear 24 1017 51 10000 6.17 60 16:48 16.08.2022
2196 Clear 23 1016 58 10000 6.26 55 15:45 16.08.2022
2197 Clouds 22 1017 64 10000 4.47 64 14:54 16.08.2022
2198 Clear 21 1017 66 10000 4.47 46 14:36 16.08.2022
2199 Clear 19 1016 79 10000 4.92 53 12:19 16.08.2022
2200 Clear 20 1016 70 10000 5.36 55 10:23 16.08.2022
2201 Clouds 20 1015 67 10000 4.02 72 08:54 16.08.2022
2202 Clear 21 1016 67 10000 3.58 53 08:21 16.08.2022
2203 Clear 21 1016 65 10000 2.06 40 06:32 16.08.2022
2204 Clouds 26 1014 53 10000 4.02 135 23:56 15.08.2022
2205 Clear 27 1014 44 10000 5.36 153 22:24 15.08.2022
2206 Clear 27 1015 43 10000 5.14 160 21:50 15.08.2022
2207 Clouds 28 1015 43 10000 5.66 130 20:32 15.08.2022
2208 Clouds 28 1015 46 10000 2.68 199 19:59 15.08.2022
2209 Clouds 27 1015 49 10000 5.36 193 17:59 15.08.2022
2210 Clear 25 1016 52 10000 1.54 60 16:25 15.08.2022
2211 Clouds 25 1015 54 10000 0.89 270 15:54 15.08.2022
2212 Clear 21 1016 64 10000 2.06 30 13:54 15.08.2022
2213 Clouds 20 1016 63 10000 2.57 280 11:24 15.08.2022
2214 Clear 20 1016 63 10000 1.54 230 09:42 15.08.2022
2215 Clouds 21 1017 62 10000 3.09 180 07:44 15.08.2022
2216 Clear 22 1017 60 10000 4.92 164 04:34 15.08.2022
2217 Clear 26 1016 48 10000 7.6 167 00:33 15.08.2022
2218 Clear 27 1016 39 10000 7.2 170 22:30 14.08.2022
2219 Clear 27 1016 41 10000 6.17 170 21:37 14.08.2022
2220 Clear 27 1017 42 10000 4.63 170 19:48 14.08.2022
2221 Clear 27 1018 42 10000 4.63 160 18:57 14.08.2022
2222 Clear 26 1019 43 10000 4.63 160 18:18 14.08.2022
2223 Clouds 25 1017 49 10000 1.79 180 16:52 14.08.2022
2224 Clear 24 1018 53 10000 2.06 60 15:48 14.08.2022
2225 Clear 21 1019 58 10000 2.06 70 14:27 14.08.2022
2226 Clear 20 1019 60 10000 1.79 165 13:50 14.08.2022
2227 Clear 19 1019 62 10000 1.54 260 13:19 14.08.2022
2228 Clear 18 1018 62 10000 2.24 360 12:23 14.08.2022
2229 Clear 19 1018 60 10000 1.54 290 10:50 14.08.2022
2230 Clouds 19 1018 59 10000 4.02 360 08:51 14.08.2022
2231 Clouds 21 1019 56 10000 4.12 220 06:22 14.08.2022
2232 Clear 23 1018 47 10000 3.6 80 02:49 14.08.2022
2233 Clear 26 1017 37 10000 6.71 49 23:53 13.08.2022
2234 Clear 27 1017 36 10000 2.68 40 22:52 13.08.2022
2235 Clouds 26 1018 37 10000 5.14 10 21:19 13.08.2022
2236 Clouds 26 1019 38 10000 4.12 360 20:43 13.08.2022
2237 Clouds 25 1019 41 10000 4.63 360 19:44 13.08.2022
2238 Clouds 24 1020 44 10000 5.14 20 17:59 13.08.2022
2239 Clear 22 1019 47 10000 6.17 10 15:40 13.08.2022
2240 Clear 20 1020 55 10000 5.66 360 14:28 13.08.2022
2241 Clear 19 1019 58 10000 4.63 360 13:41 13.08.2022
2242 Clear 18 1018 58 10000 5.14 360 11:53 13.08.2022
2243 Clear 19 1018 55 10000 5.66 10 10:31 13.08.2022
2244 Clear 20 1018 51 10000 6.17 360 09:19 13.08.2022
2245 Clear 23 1017 38 10000 7.2 350 05:57 13.08.2022
2246 Clouds 28 1015 35 10000 3.58 43 00:30 13.08.2022
2247 Clear 29 1015 31 10000 5.66 20 22:23 12.08.2022
2248 Clear 29 1015 31 10000 4.12 40 21:20 12.08.2022
2249 Clear 28 1016 35 10000 4.63 350 19:44 12.08.2022
2250 Clouds 28 1016 38 10000 4.63 330 18:58 12.08.2022
2251 Clouds 27 1016 43 10000 2.68 30 17:57 12.08.2022
2252 Clear 24 1016 52 10000 7.2 20 16:24 12.08.2022
2253 Clear 23 1016 59 10000 5.66 10 14:50 12.08.2022
2254 Clouds 22 1015 63 10000 6.69 20 12:59 12.08.2022
2255 Clouds 22 1014 61 10000 6.69 360 11:39 12.08.2022
2256 Clear 24 1013 51 10000 7.2 350 08:47 12.08.2022
2257 Clouds 25 1013 49 10000 8.23 350 07:44 12.08.2022
2258 Clouds 26 1011 68 10000 4.12 180 03:41 12.08.2022
2259 Clear 30 1011 48 10000 3.58 126 00:31 12.08.2022
2260 Clear 31 1011 43 10000 5.14 320 23:42 11.08.2022
2261 Clear 31 1011 40 10000 4.63 320 22:37 11.08.2022
2262 Clear 31 1011 41 10000 4.63 310 21:52 11.08.2022
2263 Clear 31 1011 41 10000 4.63 310 21:23 11.08.2022
2264 Clouds 31 1012 44 10000 4.63 260 20:30 11.08.2022
2265 Clear 30 1012 49 10000 4.63 290 19:33 11.08.2022
2266 Clear 29 1013 53 10000 3.09 340 18:41 11.08.2022
2267 Clouds 26 1013 74 10000 3.6 350 16:46 11.08.2022
2268 Mist 24 1013 85 6437 3.58 333 15:42 11.08.2022
2269 Mist 24 1013 85 6437 3.58 333 15:42 11.08.2022
2270 Mist 22 1013 89 4023 3.6 350 14:20 11.08.2022
2271 Clouds 24 1013 82 10000 3.09 40 11:53 11.08.2022
2272 Clouds 24 1014 80 10000 0.45 73 08:48 11.08.2022
2273 Clouds 25 1015 75 10000 4.12 190 05:44 11.08.2022
2274 Clouds 26 1015 75 10000 5.14 190 02:26 11.08.2022
2275 Clouds 30 1015 58 10000 1.79 234 22:59 10.08.2022
2276 Clouds 30 1016 52 10000 6.17 280 21:46 10.08.2022
2277 Clouds 30 1016 53 10000 2.24 288 20:56 10.08.2022
2278 Clouds 29 1016 52 10000 3.09 40 20:27 10.08.2022
2279 Clouds 29 1018 51 10000 3.09 50 18:48 10.08.2022
2280 Clouds 28 1018 54 10000 4.63 60 17:27 10.08.2022
2281 Clouds 25 1018 62 10000 4.92 31 14:36 10.08.2022
2282 Clear 24 1017 65 10000 4.63 60 13:32 10.08.2022
2283 Clouds 25 1016 61 10000 7.15 23 10:50 10.08.2022
2284 Clear 27 1015 67 10000 5.36 22 08:39 10.08.2022
2285 Clouds 27 1015 71 10000 4.12 290 07:35 10.08.2022
2286 Clouds 28 1015 70 10000 4.12 300 04:50 10.08.2022
2287 Thunderstorm 30 1013 62 10000 4.12 310 01:33 10.08.2022
2288 Clouds 35 1011 44 10000 7.72 270 23:31 09.08.2022
2289 Clouds 35 1012 45 10000 8.49 282 22:45 09.08.2022
2290 Clouds 36 1011 45 10000 8.94 275 21:24 09.08.2022
2291 Clouds 35 1012 49 10000 8.49 281 19:28 09.08.2022
2292 Clear 33 1013 57 10000 7.72 280 17:39 09.08.2022
2293 Clear 33 1013 57 10000 7.72 280 17:21 09.08.2022
2294 Clear 32 1013 62 10000 4.63 250 16:30 09.08.2022
2295 Clear 30 1013 70 10000 5.66 230 15:26 09.08.2022
2296 Clear 27 1013 81 10000 6.17 230 11:49 09.08.2022
2297 Clear 28 1013 77 10000 4.63 260 08:54 09.08.2022
2298 Clouds 28 1013 75 10000 5.36 223 07:59 09.08.2022
2299 Clear 29 1013 71 10000 4.47 264 06:55 09.08.2022
2300 Clear 31 1013 58 10000 4.12 250 01:57 09.08.2022
2301 Clouds 34 1013 51 10000 7.72 240 23:26 08.08.2022
2302 Clouds 34 1013 50 10000 5.36 238 22:52 08.08.2022
2303 Clouds 34 1014 50 10000 8.75 250 21:47 08.08.2022
2304 Clouds 34 1014 52 10000 7.2 240 20:43 08.08.2022
2305 Clouds 34 1015 55 10000 7.72 240 19:50 08.08.2022
2306 Clouds 32 1016 60 10000 7.2 210 18:19 08.08.2022
2307 Clouds 29 1017 73 10000 4.47 226 15:57 08.08.2022
2308 Clouds 29 1017 76 10000 6.17 240 15:38 08.08.2022
2309 Clouds 26 1018 83 10000 4.92 194 12:35 08.08.2022
2310 Clear 26 1017 82 10000 5.14 220 11:32 08.08.2022
2311 Clear 27 1018 74 10000 5.66 220 08:26 08.08.2022
2312 Clear 28 1019 64 10000 7.2 200 05:33 08.08.2022
2313 Clear 31 1018 53 10000 5.36 250 01:55 08.08.2022
2314 Clear 31 1020 67 10000 8.75 210 21:51 07.08.2022
2315 Clouds 31 1019 68 10000 8.75 210 21:32 07.08.2022
2316 Rain 33 1019 56 10000 11.32 230 20:25 07.08.2022
2317 Clouds 33 1020 56 10000 3.58 0 19:53 07.08.2022
2318 Clouds 33 1020 53 10000 7.72 220 19:29 07.08.2022
2319 Clouds 32 1021 61 10000 4.02 159 17:59 07.08.2022
2320 Clouds 30 1022 69 10000 6.17 240 16:53 07.08.2022
2321 Clouds 29 1022 76 10000 5.66 230 15:49 07.08.2022
2322 Clouds 27 1022 83 10000 6.69 220 14:34 07.08.2022
2323 Clear 26 1022 81 10000 5.81 197 12:51 07.08.2022
2324 Clouds 26 1022 79 10000 5.66 230 10:57 07.08.2022
2325 Clear 26 1022 79 10000 6.17 220 10:21 07.08.2022
2326 Clouds 28 1022 67 10000 4.02 210 04:58 07.08.2022
2327 Clear 29 1021 64 10000 5.66 240 03:18 07.08.2022
2328 Clouds 32 1021 49 10000 7.2 210 23:30 06.08.2022
2329 Clear 32 1021 49 10000 7.72 220 22:20 06.08.2022
2330 Clear 33 1022 51 10000 6.69 240 20:24 06.08.2022
2331 Clear 32 1023 54 10000 6.17 210 19:38 06.08.2022
2332 Clear 31 1023 58 10000 5.66 200 18:22 06.08.2022
2333 Clear 29 1023 66 10000 3.6 190 16:40 06.08.2022
2334 Clear 26 1023 74 10000 3.6 260 14:31 06.08.2022
2335 Clear 25 1023 77 10000 3.6 230 13:40 06.08.2022
2336 Clouds 24 1022 80 10000 3.09 260 11:24 06.08.2022
2337 Clouds 25 1022 77 10000 2.68 223 09:51 06.08.2022
2338 Clouds 25 1021 73 10000 4.63 240 08:28 06.08.2022
2339 Clouds 28 1021 67 10000 2.68 154 03:51 06.08.2022
2340 Clear 32 1020 54 10000 5.14 180 23:34 05.08.2022
2341 Clear 33 1019 51 10000 5.14 190 22:22 05.08.2022
2342 Clear 30 1021 61 10000 3.09 190 19:32 05.08.2022
2343 Clear 29 1021 66 10000 3.09 220 18:44 05.08.2022
2344 Clouds 28 1021 71 10000 2.24 165 17:54 05.08.2022
2345 Clear 27 1021 70 10000 4.63 230 16:49 05.08.2022
2346 Clear 27 1021 70 10000 4.63 230 16:49 05.08.2022
2347 Clouds 26 1020 71 10000 3.09 240 15:22 05.08.2022
2348 Clear 26 1020 73 10000 3.6 220 14:19 05.08.2022
2349 Clouds 25 1020 72 10000 2.68 360 13:23 05.08.2022
2350 Clear 25 1019 72 10000 3.6 280 12:29 05.08.2022
2351 Clouds 25 1018 73 10000 4.92 221 10:51 05.08.2022
2352 Clear 26 1018 68 10000 4.47 245 08:27 05.08.2022
2353 Clouds 26 1018 70 10000 3.13 360 06:56 05.08.2022
2354 Clouds 26 1018 70 10000 3.13 360 06:56 05.08.2022
2355 Clear 31 1016 64 10000 7.2 170 00:46 05.08.2022
2356 Clear 33 1016 54 10000 8.75 180 22:32 04.08.2022
2357 Clear 34 1016 50 10000 7.72 170 21:27 04.08.2022
2358 Clouds 34 1016 48 10000 7.2 160 20:44 04.08.2022
2359 Clear 34 1017 48 10000 4.63 210 19:49 04.08.2022
2360 Clear 33 1017 51 10000 1.79 208 18:51 04.08.2022
2361 Clear 33 1018 50 10000 4.63 220 18:32 04.08.2022
2362 Clouds 27 1018 67 10000 2.57 220 14:39 04.08.2022
2363 Clouds 24 1018 77 10000 2.24 360 13:22 04.08.2022
2364 Clouds 24 1017 73 10000 4.02 360 11:33 04.08.2022
2365 Clear 25 1016 76 10000 1.79 360 07:56 04.08.2022
2366 Clear 25 1017 79 10000 2.57 190 07:27 04.08.2022
2367 Clear 27 1015 71 10000 5.14 180 02:42 04.08.2022
2368 Clear 30 1014 53 10000 4.92 168 23:52 03.08.2022
2369 Clear 31 1015 48 10000 6.17 180 23:33 03.08.2022
2370 Clear 32 1015 37 10000 4.12 240 21:26 03.08.2022
2371 Clear 32 1016 38 10000 5.66 310 20:19 03.08.2022
2372 Clear 30 1016 46 10000 4.12 240 18:40 03.08.2022
2373 Clear 27 1016 60 10000 2.57 360 16:27 03.08.2022
2374 Clear 27 1016 61 10000 1.79 43 15:53 03.08.2022
2375 Clear 23 1015 70 10000 3.09 20 13:38 03.08.2022
2376 Clear 24 1014 67 10000 4.92 326 10:44 03.08.2022
2377 Clear 26 1013 62 10000 6.17 350 07:21 03.08.2022
2378 Clear 28 1011 57 10000 2.57 360 04:22 03.08.2022
2379 Clouds 29 1010 52 10000 3.09 290 03:23 03.08.2022
2380 Clear 32 1009 47 10000 6.69 250 00:49 03.08.2022
2381 Clear 33 1008 47 10000 6.69 270 22:36 02.08.2022
2382 Clouds 33 1009 48 10000 5.14 270 21:51 02.08.2022
2383 Clouds 32 1009 53 10000 5.66 260 20:29 02.08.2022
2384 Clear 30 1010 64 10000 6.69 260 17:52 02.08.2022
2385 Clouds 24 1010 84 10000 4.63 230 14:46 02.08.2022
2386 Clear 21 1010 88 10000 3.6 190 10:50 02.08.2022
2387 Clear 21 1011 88 10000 4.12 190 08:54 02.08.2022
2388 Clear 21 1011 88 10000 3.09 200 07:52 02.08.2022
2389 Clear 22 1011 87 10000 4.12 210 05:40 02.08.2022
2390 Clear 22 1012 88 10000 4.12 200 03:40 02.08.2022
2391 Clouds 24 1013 80 10000 2.57 270 23:35 01.08.2022
2392 Drizzle 23 1013 82 10000 2.57 260 22:22 01.08.2022
2393 Haze 23 1014 86 10000 3.09 50 20:47 01.08.2022
2394 Mist 22 1014 87 4023 3.09 40 19:22 01.08.2022
2395 Mist 22 1015 89 8047 3.09 60 17:57 01.08.2022
2396 Clouds 22 1015 86 3219 3.09 50 16:52 01.08.2022
2397 Mist 21 1016 88 8047 3.09 60 15:52 01.08.2022
2398 Mist 21 1015 88 8047 4.92 59 15:30 01.08.2022
2399 Mist 21 1015 90 9656 4.92 56 13:45 01.08.2022
2400 Rain 20 1016 89 4828 5.36 13 11:49 01.08.2022
2401 Rain 20 1016 89 4828 5.36 13 11:49 01.08.2022
2402 Rain 22 1017 86 2414 4.12 300 09:39 01.08.2022
2403 Rain 23 1017 77 10000 4.12 320 08:21 01.08.2022
2404 Clear 25 1018 72 10000 3.09 170 04:47 01.08.2022
2405 Clouds 26 1019 74 10000 5.14 170 02:32 01.08.2022
2406 Clouds 28 1019 60 10000 5.36 172 23:54 31.07.2022
2407 Clear 29 1019 48 10000 5.66 170 22:36 31.07.2022
2408 Clear 29 1019 48 10000 5.66 170 22:36 31.07.2022
2409 Clear 30 1021 44 10000 6.69 170 21:24 31.07.2022
2410 Clouds 30 1021 44 10000 4.63 150 19:41 31.07.2022
2411 Clear 28 1022 48 10000 2.57 50 17:47 31.07.2022
2412 Clear 26 1023 54 10000 3.09 70 15:37 31.07.2022
2413 Clear 23 1022 62 10000 2.57 20 13:42 31.07.2022
2414 Clear 21 1022 64 10000 1.79 274 11:55 31.07.2022
2415 Clear 22 1021 60 10000 3.09 20 09:36 31.07.2022
2416 Clear 25 1021 51 10000 4.12 360 06:48 31.07.2022
2417 Clear 27 1019 45 10000 4.02 326 02:58 31.07.2022
2418 Clouds 31 1016 36 10000 4.92 297 23:36 30.07.2022
2419 Clouds 31 1017 36 10000 7.2 310 22:19 30.07.2022
2420 Clouds 31 1017 36 10000 7.2 320 21:48 30.07.2022
2421 Clouds 31 1017 37 10000 6.69 310 20:57 30.07.2022
2422 Clouds 30 1016 39 10000 6.69 260 19:59 30.07.2022
2423 Clear 30 1017 39 10000 6.26 304 18:53 30.07.2022
2424 Clear 29 1017 42 10000 6.71 283 17:44 30.07.2022
2425 Clouds 26 1016 52 10000 7.15 309 15:50 30.07.2022
2426 Clear 26 1016 54 10000 7.6 312 15:22 30.07.2022
2427 Clear 23 1015 65 10000 5.14 320 13:18 30.07.2022
2428 Clouds 23 1014 72 10000 4.63 310 12:19 30.07.2022
2429 Clouds 24 1013 71 10000 5.14 320 10:31 30.07.2022
2430 Clouds 24 1013 71 10000 5.14 320 10:31 30.07.2022
2431 Clouds 24 1013 71 10000 5.14 320 10:31 30.07.2022
2432 Clouds 24 1013 71 10000 4.02 307 09:54 30.07.2022
2433 Clouds 25 1012 70 10000 3.58 360 07:55 30.07.2022
2434 Rain 26 1012 64 10000 2.24 297 02:57 30.07.2022
2435 Clouds 27 1012 60 10000 5.66 300 02:24 30.07.2022
2436 Clouds 29 1013 53 10000 6.17 240 22:44 29.07.2022
2437 Clouds 29 1014 54 10000 6.69 240 21:24 29.07.2022
2438 Clouds 29 1013 55 10000 6.17 230 20:39 29.07.2022
2439 Clear 29 1014 54 10000 3.09 260 18:26 29.07.2022
2440 Clear 27 1013 70 10000 2.68 198 15:38 29.07.2022
2441 Clear 24 1012 77 10000 3.13 360 13:37 29.07.2022
2442 Clear 23 1011 79 10000 3.6 290 11:28 29.07.2022
2443 Clear 25 1010 79 10000 4.63 260 08:50 29.07.2022
2444 Clear 25 1010 77 10000 4.92 270 08:20 29.07.2022
2445 Clouds 29 1008 64 10000 5.66 230 02:29 29.07.2022
2446 Clear 30 1009 72 10000 8.23 180 23:18 28.07.2022
2447 Clouds 31 1009 67 10000 5.66 180 21:29 28.07.2022
2448 Clear 31 1010 62 10000 5.14 190 20:45 28.07.2022
2449 Clear 31 1011 63 10000 3.6 230 19:44 28.07.2022
2450 Clear 31 1011 64 10000 3.6 230 19:25 28.07.2022
2451 Clear 29 1011 74 10000 2.57 0 17:44 28.07.2022
2452 Clear 28 1011 75 10000 3.09 220 17:19 28.07.2022
2453 Clouds 28 1011 76 10000 3.09 250 16:39 28.07.2022
2454 Clouds 24 1011 89 10000 3.6 180 13:47 28.07.2022
2455 Clouds 23 1011 90 10000 3.13 224 12:33 28.07.2022
2456 Clear 25 1012 77 10000 4.12 170 07:33 28.07.2022
2457 Clear 25 1012 74 10000 3.13 160 05:37 28.07.2022
2458 Clear 25 1012 74 10000 2.57 180 05:18 28.07.2022
2459 Clear 28 1012 53 10000 6.17 190 23:19 27.07.2022
2460 Clear 30 1013 45 10000 5.14 130 21:30 27.07.2022
2461 Clear 29 1014 44 10000 5.66 160 19:46 27.07.2022
2462 Clear 29 1014 44 10000 5.66 160 19:19 27.07.2022
2463 Clear 27 1014 47 10000 3.6 50 16:31 27.07.2022
2464 Clear 26 1014 51 10000 1.54 260 15:51 27.07.2022
2465 Clouds 24 1015 59 10000 2.57 50 14:41 27.07.2022
2466 Clouds 23 1015 65 10000 2.57 60 13:34 27.07.2022
2467 Clear 21 1015 67 10000 1.54 70 09:29 27.07.2022
2468 Clear 22 1015 63 10000 2.06 250 07:47 27.07.2022
2469 Clear 24 1015 57 10000 3.09 270 04:53 27.07.2022
2470 Clear 27 1015 46 10000 6.17 280 23:21 26.07.2022
2471 Clear 27 1015 44 10000 6.17 280 21:49 26.07.2022
2472 Clear 27 1016 45 10000 4.63 260 20:49 26.07.2022
2473 Clear 26 1016 48 10000 5.66 270 19:22 26.07.2022
2474 Clear 26 1016 51 10000 3.09 270 18:40 26.07.2022
2475 Clear 26 1016 50 10000 3.09 40 17:47 26.07.2022
2476 Clouds 24 1017 57 10000 3.6 330 15:43 26.07.2022
2477 Clear 24 1017 60 10000 2.68 309 14:43 26.07.2022
2478 Clear 22 1015 65 10000 4.12 10 12:32 26.07.2022
2479 Clear 23 1015 69 10000 5.66 40 10:20 26.07.2022
2480 Clouds 25 1013 78 10000 6.17 50 08:27 26.07.2022
2481 Clouds 29 1011 65 10000 4.12 260 01:52 26.07.2022
2482 Clouds 29 1010 66 10000 3.13 257 01:52 26.07.2022
2483 Clouds 31 1010 61 10000 6.69 240 00:20 26.07.2022
2484 Clouds 28 1011 76 10000 4.12 160 22:40 25.07.2022
2485 Clouds 28 1011 77 10000 4.12 160 22:40 25.07.2022
2486 Thunderstorm 29 1011 67 10000 1.54 0 21:43 25.07.2022
2487 Clouds 29 1011 72 10000 3.09 320 20:43 25.07.2022
2488 Clouds 29 1011 73 10000 3.09 320 20:24 25.07.2022
2489 Thunderstorm 30 1012 67 10000 7.72 310 19:24 25.07.2022
2490 Clear 30 1012 64 10000 6.17 220 17:42 25.07.2022
2491 Clear 30 1012 65 10000 7.72 240 16:44 25.07.2022
2492 Clear 28 1011 75 10000 8.75 210 13:27 25.07.2022
2493 Clear 28 1012 77 10000 6.17 200 10:54 25.07.2022
2494 Clear 28 1013 73 10000 4.92 165 07:53 25.07.2022
2495 Clear 34 1013 43 10000 8.05 233 00:57 25.07.2022
2496 Clouds 35 1013 41 10000 7.2 160 23:45 24.07.2022
2497 Clouds 35 1014 40 10000 8.75 160 22:47 24.07.2022
2498 Clouds 36 1014 36 10000 8.75 230 21:42 24.07.2022
2499 Smoke 35 1015 36 10000 5.36 259 20:59 24.07.2022
2500 Smoke 36 1015 35 10000 5.14 250 20:41 24.07.2022
2501 Clear 35 1016 36 10000 5.36 266 19:23 24.07.2022
2502 Clear 34 1016 39 10000 7.2 270 18:26 24.07.2022
2503 Clouds 30 1016 50 10000 7.72 250 15:55 24.07.2022
2504 Clouds 28 1017 56 10000 6.69 260 14:57 24.07.2022
2505 Clear 27 1016 65 10000 5.66 240 13:50 24.07.2022
2506 Clear 26 1015 72 10000 2.57 220 12:28 24.07.2022
2507 Clear 26 1015 71 10000 3.6 230 11:31 24.07.2022
2508 Clear 27 1016 66 10000 4.92 190 09:55 24.07.2022
2509 Clear 27 1015 63 10000 3.09 220 08:29 24.07.2022
2510 Clear 28 1016 61 10000 2.57 220 07:44 24.07.2022
2511 Clear 29 1016 62 10000 2.68 191 03:35 24.07.2022
2512 Clear 33 1015 42 10000 6.17 180 23:36 23.07.2022
2513 Clear 35 1016 32 10000 2.24 324 20:51 23.07.2022
2514 Clear 34 1016 35 10000 3.09 280 19:31 23.07.2022
2515 Clear 34 1016 38 10000 2.24 101 18:49 23.07.2022
2516 Clear 32 1016 42 10000 3.6 250 17:28 23.07.2022
2517 Clear 31 1016 47 10000 3.6 350 16:30 23.07.2022
2518 Clear 29 1016 54 10000 3.09 310 15:22 23.07.2022
2519 Clouds 29 1016 56 10000 4.92 43 14:56 23.07.2022
2520 Clear 28 1016 60 10000 4.12 320 14:24 23.07.2022
2521 Clear 28 1016 60 10000 4.12 320 14:24 23.07.2022
2522 Clear 25 1016 70 10000 3.09 300 12:44 23.07.2022
2523 Clear 26 1015 66 10000 4.12 240 10:45 23.07.2022
2524 Clear 26 1014 67 10000 4.12 240 09:54 23.07.2022
2525 Clear 27 1014 62 10000 4.47 360 08:31 23.07.2022
2526 Clear 28 1013 58 10000 1.54 320 03:38 23.07.2022
2527 Clouds 30 1011 53 10000 7.6 332 00:41 23.07.2022
2528 Clear 34 1011 40 10000 7.2 180 22:32 22.07.2022
2529 Clear 35 1011 35 10000 4.47 200 20:51 22.07.2022
2530 Clouds 34 1012 32 10000 5.14 250 19:34 22.07.2022
2531 Clear 33 1013 37 10000 4.47 275 18:28 22.07.2022
2532 Clouds 31 1012 46 10000 5.36 283 16:49 22.07.2022
2533 Clear 29 1011 56 10000 3.6 220 14:51 22.07.2022
2534 Clear 26 1009 67 10000 2.57 320 11:22 22.07.2022
2535 Clear 27 1008 62 10000 4.12 300 09:25 22.07.2022
2536 Clear 28 1007 61 10000 3.6 240 08:29 22.07.2022
2537 Clear 30 1007 50 10000 6.17 260 05:19 22.07.2022
2538 Clouds 34 1003 43 10000 8.05 274 00:48 22.07.2022
2539 Clouds 34 1003 51 10000 9.26 250 22:25 21.07.2022
2540 Clouds 34 1003 55 10000 8.23 250 21:33 21.07.2022
2541 Clear 34 1003 57 10000 8.75 160 19:27 21.07.2022
2542 Clouds 33 1005 59 10000 5.66 250 17:41 21.07.2022
2543 Clouds 32 1005 60 10000 5.66 250 17:19 21.07.2022
2544 Clouds 32 1005 60 10000 5.66 250 17:19 21.07.2022
2545 Clear 29 1005 72 10000 4.63 230 15:22 21.07.2022
2546 Clear 28 1005 75 10000 5.14 220 14:37 21.07.2022
2547 Clear 25 1004 80 10000 3.6 150 12:28 21.07.2022
2548 Clear 25 1004 79 10000 3.13 164 11:19 21.07.2022
2549 Clear 26 1005 72 10000 4.12 210 09:38 21.07.2022
2550 Clear 26 1005 72 10000 3.13 169 08:52 21.07.2022
2551 Clear 27 1006 71 10000 3.6 200 07:50 21.07.2022
2552 Clear 28 1006 64 10000 6.17 210 06:24 21.07.2022
2553 Clear 33 1005 50 10000 7.15 168 00:48 21.07.2022
2554 Clouds 34 1006 46 10000 6.17 180 22:22 20.07.2022
2555 Clouds 35 1007 45 10000 9.26 160 21:30 20.07.2022
2556 Clear 35 1008 45 10000 4.12 190 19:54 20.07.2022
2557 Clear 35 1008 44 10000 5.66 260 19:25 20.07.2022
2558 Clear 35 1008 47 10000 0.45 138 18:52 20.07.2022
2559 Clear 34 1008 47 10000 2.06 300 18:27 20.07.2022
2560 Clear 31 1009 56 10000 3.6 310 16:46 20.07.2022
2561 Clear 30 1009 58 10000 4.12 310 15:32 20.07.2022
2562 Clear 28 1009 64 10000 3.09 330 14:26 20.07.2022
2563 Clear 25 1008 69 10000 3.09 230 12:34 20.07.2022
2564 Clear 25 1008 67 10000 4.12 240 10:24 20.07.2022
2565 Clear 29 1009 56 10000 6.26 229 05:44 20.07.2022
2566 Clouds 33 1006 46 10000 8.05 283 00:54 20.07.2022
2567 Clouds 33 1007 45 10000 6.71 283 00:36 20.07.2022
2568 Clear 33 1007 44 10000 8.05 279 22:35 19.07.2022
2569 Clouds 33 1007 44 10000 4.92 292 21:53 19.07.2022
2570 Clear 33 1008 43 10000 7.6 270 20:49 19.07.2022
2571 Clear 32 1008 45 10000 5.66 250 19:22 19.07.2022
2572 Clear 31 1009 47 10000 5.66 250 18:35 19.07.2022
2573 Clear 30 1009 53 10000 6.71 292 17:53 19.07.2022
2574 Clouds 26 1009 69 10000 6.69 260 15:26 19.07.2022
2575 Clear 24 1009 79 10000 5.14 240 13:33 19.07.2022
2576 Clear 23 1008 80 10000 6.69 250 11:32 19.07.2022
2577 Clear 23 1007 81 10000 5.36 238 09:51 19.07.2022
2578 Clear 24 1008 82 10000 5.36 349 08:46 19.07.2022
2579 Clouds 24 1008 82 10000 6.26 359 07:46 19.07.2022
2580 Clouds 24 1008 82 10000 6.26 327 07:18 19.07.2022
2581 Clouds 25 1007 80 10000 8.94 342 05:18 19.07.2022
2582 Mist 26 1007 84 10000 5.81 174 02:38 19.07.2022
2583 Mist 26 1008 82 10000 5.14 10 23:57 18.07.2022
2584 Mist 26 1008 84 10000 7.2 130 23:20 18.07.2022
2585 Clouds 26 1009 83 10000 6.69 50 22:27 18.07.2022
2586 Rain 27 1010 79 10000 4.63 50 21:24 18.07.2022
2587 Clouds 28 1010 76 10000 9.26 190 20:45 18.07.2022
2588 Thunderstorm 27 1013 78 10000 6.71 134 18:50 18.07.2022
2589 Mist 26 1013 83 10000 4.63 40 16:45 18.07.2022
2590 Mist 25 1014 87 10000 3.6 60 15:34 18.07.2022
2591 Clouds 24 1015 85 10000 3.6 150 13:40 18.07.2022
2592 Thunderstorm 24 1015 85 10000 2.57 170 12:21 18.07.2022
2593 Clouds 24 1015 83 10000 0.89 150 09:56 18.07.2022
2594 Clouds 25 1016 80 10000 2.06 170 08:19 18.07.2022
2595 Clouds 25 1016 77 10000 2.24 305 06:39 18.07.2022
2596 Clear 28 1015 69 10000 5.66 140 23:19 17.07.2022
2597 Clear 28 1017 65 10000 4.12 150 22:32 17.07.2022
2598 Clear 29 1017 62 10000 4.12 190 21:43 17.07.2022
2599 Clouds 29 1016 62 10000 4.12 150 20:46 17.07.2022
2600 Clouds 29 1016 62 10000 4.12 150 20:18 17.07.2022
2601 Clouds 29 1016 63 10000 4.63 170 19:26 17.07.2022
2602 Clouds 28 1017 66 10000 3.09 140 18:22 17.07.2022
2603 Clouds 27 1017 69 10000 3.09 240 17:37 17.07.2022
2604 Clouds 26 1017 70 10000 1.54 200 16:50 17.07.2022
2605 Clouds 26 1017 72 10000 2.57 290 16:25 17.07.2022
2606 Clouds 24 1017 78 10000 2.06 220 14:32 17.07.2022
2607 Clouds 22 1017 81 10000 2.06 270 13:28 17.07.2022
2608 Rain 22 1016 82 10000 2.24 172 10:59 17.07.2022
2609 Clouds 23 1017 80 10000 5.14 240 08:50 17.07.2022
2610 Clear 24 1017 82 10000 3.58 138 03:43 17.07.2022
2611 Clouds 25 1017 81 10000 4.12 180 02:21 17.07.2022
2612 Clouds 26 1016 70 10000 4.92 136 23:20 16.07.2022
2613 Clouds 27 1017 73 10000 3.6 150 21:25 16.07.2022
2614 Clouds 28 1019 63 10000 5.14 50 19:25 16.07.2022
2615 Clear 28 1019 67 10000 4.12 60 18:27 16.07.2022
2616 Clouds 26 1020 73 10000 4.12 50 16:31 16.07.2022
2617 Smoke 23 1020 82 10000 4.02 37 13:47 16.07.2022
2618 Clouds 22 1020 86 10000 0.89 320 10:53 16.07.2022
2619 Clouds 22 1020 85 10000 3.09 190 09:33 16.07.2022
2620 Clouds 22 1020 84 10000 2.06 180 08:43 16.07.2022
2621 Clouds 22 1020 84 10000 3.13 156 08:19 16.07.2022
2622 Clouds 23 1020 79 10000 4.02 146 03:58 16.07.2022
2623 Clear 24 1020 72 10000 5.14 170 02:40 16.07.2022
2624 Clear 28 1020 56 10000 4.12 160 23:30 15.07.2022
2625 Clear 28 1020 50 10000 5.81 177 22:40 15.07.2022
2626 Clear 29 1020 47 10000 5.14 150 21:29 15.07.2022
2627 Clouds 28 1021 46 10000 4.12 140 20:26 15.07.2022
2628 Clouds 28 1021 46 10000 5.14 50 18:40 15.07.2022
2629 Clouds 27 1021 47 10000 5.14 50 17:38 15.07.2022
2630 Clouds 23 1020 61 10000 6.17 10 14:54 15.07.2022
2631 Clouds 22 1019 60 10000 4.02 15 12:58 15.07.2022
2632 Clouds 22 1019 59 10000 4.63 20 11:27 15.07.2022
2633 Clouds 23 1019 56 10000 5.36 21 09:44 15.07.2022
2634 Clouds 25 1018 52 10000 4.63 360 06:30 15.07.2022
2635 Clouds 30 1014 44 10000 4.02 338 00:58 15.07.2022
2636 Clouds 30 1014 42 10000 6.17 310 00:21 15.07.2022
2637 Clouds 31 1014 44 10000 4.47 28 22:52 14.07.2022
2638 Clouds 31 1015 43 10000 2.68 312 21:51 14.07.2022
2639 Clouds 31 1014 42 10000 4.63 290 21:30 14.07.2022
2640 Clouds 31 1015 46 10000 3.09 50 20:45 14.07.2022
2641 Clouds 31 1014 46 10000 3.58 319 20:24 14.07.2022
2642 Clear 30 1015 47 10000 4.12 330 19:19 14.07.2022
2643 Clear 27 1014 63 10000 4.47 49 16:23 14.07.2022
2644 Clear 26 1014 66 10000 4.12 50 15:50 14.07.2022
2645 Clouds 24 1014 72 10000 4.12 10 14:43 14.07.2022
2646 Clouds 23 1014 77 10000 4.63 20 13:32 14.07.2022
2647 Clear 22 1013 78 10000 4.63 360 12:18 14.07.2022
2648 Clear 22 1013 77 10000 4.63 50 11:25 14.07.2022
2649 Clear 23 1013 75 10000 4.63 60 10:39 14.07.2022
2650 Clear 24 1012 73 10000 3.6 40 08:21 14.07.2022
2651 Clear 26 1012 67 10000 6.17 180 03:36 14.07.2022
2652 Clear 29 1011 53 10000 6.71 169 00:54 14.07.2022
2653 Clear 31 1012 47 10000 5.66 170 23:38 13.07.2022
2654 Clouds 32 1011 39 10000 5.66 260 22:26 13.07.2022
2655 Clear 32 1011 38 10000 4.12 280 21:32 13.07.2022
2656 Clouds 32 1012 36 10000 5.66 280 20:38 13.07.2022
2657 Clear 30 1012 42 10000 1.79 160 17:59 13.07.2022
2658 Clear 30 1013 43 10000 2.57 310 17:20 13.07.2022
2659 Clear 28 1013 50 10000 4.47 46 15:59 13.07.2022
2660 Clear 25 1011 65 10000 3.13 356 13:50 13.07.2022
2661 Clear 24 1010 74 10000 3.6 10 11:30 13.07.2022
2662 Clear 24 1009 77 10000 3.09 340 10:44 13.07.2022
2663 Clear 25 1009 73 10000 5.36 310 09:29 13.07.2022
2664 Clear 25 1009 73 10000 2.68 276 08:23 13.07.2022
2665 Clear 27 1007 61 10000 4.63 260 04:36 13.07.2022
2666 Clear 29 1005 49 10000 9.26 240 00:47 13.07.2022
2667 Clouds 31 1006 55 10000 8.05 214 22:47 12.07.2022
2668 Clouds 32 1006 54 10000 8.23 220 21:49 12.07.2022
2669 Clouds 32 1006 54 10000 7.2 240 20:53 12.07.2022
2670 Clouds 32 1007 54 10000 7.2 240 20:21 12.07.2022
2671 Clear 30 1007 56 10000 5.66 210 18:51 12.07.2022
2672 Clear 28 1008 60 10000 7.2 210 17:23 12.07.2022
2673 Clear 25 1009 70 10000 6.69 240 15:32 12.07.2022
2674 Clouds 22 1010 83 10000 5.14 240 13:43 12.07.2022
2675 Clouds 21 1010 85 10000 6.69 220 11:55 12.07.2022
2676 Clear 21 1010 81 10000 4.63 200 10:45 12.07.2022
2677 Clear 21 1011 76 10000 5.81 182 09:18 12.07.2022
2678 Clear 21 1011 70 10000 4.12 240 07:55 12.07.2022
2679 Clear 22 1011 64 10000 3.58 181 05:53 12.07.2022
2680 Clear 22 1011 63 10000 7.2 200 05:34 12.07.2022
2681 Clear 25 1011 56 10000 9.39 168 01:36 12.07.2022
2682 Clear 28 1012 50 10000 9.39 153 22:50 11.07.2022
2683 Clear 29 1013 49 10000 6.69 170 21:37 11.07.2022
2684 Clear 28 1014 46 10000 7.72 160 20:33 11.07.2022
2685 Clear 28 1014 45 10000 5.66 190 19:32 11.07.2022
2686 Clear 28 1015 47 10000 4.63 200 18:31 11.07.2022
2687 Clear 27 1015 48 10000 4.63 260 17:31 11.07.2022
2688 Clear 24 1016 57 10000 4.12 250 15:34 11.07.2022
2689 Clear 21 1016 73 10000 3.09 210 13:37 11.07.2022
2690 Clear 19 1016 79 10000 2.57 250 11:38 11.07.2022
2691 Clear 19 1016 79 10000 4.12 220 10:18 11.07.2022
2692 Clouds 19 1016 78 10000 3.58 198 09:41 11.07.2022
2693 Clear 20 1016 78 10000 4.12 220 08:33 11.07.2022
2694 Clear 22 1017 67 10000 5.81 159 03:23 11.07.2022
2695 Clear 26 1016 52 10000 6.69 190 00:20 11.07.2022
2696 Clouds 27 1018 50 10000 3.09 140 22:56 10.07.2022
2697 Clouds 27 1018 45 10000 4.63 230 21:41 10.07.2022
2698 Clouds 28 1018 41 10000 5.14 40 20:47 10.07.2022
2699 Clear 27 1018 42 10000 5.66 40 19:50 10.07.2022
2700 Clear 27 1019 43 10000 5.14 40 18:48 10.07.2022
2701 Clear 25 1019 47 10000 5.66 40 17:37 10.07.2022
2702 Clear 24 1019 48 10000 5.66 60 16:45 10.07.2022
2703 Clear 22 1019 50 10000 4.63 60 15:28 10.07.2022
2704 Clear 21 1019 51 10000 6.26 66 14:21 10.07.2022
2705 Clear 19 1018 68 10000 6.17 20 12:29 10.07.2022
2706 Clouds 19 1018 65 10000 6.71 357 11:20 10.07.2022
2707 Clouds 21 1017 62 10000 2.57 50 08:45 10.07.2022
2708 Clear 21 1017 66 10000 2.57 20 07:39 10.07.2022
2709 Clear 24 1017 56 10000 5.14 180 02:47 10.07.2022
2710 Clouds 28 1016 47 10000 3.09 240 22:51 09.07.2022
2711 Clouds 29 1016 44 10000 4.12 150 22:24 09.07.2022
2712 Clear 29 1017 44 10000 3.6 250 21:28 09.07.2022
2713 Clouds 28 1017 48 10000 5.14 60 18:43 09.07.2022
2714 Clear 27 1018 52 10000 5.66 20 17:48 09.07.2022
2715 Clear 26 1017 56 10000 5.66 20 16:58 09.07.2022
2716 Clear 25 1017 61 10000 5.81 32 15:42 09.07.2022
2717 Clear 24 1017 64 10000 7.15 39 14:44 09.07.2022
2718 Clouds 23 1017 68 10000 6.17 50 13:51 09.07.2022
2719 Clear 22 1016 70 10000 5.36 350 12:53 09.07.2022
2720 Clear 22 1016 76 10000 4.92 17 11:33 09.07.2022
2721 Clear 22 1016 85 10000 2.06 10 10:23 09.07.2022
2722 Clouds 22 1015 86 10000 1.34 360 07:54 09.07.2022
2723 Clouds 22 1016 85 10000 3.09 190 06:58 09.07.2022
2724 Clouds 23 1016 80 10000 3.09 0 04:34 09.07.2022
2725 Rain 26 1014 74 10000 4.12 170 23:18 08.07.2022
2726 Rain 28 1014 64 10000 6.69 200 21:59 08.07.2022
2727 Clear 28 1015 61 10000 4.63 190 20:59 08.07.2022
2728 Clear 28 1015 62 10000 4.63 190 20:25 08.07.2022
2729 Clouds 27 1016 63 10000 5.66 270 18:32 08.07.2022
2730 Clear 26 1017 64 10000 2.57 0 17:33 08.07.2022
2731 Clear 23 1016 80 10000 3.58 203 14:55 08.07.2022
2732 Fog 22 1016 80 10000 3.6 50 14:29 08.07.2022
2733 Fog 20 1016 86 10000 2.57 40 12:28 08.07.2022
2734 Clear 19 1015 86 10000 2.06 60 10:45 08.07.2022
2735 Clear 20 1016 85 10000 2.06 270 08:55 08.07.2022
2736 Clear 21 1016 82 10000 1.54 170 06:55 08.07.2022
2737 Clear 22 1016 74 10000 4.47 106 03:22 08.07.2022
2738 Clouds 26 1015 61 10000 8.05 122 23:45 07.07.2022
2739 Clear 26 1015 61 10000 6.26 143 22:45 07.07.2022
2740 Clouds 27 1015 58 10000 7.15 153 20:59 07.07.2022
2741 Clouds 26 1017 56 10000 6.71 125 18:43 07.07.2022
2742 Clouds 26 1016 61 10000 6.71 104 17:41 07.07.2022
2743 Clouds 24 1016 68 10000 4.63 60 15:34 07.07.2022
2744 Clouds 23 1015 72 10000 4.12 50 13:30 07.07.2022
2745 Clouds 22 1015 73 10000 5.14 40 12:40 07.07.2022
2746 Clouds 22 1015 72 10000 5.14 40 12:21 07.07.2022
2747 Clouds 23 1015 71 10000 5.36 46 11:31 07.07.2022
2748 Clouds 23 1014 71 10000 4.92 79 10:44 07.07.2022
2749 Clouds 23 1014 69 10000 5.81 102 10:26 07.07.2022
2750 Clear 24 1014 62 10000 3.13 64 07:58 07.07.2022
2751 Clouds 26 1013 61 10000 3.6 50 04:44 07.07.2022
2752 Clouds 29 1010 50 10000 6.71 321 23:37 06.07.2022
2753 Clouds 30 1011 49 10000 2.24 0 23:19 06.07.2022
2754 Clouds 30 1011 49 10000 2.24 0 23:19 06.07.2022
2755 Clouds 30 1011 49 10000 2.24 0 22:57 06.07.2022
2756 Clouds 30 1011 48 10000 5.66 330 22:39 06.07.2022
2757 Clouds 30 1011 49 10000 7.2 300 21:46 06.07.2022
2758 Clouds 29 1011 52 10000 5.66 260 19:41 06.07.2022
2759 Clear 29 1010 53 10000 6.69 330 18:32 06.07.2022
2760 Clouds 28 1010 61 10000 6.17 330 16:43 06.07.2022
2761 Clouds 27 1010 69 10000 7.6 321 15:28 06.07.2022
2762 Mist 24 1009 86 10000 7.6 360 12:44 06.07.2022
2763 Clouds 23 1009 86 10000 5.81 244 11:49 06.07.2022
2764 Clouds 23 1008 85 10000 4.47 271 10:22 06.07.2022
2765 Clouds 23 1009 82 10000 5.14 210 08:41 06.07.2022
2766 Clouds 23 1009 81 10000 6.17 220 07:39 06.07.2022
2767 Clouds 23 1010 79 10000 5.14 200 05:37 06.07.2022
2768 Clouds 25 1013 65 10000 8.23 180 22:49 05.07.2022
2769 Clouds 26 1013 64 10000 8.23 180 22:27 05.07.2022
2770 Clear 28 1015 50 10000 7.72 180 20:42 05.07.2022
2771 Clear 29 1016 49 10000 8.23 160 19:44 05.07.2022
2772 Clear 30 1016 46 10000 8.23 160 19:26 05.07.2022
2773 Clear 30 1017 46 10000 6.17 190 17:48 05.07.2022
2774 Clear 29 1017 47 10000 6.17 190 17:18 05.07.2022
2775 Clear 26 1018 60 10000 4.12 230 15:39 05.07.2022
2776 Clear 24 1019 60 10000 4.12 230 14:39 05.07.2022
2777 Clear 22 1019 65 10000 4.47 174 12:52 05.07.2022
2778 Clear 21 1019 63 10000 3.58 182 12:21 05.07.2022
2779 Clear 21 1019 60 10000 2.57 220 10:45 05.07.2022
2780 Clear 22 1019 58 10000 2.57 200 09:32 05.07.2022
2781 Clear 22 1019 55 10000 3.58 220 08:19 05.07.2022
2782 Clear 23 1020 54 10000 3.6 200 06:22 05.07.2022
2783 Clear 24 1020 51 10000 3.6 170 04:28 05.07.2022
2784 Clear 28 1019 39 10000 5.66 250 00:43 05.07.2022
2785 Clear 29 1020 35 10000 5.66 230 23:36 04.07.2022
2786 Clear 29 1020 33 10000 4.63 300 22:54 04.07.2022
2787 Clear 29 1019 33 10000 1.34 192 21:56 04.07.2022
2788 Clear 29 1020 32 10000 4.12 210 20:54 04.07.2022
2789 Clear 29 1020 30 10000 5.14 280 20:35 04.07.2022
2790 Clear 29 1020 31 10000 2.24 342 19:56 04.07.2022
2791 Clear 29 1021 31 10000 4.12 340 19:36 04.07.2022
2792 Clear 28 1021 33 10000 3.6 40 18:34 04.07.2022
2793 Clear 26 1022 36 10000 3.6 40 16:36 04.07.2022
2794 Clear 24 1022 42 10000 2.68 354 15:34 04.07.2022
2795 Clear 20 1021 51 10000 3.09 340 13:41 04.07.2022
2796 Clear 19 1020 54 10000 4.02 318 12:38 04.07.2022
2797 Clear 20 1019 50 10000 4.92 330 10:39 04.07.2022
2798 Clear 20 1019 49 10000 3.6 340 10:18 04.07.2022
2799 Clear 21 1019 45 10000 4.63 340 08:31 04.07.2022
2800 Clear 24 1018 38 10000 5.66 320 05:34 04.07.2022
2801 Clear 29 1016 37 10000 6.17 320 00:43 04.07.2022
2802 Clear 30 1016 37 10000 5.66 310 23:27 03.07.2022
2803 Clear 30 1016 34 10000 5.14 340 22:23 03.07.2022
2804 Clear 30 1016 35 10000 4.63 270 20:42 03.07.2022
2805 Clouds 30 1016 39 10000 6.69 360 19:42 03.07.2022
2806 Clouds 29 1017 40 10000 6.69 360 19:23 03.07.2022
2807 Clear 27 1017 51 10000 5.36 30 17:45 03.07.2022
2808 Clouds 26 1017 57 10000 5.36 41 16:58 03.07.2022
2809 Clouds 25 1017 65 10000 4.47 53 15:25 03.07.2022
2810 Clouds 24 1016 67 10000 3.09 10 14:37 03.07.2022
2811 Clouds 24 1016 65 10000 3.09 60 13:49 03.07.2022
2812 Clouds 24 1016 66 10000 3.6 50 12:42 03.07.2022
2813 Clouds 24 1014 70 10000 6.17 50 11:40 03.07.2022
2814 Clouds 24 1015 74 10000 3.6 40 10:40 03.07.2022
2815 Clouds 24 1014 75 10000 4.92 37 10:20 03.07.2022
2816 Clouds 25 1014 69 10000 2.06 100 07:37 03.07.2022
2817 Clouds 25 1013 70 10000 3.09 10 05:26 03.07.2022
2818 Clouds 31 1012 55 10000 8.23 230 00:25 03.07.2022
2819 Clouds 31 1012 58 10000 5.14 290 22:36 02.07.2022
2820 Clouds 31 1012 56 10000 6.17 270 21:43 02.07.2022
2821 Clouds 31 1012 53 10000 4.63 260 20:21 02.07.2022
2822 Clear 31 1013 53 10000 4.63 260 19:49 02.07.2022
2823 Clouds 30 1013 59 10000 4.02 277 17:59 02.07.2022
2824 Clear 30 1013 59 10000 4.63 260 17:37 02.07.2022
2825 Clouds 27 1013 76 10000 4.63 240 15:37 02.07.2022
2826 Clouds 25 1013 80 10000 4.02 179 12:56 02.07.2022
2827 Clear 25 1012 78 10000 4.02 171 11:48 02.07.2022
2828 Clouds 25 1012 77 10000 5.14 230 10:50 02.07.2022
2829 Clear 25 1012 75 10000 4.63 210 09:49 02.07.2022
2830 Clouds 25 1012 74 10000 6.17 210 08:37 02.07.2022
2831 Clouds 25 1012 72 10000 6.17 210 08:19 02.07.2022
2832 Clear 27 1014 61 10000 4.12 250 02:53 02.07.2022
2833 Clouds 31 1014 52 10000 7.72 220 00:27 02.07.2022
2834 Thunderstorm 33 1014 47 10000 7.2 240 22:59 01.07.2022
2835 Clouds 33 1014 43 10000 6.69 250 22:29 01.07.2022
2836 Clear 33 1015 44 10000 6.69 210 21:37 01.07.2022
2837 Clouds 33 1015 46 10000 3.6 240 20:58 01.07.2022
2838 Clouds 33 1016 47 10000 6.17 250 20:20 01.07.2022
2839 Clouds 32 1016 52 10000 5.66 230 19:36 01.07.2022
2840 Clouds 29 1018 66 10000 5.66 230 16:41 01.07.2022
2841 Haze 25 1018 77 10000 3.6 210 14:31 01.07.2022
2842 Clear 24 1019 79 10000 4.12 250 13:39 01.07.2022
2843 Clear 22 1019 79 10000 4.02 208 10:54 01.07.2022
2844 Clear 22 1019 76 10000 3.09 230 10:19 01.07.2022
2845 Fog 23 1020 62 10000 2.68 187 07:32 01.07.2022
2846 Clear 25 1020 62 10000 5.14 180 02:43 01.07.2022
2847 Clear 30 1020 44 10000 3.6 220 23:52 30.06.2022
2848 Clouds 30 1021 41 10000 5.14 270 22:51 30.06.2022
2849 Clouds 30 1021 39 10000 6.69 250 22:32 30.06.2022
2850 Clouds 31 1020 39 10000 6.69 250 22:32 30.06.2022
2851 Clouds 30 1020 39 10000 5.66 320 21:54 30.06.2022
2852 Clear 30 1021 38 10000 6.69 270 20:49 30.06.2022
2853 Clear 30 1021 38 10000 6.69 270 20:21 30.06.2022
2854 Clear 29 1022 40 10000 5.66 340 19:48 30.06.2022
2855 Clouds 29 1022 42 10000 1.34 254 18:56 30.06.2022
2856 Clear 28 1022 43 10000 6.17 230 18:22 30.06.2022
2857 Clear 28 1023 44 10000 5.66 260 17:34 30.06.2022
2858 Clear 26 1023 49 10000 3.6 320 16:22 30.06.2022
2859 Clear 23 1023 60 10000 4.12 30 14:20 30.06.2022
2860 Clear 21 1023 65 10000 3.6 360 13:29 30.06.2022
2861 Clouds 20 1022 70 10000 3.09 10 12:34 30.06.2022
2862 Clouds 20 1022 74 10000 2.57 200 11:23 30.06.2022
2863 Clear 21 1021 74 10000 4.12 250 09:52 30.06.2022
2864 Clear 21 1021 74 10000 4.12 250 09:29 30.06.2022
2865 Clouds 22 1022 71 10000 5.14 230 07:41 30.06.2022
2866 Clear 22 1021 71 10000 3.6 200 05:47 30.06.2022
2867 Clear 26 1021 50 10000 6.69 170 00:27 30.06.2022
2868 Clouds 27 1021 48 10000 7.2 180 23:19 29.06.2022
2869 Clear 28 1021 45 10000 7.2 170 22:38 29.06.2022
2870 Clear 29 1022 41 10000 4.63 220 21:34 29.06.2022
2871 Clear 29 1023 38 10000 5.14 240 20:33 29.06.2022
2872 Clear 28 1023 37 10000 4.12 230 19:36 29.06.2022
2873 Clear 27 1023 42 10000 5.14 230 17:42 29.06.2022
2874 Clear 26 1024 47 10000 4.63 270 16:36 29.06.2022
2875 Clear 23 1024 61 10000 1.79 208 14:56 29.06.2022
2876 Clear 18 1023 79 10000 2.06 230 12:40 29.06.2022
2877 Clear 18 1023 74 10000 1.54 200 10:56 29.06.2022
2878 Clear 18 1023 74 10000 2.57 230 09:32 29.06.2022
2879 Clear 19 1023 73 10000 1.54 210 07:39 29.06.2022
2880 Clouds 21 1022 66 10000 1.34 156 04:51 29.06.2022
2881 Clouds 25 1020 45 10000 3.58 53 00:58 29.06.2022
2882 Clear 25 1021 44 10000 4.12 40 00:36 29.06.2022
2883 Clouds 26 1020 41 10000 3.58 46 22:54 28.06.2022
2884 Clouds 26 1021 41 10000 4.12 330 22:30 28.06.2022
2885 Clouds 26 1021 42 10000 2.68 288 21:54 28.06.2022
2886 Clouds 26 1021 41 10000 4.12 320 21:32 28.06.2022
2887 Clouds 25 1021 42 10000 3.6 310 20:44 28.06.2022
2888 Clouds 25 1021 43 10000 6.17 340 19:34 28.06.2022
2889 Clouds 25 1022 43 10000 2.68 22 18:53 28.06.2022
2890 Clear 24 1021 44 10000 5.14 330 17:40 28.06.2022
2891 Clear 22 1021 47 10000 5.66 10 16:21 28.06.2022
2892 Clouds 21 1020 49 10000 5.14 360 15:42 28.06.2022
2893 Clouds 20 1021 53 10000 4.92 4 14:21 28.06.2022
2894 Clouds 19 1020 55 10000 4.02 340 13:54 28.06.2022
2895 Clouds 19 1019 59 10000 4.92 360 12:57 28.06.2022
2896 Clouds 19 1018 59 10000 5.14 350 11:18 28.06.2022
2897 Fog 19 1018 65 10000 4.02 355 09:36 28.06.2022
2898 Fog 20 1017 71 10000 4.63 20 08:44 28.06.2022
2899 Fog 20 1017 78 10000 3.58 342 07:43 28.06.2022
2900 Fog 20 1017 79 10000 4.47 317 07:19 28.06.2022
2901 Clouds 23 1014 79 10000 3.09 270 01:32 28.06.2022
2902 Mist 23 1014 83 9656 1.54 90 23:44 27.06.2022
2903 Clouds 23 1013 84 10000 1.34 211 22:54 27.06.2022
2904 Mist 22 1013 86 3219 4.12 350 21:38 27.06.2022
2905 Mist 23 1014 84 6437 5.81 296 20:54 27.06.2022
2906 Mist 24 1014 80 8047 4.12 220 19:40 27.06.2022
2907 Rain 24 1014 80 4828 6.17 230 18:33 27.06.2022
2908 Mist 24 1014 83 6437 5.66 220 16:37 27.06.2022
2909 Rain 24 1014 77 10000 7.2 230 15:42 27.06.2022
2910 Clouds 23 1014 79 10000 6.17 230 13:39 27.06.2022
2911 Clouds 23 1014 79 10000 4.47 163 12:57 27.06.2022
2912 Clouds 23 1014 75 10000 7.72 200 10:41 27.06.2022
2913 Clouds 23 1015 72 10000 6.69 190 09:37 27.06.2022
2914 Clouds 23 1016 69 10000 7.2 210 08:32 27.06.2022
2915 Clouds 23 1016 67 10000 6.17 180 07:38 27.06.2022
2916 Clear 25 1017 54 10000 5.66 190 04:21 27.06.2022
2917 Clear 28 1016 49 10000 8.05 160 01:20 27.06.2022
2918 Clear 30 1016 48 10000 8.23 170 22:47 26.06.2022
2919 Clear 31 1017 46 10000 6.71 143 20:55 26.06.2022
2920 Clouds 31 1018 45 10000 2.68 188 19:59 26.06.2022
2921 Clear 31 1019 45 10000 5.66 240 18:33 26.06.2022
2922 Smoke 30 1019 51 10000 5.14 250 17:37 26.06.2022
2923 Clear 27 1020 64 10000 3.6 220 15:31 26.06.2022
2924 Clear 24 1020 75 10000 2.68 277 13:55 26.06.2022
2925 Clear 23 1020 76 10000 2.57 220 13:23 26.06.2022
2926 Clear 22 1019 78 10000 3.6 220 11:39 26.06.2022
2927 Clear 22 1019 77 10000 3.6 220 10:30 26.06.2022
2928 Clear 22 1019 75 10000 3.6 200 09:45 26.06.2022
2929 Clear 23 1019 74 10000 3.13 360 07:47 26.06.2022
2930 Clear 25 1019 65 10000 4.12 170 04:29 26.06.2022
2931 Clear 30 1018 48 10000 7.72 160 00:36 26.06.2022
2932 Clear 30 1019 46 10000 7.72 160 00:18 26.06.2022
2933 Clear 31 1019 40 10000 4.63 170 23:25 25.06.2022
2934 Clear 32 1019 35 10000 3.09 50 22:28 25.06.2022
2935 Clear 32 1020 38 10000 2.24 355 21:52 25.06.2022
2936 Clear 32 1019 35 10000 3.6 330 21:20 25.06.2022
2937 Clear 32 1019 34 10000 4.12 300 20:32 25.06.2022
2938 Clouds 32 1019 38 10000 0.89 300 19:56 25.06.2022
2939 Clear 30 1019 44 10000 4.12 320 18:22 25.06.2022
2940 Clear 29 1020 47 10000 2.68 58 17:26 25.06.2022
2941 Clear 28 1020 54 10000 3.6 30 16:25 25.06.2022
2942 Clear 24 1019 70 10000 2.57 300 14:29 25.06.2022
2943 Fog 20 1019 85 10000 1.54 0 12:45 25.06.2022
2944 Fog 20 1018 85 10000 2.57 210 11:39 25.06.2022
2945 Fog 21 1017 81 10000 2.24 276 09:24 25.06.2022
2946 Fog 21 1017 80 10000 3.6 230 08:49 25.06.2022
2947 Fog 21 1017 79 10000 4.47 360 08:20 25.06.2022
2948 Fog 22 1017 78 10000 1.79 360 06:33 25.06.2022
2949 Clear 25 1016 70 10000 7.72 160 00:44 25.06.2022
2950 Clear 25 1016 70 10000 7.72 160 00:44 25.06.2022
2951 Clouds 25 1016 66 10000 6.69 160 23:46 24.06.2022
2952 Clear 26 1016 63 10000 5.66 150 22:22 24.06.2022
2953 Clouds 27 1016 56 10000 3.6 250 21:22 24.06.2022
2954 Clear 27 1016 56 10000 3.13 299 20:23 24.06.2022
2955 Clouds 26 1016 58 10000 4.12 280 19:24 24.06.2022
2956 Clouds 26 1016 62 10000 3.09 250 18:51 24.06.2022
2957 Clouds 25 1017 61 10000 3.09 250 18:31 24.06.2022
2958 Clear 24 1017 64 10000 3.6 270 17:47 24.06.2022
2959 Clear 23 1017 68 10000 2.06 0 16:45 24.06.2022
2960 Clear 23 1017 68 10000 2.06 0 16:45 24.06.2022
2961 Mist 19 1017 83 8047 2.06 290 14:30 24.06.2022
2962 Mist 19 1017 87 6437 1.79 306 13:58 24.06.2022
2963 Mist 19 1017 87 6437 1.79 306 13:58 24.06.2022
2964 Mist 18 1016 89 4828 2.57 320 12:49 24.06.2022
2965 Mist 17 1016 90 6437 1.34 311 11:40 24.06.2022
2966 Mist 17 1016 90 6437 1.54 310 10:34 24.06.2022
2967 Fog 18 1016 89 10000 2.24 292 09:41 24.06.2022
2968 Fog 18 1015 89 10000 1.34 281 08:53 24.06.2022
2969 Fog 18 1015 88 10000 1.54 320 07:56 24.06.2022
2970 Clear 18 1015 88 10000 0.89 169 06:42 24.06.2022
2971 Clear 18 1015 86 10000 1.54 130 06:20 24.06.2022
2972 Mist 19 1016 85 9656 2.24 197 04:41 24.06.2022
2973 Clouds 22 1014 68 10000 4.12 130 23:19 23.06.2022
2974 Clouds 22 1014 69 10000 4.12 120 22:40 23.06.2022
2975 Clouds 22 1014 68 10000 6.26 125 20:59 23.06.2022
2976 Clouds 22 1016 65 10000 5.66 60 20:36 23.06.2022
2977 Clouds 23 1016 64 10000 4.63 50 19:40 23.06.2022
2978 Clouds 21 1015 71 10000 6.26 135 17:54 23.06.2022
2979 Clouds 21 1015 70 10000 5.66 40 17:33 23.06.2022
2980 Clouds 21 1014 71 10000 5.66 120 16:23 23.06.2022
2981 Clouds 20 1014 78 10000 7.15 127 15:25 23.06.2022
2982 Clouds 18 1014 89 10000 4.12 110 13:46 23.06.2022
2983 Mist 17 1014 90 10000 4.47 103 11:33 23.06.2022
2984 Clouds 16 1014 92 10000 4.92 94 10:40 23.06.2022
2985 Clouds 16 1015 90 10000 3.6 70 09:19 23.06.2022
2986 Clouds 17 1015 90 10000 6.71 114 03:51 23.06.2022
2987 Mist 17 1016 90 6437 5.81 77 00:27 23.06.2022
2988 Mist 18 1016 88 6437 5.81 82 23:49 22.06.2022
2989 Mist 18 1016 88 9656 5.36 106 22:53 22.06.2022
2990 Mist 18 1017 86 4828 5.36 116 21:28 22.06.2022
2991 Clouds 18 1016 83 10000 5.36 134 20:48 22.06.2022
2992 Clouds 19 1017 81 10000 5.36 142 20:18 22.06.2022
2993 Clouds 19 1017 80 10000 6.69 160 18:57 22.06.2022
2994 Clouds 19 1017 80 10000 5.66 130 17:31 22.06.2022
2995 Clouds 19 1017 80 10000 6.17 170 16:40 22.06.2022
2996 Clouds 19 1017 79 10000 6.17 140 15:28 22.06.2022
2997 Clouds 19 1017 79 10000 8.05 142 14:41 22.06.2022
2998 Clouds 19 1017 83 10000 7.6 128 13:46 22.06.2022
2999 Clouds 19 1016 84 10000 8.49 139 13:24 22.06.2022
3000 Clouds 19 1016 84 10000 5.36 120 11:50 22.06.2022
3001 Clouds 19 1017 84 10000 6.26 360 11:50 22.06.2022
3002 Clouds 19 1016 83 10000 5.36 134 10:58 22.06.2022
3003 Drizzle 19 1017 83 10000 5.36 360 10:36 22.06.2022
3004 Clouds 19 1017 86 10000 3.58 124 08:57 22.06.2022
3005 Clouds 19 1018 84 10000 3.13 360 06:39 22.06.2022
3006 Clouds 21 1018 76 10000 5.81 109 01:52 22.06.2022
3007 Clouds 22 1019 64 10000 3.99 150 00:56 22.06.2022
3008 Clouds 25 1018 43 10000 4.63 60 22:40 21.06.2022
3009 Clear 26 1020 40 10000 3.6 50 20:40 21.06.2022
3010 Clear 25 1020 40 10000 5.14 60 19:20 21.06.2022
3011 Clear 24 1021 45 10000 3.09 40 17:47 21.06.2022
3012 Clear 23 1021 49 10000 3.6 40 16:36 21.06.2022
3013 Clouds 18 1020 61 10000 1.34 295 11:56 21.06.2022
3014 Clear 18 1019 58 10000 2.24 279 10:38 21.06.2022
3015 Clear 18 1019 56 10000 2.06 300 09:20 21.06.2022
3016 Clear 19 1019 52 10000 2.06 350 07:44 21.06.2022
3017 Clear 21 1019 49 10000 3.09 140 04:43 21.06.2022
3018 Clear 26 1018 29 10000 4.12 310 00:23 21.06.2022
3019 Clear 26 1019 28 10000 6.69 340 22:21 20.06.2022
3020 Clear 27 1019 28 10000 6.69 340 22:21 20.06.2022
3021 Clear 26 1019 29 10000 6.69 300 21:37 20.06.2022
3022 Clear 25 1019 29 10000 6.17 310 20:29 20.06.2022
3023 Clear 25 1020 30 10000 3.09 320 19:36 20.06.2022
3024 Clear 24 1020 33 10000 6.69 320 18:26 20.06.2022
3025 Clouds 23 1020 38 10000 5.66 310 17:49 20.06.2022
3026 Clear 21 1020 45 10000 6.17 300 16:36 20.06.2022
3027 Clear 20 1020 48 10000 4.12 310 15:30 20.06.2022
3028 Clear 15 1020 56 10000 4.63 300 12:32 20.06.2022
3029 Clear 15 1019 55 10000 5.66 300 10:21 20.06.2022
3030 Clear 15 1019 55 10000 5.66 300 10:21 20.06.2022
3031 Clear 15 1019 54 10000 2.24 360 08:56 20.06.2022
3032 Clear 16 1018 51 10000 3.58 330 07:52 20.06.2022
3033 Clouds 18 1018 43 10000 6.17 320 05:21 20.06.2022
3034 Clear 22 1014 31 10000 7.2 340 01:33 20.06.2022
3035 Clear 23 1013 31 10000 9.26 330 00:19 20.06.2022
3036 Clear 23 1013 31 10000 11.62 307 22:43 19.06.2022
3037 Clear 23 1013 31 10000 11.62 296 21:48 19.06.2022
3038 Clear 23 1013 31 10000 9.26 320 21:29 19.06.2022
3039 Clear 22 1013 32 10000 10.29 310 20:30 19.06.2022
3040 Clear 22 1014 35 10000 9.26 300 19:46 19.06.2022
3041 Clouds 20 1014 39 10000 10.29 330 18:43 19.06.2022
3042 Clouds 19 1014 43 10000 9.77 300 17:48 19.06.2022
3043 Clouds 18 1014 45 10000 9.77 300 17:21 19.06.2022
3044 Clear 17 1014 49 10000 6.26 300 16:34 19.06.2022
3045 Clouds 16 1014 52 10000 7.2 320 15:38 19.06.2022
3046 Clear 15 1014 55 10000 7.15 321 14:56 19.06.2022
3047 Clear 14 1014 56 10000 6.69 320 14:19 19.06.2022
3048 Clear 13 1013 55 10000 7.2 320 12:56 19.06.2022
3049 Clear 13 1013 54 10000 7.6 314 10:54 19.06.2022
3050 Clear 14 1012 55 10000 8.23 320 09:40 19.06.2022
3051 Clouds 14 1012 58 10000 5.36 360 08:47 19.06.2022
3052 Clear 14 1012 61 10000 4.02 293 07:59 19.06.2022
3053 Clouds 15 1012 60 10000 5.14 350 05:36 19.06.2022
3054 Clouds 17 1010 56 10000 11.32 340 01:29 19.06.2022
3055 Clouds 17 1009 55 10000 11.18 316 00:24 19.06.2022
3056 Clouds 18 1008 55 10000 14.31 309 23:36 18.06.2022
3057 Clouds 19 1007 55 10000 11.18 307 22:36 18.06.2022
3058 Clouds 20 1006 54 10000 12.96 304 20:57 18.06.2022
3059 Clouds 20 1006 52 10000 11.62 314 20:38 18.06.2022
3060 Clouds 20 1006 51 10000 9.77 330 19:38 18.06.2022
3061 Clouds 20 1006 51 10000 11.18 317 18:45 18.06.2022
3062 Clouds 19 1006 51 10000 10.8 310 17:35 18.06.2022
3063 Clouds 20 1005 50 10000 10.73 300 16:47 18.06.2022
3064 Clouds 20 1005 56 10000 9.77 330 15:33 18.06.2022
3065 Clear 20 1005 57 10000 11.62 295 14:45 18.06.2022
3066 Clear 20 1004 55 10000 10.28 295 13:23 18.06.2022
3067 Clear 20 1003 53 10000 9.83 307 11:45 18.06.2022
3068 Clear 22 1003 52 10000 7.2 300 10:47 18.06.2022
3069 Clear 23 1003 47 10000 7.2 290 09:27 18.06.2022
3070 Clear 23 1003 47 10000 8.75 290 08:30 18.06.2022
3071 Clear 23 1003 46 10000 8.75 290 08:30 18.06.2022
3072 Clear 23 1003 47 10000 5.66 310 06:49 18.06.2022
3073 Clouds 26 1003 41 10000 5.66 340 03:46 18.06.2022
3074 Clouds 30 1003 39 10000 8.94 302 01:26 18.06.2022
3075 Clouds 30 1003 39 10000 8.94 302 01:26 18.06.2022
3076 Clouds 31 1003 39 10000 9.39 296 00:48 18.06.2022
3077 Clouds 31 1003 40 10000 6.26 315 23:58 17.06.2022
3078 Clouds 31 1002 40 10000 8.23 310 23:24 17.06.2022
3079 Clouds 32 1002 38 10000 9.83 291 21:27 17.06.2022
3080 Clear 32 1004 39 10000 12.07 288 20:24 17.06.2022
3081 Clouds 31 1005 58 10000 8.05 264 18:52 17.06.2022
3082 Mist 29 1006 67 10000 5.14 220 17:46 17.06.2022
3083 Mist 27 1007 75 10000 6.69 250 16:43 17.06.2022
3084 Mist 26 1007 78 10000 6.69 250 16:18 17.06.2022
3085 Mist 24 1008 84 10000 5.66 230 15:34 17.06.2022
3086 Clouds 22 1008 86 10000 4.12 220 14:21 17.06.2022
3087 Clouds 22 1009 86 10000 4.63 210 13:48 17.06.2022
3088 Clouds 22 1008 86 10000 4.63 210 13:26 17.06.2022
3089 Clouds 21 1009 85 10000 2.24 181 11:58 17.06.2022
3090 Clouds 21 1010 84 10000 3.09 200 11:39 17.06.2022
3091 Clouds 21 1010 84 10000 3.58 162 11:21 17.06.2022
3092 Clouds 21 1012 84 10000 4.63 190 08:33 17.06.2022
3093 Clouds 21 1011 85 10000 3.13 167 07:53 17.06.2022
3094 Clouds 21 1013 84 10000 3.6 180 06:34 17.06.2022
3095 Clouds 21 1015 83 10000 7.72 190 03:24 17.06.2022
3096 Clouds 21 1016 82 10000 11.18 161 00:46 17.06.2022
3097 Clouds 21 1016 79 10000 10.28 150 23:30 16.06.2022
3098 Clouds 22 1017 76 10000 9.39 153 22:38 16.06.2022
3099 Clouds 22 1017 76 10000 9.39 153 22:38 16.06.2022
3100 Clouds 22 1019 74 10000 7.2 160 21:19 16.06.2022
3101 Clouds 22 1019 74 10000 6.69 180 20:50 16.06.2022
3102 Clouds 22 1020 75 10000 4.63 190 19:59 16.06.2022
3103 Clouds 21 1021 76 10000 5.36 164 18:51 16.06.2022
3104 Clouds 20 1021 81 10000 7.2 210 17:50 16.06.2022
3105 Clouds 20 1021 83 10000 7.72 190 17:27 16.06.2022
3106 Clouds 19 1022 87 10000 3.6 190 16:20 16.06.2022
3107 Clouds 18 1022 88 10000 6.26 186 15:21 16.06.2022
3108 Rain 18 1023 86 10000 6.26 160 14:27 16.06.2022
3109 Clouds 19 1024 76 2816 4.47 311 12:56 16.06.2022
3110 Clouds 20 1022 75 10000 4.12 170 12:34 16.06.2022
3111 Clouds 19 1021 76 10000 3.58 153 11:48 16.06.2022
3112 Clouds 19 1021 76 10000 3.6 180 10:42 16.06.2022
3113 Clouds 19 1021 75 10000 4.12 180 09:43 16.06.2022
3114 Clouds 19 1021 75 10000 4.12 180 09:19 16.06.2022
3115 Clouds 19 1022 75 10000 2.24 188 07:57 16.06.2022
3116 Clear 19 1022 75 10000 4.12 180 06:49 16.06.2022
3117 Clear 20 1021 77 10000 6.26 154 04:27 16.06.2022
3118 Clear 21 1020 74 10000 6.71 150 01:53 16.06.2022
3119 Clear 22 1020 69 10000 6.71 155 01:32 16.06.2022
3120 Clear 22 1020 67 10000 8.23 170 00:31 16.06.2022
3121 Clear 24 1019 66 10000 7.72 180 23:23 15.06.2022
3122 Clear 25 1020 63 10000 6.71 152 21:59 15.06.2022
3123 Clear 26 1020 58 10000 5.81 154 21:20 15.06.2022
3124 Clear 26 1020 57 10000 6.26 167 20:38 15.06.2022
3125 Clear 26 1020 55 10000 6.17 140 20:18 15.06.2022
3126 Clear 27 1020 49 10000 3.09 0 18:51 15.06.2022
3127 Clear 27 1019 51 10000 2.06 50 17:55 15.06.2022
3128 Clear 26 1019 50 10000 4.12 70 16:38 15.06.2022
3129 Clear 24 1018 53 10000 5.81 64 15:26 15.06.2022
3130 Clear 22 1017 65 10000 3.6 20 13:43 15.06.2022
3131 Clear 20 1017 71 10000 3.13 37 12:53 15.06.2022
3132 Clear 19 1016 72 10000 4.02 26 11:48 15.06.2022
3133 Clear 19 1016 70 10000 2.06 20 10:23 15.06.2022
3134 Clear 20 1015 68 10000 3.58 37 09:38 15.06.2022
3135 Clear 21 1015 66 10000 2.06 320 08:27 15.06.2022
3136 Clear 22 1015 61 10000 2.06 260 06:33 15.06.2022
3137 Clear 24 1013 56 10000 3.09 40 03:30 15.06.2022
3138 Clear 26 1012 49 10000 5.36 17 01:53 15.06.2022
3139 Clear 28 1012 42 10000 4.92 23 00:50 15.06.2022
3140 Clear 28 1012 39 10000 4.12 360 23:39 14.06.2022
3141 Clouds 28 1013 40 10000 2.68 331 22:56 14.06.2022
3142 Clear 28 1012 40 10000 3.6 360 22:18 14.06.2022
3143 Clear 28 1013 41 10000 3.6 10 21:28 14.06.2022
3144 Clear 27 1013 41 10000 2.68 0 20:48 14.06.2022
3145 Clear 27 1013 41 10000 2.57 220 20:28 14.06.2022
3146 Clear 25 1013 46 10000 3.6 40 18:54 14.06.2022
3147 Drizzle 23 1013 52 10000 5.14 60 17:39 14.06.2022
3148 Drizzle 22 1014 55 10000 4.12 50 16:43 14.06.2022
3149 Clear 21 1014 57 10000 5.66 20 15:50 14.06.2022
3150 Clouds 20 1014 58 10000 4.92 25 14:57 14.06.2022
3151 Clear 20 1014 59 10000 5.14 50 14:30 14.06.2022
3152 Clear 20 1014 57 10000 4.12 20 13:40 14.06.2022
3153 Clear 20 1013 55 10000 4.47 24 12:42 14.06.2022
3154 Clouds 20 1013 53 10000 5.36 29 11:31 14.06.2022
3155 Clouds 21 1013 52 10000 4.47 32 10:47 14.06.2022
3156 Clouds 21 1013 49 10000 5.36 26 09:48 14.06.2022
3157 Clear 22 1013 46 10000 4.92 19 08:46 14.06.2022
3158 Clear 23 1013 42 10000 4.63 350 07:31 14.06.2022
3159 Clear 24 1013 41 10000 3.6 330 05:19 14.06.2022
3160 Clear 27 1012 51 10000 2.68 32 02:49 14.06.2022
3161 Clouds 29 1011 56 10000 5.14 310 00:32 14.06.2022
3162 Clear 29 1011 60 10000 4.12 160 23:27 13.06.2022
3163 Clear 29 1012 57 10000 5.66 300 22:26 13.06.2022
3164 Clouds 29 1012 62 10000 5.14 160 21:49 13.06.2022
3165 Clouds 28 1012 63 10000 4.12 160 20:42 13.06.2022
3166 Clouds 28 1012 60 10000 4.63 70 19:34 13.06.2022
3167 Clear 28 1014 61 10000 2.24 276 18:25 13.06.2022
3168 Clouds 27 1013 64 10000 2.68 0 17:46 13.06.2022
3169 Clouds 26 1013 69 10000 2.24 164 16:52 13.06.2022
3170 Clear 25 1013 75 10000 1.54 0 15:39 13.06.2022
3171 Mist 23 1013 80 9656 2.68 205 14:47 13.06.2022
3172 Fog 21 1013 88 10000 2.57 250 13:54 13.06.2022
3173 Fog 20 1012 90 10000 2.06 210 12:49 13.06.2022
3174 Mist 20 1012 91 10000 1.54 260 11:34 13.06.2022
3175 Mist 20 1012 90 10000 4.92 236 10:27 13.06.2022
3176 Mist 20 1013 90 10000 3.58 215 09:42 13.06.2022
3177 Clouds 20 1013 89 10000 5.14 220 08:24 13.06.2022
3178 Clouds 20 1013 87 10000 4.02 131 06:33 13.06.2022
3179 Clouds 21 1013 85 10000 3.6 180 03:28 13.06.2022
3180 Clouds 22 1013 82 10000 5.66 170 01:38 13.06.2022
3181 Clouds 22 1013 80 10000 5.66 170 00:22 13.06.2022
3182 Clouds 22 1013 78 10000 5.66 170 23:31 12.06.2022
3183 Clouds 22 1014 78 10000 6.71 165 22:23 12.06.2022
3184 Clouds 22 1014 77 10000 8.49 156 21:39 12.06.2022
3185 Clouds 22 1014 76 10000 4.63 170 20:40 12.06.2022
3186 Clouds 21 1015 83 10000 6.69 190 19:41 12.06.2022
3187 Mist 19 1015 89 10000 7.2 190 18:44 12.06.2022
3188 Rain 18 1015 88 10000 5.36 189 16:44 12.06.2022
3189 Clouds 18 1015 86 10000 5.36 134 15:32 12.06.2022
3190 Rain 18 1016 83 10000 5.14 180 14:41 12.06.2022
3191 Rain 18 1016 81 10000 9.39 181 14:18 12.06.2022
3192 Clouds 19 1015 76 10000 4.02 221 13:43 12.06.2022
3193 Clouds 18 1015 77 10000 1.56 218 11:58 12.06.2022
3194 Clear 18 1015 76 10000 2.57 200 10:46 12.06.2022
3195 Clear 18 1015 75 10000 2.57 250 09:36 12.06.2022
3196 Clear 18 1015 74 10000 4.12 230 08:49 12.06.2022
3197 Clear 18 1015 72 10000 4.63 220 07:49 12.06.2022
3198 Clear 19 1014 70 10000 4.63 220 06:21 12.06.2022
3199 Clouds 21 1014 59 10000 4.63 210 03:38 12.06.2022
3200 Clouds 22 1013 59 10000 3.6 200 01:49 12.06.2022
3201 Clouds 22 1013 60 10000 4.47 184 01:29 12.06.2022
3202 Clouds 22 1012 63 10000 3.6 170 00:43 12.06.2022
3203 Clouds 22 1012 63 10000 5.36 172 00:18 12.06.2022
3204 Clouds 22 1012 63 10000 4.02 155 22:58 11.06.2022
3205 Rain 22 1013 61 10000 4.47 162 22:31 11.06.2022
3206 Clouds 23 1014 52 10000 2.57 60 21:18 11.06.2022
3207 Clouds 23 1014 52 10000 2.57 60 21:18 11.06.2022
3208 Clouds 24 1013 46 10000 5.14 60 20:26 11.06.2022
3209 Clouds 24 1013 51 10000 3.6 290 19:33 11.06.2022
3210 Clouds 24 1013 51 10000 3.6 290 19:33 11.06.2022
3211 Clouds 23 1013 55 10000 3.09 70 18:43 11.06.2022
3212 Clouds 23 1014 54 10000 3.58 52 18:25 11.06.2022
3213 Clear 23 1014 53 10000 3.6 50 17:47 11.06.2022
3214 Clear 23 1014 53 10000 3.6 50 17:25 11.06.2022
3215 Clear 23 1014 53 10000 3.6 40 16:42 11.06.2022
3216 Clouds 23 1013 55 10000 0.89 210 15:57 11.06.2022
3217 Clear 21 1013 60 10000 4.12 50 14:43 11.06.2022
3218 Clear 20 1013 64 10000 4.12 50 13:50 11.06.2022
3219 Clouds 18 1012 68 10000 0.89 345 11:55 11.06.2022
3220 Clear 19 1012 62 10000 2.06 80 10:30 11.06.2022
3221 Clouds 20 1012 60 10000 3.09 40 09:41 11.06.2022
3222 Clear 21 1012 57 10000 1.54 200 08:37 11.06.2022
3223 Clear 21 1012 53 10000 2.68 360 06:33 11.06.2022
3224 Clear 22 1012 48 10000 2.06 290 05:33 11.06.2022
3225 Clear 23 1011 44 10000 3.09 260 02:55 11.06.2022
3226 Clouds 24 1011 40 10000 4.63 300 01:41 11.06.2022
3227 Clouds 25 1010 39 10000 4.02 293 00:55 11.06.2022
3228 Clouds 26 1010 37 10000 6.17 300 23:25 10.06.2022
3229 Clouds 26 1010 36 10000 7.72 270 22:20 10.06.2022
3230 Clouds 26 1010 36 10000 7.72 310 21:27 10.06.2022
3231 Clear 26 1010 37 10000 6.69 250 20:37 10.06.2022
3232 Clear 26 1010 37 10000 6.69 250 20:19 10.06.2022
3233 Clear 26 1010 37 10000 6.69 250 20:19 10.06.2022
3234 Clouds 25 1011 39 10000 6.69 270 19:19 10.06.2022
3235 Clear 24 1011 42 10000 6.17 280 18:30 10.06.2022
3236 Clear 23 1011 46 10000 5.66 320 17:43 10.06.2022
3237 Clear 23 1011 46 10000 5.66 320 17:21 10.06.2022
3238 Clear 22 1011 51 10000 5.66 290 16:26 10.06.2022
3239 Clear 21 1011 56 10000 5.14 320 15:38 10.06.2022
3240 Clear 19 1010 65 10000 5.81 304 13:58 10.06.2022
3241 Clear 17 1010 69 10000 4.47 235 12:57 10.06.2022
3242 Clear 16 1009 68 10000 5.66 290 11:59 10.06.2022
3243 Clear 17 1009 67 10000 5.14 300 10:45 10.06.2022
3244 Clear 17 1009 66 10000 4.47 360 09:56 10.06.2022
3245 Clear 18 1009 63 10000 5.66 300 08:47 10.06.2022
3246 Clear 18 1009 60 10000 5.66 320 07:31 10.06.2022
3247 Clear 19 1009 58 10000 8.75 310 06:45 10.06.2022
3248 Clear 19 1009 57 10000 8.75 310 06:26 10.06.2022
3249 Clouds 21 1008 55 10000 8.23 310 04:37 10.06.2022
3250 Clouds 24 1006 49 10000 8.49 302 01:59 10.06.2022
3251 Clouds 25 1005 48 10000 10.29 320 01:36 10.06.2022
3252 Clouds 26 1003 47 10000 10.28 288 23:57 09.06.2022
3253 Clouds 27 1003 49 10000 9.39 265 22:22 09.06.2022
3254 Clouds 27 1003 49 10000 10.29 250 21:37 09.06.2022
3255 Clear 27 1002 48 10000 8.94 289 20:58 09.06.2022
3256 Clouds 28 1002 46 10000 11.32 260 20:26 09.06.2022
3257 Clouds 28 1002 48 10000 12.07 276 19:31 09.06.2022
3258 Clouds 28 1002 48 10000 12.07 276 19:31 09.06.2022
3259 Clouds 28 1002 52 10000 10.8 260 18:34 09.06.2022
3260 Clouds 26 1002 62 10000 8.23 240 17:18 09.06.2022
3261 Clouds 25 1002 72 10000 7.6 284 16:21 09.06.2022
3262 Clouds 22 1002 87 10000 6.69 220 14:39 09.06.2022
3263 Clouds 22 1002 90 10000 5.81 141 13:55 09.06.2022
3264 Mist 21 1002 91 10000 5.81 201 13:29 09.06.2022
3265 Clouds 21 1002 92 10000 6.69 190 12:46 09.06.2022
3266 Rain 21 1003 92 10000 8.05 160 11:19 09.06.2022
3267 Rain 21 1005 92 10000 4.92 110 09:50 09.06.2022
3268 Rain 21 1005 92 10000 5.36 110 09:31 09.06.2022
3269 Rain 21 1007 90 6437 4.92 103 08:21 09.06.2022
3270 Rain 21 1008 86 10000 4.47 123 07:23 09.06.2022
3271 Clear 23 1010 75 10000 2.57 170 03:28 09.06.2022
3272 Clear 28 1010 38 10000 5.14 280 23:55 08.06.2022
3273 Clouds 29 1010 40 10000 4.02 282 22:59 08.06.2022
3274 Clear 29 1011 39 10000 6.17 260 22:27 08.06.2022
3275 Clouds 29 1011 41 10000 5.81 271 21:59 08.06.2022
3276 Clear 29 1011 40 10000 6.17 250 21:31 08.06.2022
3277 Clear 28 1011 43 10000 6.71 249 20:24 08.06.2022
3278 Clouds 28 1012 46 10000 6.69 260 19:40 08.06.2022
3279 Clouds 27 1012 52 10000 6.71 293 18:48 08.06.2022
3280 Clouds 26 1012 58 10000 6.17 260 17:35 08.06.2022
3281 Clouds 24 1011 70 10000 3.58 285 15:53 08.06.2022
3282 Clouds 22 1012 83 10000 5.14 250 14:31 08.06.2022
3283 Mist 21 1011 89 10000 4.92 268 12:46 08.06.2022
3284 Mist 20 1011 89 10000 5.81 360 11:35 08.06.2022
3285 Clouds 20 1011 89 10000 4.12 250 10:46 08.06.2022
3286 Mist 20 1011 89 10000 5.36 360 09:28 08.06.2022
3287 Clouds 20 1012 89 10000 5.14 190 08:52 08.06.2022
3288 Rain 19 1013 90 10000 7.2 180 06:43 08.06.2022
3289 Rain 20 1014 85 10000 9.26 170 04:41 08.06.2022
3290 Clouds 22 1014 74 10000 10.73 150 00:58 08.06.2022
3291 Clear 22 1015 71 10000 10.29 190 23:32 07.06.2022
3292 Clear 23 1015 68 10000 9.83 147 22:51 07.06.2022
3293 Clear 23 1015 65 10000 10.28 154 22:33 07.06.2022
3294 Clear 24 1015 64 10000 10.29 180 21:39 07.06.2022
3295 Clear 24 1016 63 10000 10.29 180 21:20 07.06.2022
3296 Clear 25 1016 60 10000 10.8 180 20:40 07.06.2022
3297 Clouds 26 1016 57 10000 8.94 158 19:51 07.06.2022
3298 Clear 25 1017 59 10000 7.2 170 18:25 07.06.2022
3299 Clear 24 1017 61 10000 7.72 180 17:33 07.06.2022
3300 Clear 23 1018 63 10000 6.69 200 16:44 07.06.2022
3301 Clouds 23 1017 65 10000 5.36 157 15:58 07.06.2022
3302 Clouds 22 1018 65 10000 5.14 180 15:36 07.06.2022
3303 Clouds 22 1018 66 10000 5.14 180 15:18 07.06.2022
3304 Clouds 21 1018 68 10000 5.66 210 14:42 07.06.2022
3305 Clear 19 1018 70 10000 4.02 360 13:38 07.06.2022
3306 Clear 18 1018 70 10000 3.6 200 13:20 07.06.2022
3307 Clear 16 1018 67 10000 2.06 270 11:55 07.06.2022
3308 Clear 17 1018 61 10000 4.12 190 10:48 07.06.2022
3309 Clouds 18 1018 54 10000 4.47 203 08:58 07.06.2022
3310 Clear 18 1018 49 10000 5.14 210 08:22 07.06.2022
3311 Clear 20 1018 46 10000 5.66 200 06:42 07.06.2022
3312 Clear 21 1018 48 10000 5.36 210 04:47 07.06.2022
3313 Clear 23 1017 42 10000 7.6 152 01:28 07.06.2022
3314 Clear 25 1017 38 10000 8.05 147 23:59 06.06.2022
3315 Clear 26 1017 37 10000 8.49 152 22:56 06.06.2022
3316 Clear 26 1017 36 10000 7.6 153 22:30 06.06.2022
3317 Clear 27 1018 32 10000 6.17 190 21:18 06.06.2022
3318 Clear 27 1019 32 10000 4.63 190 19:29 06.06.2022
3319 Clear 26 1019 34 10000 3.13 360 18:53 06.06.2022
3320 Clear 26 1018 35 10000 3.09 230 18:32 06.06.2022
3321 Clear 25 1018 36 10000 2.57 0 17:27 06.06.2022
3322 Clear 23 1018 41 10000 2.57 240 16:21 06.06.2022
3323 Clear 22 1017 44 10000 2.24 255 15:33 06.06.2022
3324 Clear 22 1017 44 10000 2.24 255 15:33 06.06.2022
3325 Clear 20 1017 49 10000 2.57 250 14:36 06.06.2022
3326 Clear 18 1017 58 10000 3.09 270 13:26 06.06.2022
3327 Clear 17 1017 54 10000 2.57 260 12:36 06.06.2022
3328 Clear 16 1017 56 10000 3.09 280 11:53 06.06.2022
3329 Clear 16 1016 51 10000 3.6 270 10:46 06.06.2022
3330 Clear 17 1016 50 10000 2.24 360 09:40 06.06.2022
3331 Clear 17 1016 49 10000 2.57 250 08:33 06.06.2022
3332 Clear 17 1016 50 10000 2.57 250 07:28 06.06.2022
3333 Clear 18 1016 49 10000 3.09 230 05:29 06.06.2022
3334 Clear 18 1016 49 10000 3.09 230 05:29 06.06.2022
3335 Clear 19 1015 47 10000 4.12 180 03:44 06.06.2022
3336 Clear 22 1015 42 10000 5.36 177 01:23 06.06.2022
3337 Clear 23 1015 38 10000 5.66 150 00:42 06.06.2022
3338 Clear 24 1015 34 10000 5.14 160 23:44 05.06.2022
3339 Clear 25 1015 33 10000 5.81 186 22:52 05.06.2022
3340 Clouds 24 1015 33 10000 3.58 169 20:59 05.06.2022
3341 Clear 24 1016 32 10000 4.63 30 19:50 05.06.2022
3342 Clear 23 1017 32 10000 3.6 360 18:30 05.06.2022
3343 Clear 23 1017 32 10000 3.6 360 18:30 05.06.2022
3344 Clear 23 1017 34 10000 2.57 210 17:55 05.06.2022
3345 Clear 22 1017 34 10000 4.63 40 17:27 05.06.2022
3346 Clouds 21 1017 36 10000 1.34 324 16:57 05.06.2022
3347 Clouds 21 1017 36 10000 4.47 36 16:37 05.06.2022
3348 Clouds 21 1017 36 10000 4.47 36 16:37 05.06.2022
3349 Clear 18 1016 43 10000 4.02 34 14:34 05.06.2022
3350 Clouds 15 1015 51 10000 2.24 37 12:59 05.06.2022
3351 Clear 15 1015 51 10000 3.6 70 11:49 05.06.2022
3352 Clear 15 1014 49 10000 3.6 60 10:43 05.06.2022
3353 Clear 16 1014 48 10000 4.02 39 10:22 05.06.2022
3354 Clear 18 1013 41 10000 5.66 360 08:41 05.06.2022
3355 Clear 18 1013 39 10000 5.66 360 08:20 05.06.2022
3356 Clear 20 1012 48 10000 3.09 360 05:23 05.06.2022
3357 Clear 21 1011 59 10000 3.6 330 04:30 05.06.2022
3358 Clear 23 1010 61 10000 4.12 150 01:45 05.06.2022
3359 Clear 23 1010 59 10000 4.12 150 01:45 05.06.2022
3360 Clear 25 1010 50 10000 5.66 330 01:22 05.06.2022
3361 Clear 25 1010 50 10000 5.66 330 01:22 05.06.2022
3362 Clouds 27 1010 41 10000 6.69 180 22:44 04.06.2022
3363 Clear 27 1011 41 10000 2.68 196 20:55 04.06.2022
3364 Clear 26 1012 41 10000 3.09 0 18:54 04.06.2022
3365 Clear 24 1012 41 10000 3.09 60 16:47 04.06.2022
3366 Clear 24 1012 43 10000 3.09 60 16:19 04.06.2022
3367 Clear 22 1012 53 10000 3.6 70 15:27 04.06.2022
3368 Clouds 19 1013 66 10000 3.13 24 13:54 04.06.2022
3369 Clear 16 1011 70 10000 1.79 269 11:23 04.06.2022
3370 Clouds 16 1011 71 10000 0.89 360 10:52 04.06.2022
3371 Clear 17 1012 64 10000 2.06 30 09:46 04.06.2022
3372 Clear 18 1011 59 10000 1.54 330 08:44 04.06.2022
3373 Clear 18 1011 58 10000 3.6 20 07:59 04.06.2022
3374 Clear 19 1010 56 10000 3.13 27 06:20 04.06.2022
3375 Clear 21 1009 63 10000 4.12 170 02:56 04.06.2022
3376 Clear 23 1008 68 10000 4.12 210 00:20 04.06.2022
3377 Clear 24 1008 68 10000 5.14 170 22:49 03.06.2022
3378 Clouds 24 1008 67 10000 4.12 160 21:43 03.06.2022
3379 Clouds 24 1008 70 10000 3.6 210 20:40 03.06.2022
3380 Clouds 23 1008 72 10000 3.09 150 19:19 03.06.2022
3381 Clouds 21 1008 79 10000 4.12 40 16:54 03.06.2022
3382 Clouds 20 1008 86 10000 2.68 105 15:51 03.06.2022
3383 Mist 18 1007 93 6437 3.58 41 13:51 03.06.2022
3384 Mist 18 1007 93 4828 5.66 50 11:54 03.06.2022
3385 Mist 19 1006 92 4023 6.17 40 09:56 03.06.2022
3386 Mist 19 1006 92 3219 6.17 40 09:29 03.06.2022
3387 Mist 19 1007 91 2816 2.57 40 07:43 03.06.2022
3388 Mist 19 1007 90 3219 2.57 80 06:49 03.06.2022
3389 Mist 19 1007 90 2816 2.57 80 06:27 03.06.2022
3390 Mist 21 1007 87 6437 2.06 50 02:58 03.06.2022
3391 Mist 22 1006 86 6437 7.72 360 23:39 02.06.2022
3392 Clouds 24 1004 73 4719 4.92 176 21:58 02.06.2022
3393 Clouds 26 1007 67 10000 3.6 40 20:38 02.06.2022
3394 Clouds 26 1007 67 10000 2.68 214 19:55 02.06.2022
3395 Clouds 26 1007 68 10000 2.57 150 19:37 02.06.2022
3396 Clouds 25 1007 72 10000 2.57 220 18:39 02.06.2022
3397 Clouds 22 1007 80 10000 2.24 136 16:28 02.06.2022
3398 Clouds 21 1008 84 10000 3.6 210 15:47 02.06.2022
3399 Mist 18 1009 91 9656 4.63 270 13:31 02.06.2022
3400 Mist 18 1008 94 8047 3.6 250 12:49 02.06.2022
3401 Mist 17 1007 93 6437 2.68 360 10:36 02.06.2022
3402 Mist 17 1008 95 2816 5.66 260 09:30 02.06.2022
3403 Mist 17 1009 93 4023 7.15 282 08:44 02.06.2022
3404 Mist 17 1009 93 4023 3.6 230 08:23 02.06.2022
3405 Mist 16 1010 92 8047 6.26 360 06:21 02.06.2022
3406 Rain 16 1012 91 9656 3.09 240 03:50 02.06.2022
3407 Mist 17 1012 84 9656 4.47 119 00:55 02.06.2022
3408 Clouds 18 1013 76 10000 5.14 50 22:58 01.06.2022
3409 Clouds 19 1013 75 10000 5.14 50 22:18 01.06.2022
3410 Clouds 20 1013 73 10000 5.14 40 21:24 01.06.2022
3411 Clouds 20 1014 70 10000 6.17 50 20:38 01.06.2022
3412 Clouds 20 1014 69 10000 3.6 160 19:52 01.06.2022
3413 Clouds 20 1014 70 10000 5.66 40 18:37 01.06.2022
3414 Clouds 19 1015 75 10000 4.12 40 16:58 01.06.2022
3415 Clouds 17 1016 78 10000 5.14 40 15:45 01.06.2022
3416 Clouds 17 1016 80 10000 5.14 40 14:50 01.06.2022
3417 Clouds 16 1015 81 10000 4.12 40 13:26 01.06.2022
3418 Clouds 16 1014 83 10000 7.72 50 11:23 01.06.2022
3419 Clouds 17 1015 81 10000 8.23 40 09:30 01.06.2022
3420 Clouds 18 1014 79 10000 6.71 51 08:19 01.06.2022
3421 Clear 19 1013 77 10000 6.17 40 07:20 01.06.2022
3422 Thunderstorm 24 1012 65 10000 7.2 50 04:53 01.06.2022
3423 Clouds 33 1012 37 10000 6.17 340 23:50 31.05.2022
3424 Clouds 34 1012 34 10000 5.14 270 22:43 31.05.2022
3425 Clouds 34 1012 36 10000 5.14 270 22:25 31.05.2022
3426 Clear 34 1012 35 10000 6.17 340 21:44 31.05.2022
3427 Clear 35 1013 36 10000 5.66 300 20:44 31.05.2022
3428 Clear 35 1013 37 10000 5.66 300 20:44 31.05.2022
3429 Clear 35 1013 37 10000 5.66 300 20:44 31.05.2022
3430 Clear 34 1014 39 10000 5.66 300 19:46 31.05.2022
3431 Clear 33 1014 41 10000 7.2 310 18:33 31.05.2022
3432 Clear 32 1014 41 10000 8.75 330 17:46 31.05.2022
3433 Clear 31 1015 46 10000 8.23 330 16:48 31.05.2022
3434 Clear 29 1015 53 10000 5.36 305 15:40 31.05.2022
3435 Clear 24 1016 71 10000 6.69 290 13:37 31.05.2022
3436 Clear 23 1016 74 10000 4.92 221 12:19 31.05.2022
3437 Clear 23 1015 77 10000 6.26 218 10:52 31.05.2022
3438 Clear 24 1016 73 10000 6.26 360 08:37 31.05.2022
3439 Clear 24 1016 70 10000 4.47 360 06:52 31.05.2022
3440 Clear 25 1017 65 10000 3.6 180 04:34 31.05.2022
3441 Clear 29 1017 51 10000 7.72 160 23:53 30.05.2022
3442 Clear 29 1017 50 10000 7.72 160 23:25 30.05.2022
3443 Clear 29 1017 48 10000 6.69 170 22:44 30.05.2022
3444 Clouds 30 1017 48 10000 6.17 180 21:47 30.05.2022
3445 Clouds 30 1018 47 10000 6.17 180 21:29 30.05.2022
3446 Clear 30 1019 47 10000 3.09 220 19:51 30.05.2022
3447 Clear 29 1019 50 10000 4.12 230 18:34 30.05.2022
3448 Clear 27 1020 53 10000 4.63 280 17:23 30.05.2022
3449 Clear 26 1020 57 10000 3.09 250 16:39 30.05.2022
3450 Fog 19 1020 80 10000 3.13 360 13:44 30.05.2022
3451 Fog 17 1019 86 10000 1.54 250 12:19 30.05.2022
3452 Clear 17 1019 82 10000 1.54 260 10:26 30.05.2022
3453 Clear 17 1019 80 10000 2.06 280 09:19 30.05.2022
3454 Clear 18 1019 69 10000 5.36 360 06:30 30.05.2022
3455 Clear 19 1019 69 10000 5.36 360 05:47 30.05.2022
3456 Clear 22 1018 64 10000 5.14 170 01:32 30.05.2022
3457 Clear 25 1018 46 10000 4.12 160 22:54 29.05.2022
3458 Clear 25 1018 47 10000 4.12 160 22:36 29.05.2022
3459 Clouds 25 1019 48 10000 2.24 294 20:53 29.05.2022
3460 Clear 24 1019 49 10000 3.13 233 19:31 29.05.2022
3461 Clouds 24 1019 51 10000 2.57 250 18:44 29.05.2022
3462 Clouds 23 1018 55 10000 2.57 250 17:31 29.05.2022
3463 Clear 21 1018 64 10000 2.06 280 15:48 29.05.2022
3464 Clouds 19 1018 67 10000 2.24 276 14:57 29.05.2022
3465 Clear 18 1017 71 10000 1.34 39 13:52 29.05.2022
3466 Clear 15 1015 78 10000 2.06 330 11:41 29.05.2022
3467 Clear 16 1015 77 10000 2.57 330 10:38 29.05.2022
3468 Clear 17 1014 74 10000 3.6 290 08:51 29.05.2022
3469 Clear 19 1013 71 10000 3.13 293 05:54 29.05.2022
3470 Clouds 20 1012 73 10000 3.6 290 04:45 29.05.2022
3471 Clouds 21 1011 75 10000 3.6 320 03:47 29.05.2022
3472 Clouds 23 1008 69 10000 4.63 260 23:50 28.05.2022
3473 Clouds 22 1008 70 10000 4.63 260 23:26 28.05.2022
3474 Rain 22 1008 73 10000 9.26 260 22:39 28.05.2022
3475 Clear 23 1007 68 10000 7.2 300 21:38 28.05.2022
3476 Clouds 20 1007 82 10000 6.17 310 19:49 28.05.2022
3477 Thunderstorm 24 1006 73 10000 8.23 290 18:54 28.05.2022
3478 Clouds 23 1006 76 10000 3.58 159 17:37 28.05.2022
3479 Clouds 22 1006 84 10000 3.09 220 16:43 28.05.2022
3480 Clouds 21 1006 89 10000 2.57 190 15:43 28.05.2022
3481 Rain 20 1006 89 10000 3.6 230 14:28 28.05.2022
3482 Clouds 19 1006 91 10000 2.57 220 12:57 28.05.2022
3483 Clouds 19 1006 91 10000 3.6 240 12:35 28.05.2022
3484 Mist 19 1005 92 10000 5.81 360 11:22 28.05.2022
3485 Clouds 19 1005 92 10000 4.92 360 10:21 28.05.2022
3486 Clouds 18 1006 93 10000 2.06 280 09:22 28.05.2022
3487 Rain 18 1007 94 6437 6.17 170 07:23 28.05.2022
3488 Clouds 19 1008 90 10000 4.63 170 06:26 28.05.2022
3489 Clouds 19 1010 89 10000 5.14 180 03:48 28.05.2022
3490 Clouds 20 1010 88 10000 4.92 162 00:33 28.05.2022
3491 Thunderstorm 20 1011 86 6437 7.72 240 23:32 27.05.2022
3492 Clouds 24 1011 71 10000 7.72 160 21:50 27.05.2022
3493 Clouds 24 1011 71 10000 7.72 160 21:50 27.05.2022
3494 Clouds 25 1011 70 5593 4.92 162 20:56 27.05.2022
3495 Clear 25 1012 66 10000 6.69 180 20:26 27.05.2022
3496 Clouds 25 1012 66 10000 4.63 170 19:51 27.05.2022
3497 Clouds 25 1013 67 10000 6.69 150 19:32 27.05.2022
3498 Clouds 25 1013 71 10000 6.69 150 18:29 27.05.2022
3499 Haze 23 1014 77 10000 3.6 180 16:42 27.05.2022
3500 Mist 20 1014 88 10000 4.12 180 15:34 27.05.2022
3501 Mist 19 1015 92 9656 4.12 180 14:44 27.05.2022
3502 Mist 18 1015 93 4828 2.68 169 13:30 27.05.2022
3503 Mist 18 1016 92 2012 2.06 180 11:41 27.05.2022
3504 Mist 18 1016 91 10000 3.6 170 11:23 27.05.2022
3505 Mist 18 1016 91 10000 3.58 144 10:32 27.05.2022
3506 Mist 18 1017 91 10000 2.57 170 09:37 27.05.2022
3507 Mist 18 1018 90 10000 3.13 150 08:19 27.05.2022
3508 Clouds 18 1019 85 10000 4.12 180 06:45 27.05.2022
3509 Clouds 19 1020 78 10000 6.26 154 02:53 27.05.2022
3510 Clouds 20 1021 73 10000 7.72 170 00:37 27.05.2022
3511 Clouds 20 1023 68 10000 7.72 160 22:47 26.05.2022
3512 Clouds 20 1023 66 10000 8.05 149 21:43 26.05.2022
3513 Clouds 20 1023 67 10000 6.71 155 20:59 26.05.2022
3514 Clouds 20 1025 61 10000 5.66 180 19:27 26.05.2022
3515 Clouds 20 1025 63 10000 5.66 170 18:21 26.05.2022
3516 Clouds 18 1026 68 10000 4.47 141 16:58 26.05.2022
3517 Clouds 17 1027 72 10000 4.02 144 15:49 26.05.2022
3518 Clear 16 1027 75 10000 3.13 134 14:48 26.05.2022
3519 Clear 14 1027 77 10000 3.13 360 13:23 26.05.2022
3520 Clear 12 1027 79 10000 2.68 126 11:38 26.05.2022
3521 Clear 13 1026 76 10000 3.09 110 10:37 26.05.2022
3522 Clear 12 1027 73 10000 3.6 120 09:37 26.05.2022
3523 Clouds 13 1027 67 10000 4.02 108 08:38 26.05.2022
3524 Clear 13 1028 57 10000 3.09 170 05:24 26.05.2022
3525 Clear 16 1028 57 10000 5.81 154 01:26 26.05.2022
3526 Clear 18 1028 56 10000 5.81 154 23:41 25.05.2022
3527 Clouds 19 1028 53 10000 7.15 151 22:48 25.05.2022
3528 Clear 20 1028 51 10000 5.81 151 21:37 25.05.2022
3529 Clear 20 1029 47 10000 5.66 220 20:39 25.05.2022
3530 Clear 21 1029 48 10000 3.6 60 19:31 25.05.2022
3531 Clear 20 1030 48 10000 4.12 260 18:23 25.05.2022
3532 Clear 18 1029 54 10000 4.12 40 16:42 25.05.2022
3533 Clear 18 1028 54 10000 4.12 40 16:21 25.05.2022
3534 Clear 17 1029 56 10000 3.6 40 15:24 25.05.2022
3535 Clear 16 1029 63 10000 3.6 50 14:38 25.05.2022
3536 Clear 15 1029 65 10000 3.6 50 14:19 25.05.2022
3537 Clear 13 1028 76 10000 3.6 40 12:52 25.05.2022
3538 Clouds 12 1027 75 10000 2.24 86 11:31 25.05.2022
3539 Clear 13 1028 73 10000 3.6 40 10:23 25.05.2022
3540 Clouds 13 1027 71 10000 0.89 67 08:53 25.05.2022
3541 Clouds 13 1026 71 10000 3.13 102 07:23 25.05.2022
3542 Clear 14 1027 68 10000 4.02 109 05:27 25.05.2022
3543 Clouds 18 1025 56 10000 5.14 50 00:38 25.05.2022
3544 Clouds 18 1026 52 10000 4.63 160 23:48 24.05.2022
3545 Clouds 19 1026 52 10000 1.79 215 22:58 24.05.2022
3546 Clouds 19 1026 55 10000 6.17 50 21:47 24.05.2022
3547 Clouds 19 1026 55 10000 6.17 50 21:23 24.05.2022
3548 Clouds 19 1025 56 10000 3.58 163 20:59 24.05.2022
3549 Clouds 19 1026 56 10000 6.69 40 19:20 24.05.2022
3550 Clouds 18 1026 59 10000 6.69 50 18:29 24.05.2022
3551 Clouds 18 1026 59 10000 7.72 50 16:39 24.05.2022
3552 Clouds 17 1026 65 10000 7.2 50 15:45 24.05.2022
3553 Clouds 16 1025 69 10000 6.17 60 14:38 24.05.2022
3554 Clear 16 1025 71 10000 5.81 51 13:46 24.05.2022
3555 Clear 16 1024 66 10000 4.12 50 12:24 24.05.2022
3556 Rain 16 1023 74 10000 5.36 120 09:52 24.05.2022
3557 Clouds 17 1023 67 10000 3.6 160 08:52 24.05.2022
3558 Clouds 17 1023 62 10000 4.02 115 07:56 24.05.2022
3559 Clouds 18 1023 57 10000 2.57 170 06:39 24.05.2022
3560 Clear 20 1022 45 10000 4.92 345 03:41 24.05.2022
3561 Clear 21 1022 40 10000 5.14 40 01:47 24.05.2022
3562 Clear 22 1021 36 10000 5.14 360 00:34 24.05.2022
3563 Clear 24 1021 32 10000 4.12 360 22:24 23.05.2022
3564 Clear 23 1022 33 10000 5.14 20 21:53 23.05.2022
3565 Clear 23 1022 35 10000 2.24 72 20:53 23.05.2022
3566 Clouds 23 1022 36 10000 1.79 342 19:56 23.05.2022
3567 Clear 22 1022 37 10000 5.66 350 19:27 23.05.2022
3568 Clear 22 1023 41 10000 6.17 10 18:41 23.05.2022
3569 Clouds 21 1022 42 10000 3.13 31 17:56 23.05.2022
3570 Clear 20 1023 46 10000 7.2 350 16:46 23.05.2022
3571 Clear 17 1022 58 10000 6.17 350 14:44 23.05.2022
3572 Clouds 17 1020 64 10000 6.71 312 11:58 23.05.2022
3573 Clear 17 1019 63 10000 8.23 340 11:20 23.05.2022
3574 Clear 18 1018 66 10000 8.94 310 09:48 23.05.2022
3575 Clouds 19 1018 68 10000 8.49 303 08:51 23.05.2022
3576 Clouds 21 1018 69 10000 8.05 304 07:46 23.05.2022
3577 Clear 22 1018 70 10000 4.12 310 06:43 23.05.2022
3578 Clouds 23 1017 64 10000 6.17 340 04:43 23.05.2022
3579 Clouds 27 1013 58 10000 12.35 300 02:19 23.05.2022
3580 Clouds 27 1014 57 10000 6.69 240 01:34 23.05.2022
3581 Clear 30 1014 53 10000 5.66 190 23:42 22.05.2022
3582 Clear 32 1014 48 10000 7.72 240 22:35 22.05.2022
3583 Clear 32 1015 46 10000 6.69 170 21:54 22.05.2022
3584 Clear 32 1016 41 10000 1.79 162 20:51 22.05.2022
3585 Clear 32 1015 45 10000 5.14 190 20:25 22.05.2022
3586 Clouds 32 1015 49 10000 3.13 147 19:56 22.05.2022
3587 Clear 30 1016 55 10000 3.09 240 18:55 22.05.2022
3588 Clear 29 1016 56 10000 4.63 250 18:24 22.05.2022
3589 Clouds 29 1017 58 10000 4.63 280 17:32 22.05.2022
3590 Clear 28 1017 64 10000 6.69 240 16:25 22.05.2022
3591 Clear 25 1017 75 10000 5.14 230 14:48 22.05.2022
3592 Clear 24 1016 80 10000 5.36 183 13:45 22.05.2022
3593 Clear 23 1016 80 10000 4.47 200 12:50 22.05.2022
3594 Clear 22 1015 79 10000 4.12 180 11:44 22.05.2022
3595 Clear 23 1016 74 10000 4.12 210 09:45 22.05.2022
3596 Clear 24 1017 71 10000 3.13 190 08:37 22.05.2022
3597 Clear 25 1017 68 10000 2.68 360 07:22 22.05.2022
3598 Clear 25 1017 66 10000 5.36 360 06:23 22.05.2022
3599 Clear 28 1015 59 10000 4.63 190 02:23 22.05.2022
3600 Clear 30 1016 51 10000 7.2 250 00:44 22.05.2022
3601 Clear 32 1016 47 10000 2.57 0 23:55 21.05.2022
3602 Clear 32 1016 47 10000 6.69 230 23:21 21.05.2022
3603 Clear 33 1016 47 10000 5.66 220 21:45 21.05.2022
3604 Clear 33 1016 47 10000 5.66 220 21:25 21.05.2022
3605 Clear 33 1017 48 10000 4.63 190 20:25 21.05.2022
3606 Clear 32 1016 52 10000 2.24 237 19:37 21.05.2022
3607 Clouds 29 1017 63 10000 1.79 349 17:57 21.05.2022
3608 Clouds 25 1017 81 10000 2.57 310 16:53 21.05.2022
3609 Fog 18 1017 97 402 1.54 220 14:38 21.05.2022
3610 Fog 17 1016 94 402 1.79 360 13:53 21.05.2022
3611 Fog 17 1015 94 402 2.24 360 12:57 21.05.2022
3612 Fog 17 1015 94 402 2.06 220 12:37 21.05.2022
3613 Mist 17 1014 94 2012 3.09 20 10:45 21.05.2022
3614 Mist 17 1014 94 2816 2.68 40 09:49 21.05.2022
3615 Mist 17 1014 93 1609 1.79 11 08:58 21.05.2022
3616 Mist 17 1014 94 1609 2.06 60 08:34 21.05.2022
3617 Clouds 18 1014 93 5390 1.34 111 05:29 21.05.2022
3618 Clouds 18 1013 93 10000 3.6 140 01:24 21.05.2022
3619 Rain 18 1014 90 1609 5.14 30 23:29 20.05.2022
3620 Clouds 18 1014 84 9656 5.14 110 22:26 20.05.2022
3621 Clouds 19 1014 80 10000 5.14 70 21:55 20.05.2022
3622 Clouds 20 1015 74 10000 6.17 40 20:58 20.05.2022
3623 Clouds 20 1015 74 10000 6.17 40 20:58 20.05.2022
3624 Clouds 20 1015 75 10000 6.17 40 20:29 20.05.2022
3625 Clouds 19 1015 76 10000 5.66 50 19:45 20.05.2022
3626 Clouds 19 1015 74 10000 5.81 118 18:48 20.05.2022
3627 Mist 20 1014 73 10000 5.14 50 17:47 20.05.2022
3628 Haze 19 1015 76 6437 4.12 40 16:22 20.05.2022
3629 Haze 18 1015 81 6437 2.57 40 15:53 20.05.2022
3630 Mist 15 1015 88 4023 3.09 40 14:32 20.05.2022
3631 Mist 14 1014 91 4023 2.57 40 13:56 20.05.2022
3632 Mist 13 1012 92 4023 2.57 50 11:51 20.05.2022
3633 Mist 13 1011 91 8047 3.58 97 10:34 20.05.2022
3634 Clear 13 1011 90 10000 2.06 180 08:59 20.05.2022
3635 Clear 13 1011 89 10000 3.09 160 07:42 20.05.2022
3636 Clear 14 1011 88 10000 3.6 160 06:39 20.05.2022
3637 Clouds 14 1011 85 10000 3.13 143 05:39 20.05.2022
3638 Clouds 19 1006 74 10000 3.6 200 01:29 20.05.2022
3639 Clear 19 1006 72 10000 3.09 250 23:31 19.05.2022
3640 Clouds 18 1006 77 10000 4.12 240 22:34 19.05.2022
3641 Clouds 17 1007 79 10000 3.09 200 21:49 19.05.2022
3642 Clouds 16 1007 80 10000 4.02 191 21:23 19.05.2022
3643 Clouds 16 1007 80 10000 4.47 205 20:43 19.05.2022
3644 Clouds 15 1007 84 10000 3.6 50 19:54 19.05.2022
3645 Clouds 14 1007 85 10000 3.6 50 18:59 19.05.2022
3646 Mist 14 1007 90 10000 4.12 40 17:36 19.05.2022
3647 Clouds 13 1008 93 10000 4.92 116 15:43 19.05.2022
3648 Clouds 13 1008 93 10000 5.81 103 14:39 19.05.2022
3649 Clouds 13 1008 93 10000 6.26 118 14:19 19.05.2022
3650 Rain 13 1009 93 8047 4.47 148 11:53 19.05.2022
3651 Rain 13 1010 88 10000 4.02 181 10:30 19.05.2022
3652 Rain 14 1012 81 10000 0 0 08:39 19.05.2022
3653 Rain 16 1012 67 10000 2.06 320 07:18 19.05.2022
3654 Clear 18 1011 54 10000 4.47 212 03:41 19.05.2022
3655 Clouds 20 1012 42 10000 5.14 280 00:57 19.05.2022
3656 Clear 22 1013 34 10000 6.17 230 23:35 18.05.2022
3657 Clear 22 1013 33 10000 4.63 330 22:43 18.05.2022
3658 Clear 22 1014 31 10000 4.92 281 21:42 18.05.2022
3659 Clear 22 1013 32 10000 4.12 290 21:20 18.05.2022
3660 Clear 21 1014 34 10000 5.66 300 20:19 18.05.2022
3661 Clear 20 1015 38 10000 2.57 0 18:53 18.05.2022
3662 Clear 18 1016 42 10000 5.66 310 17:42 18.05.2022
3663 Clear 18 1016 42 10000 5.66 310 17:24 18.05.2022
3664 Clear 18 1015 44 10000 7.15 292 16:53 18.05.2022
3665 Clear 16 1016 49 10000 8.05 300 15:52 18.05.2022
3666 Clear 16 1016 50 10000 5.66 310 15:33 18.05.2022
3667 Clear 15 1015 57 10000 5.66 320 14:21 18.05.2022
3668 Clear 13 1015 61 10000 5.36 305 12:55 18.05.2022
3669 Clear 13 1014 60 10000 6.17 300 12:24 18.05.2022
3670 Clear 13 1014 60 10000 5.66 310 11:33 18.05.2022
3671 Clear 14 1014 58 10000 6.69 310 10:43 18.05.2022
3672 Clear 15 1013 52 10000 6.26 300 08:25 18.05.2022
3673 Clear 15 1013 50 10000 5.81 303 07:27 18.05.2022
3674 Clear 18 1011 42 10000 8.05 321 03:59 18.05.2022
3675 Clear 23 1007 33 10000 6.26 301 00:51 18.05.2022
3676 Clouds 24 1006 33 10000 8.94 297 23:41 17.05.2022
3677 Clouds 25 1005 32 10000 14.4 290 21:23 17.05.2022
3678 Clouds 24 1006 33 10000 10.73 276 20:44 17.05.2022
3679 Clouds 24 1006 34 10000 10.29 280 19:45 17.05.2022
3680 Clouds 24 1006 35 10000 10.29 280 19:24 17.05.2022
3681 Clouds 22 1008 47 10000 8.23 260 17:49 17.05.2022
3682 Clear 21 1008 54 10000 5.66 230 16:57 17.05.2022
3683 Clear 20 1008 55 10000 5.81 261 16:24 17.05.2022
3684 Clouds 18 1008 65 10000 6.17 240 14:56 17.05.2022
3685 Clear 17 1009 69 10000 4.63 230 14:29 17.05.2022
3686 Clear 15 1008 72 10000 4.63 200 13:30 17.05.2022
3687 Clear 14 1007 72 10000 5.36 360 10:42 17.05.2022
3688 Clear 15 1006 65 10000 8.75 300 08:53 17.05.2022
3689 Clear 15 1006 64 10000 6.71 300 07:56 17.05.2022
3690 Clouds 17 1006 67 10000 7.15 297 06:27 17.05.2022
3691 Rain 19 1002 78 10000 4.92 254 01:59 17.05.2022
3692 Clouds 21 1001 71 10000 4.63 180 23:59 16.05.2022
3693 Thunderstorm 22 1000 72 10000 7.2 170 22:40 16.05.2022
3694 Clouds 20 1002 75 10000 7.72 170 21:31 16.05.2022
3695 Mist 21 1003 78 10000 6.69 160 20:44 16.05.2022
3696 Thunderstorm 22 1005 74 10000 6.17 160 19:19 16.05.2022
3697 Clouds 23 1006 76 10000 5.14 150 17:34 16.05.2022
3698 Clouds 22 1006 79 10000 4.63 180 15:42 16.05.2022
3699 Clear 19 1007 87 10000 3.6 180 13:48 16.05.2022
3700 Fog 18 1007 88 10000 2.06 190 12:46 16.05.2022
3701 Clear 18 1008 88 10000 3.09 200 10:47 16.05.2022
3702 Clouds 19 1008 85 10000 4.02 198 08:55 16.05.2022
3703 Clear 19 1009 82 10000 3.09 160 06:33 16.05.2022
3704 Clear 19 1009 82 10000 4.02 360 06:33 16.05.2022
3705 Clear 20 1009 78 10000 4.63 170 02:33 16.05.2022
3706 Clear 24 1009 71 10000 6.17 170 23:19 15.05.2022
3707 Clouds 24 1009 69 10000 7.72 160 22:28 15.05.2022
3708 Clouds 25 1010 66 10000 8.23 170 21:38 15.05.2022
3709 Clouds 25 1011 66 10000 3.09 210 20:53 15.05.2022
3710 Clouds 24 1012 73 10000 4.63 230 19:24 15.05.2022
3711 Mist 21 1013 85 6437 4.63 250 17:48 15.05.2022
3712 Mist 18 1014 93 4828 3.09 200 15:44 15.05.2022
3713 Mist 16 1013 94 3219 1.54 120 13:49 15.05.2022
3714 Fog 16 1012 94 805 2.57 170 12:22 15.05.2022
3715 Mist 16 1013 94 1207 1.54 270 11:38 15.05.2022
3716 Mist 16 1013 94 1207 1.54 270 11:38 15.05.2022
3717 Mist 16 1013 94 1207 1.54 270 11:38 15.05.2022
3718 Mist 16 1013 94 2414 2.06 250 10:20 15.05.2022
3719 Mist 16 1015 92 6437 4.12 190 07:46 15.05.2022
3720 Mist 16 1015 92 6437 3.6 170 06:57 15.05.2022
3721 Mist 16 1015 93 10000 3.6 170 04:44 15.05.2022
3722 Rain 18 1016 91 10000 2.57 180 00:48 15.05.2022
3723 Rain 19 1016 90 10000 4.47 136 23:38 14.05.2022
3724 Rain 19 1016 89 10000 3.09 120 22:45 14.05.2022
3725 Clouds 20 1017 82 10000 8.94 149 21:28 14.05.2022
3726 Clouds 21 1018 79 10000 5.14 180 20:44 14.05.2022
3727 Clouds 21 1019 78 10000 4.63 230 19:37 14.05.2022
3728 Clouds 22 1019 78 10000 4.63 230 19:19 14.05.2022
3729 Haze 21 1019 81 10000 3.09 180 17:56 14.05.2022
3730 Mist 20 1020 88 4828 2.57 50 16:37 14.05.2022
3731 Mist 17 1020 94 3219 2.06 250 14:59 14.05.2022
3732 Mist 17 1021 93 1207 2.06 100 14:30 14.05.2022
3733 Mist 16 1020 93 9656 2.06 60 12:23 14.05.2022
3734 Mist 16 1020 93 10000 3.58 191 10:54 14.05.2022
3735 Mist 16 1021 92 10000 3.6 60 10:20 14.05.2022
3736 Mist 16 1021 93 10000 2.57 50 09:53 14.05.2022
3737 Mist 16 1021 92 10000 0.45 247 08:46 14.05.2022
3738 Mist 16 1022 92 10000 3.09 180 05:43 14.05.2022
3739 Mist 17 1022 91 10000 4.02 143 02:32 14.05.2022
3740 Clouds 20 1023 83 10000 4.12 60 23:36 13.05.2022
3741 Clouds 20 1023 81 10000 3.6 140 22:57 13.05.2022
3742 Clouds 20 1024 80 10000 3.6 140 22:23 13.05.2022
3743 Clouds 21 1024 77 10000 5.66 60 21:39 13.05.2022
3744 Clouds 22 1023 76 10000 6.17 40 20:44 13.05.2022
3745 Clouds 21 1024 77 10000 6.17 40 20:24 13.05.2022
3746 Haze 21 1025 77 10000 7.72 50 19:25 13.05.2022
3747 Mist 18 1026 89 10000 7.2 40 17:50 13.05.2022
3748 Mist 18 1026 90 10000 7.2 40 17:27 13.05.2022
3749 Mist 17 1026 91 10000 4.02 46 16:18 13.05.2022
3750 Mist 16 1026 92 10000 4.63 30 15:20 13.05.2022
3751 Mist 15 1025 94 10000 4.92 51 13:41 13.05.2022
3752 Mist 15 1025 94 10000 6.71 40 12:28 13.05.2022
3753 Mist 16 1025 92 10000 6.26 53 10:53 13.05.2022
3754 Mist 16 1025 92 10000 3.6 60 09:34 13.05.2022
3755 Mist 15 1025 92 9656 4.12 40 08:24 13.05.2022
3756 Mist 15 1025 91 8047 2.57 60 07:48 13.05.2022
3757 Mist 15 1026 90 10000 4.12 110 06:33 13.05.2022
3758 Clear 17 1026 82 10000 4.12 220 02:48 13.05.2022
3759 Clear 20 1026 70 10000 3.09 50 00:24 13.05.2022
3760 Clouds 22 1026 64 10000 5.14 50 22:45 12.05.2022
3761 Clear 22 1027 64 10000 6.17 60 21:56 12.05.2022
3762 Clouds 21 1027 66 10000 5.66 50 20:29 12.05.2022
3763 Clouds 21 1026 70 10000 6.17 40 18:51 12.05.2022
3764 Clouds 18 1027 75 10000 6.17 50 17:23 12.05.2022
3765 Clouds 17 1026 75 10000 6.26 53 15:55 12.05.2022
3766 Clouds 16 1026 74 10000 5.81 65 14:40 12.05.2022
3767 Clouds 16 1025 74 10000 4.63 30 13:41 12.05.2022
3768 Clouds 14 1024 80 10000 4.12 50 10:46 12.05.2022
3769 Clouds 14 1024 79 10000 2.57 60 09:28 12.05.2022
3770 Clear 14 1024 79 10000 1.34 360 08:51 12.05.2022
3771 Clouds 14 1024 77 10000 2.57 40 07:40 12.05.2022
3772 Clouds 14 1024 77 10000 2.57 40 07:40 12.05.2022
3773 Clouds 14 1024 76 10000 1.54 240 06:19 12.05.2022
3774 Clouds 16 1024 67 10000 4.63 160 02:56 12.05.2022
3775 Clouds 21 1024 50 10000 3.6 50 00:35 12.05.2022
3776 Clouds 23 1024 44 10000 4.02 193 22:36 11.05.2022
3777 Clouds 23 1024 44 10000 4.12 60 21:50 11.05.2022
3778 Clouds 23 1025 43 10000 4.47 11 21:23 11.05.2022
3779 Clouds 19 1025 45 10000 5.66 50 18:49 11.05.2022
3780 Clouds 17 1025 41 10000 7.2 50 16:55 11.05.2022
3781 Clouds 16 1025 36 10000 9.39 46 15:37 11.05.2022
3782 Clouds 14 1025 33 10000 8.75 20 14:39 11.05.2022
3783 Clouds 14 1025 34 10000 8.75 20 14:18 11.05.2022
3784 Clear 12 1025 34 10000 8.49 13 11:54 11.05.2022
3785 Clear 12 1025 34 10000 6.17 20 11:19 11.05.2022
3786 Clear 13 1026 30 10000 5.14 20 08:46 11.05.2022
3787 Clear 14 1027 37 10000 5.81 51 05:31 11.05.2022
3788 Clouds 18 1026 33 10000 6.69 50 01:23 11.05.2022
3789 Clouds 21 1026 26 10000 8.05 48 22:32 10.05.2022
3790 Clouds 22 1026 24 10000 5.66 50 21:57 10.05.2022
3791 Clouds 22 1025 24 10000 7.15 51 20:58 10.05.2022
3792 Clear 22 1026 23 10000 7.2 60 20:18 10.05.2022
3793 Clear 20 1028 25 10000 8.23 60 18:27 10.05.2022
3794 Clear 18 1028 26 10000 7.72 40 17:34 10.05.2022
3795 Clear 15 1028 32 10000 9.39 32 15:41 10.05.2022
3796 Clear 11 1026 34 10000 11.18 52 12:48 10.05.2022
3797 Clear 11 1026 32 10000 6.69 30 11:51 10.05.2022
3798 Clear 11 1026 31 10000 8.75 40 11:21 10.05.2022
3799 Clear 11 1027 29 10000 5.66 30 10:54 10.05.2022
3800 Clear 11 1025 22 10000 7.2 40 09:27 10.05.2022
3801 Clear 12 1026 20 10000 8.49 7 07:32 10.05.2022
3802 Clear 15 1026 17 10000 10.73 37 04:34 10.05.2022
3803 Clouds 18 1024 22 10000 9.77 30 01:34 10.05.2022
3804 Clear 21 1023 20 10000 8.94 53 23:37 09.05.2022
3805 Clear 21 1023 19 10000 8.05 60 22:29 09.05.2022
3806 Clear 21 1022 20 10000 6.17 50 21:21 09.05.2022
3807 Clear 19 1023 23 10000 5.66 50 19:52 09.05.2022
3808 Clear 17 1023 27 10000 6.17 60 17:59 09.05.2022
3809 Clear 15 1024 28 10000 9.26 20 16:49 09.05.2022
3810 Clear 13 1024 33 10000 10.73 42 15:54 09.05.2022
3811 Clear 13 1024 34 10000 8.23 50 15:34 09.05.2022
3812 Clear 11 1023 35 10000 8.23 40 14:33 09.05.2022
3813 Clear 10 1023 39 10000 8.94 28 13:51 09.05.2022
3814 Clear 8 1022 40 10000 6.17 10 12:32 09.05.2022
3815 Clear 8 1022 39 10000 6.26 358 11:43 09.05.2022
3816 Clear 8 1021 39 10000 6.69 30 10:45 09.05.2022
3817 Clear 9 1021 38 10000 6.69 20 09:39 09.05.2022
3818 Clear 10 1021 35 10000 8.94 49 07:56 09.05.2022
3819 Clouds 12 1022 37 10000 8.49 54 04:33 09.05.2022
3820 Clouds 12 1022 37 10000 8.49 54 04:33 09.05.2022
3821 Clouds 12 1022 37 10000 8.49 54 04:33 09.05.2022
3822 Clouds 14 1019 34 10000 9.83 51 00:22 09.05.2022
3823 Clouds 15 1018 35 10000 8.49 50 22:58 08.05.2022
3824 Clouds 15 1019 37 10000 8.75 60 22:27 08.05.2022
3825 Clear 14 1019 42 10000 7.15 11 20:41 08.05.2022
3826 Clouds 14 1019 44 10000 9.39 35 19:53 08.05.2022
3827 Clouds 14 1019 45 10000 8.05 65 19:27 08.05.2022
3828 Clouds 13 1019 47 10000 8.75 50 18:25 08.05.2022
3829 Clouds 12 1020 48 10000 10.29 70 17:21 08.05.2022
3830 Clouds 10 1018 60 10000 11.62 37 15:43 08.05.2022
3831 Clouds 10 1018 61 10000 12.52 32 15:20 08.05.2022
3832 Clouds 8 1017 68 10000 10.8 50 12:45 08.05.2022
3833 Clouds 8 1016 62 10000 8.94 23 10:46 08.05.2022
3834 Clouds 8 1016 62 10000 9.39 50 10:21 08.05.2022
3835 Clouds 8 1016 62 10000 8.49 49 09:46 08.05.2022
3836 Clouds 8 1016 65 10000 9.83 40 07:41 08.05.2022
3837 Rain 8 1016 64 10000 9.83 53 04:56 08.05.2022
3838 Clouds 8 1015 73 10000 8.05 22 03:20 08.05.2022
3839 Rain 8 1012 80 10000 10.73 43 00:31 08.05.2022
3840 Rain 8 1012 82 10000 11.62 51 23:54 07.05.2022
3841 Rain 8 1011 87 10000 11.18 24 22:58 07.05.2022
3842 Rain 8 1011 87 10000 10.73 56 22:34 07.05.2022
3843 Rain 8 1012 89 10000 9.83 44 21:44 07.05.2022
3844 Rain 8 1011 91 6437 8.23 30 20:56 07.05.2022
3845 Rain 9 1010 91 4023 8.05 37 19:59 07.05.2022
3846 Rain 9 1010 92 4828 12.86 60 18:38 07.05.2022
3847 Clouds 10 1009 88 10000 8.75 40 15:58 07.05.2022
3848 Rain 10 1008 91 10000 9.26 70 14:46 07.05.2022
3849 Rain 10 1007 92 10000 7.2 30 11:19 07.05.2022
3850 Rain 10 1007 92 10000 9.83 53 09:39 07.05.2022
3851 Rain 10 1009 93 10000 7.72 50 07:54 07.05.2022
3852 Rain 10 1010 93 10000 5.66 40 06:44 07.05.2022
3853 Mist 10 1010 93 6437 4.92 49 05:41 07.05.2022
3854 Rain 10 1011 92 10000 4.12 40 03:54 07.05.2022
3855 Rain 11 1012 86 10000 5.36 103 23:39 06.05.2022
3856 Rain 12 1013 86 10000 4.12 80 22:33 06.05.2022
3857 Rain 13 1013 86 10000 4.63 50 21:47 06.05.2022
3858 Rain 13 1013 84 10000 4.12 60 20:37 06.05.2022
3859 Rain 14 1014 84 10000 4.12 60 19:42 06.05.2022
3860 Rain 14 1014 84 10000 4.12 60 19:19 06.05.2022
3861 Rain 14 1014 86 10000 3.13 96 18:24 06.05.2022
3862 Mist 14 1015 86 8047 2.57 0 17:27 06.05.2022
3863 Rain 14 1015 85 10000 2.68 6 15:49 06.05.2022
3864 Rain 14 1015 83 10000 2.06 60 14:58 06.05.2022
3865 Rain 14 1015 75 10000 1.54 170 13:31 06.05.2022
3866 Clouds 14 1015 72 10000 1.54 240 12:41 06.05.2022
3867 Clouds 14 1015 72 10000 1.54 160 11:49 06.05.2022
3868 Clouds 14 1015 70 10000 2.57 180 10:36 06.05.2022
3869 Clear 14 1016 69 10000 2.24 164 09:46 06.05.2022
3870 Clear 15 1015 66 10000 2.57 200 08:52 06.05.2022
3871 Clear 15 1016 65 10000 4.92 169 07:26 06.05.2022
3872 Clear 15 1017 63 10000 3.09 220 06:24 06.05.2022
3873 Clear 17 1017 56 10000 4.63 160 02:54 06.05.2022
3874 Clouds 18 1017 56 10000 3.6 160 01:57 06.05.2022
3875 Clear 22 1017 39 10000 3.6 80 22:45 05.05.2022
3876 Clear 22 1017 39 10000 3.6 80 22:45 05.05.2022
3877 Clear 22 1018 39 10000 3.09 60 21:32 05.05.2022
3878 Clear 22 1018 40 10000 3.6 60 20:27 05.05.2022
3879 Clear 20 1019 45 10000 3.6 270 18:36 05.05.2022
3880 Clear 18 1020 57 10000 5.14 350 16:40 05.05.2022
3881 Clouds 16 1019 68 10000 5.66 360 14:55 05.05.2022
3882 Clouds 14 1018 75 10000 5.14 20 13:27 05.05.2022
3883 Clouds 14 1018 76 10000 4.47 336 12:54 05.05.2022
3884 Clouds 14 1017 77 10000 2.68 355 10:53 05.05.2022
3885 Clouds 15 1017 77 10000 6.17 360 09:40 05.05.2022
3886 Drizzle 15 1016 77 10000 4.02 32 07:45 05.05.2022
3887 Drizzle 16 1016 80 10000 4.92 18 05:44 05.05.2022
3888 Clouds 17 1014 75 10000 3.09 240 02:20 05.05.2022
3889 Clear 18 1013 73 10000 3.09 250 01:35 05.05.2022
3890 Clouds 18 1013 75 10000 2.68 342 23:55 04.05.2022
3891 Clouds 18 1013 76 10000 2.57 240 22:54 04.05.2022
3892 Haze 16 1014 81 10000 2.57 220 21:59 04.05.2022
3893 Haze 16 1014 83 10000 2.57 220 21:30 04.05.2022
3894 Haze 15 1014 84 9656 2.06 250 20:42 04.05.2022
3895 Haze 14 1014 86 10000 3.09 80 19:56 04.05.2022
3896 Mist 13 1014 89 9656 3.6 50 19:31 04.05.2022
3897 Mist 12 1015 90 9656 4.63 60 18:22 04.05.2022
3898 Clouds 12 1016 90 10000 1.54 180 17:59 04.05.2022
3899 Mist 11 1015 93 8047 5.66 60 16:29 04.05.2022
3900 Rain 11 1016 91 10000 2.57 40 15:32 04.05.2022
3901 Mist 11 1015 91 10000 3.6 40 14:38 04.05.2022
3902 Mist 11 1015 91 10000 3.6 40 14:18 04.05.2022
3903 Rain 10 1016 92 10000 2.57 40 12:34 04.05.2022
3904 Rain 10 1016 92 10000 6.17 50 11:25 04.05.2022
3905 Drizzle 10 1018 90 10000 3.6 130 09:50 04.05.2022
3906 Clouds 10 1017 90 10000 5.81 124 08:56 04.05.2022
3907 Drizzle 10 1019 90 10000 5.81 108 07:33 04.05.2022
3908 Clouds 11 1020 80 10000 4.92 124 03:50 04.05.2022
3909 Clouds 12 1020 77 10000 6.26 126 02:33 04.05.2022
3910 Clouds 14 1021 71 10000 6.26 131 22:59 03.05.2022
3911 Clouds 15 1022 65 10000 6.17 50 21:47 03.05.2022
3912 Clouds 16 1021 64 10000 6.17 50 21:21 03.05.2022
3913 Clouds 16 1021 64 10000 6.17 50 21:21 03.05.2022
3914 Clear 17 1022 61 10000 6.17 40 20:39 03.05.2022
3915 Clear 17 1021 62 10000 5.66 50 19:21 03.05.2022
3916 Clear 17 1022 63 10000 5.14 50 18:42 03.05.2022
3917 Clouds 15 1021 67 10000 5.66 60 17:20 03.05.2022
3918 Clear 14 1022 70 10000 5.81 26 15:51 03.05.2022
3919 Clear 13 1021 77 10000 6.17 30 14:23 03.05.2022
3920 Clouds 11 1020 86 10000 4.12 20 12:35 03.05.2022
3921 Clouds 11 1020 85 10000 3.09 360 11:35 03.05.2022
3922 Clouds 11 1020 84 10000 3.09 20 10:26 03.05.2022
3923 Clouds 12 1019 85 10000 4.02 36 08:19 03.05.2022
3924 Clouds 12 1019 87 10000 3.6 30 06:45 03.05.2022
3925 Mist 12 1018 89 4828 4.92 16 01:59 03.05.2022
3926 Mist 13 1017 89 6437 4.63 30 23:19 02.05.2022
3927 Mist 13 1016 91 10000 8.23 40 22:28 02.05.2022
3928 Mist 13 1016 91 10000 7.2 40 21:37 02.05.2022
3929 Mist 13 1017 91 4828 5.66 40 19:30 02.05.2022
3930 Mist 12 1017 90 2414 6.17 40 18:26 02.05.2022
3931 Mist 12 1017 88 4023 5.14 40 17:41 02.05.2022
3932 Mist 12 1017 87 10000 5.81 96 16:43 02.05.2022
3933 Mist 12 1018 88 10000 5.14 30 15:41 02.05.2022
3934 Mist 12 1018 89 10000 4.92 80 14:51 02.05.2022
3935 Rain 11 1017 88 10000 6.17 280 13:42 02.05.2022
3936 Clouds 12 1017 78 10000 4.92 82 11:41 02.05.2022
3937 Clouds 13 1017 70 10000 3.58 360 09:45 02.05.2022
3938 Clouds 13 1018 71 10000 3.6 50 08:31 02.05.2022
3939 Clouds 13 1018 73 10000 2.57 100 06:56 02.05.2022
3940 Clear 16 1018 46 10000 6.17 160 00:47 02.05.2022
3941 Clear 16 1018 46 10000 6.17 160 00:47 02.05.2022
3942 Clear 16 1018 45 10000 6.17 160 00:22 02.05.2022
3943 Clear 18 1018 36 10000 6.26 171 22:55 01.05.2022
3944 Clear 19 1019 31 10000 5.66 180 21:45 01.05.2022
3945 Clear 19 1019 30 10000 5.66 120 20:50 01.05.2022
3946 Clear 19 1021 33 10000 4.63 170 19:27 01.05.2022
3947 Clear 19 1020 35 10000 3.09 230 18:53 01.05.2022
3948 Clear 18 1021 33 10000 3.6 40 17:51 01.05.2022
3949 Clear 16 1020 37 10000 4.63 60 16:38 01.05.2022
3950 Clear 16 1021 37 10000 4.63 60 16:18 01.05.2022
3951 Clear 13 1021 46 10000 4.12 50 14:54 01.05.2022
3952 Clear 9 1020 64 10000 2.06 90 12:52 01.05.2022
3953 Clear 8 1019 71 10000 2.06 60 10:36 01.05.2022
3954 Clear 9 1019 66 10000 3.09 190 08:50 01.05.2022
3955 Clear 10 1019 60 10000 1.54 280 06:51 01.05.2022
3956 Clear 13 1019 37 10000 3.6 190 02:46 01.05.2022
3957 Clear 19 1018 18 10000 3.6 260 22:51 30.04.2022
3958 Clear 19 1018 18 10000 3.6 260 22:51 30.04.2022
3959 Clear 19 1017 17 10000 5.66 320 21:33 30.04.2022
3960 Clear 18 1018 19 10000 6.69 290 20:22 30.04.2022
3961 Clear 17 1019 19 10000 6.17 340 19:31 30.04.2022
3962 Clear 15 1019 21 10000 5.14 330 17:37 30.04.2022
3963 Clear 13 1020 25 10000 6.26 302 16:28 30.04.2022
3964 Clear 12 1021 30 10000 4.12 320 15:19 30.04.2022
3965 Clear 10 1021 33 10000 4.12 320 14:30 30.04.2022
3966 Clear 7 1020 36 10000 2.68 312 11:59 30.04.2022
3967 Clear 7 1020 35 10000 3.6 320 11:32 30.04.2022
3968 Clear 8 1020 34 10000 4.12 320 10:30 30.04.2022
3969 Clear 9 1020 30 10000 6.17 330 08:26 30.04.2022
3970 Clear 12 1019 23 10000 8.23 340 04:58 30.04.2022
3971 Clear 16 1016 13 10000 9.39 314 00:34 30.04.2022
3972 Clear 17 1016 12 10000 10.8 330 23:29 29.04.2022
3973 Clear 17 1015 13 10000 9.83 288 22:29 29.04.2022
3974 Clear 17 1015 13 10000 9.83 288 22:29 29.04.2022
3975 Clear 17 1016 14 10000 9.26 310 21:26 29.04.2022
3976 Clear 16 1016 14 10000 11.32 310 20:36 29.04.2022
3977 Clear 15 1017 14 10000 9.77 330 19:33 29.04.2022
3978 Clear 12 1019 18 10000 9.83 330 17:38 29.04.2022
3979 Clear 11 1019 22 10000 8.94 304 16:43 29.04.2022
3980 Clear 7 1020 31 10000 8.49 301 14:38 29.04.2022
3981 Clear 7 1020 31 10000 8.49 301 14:38 29.04.2022
3982 Clear 7 1020 31 10000 8.49 301 14:38 29.04.2022
3983 Clear 7 1020 32 10000 7.2 310 14:19 29.04.2022
3984 Clear 5 1020 37 10000 7.2 300 12:41 29.04.2022
3985 Clear 5 1019 35 10000 6.26 300 10:57 29.04.2022
3986 Clear 6 1019 29 10000 7.72 300 08:18 29.04.2022
3987 Clear 7 1019 28 10000 5.66 300 07:27 29.04.2022
3988 Clear 7 1019 26 10000 7.6 307 06:35 29.04.2022
3989 Clear 9 1018 23 10000 12.52 338 03:28 29.04.2022
3990 Clear 13 1014 16 10000 12.52 304 00:18 29.04.2022
3991 Clear 14 1014 16 10000 12.96 333 23:26 28.04.2022
3992 Clear 14 1014 16 10000 9.77 320 22:40 28.04.2022
3993 Clear 14 1014 17 10000 13.41 300 21:46 28.04.2022
3994 Clear 13 1014 19 10000 13.86 298 20:51 28.04.2022
3995 Clear 13 1015 21 10000 7.72 330 19:59 28.04.2022
3996 Clear 12 1015 22 10000 11.62 308 19:40 28.04.2022
3997 Clear 12 1016 23 10000 11.32 320 19:20 28.04.2022
3998 Clear 11 1016 27 10000 11.32 310 18:23 28.04.2022
3999 Clear 9 1017 36 10000 4.92 49 16:59 28.04.2022
4000 Clouds 8 1017 40 10000 11.18 287 16:21 28.04.2022
4001 Clouds 8 1017 42 10000 14.75 305 15:57 28.04.2022
4002 Clouds 7 1017 43 10000 10.8 330 15:27 28.04.2022
4003 Clouds 5 1016 52 10000 9.83 305 13:44 28.04.2022
4004 Clouds 4 1016 54 10000 9.26 310 12:42 28.04.2022
4005 Clouds 4 1015 57 10000 10.28 311 11:53 28.04.2022
4006 Clouds 5 1016 56 10000 8.05 314 10:37 28.04.2022
4007 Clouds 5 1015 56 10000 8.05 295 09:52 28.04.2022
4008 Clouds 5 1016 54 10000 7.6 298 08:30 28.04.2022
4009 Clouds 5 1016 51 10000 5.81 299 06:58 28.04.2022
4010 Clear 6 1016 50 10000 10.28 307 05:55 28.04.2022
4011 Clouds 6 1016 48 10000 12.07 305 04:50 28.04.2022
4012 Clouds 6 1016 47 10000 10.8 310 04:31 28.04.2022
4013 Clouds 10 1014 41 10000 11.32 310 00:22 28.04.2022
4014 Clear 11 1013 35 10000 11.32 310 22:38 27.04.2022
4015 Clouds 12 1013 35 10000 11.83 320 21:51 27.04.2022
4016 Clouds 12 1013 36 10000 12.07 290 20:56 27.04.2022
4017 Clouds 12 1013 36 10000 11.32 310 20:35 27.04.2022
4018 Clouds 12 1012 36 10000 11.18 294 19:37 27.04.2022
4019 Clouds 13 1013 35 10000 9.83 306 18:56 27.04.2022
4020 Clouds 13 1013 35 10000 10.73 306 18:22 27.04.2022
4021 Clouds 12 1014 41 10000 12.07 284 16:29 27.04.2022
4022 Clear 10 1015 48 10000 11.18 294 14:31 27.04.2022
4023 Clear 9 1015 57 10000 9.77 300 12:23 27.04.2022
4024 Clouds 9 1014 63 10000 7.72 310 11:20 27.04.2022
4025 Clouds 10 1014 68 10000 9.26 310 09:19 27.04.2022
4026 Clouds 14 1013 86 10000 5.36 276 07:18 27.04.2022
4027 Rain 14 1014 87 10000 2.24 211 04:30 27.04.2022
4028 Clouds 15 1015 82 10000 3.13 24 01:32 27.04.2022
4029 Clouds 15 1015 79 10000 3.13 15 00:37 27.04.2022
4030 Mist 15 1015 75 10000 4.63 60 23:39 26.04.2022
4031 Mist 16 1015 75 10000 5.36 52 23:18 26.04.2022
4032 Drizzle 15 1015 76 10000 5.14 60 22:39 26.04.2022
4033 Mist 15 1016 78 10000 5.81 35 21:35 26.04.2022
4034 Clouds 15 1016 77 10000 4.12 40 20:52 26.04.2022
4035 Clouds 15 1016 78 10000 4.12 40 20:30 26.04.2022
4036 Clouds 15 1017 78 10000 3.6 50 19:32 26.04.2022
4037 Clouds 14 1017 78 10000 5.14 50 18:45 26.04.2022
4038 Clouds 14 1018 81 10000 3.09 40 17:59 26.04.2022
4039 Clouds 13 1019 82 10000 4.63 60 16:58 26.04.2022
4040 Haze 12 1020 82 10000 6.17 50 14:28 26.04.2022
4041 Drizzle 11 1020 80 10000 4.12 40 13:33 26.04.2022
4042 Clouds 11 1020 77 10000 3.13 96 11:57 26.04.2022
4043 Clouds 11 1020 72 10000 4.63 140 10:37 26.04.2022
4044 Clouds 11 1020 70 10000 4.12 150 09:25 26.04.2022
4045 Clouds 11 1021 69 10000 5.81 113 07:54 26.04.2022
4046 Clouds 11 1023 63 10000 5.36 110 04:33 26.04.2022
4047 Clouds 12 1023 57 10000 4.92 130 01:54 26.04.2022
4048 Clouds 13 1024 55 10000 5.81 135 00:26 26.04.2022
4049 Clouds 13 1024 51 10000 5.81 120 22:46 25.04.2022
4050 Clouds 13 1024 49 10000 6.71 105 21:43 25.04.2022
4051 Clouds 14 1025 44 10000 6.26 105 20:40 25.04.2022
4052 Clouds 14 1024 36 10000 7.15 107 18:58 25.04.2022
4053 Clouds 13 1024 38 10000 6.26 108 17:54 25.04.2022
4054 Clouds 13 1024 39 10000 5.14 40 17:23 25.04.2022
4055 Clouds 11 1025 51 10000 5.14 130 15:29 25.04.2022
4056 Clouds 10 1024 56 10000 5.14 60 14:46 25.04.2022
4057 Clouds 9 1024 63 10000 5.14 50 13:35 25.04.2022
4058 Clear 8 1024 65 10000 2.57 70 11:49 25.04.2022
4059 Clear 8 1023 63 10000 4.12 40 10:27 25.04.2022
4060 Clear 8 1023 60 10000 3.09 40 08:47 25.04.2022
4061 Clear 8 1023 58 10000 4.12 140 06:46 25.04.2022
4062 Clear 9 1024 56 10000 3.6 130 05:23 25.04.2022
4063 Clouds 11 1023 55 10000 6.26 107 00:58 25.04.2022
4064 Clear 13 1024 52 10000 6.71 104 23:52 24.04.2022
4065 Clear 13 1024 50 10000 6.26 111 22:52 24.04.2022
4066 Clear 14 1024 47 10000 7.2 140 22:31 24.04.2022
4067 Clear 14 1025 44 10000 6.69 140 21:42 24.04.2022
4068 Clear 15 1025 44 10000 6.69 140 21:18 24.04.2022
4069 Clear 15 1025 45 10000 6.17 130 20:37 24.04.2022
4070 Clear 15 1025 43 10000 6.69 40 19:48 24.04.2022
4071 Clear 15 1025 43 10000 6.71 124 18:20 24.04.2022
4072 Clear 15 1025 41 10000 7.6 124 17:37 24.04.2022
4073 Clear 15 1024 41 10000 6.69 40 17:19 24.04.2022
4074 Clear 15 1024 40 10000 8.94 124 16:35 24.04.2022
4075 Clouds 15 1024 44 10000 4.47 83 15:56 24.04.2022
4076 Clouds 15 1024 46 10000 5.14 100 15:31 24.04.2022
4077 Clouds 15 1024 46 10000 5.14 100 15:31 24.04.2022
4078 Clouds 15 1024 47 10000 5.14 100 15:31 24.04.2022
4079 Clouds 13 1025 59 10000 5.66 50 14:19 24.04.2022
4080 Clouds 11 1024 71 10000 5.66 50 13:25 24.04.2022
4081 Clear 10 1024 73 10000 3.6 50 12:35 24.04.2022
4082 Clouds 10 1024 74 10000 2.06 70 11:34 24.04.2022
4083 Clouds 11 1023 71 10000 2.57 40 10:30 24.04.2022
4084 Clear 11 1023 72 10000 2.06 50 09:29 24.04.2022
4085 Clouds 12 1024 67 10000 2.57 100 07:31 24.04.2022
4086 Clouds 13 1025 60 10000 2.57 150 04:43 24.04.2022
4087 Clouds 13 1024 60 10000 5.66 190 01:39 24.04.2022
4088 Clouds 14 1024 54 10000 4.63 170 00:30 24.04.2022
4089 Clouds 15 1024 46 10000 4.63 160 23:45 23.04.2022
4090 Clouds 16 1024 45 10000 4.63 160 23:22 23.04.2022
4091 Clouds 16 1024 45 10000 4.63 160 23:22 23.04.2022
4092 Clouds 17 1027 39 10000 4.02 261 21:54 23.04.2022
4093 Clouds 16 1027 38 10000 4.63 170 21:34 23.04.2022
4094 Clouds 16 1028 38 10000 4.47 360 20:57 23.04.2022
4095 Clouds 16 1029 38 10000 4.12 160 19:49 23.04.2022
4096 Clouds 16 1029 36 10000 4.12 160 19:19 23.04.2022
4097 Clouds 15 1029 39 10000 3.09 250 18:53 23.04.2022
4098 Clouds 15 1029 36 10000 3.6 50 18:24 23.04.2022
4099 Clouds 15 1030 37 10000 2.57 0 17:43 23.04.2022
4100 Clouds 14 1030 40 10000 2.68 175 16:43 23.04.2022
4101 Clouds 13 1030 44 10000 4.12 50 15:32 23.04.2022
4102 Clear 10 1030 50 10000 5.14 20 12:49 23.04.2022
4103 Clear 10 1029 50 10000 4.63 50 10:49 23.04.2022
4104 Clear 10 1029 48 10000 4.92 4 09:38 23.04.2022
4105 Clear 12 1030 43 10000 4.92 1 07:21 23.04.2022
4106 Clear 15 1029 32 10000 4.47 314 03:54 23.04.2022
4107 Clear 18 1027 26 10000 5.81 314 01:25 23.04.2022
4108 Clear 20 1026 22 10000 7.15 304 23:31 22.04.2022
4109 Clear 20 1026 22 10000 8.05 294 22:22 22.04.2022
4110 Clear 20 1027 21 10000 7.2 320 21:44 22.04.2022
4111 Clear 20 1027 22 10000 10.73 300 20:54 22.04.2022
4112 Clear 20 1028 21 10000 9.26 290 20:27 22.04.2022
4113 Clear 19 1028 24 10000 8.23 330 19:21 22.04.2022
4114 Clear 19 1029 29 10000 7.72 310 18:46 22.04.2022
4115 Clear 18 1029 36 10000 8.94 310 17:50 22.04.2022
4116 Clear 17 1028 45 10000 8.94 323 16:46 22.04.2022
4117 Clear 16 1028 58 10000 7.72 310 15:45 22.04.2022
4118 Clear 16 1028 62 10000 9.39 311 15:21 22.04.2022
4119 Clear 13 1028 71 10000 4.47 275 13:54 22.04.2022
4120 Clear 11 1028 72 10000 5.36 229 13:27 22.04.2022
4121 Clear 10 1027 71 10000 7.15 360 12:29 22.04.2022
4122 Clear 10 1026 71 10000 4.12 230 11:22 22.04.2022
4123 Clear 10 1026 70 10000 4.12 230 10:52 22.04.2022
4124 Clear 10 1026 70 10000 4.12 230 10:31 22.04.2022
4125 Clear 11 1026 70 10000 5.36 217 09:53 22.04.2022
4126 Clouds 11 1027 70 10000 4.47 262 08:56 22.04.2022
4127 Clear 11 1027 67 10000 4.92 202 07:44 22.04.2022
4128 Clouds 13 1027 63 10000 5.14 190 04:24 22.04.2022
4129 Clouds 12 1027 67 10000 6.26 160 00:53 22.04.2022
4130 Clouds 13 1027 61 10000 7.72 170 23:28 21.04.2022
4131 Clear 13 1028 58 10000 9.77 170 22:29 21.04.2022
4132 Clear 14 1029 50 10000 9.83 153 20:55 21.04.2022
4133 Clear 14 1030 47 10000 12.07 153 20:26 21.04.2022
4134 Clear 14 1032 49 10000 9.83 143 18:48 21.04.2022
4135 Clear 14 1032 49 10000 9.26 180 18:19 21.04.2022
4136 Clear 14 1032 59 10000 4.12 200 16:53 21.04.2022
4137 Clear 12 1033 59 10000 4.47 360 15:23 21.04.2022
4138 Clear 11 1034 64 10000 2.24 360 14:51 21.04.2022
4139 Clear 8 1035 75 10000 2.06 40 13:52 21.04.2022
4140 Clear 8 1034 79 10000 2.06 40 13:19 21.04.2022
4141 Clear 7 1033 81 10000 2.57 30 11:25 21.04.2022
4142 Clear 7 1032 77 10000 3.6 40 09:23 21.04.2022
4143 Clear 8 1032 76 10000 3.09 40 08:29 21.04.2022
4144 Clear 8 1032 71 10000 2.57 60 06:25 21.04.2022
4145 Clear 10 1031 60 10000 2.57 160 03:37 21.04.2022
4146 Clouds 10 1031 59 10000 0.89 168 02:56 21.04.2022
4147 Clear 11 1030 53 10000 4.63 170 02:38 21.04.2022
4148 Clear 15 1029 28 10000 6.17 310 00:25 21.04.2022
4149 Smoke 15 1028 27 10000 5.66 310 23:24 20.04.2022
4150 Clear 15 1028 27 10000 2.24 330 22:58 20.04.2022
4151 Clear 15 1028 26 10000 6.69 290 22:32 20.04.2022
4152 Clear 15 1028 26 10000 6.69 290 22:32 20.04.2022
4153 Clear 15 1027 27 10000 6.69 330 21:35 20.04.2022
4154 Clear 14 1027 29 10000 6.17 310 20:43 20.04.2022
4155 Clear 14 1027 30 10000 6.17 310 20:20 20.04.2022
4156 Clear 13 1027 32 10000 7.72 300 19:38 20.04.2022
4157 Clear 12 1027 35 10000 7.2 310 18:43 20.04.2022
4158 Clear 11 1027 38 10000 7.2 280 17:18 20.04.2022
4159 Clear 10 1027 41 10000 8.75 300 16:39 20.04.2022
4160 Clouds 8 1026 50 10000 3.58 0 14:55 20.04.2022
4161 Clouds 6 1023 55 10000 6.69 290 12:18 20.04.2022
4162 Clouds 6 1022 55 10000 6.17 260 11:36 20.04.2022
4163 Clouds 6 1021 57 10000 7.2 250 10:39 20.04.2022
4164 Clouds 6 1020 58 10000 7.72 260 09:28 20.04.2022
4165 Clear 6 1019 58 10000 8.23 250 08:27 20.04.2022
4166 Clear 6 1018 57 10000 7.2 250 07:44 20.04.2022
4167 Clear 6 1017 55 10000 10.29 250 05:29 20.04.2022
4168 Clouds 8 1012 60 10000 9.26 260 01:35 20.04.2022
4169 Clouds 9 1011 51 10000 9.77 270 00:21 20.04.2022
4170 Clouds 10 1010 46 10000 7.72 260 22:53 19.04.2022
4171 Clouds 9 1010 45 10000 10.8 260 22:23 19.04.2022
4172 Clouds 9 1009 46 10000 8.23 270 21:48 19.04.2022
4173 Clouds 9 1009 48 10000 5.81 284 20:57 19.04.2022
4174 Drizzle 9 1009 47 10000 8.75 280 20:37 19.04.2022
4175 Clouds 9 1008 50 10000 12.35 270 19:32 19.04.2022
4176 Clouds 8 1007 58 10000 10.8 260 18:30 19.04.2022
4177 Clouds 7 1005 67 10000 10.29 300 16:50 19.04.2022
4178 Clouds 7 1005 68 10000 10.29 300 16:25 19.04.2022
4179 Clouds 7 1005 73 10000 4.02 348 15:59 19.04.2022
4180 Clouds 6 1003 83 10000 8.23 280 14:46 19.04.2022
4181 Clouds 4 1001 93 10000 10.29 300 12:53 19.04.2022
4182 Clouds 4 1000 92 10000 9.26 300 12:34 19.04.2022
4183 Mist 5 999 93 6437 7.72 320 11:34 19.04.2022
4184 Rain 7 1000 93 6437 11.83 40 09:51 19.04.2022
4185 Rain 7 1004 92 4828 10.29 70 07:49 19.04.2022
4186 Rain 6 1015 78 10000 7.72 40 04:26 19.04.2022
4187 Rain 7 1019 71 10000 7.2 40 02:39 19.04.2022
4188 Clouds 8 1022 51 10000 4.63 60 23:51 18.04.2022
4189 Clouds 9 1023 51 10000 4.12 100 22:54 18.04.2022
4190 Clouds 9 1025 53 10000 7.72 160 21:28 18.04.2022
4191 Clear 9 1026 50 10000 6.69 130 20:40 18.04.2022
4192 Clear 9 1026 50 10000 6.69 130 20:22 18.04.2022
4193 Clear 10 1026 43 10000 7.72 150 19:40 18.04.2022
4194 Clear 11 1027 41 10000 6.17 140 18:49 18.04.2022
4195 Clear 11 1027 40 10000 5.14 120 17:49 18.04.2022
4196 Clear 11 1027 40 10000 5.14 120 17:49 18.04.2022
4197 Clear 10 1027 41 10000 5.14 120 17:20 18.04.2022
4198 Clear 10 1027 42 10000 6.69 100 16:40 18.04.2022
4199 Clear 9 1028 44 10000 4.12 30 15:43 18.04.2022
4200 Clear 7 1028 50 10000 6.69 60 14:28 18.04.2022
4201 Clear 5 1028 53 10000 7.2 40 13:25 18.04.2022
4202 Clear 4 1028 52 10000 3.6 20 12:27 18.04.2022
4203 Clear 4 1028 52 10000 3.09 330 11:20 18.04.2022
4204 Clear 4 1028 51 10000 3.09 350 10:28 18.04.2022
4205 Clear 4 1028 48 10000 3.6 320 09:30 18.04.2022
4206 Clear 5 1028 44 10000 3.6 340 07:34 18.04.2022
4207 Clouds 7 1026 36 10000 5.66 330 03:57 18.04.2022
4208 Clear 10 1022 30 10000 8.75 320 23:41 17.04.2022
4209 Clouds 10 1021 30 10000 9.26 320 22:39 17.04.2022
4210 Clouds 10 1021 32 10000 8.75 310 21:42 17.04.2022
4211 Clouds 10 1021 32 10000 8.75 310 21:21 17.04.2022
4212 Clouds 10 1021 33 10000 10.8 310 20:32 17.04.2022
4213 Clouds 9 1020 36 10000 10.8 310 19:21 17.04.2022
4214 Clouds 9 1020 40 10000 9.26 330 17:38 17.04.2022
4215 Clear 7 1019 48 10000 9.26 310 15:38 17.04.2022
4216 Clear 6 1019 56 10000 5.81 308 14:54 17.04.2022
4217 Clear 6 1018 66 10000 5.66 310 13:45 17.04.2022
4218 Clear 5 1018 69 10000 1.79 23 12:58 17.04.2022
4219 Clouds 5 1017 72 10000 3.58 360 11:53 17.04.2022
4220 Clear 6 1015 77 10000 4.63 330 10:45 17.04.2022
4221 Clear 6 1015 77 10000 4.63 330 10:27 17.04.2022
4222 Clouds 7 1015 79 10000 3.09 300 09:28 17.04.2022
4223 Smoke 7 1015 79 10000 4.63 320 08:42 17.04.2022
4224 Clouds 7 1014 83 10000 2.24 312 07:00 17.04.2022
4225 Rain 9 1013 80 10000 9.77 350 03:53 17.04.2022
4226 Clouds 14 1011 64 10000 4.92 360 00:55 17.04.2022
4227 Clear 18 1007 54 10000 4.12 160 23:50 16.04.2022
4228 Clear 19 1008 49 10000 6.69 170 22:27 16.04.2022
4229 Clear 20 1010 46 10000 5.66 170 21:29 16.04.2022
4230 Clouds 20 1012 41 10000 6.69 160 20:18 16.04.2022
4231 Clear 20 1014 35 10000 3.09 0 18:55 16.04.2022
4232 Clear 18 1015 39 10000 6.17 200 17:40 16.04.2022
4233 Clear 16 1015 42 10000 6.69 200 16:34 16.04.2022
4234 Clouds 15 1016 42 10000 7.72 250 15:43 16.04.2022
4235 Clear 14 1016 43 10000 4.47 360 14:55 16.04.2022
4236 Clouds 13 1016 42 10000 6.26 210 13:58 16.04.2022
4237 Clouds 13 1016 40 10000 6.26 360 13:28 16.04.2022
4238 Clouds 13 1016 39 10000 7.72 230 12:20 16.04.2022
4239 Clear 13 1016 41 10000 8.05 360 10:49 16.04.2022
4240 Clouds 13 1017 43 10000 3.58 0 09:56 16.04.2022
4241 Clouds 13 1017 43 10000 4.47 360 08:57 16.04.2022
4242 Clear 13 1018 41 10000 5.66 190 07:35 16.04.2022
4243 Clouds 13 1018 43 10000 5.81 360 06:58 16.04.2022
4244 Clear 16 1018 36 10000 7.2 190 02:46 16.04.2022
4245 Clear 18 1017 31 10000 10.29 180 00:30 16.04.2022
4246 Clear 19 1017 27 10000 8.23 180 22:58 15.04.2022
4247 Clear 19 1018 24 10000 9.77 180 22:32 15.04.2022
4248 Clear 20 1018 22 10000 8.23 240 21:50 15.04.2022
4249 Clear 20 1018 19 10000 8.23 240 21:18 15.04.2022
4250 Clear 20 1019 18 10000 5.66 240 20:21 15.04.2022
4251 Clear 19 1020 18 10000 8.23 270 19:39 15.04.2022
4252 Clear 19 1021 19 10000 2.57 220 18:53 15.04.2022
4253 Clear 18 1021 18 10000 5.66 310 18:25 15.04.2022
4254 Clear 18 1021 19 10000 7.2 280 17:34 15.04.2022
4255 Clear 17 1021 25 10000 8.23 290 16:37 15.04.2022
4256 Clear 16 1021 26 10000 8.23 290 16:18 15.04.2022
4257 Clear 14 1021 45 10000 4.63 300 14:44 15.04.2022
4258 Clear 11 1020 54 10000 2.57 260 13:40 15.04.2022
4259 Clear 11 1019 52 10000 1.54 270 12:40 15.04.2022
4260 Clouds 10 1019 52 10000 0.89 258 11:56 15.04.2022
4261 Clear 11 1019 51 10000 3.6 320 11:30 15.04.2022
4262 Clear 11 1018 49 10000 3.09 280 10:40 15.04.2022
4263 Clear 12 1018 45 10000 3.09 310 09:46 15.04.2022
4264 Clear 12 1017 43 10000 3.09 310 09:20 15.04.2022
4265 Clouds 14 1016 37 10000 5.66 330 07:32 15.04.2022
4266 Clouds 15 1015 40 10000 5.14 330 06:36 15.04.2022
4267 Clouds 17 1011 66 10000 6.17 330 02:48 15.04.2022
4268 Thunderstorm 22 1006 57 10000 5.66 310 23:31 14.04.2022
4269 Clouds 26 1005 45 10000 6.17 210 22:49 14.04.2022
4270 Clouds 27 1005 44 10000 6.17 210 22:30 14.04.2022
4271 Clouds 27 1005 46 10000 3.13 231 21:59 14.04.2022
4272 Clear 28 1006 42 10000 3.13 284 20:57 14.04.2022
4273 Clear 27 1007 42 10000 7.72 220 19:23 14.04.2022
4274 Clear 26 1008 43 10000 8.75 240 18:29 14.04.2022
4275 Clear 26 1008 45 10000 8.23 230 17:44 14.04.2022
4276 Clear 25 1008 50 10000 5.66 230 16:46 14.04.2022
4277 Clear 21 1008 60 10000 6.69 220 15:26 14.04.2022
4278 Clear 17 1008 76 10000 3.13 154 13:47 14.04.2022
4279 Clouds 15 1007 80 10000 0.89 154 12:58 14.04.2022
4280 Clouds 15 1008 79 10000 6.71 207 12:31 14.04.2022
4281 Clear 15 1007 80 10000 4.47 174 11:30 14.04.2022
4282 Clear 15 1007 80 10000 5.36 360 10:54 14.04.2022
4283 Clear 14 1008 80 10000 4.47 360 10:27 14.04.2022
4284 Clouds 15 1008 80 10000 4.92 360 09:26 14.04.2022
4285 Clear 16 1009 76 10000 4.47 360 07:36 14.04.2022
4286 Clouds 16 1010 74 10000 2.57 40 04:35 14.04.2022
4287 Clear 19 1012 66 10000 3.09 120 23:45 13.04.2022
4288 Clear 20 1013 65 10000 3.6 180 22:29 13.04.2022
4289 Clear 20 1013 66 10000 4.12 100 21:42 13.04.2022
4290 Clear 20 1015 66 10000 6.69 170 20:27 13.04.2022
4291 Clear 20 1015 61 10000 7.2 180 19:46 13.04.2022
4292 Clear 19 1017 57 10000 7.2 130 18:36 13.04.2022
4293 Clear 17 1018 56 10000 4.92 360 17:24 13.04.2022
4294 Clouds 16 1018 54 10000 4.12 60 16:49 13.04.2022
4295 Clouds 15 1020 56 10000 3.6 50 15:44 13.04.2022
4296 Clouds 15 1020 58 10000 3.6 50 15:21 13.04.2022
4297 Clouds 13 1019 62 10000 3.58 360 14:34 13.04.2022
4298 Clouds 12 1019 70 10000 3.6 60 13:37 13.04.2022
4299 Clouds 11 1019 73 10000 4.12 50 12:45 13.04.2022
4300 Clouds 11 1019 72 10000 3.6 40 11:25 13.04.2022
4301 Clouds 11 1018 72 10000 2.57 60 10:27 13.04.2022
4302 Clear 12 1018 72 10000 2.06 80 08:45 13.04.2022
4303 Clear 12 1018 69 10000 0 0 07:44 13.04.2022
4304 Clear 12 1018 69 10000 0 0 06:47 13.04.2022
4305 Clear 13 1018 68 10000 0 0 06:23 13.04.2022
4306 Clear 21 1016 38 10000 2.24 281 00:52 13.04.2022
4307 Clear 22 1016 36 10000 5.66 290 00:19 13.04.2022
4308 Clouds 22 1016 42 10000 5.14 290 22:33 12.04.2022
4309 Clouds 21 1015 43 10000 4.12 310 21:51 12.04.2022
4310 Clouds 20 1017 48 10000 5.66 330 20:48 12.04.2022
4311 Clouds 20 1016 50 10000 5.66 330 20:19 12.04.2022
4312 Clear 19 1016 56 10000 4.63 360 19:40 12.04.2022
4313 Clear 19 1016 57 10000 4.63 360 19:40 12.04.2022
4314 Clouds 17 1016 63 10000 3.13 313 18:56 12.04.2022
4315 Clouds 13 1015 75 10000 4.12 280 17:39 12.04.2022
4316 Clouds 11 1015 81 10000 3.6 280 16:46 12.04.2022
4317 Rain 11 1016 75 10000 3.6 260 15:34 12.04.2022
4318 Clouds 10 1016 72 10000 5.81 360 14:53 12.04.2022
4319 Clouds 10 1015 68 10000 3.6 230 13:50 12.04.2022
4320 Clouds 10 1015 69 10000 3.6 230 13:25 12.04.2022
4321 Clouds 10 1015 68 10000 2.24 180 12:18 12.04.2022
4322 Clouds 10 1015 69 10000 2.06 270 11:35 12.04.2022
4323 Clouds 10 1015 64 10000 3.6 170 09:47 12.04.2022
4324 Clouds 10 1016 61 10000 5.14 210 08:49 12.04.2022
4325 Clouds 11 1017 59 10000 5.66 200 06:47 12.04.2022
4326 Clouds 11 1017 60 10000 4.12 180 05:41 12.04.2022
4327 Clouds 11 1017 62 10000 5.66 170 02:37 12.04.2022
4328 Clear 13 1018 47 10000 7.2 170 23:24 11.04.2022
4329 Clear 14 1017 39 10000 6.17 190 22:33 11.04.2022
4330 Clear 15 1018 35 10000 5.14 220 21:23 11.04.2022
4331 Clear 15 1019 33 10000 3.09 230 20:35 11.04.2022
4332 Clouds 14 1019 35 10000 2.68 170 19:59 11.04.2022
4333 Clear 14 1020 34 10000 3.09 0 19:27 11.04.2022
4334 Clear 13 1020 36 10000 2.06 200 18:54 11.04.2022
4335 Clear 12 1020 40 10000 2.24 219 17:58 11.04.2022
4336 Clear 11 1021 41 10000 2.57 240 17:39 11.04.2022
4337 Clear 11 1021 40 10000 2.57 240 17:39 11.04.2022
4338 Clear 9 1021 45 10000 4.12 40 16:36 11.04.2022
4339 Clear 7 1020 54 10000 2.24 338 14:59 11.04.2022
4340 Clear 5 1020 59 10000 4.63 320 13:37 11.04.2022
4341 Clear 4 1019 60 10000 3.6 290 12:40 11.04.2022
4342 Clear 4 1019 59 10000 3.6 290 12:21 11.04.2022
4343 Clear 5 1017 57 10000 5.66 300 10:41 11.04.2022
4344 Clear 5 1017 57 10000 3.13 360 09:58 11.04.2022
4345 Clear 5 1016 53 10000 5.66 310 08:22 11.04.2022
4346 Clear 7 1014 51 10000 3.58 13 04:56 11.04.2022
4347 Clouds 9 1009 44 10000 9.77 310 23:55 10.04.2022
4348 Clouds 9 1008 44 10000 9.77 300 22:27 10.04.2022
4349 Clouds 9 1008 44 10000 9.77 300 22:27 10.04.2022
4350 Clouds 9 1007 47 10000 4.47 333 21:53 10.04.2022
4351 Clouds 9 1007 46 10000 4.12 250 20:55 10.04.2022
4352 Clouds 9 1008 45 10000 8.23 310 20:18 10.04.2022
4353 Clouds 9 1008 46 10000 9.77 310 19:36 10.04.2022
4354 Clouds 9 1008 47 10000 13.89 320 18:50 10.04.2022
4355 Clouds 9 1008 45 10000 13.89 320 18:26 10.04.2022
4356 Clouds 9 1008 46 10000 9.77 320 17:44 10.04.2022
4357 Clouds 9 1008 46 10000 4.92 330 16:57 10.04.2022
4358 Clear 8 1008 50 10000 8.75 310 15:40 10.04.2022
4359 Clear 7 1008 55 10000 7.2 300 14:42 10.04.2022
4360 Clouds 6 1007 62 10000 5.66 300 13:28 10.04.2022
4361 Clouds 7 1006 69 10000 6.17 310 12:32 10.04.2022
4362 Clouds 7 1006 67 10000 7.2 330 11:38 10.04.2022
4363 Clouds 7 1006 67 10000 7.2 330 11:18 10.04.2022
4364 Clouds 8 1005 66 10000 7.2 330 10:31 10.04.2022
4365 Clouds 8 1005 68 10000 5.14 300 09:41 10.04.2022
4366 Clouds 8 1005 70 10000 4.12 320 08:28 10.04.2022
4367 Clouds 8 1005 71 10000 2.24 10 07:56 10.04.2022
4368 Clouds 9 1005 71 10000 1.79 356 06:59 10.04.2022
4369 Clouds 9 1005 72 10000 5.66 320 03:37 10.04.2022
4370 Thunderstorm 10 1004 63 10000 5.66 360 02:18 10.04.2022
4371 Clouds 12 1002 57 10000 4.47 359 23:53 09.04.2022
4372 Clouds 13 1002 53 10000 7.2 270 22:55 09.04.2022
4373 Clouds 13 1002 55 10000 7.2 270 22:33 09.04.2022
4374 Clouds 12 1003 57 10000 5.14 250 21:19 09.04.2022
4375 Clouds 11 1003 63 10000 6.17 280 20:30 09.04.2022
4376 Clouds 11 1003 65 10000 7.2 310 19:56 09.04.2022
4377 Clouds 11 1003 66 10000 7.2 260 19:38 09.04.2022
4378 Clouds 10 1003 69 10000 9.26 240 18:23 09.04.2022
4379 Clouds 10 1003 71 10000 8.75 240 17:48 09.04.2022
4380 Clouds 10 1003 74 10000 10.29 240 16:56 09.04.2022
4381 Rain 11 1003 71 10000 4.63 180 16:38 09.04.2022
4382 Clouds 10 1003 73 10000 4.92 175 15:49 09.04.2022
4383 Clouds 10 1003 73 10000 4.92 175 15:49 09.04.2022
4384 Clouds 10 1003 73 10000 4.92 175 15:49 09.04.2022
4385 Clouds 10 1003 73 10000 4.92 175 15:49 09.04.2022
4386 Clouds 10 1003 73 10000 3.6 280 15:25 09.04.2022
4387 Clouds 9 1003 78 10000 3.09 110 14:25 09.04.2022
4388 Clouds 8 1003 79 10000 2.06 100 13:26 09.04.2022
4389 Clouds 8 1003 79 10000 2.06 250 12:54 09.04.2022
4390 Rain 9 1004 76 10000 3.09 310 11:45 09.04.2022
4391 Clouds 9 1003 75 10000 1.79 294 10:51 09.04.2022
4392 Clouds 9 1004 73 10000 3.6 280 10:18 09.04.2022
4393 Clouds 10 1004 70 10000 5.14 280 09:22 09.04.2022
4394 Clouds 11 1004 61 10000 4.63 310 08:18 09.04.2022
4395 Clouds 12 1005 52 10000 5.14 180 04:37 09.04.2022
4396 Clouds 16 1004 33 10000 5.66 230 00:34 09.04.2022
4397 Clouds 17 1004 28 10000 7.2 240 23:22 08.04.2022
4398 Clear 18 1003 31 10000 4.63 240 21:49 08.04.2022
4399 Clouds 17 1003 39 10000 7.72 290 20:43 08.04.2022
4400 Clouds 16 1004 46 10000 7.2 230 19:47 08.04.2022
4401 Clouds 15 1003 54 10000 6.17 260 18:46 08.04.2022
4402 Clouds 15 1004 56 10000 6.17 260 18:20 08.04.2022
4403 Clear 14 1003 62 10000 4.12 310 17:28 08.04.2022
4404 Clear 13 1003 64 10000 2.68 336 16:58 08.04.2022
4405 Clear 12 1003 66 10000 6.69 310 16:27 08.04.2022
4406 Clouds 11 1003 72 10000 6.69 290 15:36 08.04.2022
4407 Clouds 10 1002 78 10000 4.63 320 14:52 08.04.2022
4408 Clouds 10 1002 81 10000 7.2 300 14:20 08.04.2022
4409 Rain 9 1001 84 10000 5.81 227 13:31 08.04.2022
4410 Clouds 9 1001 87 10000 7.15 360 12:55 08.04.2022
4411 Mist 10 1000 91 10000 6.71 250 11:41 08.04.2022
4412 Mist 10 999 93 4828 5.66 290 10:20 08.04.2022
4413 Mist 10 998 93 9656 4.12 300 09:20 08.04.2022
4414 Clouds 11 998 93 10000 4.63 30 07:44 08.04.2022
4415 Rain 11 999 94 4828 4.02 123 06:46 08.04.2022
4416 Rain 11 1000 92 9656 11.83 120 03:35 08.04.2022
4417 Mist 10 1003 91 8047 10.8 120 00:31 08.04.2022
4418 Rain 10 1003 92 6437 9.77 60 23:53 07.04.2022
4419 Mist 10 1004 92 8047 10.29 110 22:57 07.04.2022
4420 Mist 10 1004 92 3219 10.29 110 22:37 07.04.2022
4421 Mist 10 1004 92 3219 10.29 110 22:19 07.04.2022
4422 Rain 10 1005 92 4828 10.29 110 21:33 07.04.2022
4423 Rain 9 1005 92 4023 7.72 90 20:56 07.04.2022
4424 Rain 9 1006 92 10000 9.26 90 20:26 07.04.2022
4425 Mist 8 1011 90 10000 6.69 70 17:51 07.04.2022
4426 Mist 8 1011 89 10000 7.2 120 17:24 07.04.2022
4427 Mist 8 1011 88 10000 6.69 60 16:42 07.04.2022
4428 Clouds 8 1010 88 10000 7.2 100 15:58 07.04.2022
4429 Clouds 8 1011 85 10000 6.69 80 14:29 07.04.2022
4430 Clouds 7 1010 83 10000 6.69 60 13:41 07.04.2022
4431 Clouds 8 1010 82 10000 6.17 50 12:28 07.04.2022
4432 Clouds 8 1011 84 10000 3.6 70 10:57 07.04.2022
4433 Clouds 9 1013 86 10000 3.09 30 09:36 07.04.2022
4434 Clouds 9 1013 86 10000 3.09 0 08:35 07.04.2022
4435 Clouds 9 1013 86 10000 4.12 50 06:29 07.04.2022
4436 Drizzle 10 1012 85 10000 5.14 50 02:43 07.04.2022
4437 Clouds 10 1012 86 10000 6.17 40 01:52 07.04.2022
4438 Clouds 11 1009 85 10000 6.69 50 23:57 06.04.2022
4439 Clouds 11 1009 87 10000 7.2 50 22:46 06.04.2022
4440 Clouds 11 1009 88 10000 7.2 50 22:24 06.04.2022
4441 Mist 10 1010 90 10000 7.72 30 21:31 06.04.2022
4442 Mist 10 1009 90 10000 7.72 30 20:28 06.04.2022
4443 Mist 10 1008 89 10000 8.23 40 19:53 06.04.2022
4444 Mist 10 1007 90 10000 8.75 60 18:51 06.04.2022
4445 Clouds 10 1008 92 10000 8.23 40 17:57 06.04.2022
4446 Rain 9 1008 92 10000 7.72 50 17:35 06.04.2022
4447 Rain 9 1008 92 10000 9.77 50 16:36 06.04.2022
4448 Rain 9 1008 93 10000 11.83 50 15:48 06.04.2022
4449 Rain 8 1007 94 10000 8.75 30 14:35 06.04.2022
4450 Rain 8 1007 94 9656 10.29 50 13:23 06.04.2022
4451 Rain 8 1007 93 8047 9.26 50 12:22 06.04.2022
4452 Rain 7 1009 94 6437 7.2 50 10:47 06.04.2022
4453 Rain 7 1009 94 6437 7.2 50 10:25 06.04.2022
4454 Rain 7 1010 93 8047 8.75 50 09:40 06.04.2022
4455 Rain 7 1011 92 9656 6.69 50 08:32 06.04.2022
4456 Rain 8 1012 91 9656 7.2 50 07:49 06.04.2022
4457 Drizzle 9 1015 80 10000 3.6 90 03:54 06.04.2022
4458 Clouds 11 1015 58 10000 5.66 170 23:53 05.04.2022
4459 Clouds 11 1016 53 10000 4.12 150 22:57 05.04.2022
4460 Clouds 12 1016 44 10000 5.14 150 21:23 05.04.2022
4461 Clouds 12 1017 42 10000 4.63 180 20:26 05.04.2022
4462 Clouds 12 1017 43 10000 4.63 180 19:42 05.04.2022
4463 Clouds 12 1018 42 10000 2.57 120 18:18 05.04.2022
4464 Clouds 11 1017 47 10000 3.09 80 16:54 05.04.2022
4465 Clouds 10 1018 51 10000 2.24 132 15:57 05.04.2022
4466 Clouds 9 1019 53 10000 1.54 0 15:35 05.04.2022
4467 Clouds 8 1019 61 10000 2.57 140 14:37 05.04.2022
4468 Clouds 6 1018 64 10000 3.09 60 13:37 05.04.2022
4469 Clouds 5 1017 68 10000 0.45 170 11:51 05.04.2022
4470 Clouds 5 1017 68 10000 0.45 170 11:51 05.04.2022
4471 Clouds 5 1017 68 10000 0.45 170 11:51 05.04.2022
4472 Clouds 6 1018 64 10000 1.54 100 11:33 05.04.2022
4473 Clouds 6 1017 65 10000 0 0 10:41 05.04.2022
4474 Clouds 6 1017 62 10000 0.89 348 08:55 05.04.2022
4475 Clear 7 1017 56 10000 2.57 310 07:24 05.04.2022
4476 Clear 10 1015 46 10000 6.69 280 02:39 05.04.2022
4477 Clouds 12 1014 41 10000 6.17 310 22:48 04.04.2022
4478 Clouds 12 1014 41 10000 6.17 310 22:29 04.04.2022
4479 Clear 12 1014 41 10000 5.66 310 21:22 04.04.2022
4480 Clouds 12 1014 41 10000 4.63 310 20:53 04.04.2022
4481 Clouds 12 1014 41 10000 4.63 310 20:35 04.04.2022
4482 Clear 11 1015 43 10000 6.69 330 19:26 04.04.2022
4483 Clouds 11 1015 45 10000 5.14 300 18:39 04.04.2022
4484 Clear 9 1015 51 10000 8.23 300 16:41 04.04.2022
4485 Clear 8 1015 52 10000 8.23 300 16:23 04.04.2022
4486 Clear 7 1015 59 10000 6.69 290 15:33 04.04.2022
4487 Clear 6 1015 64 10000 5.66 300 14:46 04.04.2022
4488 Clouds 5 1015 68 10000 4.12 260 13:58 04.04.2022
4489 Clear 4 1014 69 10000 5.14 330 12:41 04.04.2022
4490 Clear 4 1013 67 10000 6.69 320 11:29 04.04.2022
4491 Clouds 4 1012 68 10000 3.58 0 09:53 04.04.2022
4492 Clear 5 1010 65 10000 9.77 300 05:34 04.04.2022
4493 Clouds 7 1009 72 10000 7.2 290 02:51 04.04.2022
4494 Clouds 8 1007 77 10000 3.09 60 22:54 03.04.2022
4495 Clouds 8 1007 78 10000 2.06 230 21:59 03.04.2022
4496 Clouds 7 1007 80 10000 2.06 220 21:27 03.04.2022
4497 Clouds 7 1008 81 10000 3.09 170 20:30 03.04.2022
4498 Rain 7 1009 83 6437 4.12 190 18:46 03.04.2022
4499 Rain 7 1009 82 10000 3.09 160 17:55 03.04.2022
4500 Rain 7 1009 81 10000 3.09 60 17:35 03.04.2022
4501 Rain 7 1009 79 10000 2.57 60 16:49 03.04.2022
4502 Clouds 7 1009 80 10000 2.06 70 15:56 03.04.2022
4503 Clouds 6 1010 77 10000 2.06 140 14:25 03.04.2022
4504 Clouds 5 1011 77 10000 3.6 150 13:28 03.04.2022
4505 Clouds 5 1011 77 10000 0.45 0 11:50 03.04.2022
4506 Clouds 5 1013 74 10000 3.6 240 09:57 03.04.2022
4507 Clouds 5 1013 73 10000 4.12 210 09:18 03.04.2022
4508 Clear 6 1014 73 10000 3.6 170 06:28 03.04.2022
4509 Clouds 8 1016 62 10000 4.63 160 02:55 03.04.2022
4510 Clear 12 1015 33 10000 3.6 270 23:48 02.04.2022
4511 Clouds 12 1014 35 10000 2.68 193 22:51 02.04.2022
4512 Clouds 12 1014 35 10000 2.57 0 21:56 02.04.2022
4513 Clear 11 1015 34 10000 3.09 310 21:21 02.04.2022
4514 Clear 11 1016 37 10000 5.66 300 20:36 02.04.2022
4515 Clear 11 1016 37 10000 5.66 300 20:36 02.04.2022
4516 Clear 9 1018 42 10000 6.69 300 18:49 02.04.2022
4517 Clear 8 1019 44 10000 6.69 300 18:20 02.04.2022
4518 Clear 7 1019 46 10000 7.2 320 17:23 02.04.2022
4519 Clouds 5 1019 51 10000 6.69 320 15:55 02.04.2022
4520 Clouds 5 1019 51 10000 7.72 300 15:20 02.04.2022
4521 Clouds 4 1019 53 10000 9.77 310 14:31 02.04.2022
4522 Clouds 4 1018 54 10000 8.75 300 13:34 02.04.2022
4523 Clouds 4 1017 53 10000 9.26 310 12:32 02.04.2022
4524 Clouds 5 1015 51 10000 10.8 310 10:46 02.04.2022
4525 Clouds 6 1015 49 10000 9.77 290 08:33 02.04.2022
4526 Clear 7 1012 45 10000 4.47 0 05:58 02.04.2022
4527 Clear 7 1010 48 10000 11.32 300 03:28 02.04.2022
4528 Clouds 10 1006 52 10000 9.26 270 23:55 01.04.2022
4529 Clouds 11 1003 49 10000 13.89 260 22:55 01.04.2022
4530 Clouds 12 1002 43 10000 13.38 250 21:31 01.04.2022
4531 Clouds 13 1002 41 10000 10.29 260 20:50 01.04.2022
4532 Clouds 13 1001 45 10000 9.26 260 19:51 01.04.2022
4533 Clouds 13 1001 46 10000 9.26 260 19:27 01.04.2022
4534 Clouds 13 1002 49 10000 9.26 270 18:44 01.04.2022
4535 Clouds 13 1002 56 10000 8.75 260 17:46 01.04.2022
4536 Clouds 12 1001 63 10000 8.75 250 16:42 01.04.2022
4537 Clouds 11 1001 76 10000 4.63 290 15:23 01.04.2022
4538 Clouds 11 1001 80 10000 7.72 300 14:20 01.04.2022
4539 Clouds 11 1001 81 10000 9.26 310 13:33 01.04.2022
4540 Clouds 12 1000 81 10000 7.2 270 12:32 01.04.2022
4541 Clouds 12 1000 81 10000 7.2 270 12:32 01.04.2022
4542 Rain 13 998 82 10000 6.69 280 11:33 01.04.2022
4543 Rain 14 998 91 10000 4.63 310 10:18 01.04.2022
4544 Clouds 14 996 90 10000 3.09 140 08:30 01.04.2022
4545 Clouds 15 998 87 10000 8.23 200 06:39 01.04.2022
4546 Clouds 17 999 85 10000 6.71 360 04:47 01.04.2022
4547 Clouds 17 998 84 10000 6.69 170 04:28 01.04.2022
4548 Clouds 16 1000 82 10000 7.15 360 01:54 01.04.2022
4549 Clouds 15 1001 76 10000 6.26 360 22:58 31.03.2022
4550 Clouds 16 1003 73 10000 7.72 160 21:50 31.03.2022
4551 Clouds 17 1003 74 10000 7.72 160 21:31 31.03.2022
4552 Clouds 17 1004 74 10000 8.05 360 20:29 31.03.2022
4553 Clouds 17 1005 73 10000 9.77 200 19:48 31.03.2022
4554 Mist 16 1006 74 10000 12.35 200 18:43 31.03.2022
4555 Mist 15 1007 77 10000 7.72 200 17:49 31.03.2022
4556 Haze 13 1008 79 6437 5.36 360 16:37 31.03.2022
4557 Haze 10 1009 85 6437 2.57 20 15:37 31.03.2022
4558 Mist 9 1009 88 4828 3.13 360 15:19 31.03.2022
4559 Mist 8 1008 90 4828 3.58 360 14:35 31.03.2022
4560 Mist 7 1010 88 4023 3.09 50 11:43 31.03.2022
4561 Clouds 7 1011 83 10000 2.57 60 10:55 31.03.2022
4562 Clouds 7 1012 79 10000 1.79 360 09:44 31.03.2022
4563 Clouds 7 1014 76 10000 7.15 360 07:55 31.03.2022
4564 Clouds 5 1016 64 10000 6.17 180 04:46 31.03.2022
4565 Clouds 7 1019 42 10000 4.63 190 23:37 30.03.2022
4566 Clouds 7 1019 33 10000 5.66 230 22:32 30.03.2022
4567 Clouds 7 1021 30 10000 2.57 0 21:38 30.03.2022
4568 Clear 7 1021 29 10000 2.24 0 20:53 30.03.2022
4569 Clear 6 1022 29 10000 2.06 0 20:20 30.03.2022
4570 Clear 6 1022 29 10000 2.06 0 20:20 30.03.2022
4571 Clear 6 1023 31 10000 2.68 185 19:19 30.03.2022
4572 Clear 5 1024 32 10000 3.09 0 18:18 30.03.2022
4573 Clear 4 1024 33 10000 2.57 0 17:44 30.03.2022
4574 Clear 3 1024 36 10000 2.24 276 16:56 30.03.2022
4575 Clear 3 1024 37 10000 2.06 70 16:32 30.03.2022
4576 Clouds 1 1024 43 10000 3.6 350 14:59 30.03.2022
4577 Clear -2 1025 44 10000 4.12 300 13:35 30.03.2022
4578 Clear -2 1024 45 10000 4.12 310 12:47 30.03.2022
4579 Clear -2 1024 45 10000 1.34 324 10:58 30.03.2022
4580 Clear -1 1024 44 10000 4.63 320 09:59 30.03.2022
4581 Clear -1 1023 44 10000 5.14 340 09:20 30.03.2022
4582 Clear 0 1023 42 10000 6.17 320 07:32 30.03.2022
4583 Clear 1 1023 40 10000 5.66 310 05:40 30.03.2022
4584 Clear 1 1022 35 10000 7.2 300 03:39 30.03.2022
4585 Clouds 3 1019 33 10000 10.29 320 00:31 30.03.2022
4586 Clouds 3 1019 36 10000 10.29 300 22:20 29.03.2022
4587 Clouds 2 1019 37 10000 9.26 320 21:44 29.03.2022
4588 Clouds 2 1020 38 10000 6.26 303 20:52 29.03.2022
4589 Clouds 2 1020 39 10000 10.29 300 19:53 29.03.2022
4590 Clear 2 1020 41 10000 4.47 0 18:55 29.03.2022
4591 Clear 2 1020 41 10000 8.23 330 18:19 29.03.2022
4592 Clear 1 1021 43 10000 8.23 310 17:22 29.03.2022
4593 Clouds 0 1021 46 10000 8.23 300 16:56 29.03.2022
4594 Clouds -1 1021 48 10000 7.72 290 15:57 29.03.2022
4595 Clear -3 1021 52 10000 8.75 320 14:50 29.03.2022
4596 Clouds -3 1021 54 10000 8.23 310 13:56 29.03.2022
4597 Clouds -4 1020 55 10000 8.23 300 12:51 29.03.2022
4598 Clouds -4 1020 54 10000 7.2 310 11:43 29.03.2022
4599 Clouds -4 1019 53 10000 8.75 310 10:28 29.03.2022
4600 Clouds -4 1019 52 10000 9.77 310 09:33 29.03.2022
4601 Clouds -4 1017 48 10000 4.47 352 06:56 29.03.2022
4602 Clouds -4 1017 40 10000 12.35 320 03:54 29.03.2022
4603 Clouds -2 1013 39 10000 11.32 310 00:33 29.03.2022
4604 Clouds -1 1012 34 10000 11.32 300 23:22 28.03.2022
4605 Clouds -1 1012 35 10000 7.2 300 22:51 28.03.2022
4606 Clouds -1 1012 35 10000 9.77 290 22:23 28.03.2022
4607 Clouds -1 1011 35 10000 6.26 276 20:54 28.03.2022
4608 Clouds -1 1011 30 10000 9.26 300 20:20 28.03.2022
4609 Clouds -1 1012 29 10000 12.86 300 19:41 28.03.2022
4610 Clouds -1 1011 30 10000 6.69 270 18:56 28.03.2022
4611 Clouds -1 1012 30 10000 10.29 290 18:36 28.03.2022
4612 Clouds -1 1012 32 10000 10.8 300 17:39 28.03.2022
4613 Clouds -2 1013 37 10000 11.83 310 16:19 28.03.2022
4614 Clear -4 1013 42 10000 10.8 300 14:27 28.03.2022
4615 Clouds -5 1013 44 10000 6.17 290 13:58 28.03.2022
4616 Clear -5 1012 43 10000 10.29 300 12:20 28.03.2022
4617 Clear -5 1012 43 10000 10.29 290 11:23 28.03.2022
4618 Clear -4 1011 45 10000 12.35 300 09:42 28.03.2022
4619 Clear -3 1011 44 10000 12.35 300 09:19 28.03.2022
4620 Clear -3 1011 44 10000 8.75 300 08:22 28.03.2022
4621 Clear -2 1010 46 10000 8.75 300 07:28 28.03.2022
4622 Clouds 1 1008 55 10000 10.29 310 03:43 28.03.2022
4623 Clouds 4 1004 59 10000 10.8 300 23:28 27.03.2022
4624 Clouds 5 1003 56 10000 10.29 270 22:24 27.03.2022
4625 Clouds 6 1004 56 10000 10.8 270 21:41 27.03.2022
4626 Clouds 7 1003 48 10000 11.32 260 20:54 27.03.2022
4627 Clouds 7 1003 46 10000 8.75 300 20:54 27.03.2022
4628 Clouds 7 1003 46 10000 8.75 300 20:54 27.03.2022
4629 Clouds 7 1003 44 10000 7.2 280 19:47 27.03.2022
4630 Clouds 7 1003 45 10000 7.2 280 18:55 27.03.2022
4631 Clouds 7 1003 46 10000 7.72 330 18:27 27.03.2022
4632 Clouds 7 1003 47 10000 7.72 330 18:27 27.03.2022
4633 Clouds 7 1003 46 10000 7.72 330 18:27 27.03.2022
4634 Clouds 7 1004 48 10000 8.75 270 17:38 27.03.2022
4635 Clouds 6 1004 48 10000 8.23 280 16:21 27.03.2022
4636 Clouds 5 1003 54 10000 7.72 300 15:18 27.03.2022
4637 Clouds 4 1003 62 10000 7.2 260 13:55 27.03.2022
4638 Clouds 4 1002 62 10000 6.69 310 12:24 27.03.2022
4639 Clouds 4 1001 66 10000 4.47 360 10:53 27.03.2022
4640 Clouds 5 1000 72 10000 5.66 260 08:43 27.03.2022
4641 Clouds 6 1000 62 10000 7.2 270 05:54 27.03.2022
4642 Clear 9 997 50 10000 8.23 270 00:48 27.03.2022
4643 Clouds 10 996 47 10000 8.23 250 23:40 26.03.2022
4644 Clouds 10 996 48 10000 10.8 270 22:36 26.03.2022
4645 Clouds 10 995 51 10000 9.26 250 21:33 26.03.2022
4646 Clouds 10 996 54 10000 4.63 300 20:20 26.03.2022
4647 Thunderstorm 10 996 58 10000 8.75 260 19:21 26.03.2022
4648 Clouds 9 999 62 10000 5.14 270 17:53 26.03.2022
4649 Clouds 9 998 70 10000 7.72 280 17:32 26.03.2022
4650 Clouds 10 998 57 10000 7.2 260 16:27 26.03.2022
4651 Clouds 10 999 58 10000 4.47 253 14:57 26.03.2022
4652 Clouds 9 999 62 10000 5.66 270 13:52 26.03.2022
4653 Clouds 8 1000 61 10000 5.14 260 12:47 26.03.2022
4654 Clouds 9 999 62 10000 4.63 260 11:33 26.03.2022
4655 Clouds 9 999 62 10000 6.69 260 10:18 26.03.2022
4656 Clouds 10 1000 61 10000 4.63 230 08:33 26.03.2022
4657 Clouds 10 1002 56 10000 6.69 260 05:54 26.03.2022
4658 Clouds 11 1002 55 10000 4.63 260 04:21 26.03.2022
4659 Clouds 12 1000 52 10000 8.23 270 23:51 25.03.2022
4660 Clouds 13 1001 51 10000 8.75 270 21:35 25.03.2022
4661 Clouds 14 1000 52 10000 8.23 250 20:46 25.03.2022
4662 Clouds 14 1000 50 10000 7.2 260 19:36 25.03.2022
4663 Clouds 15 1001 52 10000 6.69 260 18:47 25.03.2022
4664 Clouds 14 1003 56 10000 5.14 280 17:37 25.03.2022
4665 Clear 13 1004 65 10000 4.63 250 16:50 25.03.2022
4666 Clear 12 1004 68 10000 4.63 250 16:18 25.03.2022
4667 Clear 9 1005 83 10000 4.63 300 14:26 25.03.2022
4668 Fog 7 1005 88 10000 3.6 300 12:48 25.03.2022
4669 Clouds 7 1005 90 10000 3.09 270 09:57 25.03.2022
4670 Clouds 7 1004 91 10000 2.24 276 09:27 25.03.2022
4671 Clouds 7 1005 92 10000 4.63 320 07:54 25.03.2022
4672 Clouds 7 1005 94 10000 5.66 300 07:27 25.03.2022
4673 Rain 7 1004 95 10000 3.6 40 05:55 25.03.2022
4674 Mist 7 1009 94 10000 6.69 40 00:46 25.03.2022
4675 Mist 8 1010 91 10000 6.69 30 22:39 24.03.2022
4676 Mist 8 1011 93 6437 7.72 30 21:42 24.03.2022
4677 Mist 7 1011 93 9656 8.23 40 20:26 24.03.2022
4678 Mist 7 1012 93 9656 9.26 50 19:47 24.03.2022
4679 Mist 7 1014 93 6437 10.29 50 17:47 24.03.2022
4680 Mist 7 1014 93 6437 10.29 50 17:19 24.03.2022
4681 Mist 6 1014 93 8047 10.29 50 15:45 24.03.2022
4682 Mist 6 1014 93 6437 8.23 30 14:48 24.03.2022
4683 Mist 6 1014 93 6437 9.26 50 14:18 24.03.2022
4684 Clouds 6 1015 93 10000 8.23 30 12:52 24.03.2022
4685 Clouds 6 1015 93 10000 9.77 30 11:47 24.03.2022
4686 Clouds 5 1016 93 10000 10.8 50 09:55 24.03.2022
4687 Rain 5 1016 93 10000 7.2 30 08:42 24.03.2022
4688 Rain 4 1017 87 9656 7.72 50 06:49 24.03.2022
4689 Rain 5 1020 72 8047 4.63 70 03:57 24.03.2022
4690 Clouds 6 1022 56 10000 6.69 100 23:20 23.03.2022
4691 Clouds 7 1022 51 10000 5.14 120 21:39 23.03.2022
4692 Clouds 7 1022 50 10000 5.14 120 21:18 23.03.2022
4693 Clouds 8 1023 44 10000 4.63 50 19:46 23.03.2022
4694 Clear 8 1023 41 10000 5.66 50 18:45 23.03.2022
4695 Clear 8 1025 40 10000 6.17 50 17:37 23.03.2022
4696 Clear 7 1025 41 10000 5.66 40 16:39 23.03.2022
4697 Clear 6 1024 40 10000 4.63 60 14:51 23.03.2022
4698 Clear 6 1025 41 10000 4.63 60 14:26 23.03.2022
4699 Clouds 5 1024 46 10000 2.68 360 12:54 23.03.2022
4700 Clear 5 1024 38 10000 5.66 20 09:45 23.03.2022
4701 Clear 7 1024 29 10000 5.14 360 06:48 23.03.2022
4702 Clear 8 1023 26 10000 5.14 340 05:23 23.03.2022
4703 Clear 13 1020 17 10000 7.72 320 00:35 23.03.2022
4704 Clear 13 1019 17 10000 7.72 310 23:39 22.03.2022
4705 Clear 14 1019 16 10000 9.77 320 21:30 22.03.2022
4706 Clear 14 1019 16 10000 9.77 320 21:30 22.03.2022
4707 Clear 15 1020 16 10000 9.77 300 20:49 22.03.2022
4708 Clear 14 1020 18 10000 4.92 301 19:51 22.03.2022
4709 Clear 13 1021 18 10000 7.72 330 19:23 22.03.2022
4710 Clear 13 1021 20 10000 8.23 290 18:38 22.03.2022
4711 Clear 11 1022 24 10000 7.72 290 17:37 22.03.2022
4712 Clear 10 1022 29 10000 9.26 310 16:28 22.03.2022
4713 Clear 8 1023 35 10000 7.2 300 15:23 22.03.2022
4714 Clouds 8 1022 36 10000 7.2 330 14:57 22.03.2022
4715 Clear 8 1022 37 10000 7.2 300 14:38 22.03.2022
4716 Clear 7 1022 38 10000 7.72 320 13:36 22.03.2022
4717 Clouds 8 1021 36 10000 9.26 320 11:52 22.03.2022
4718 Clouds 9 1020 40 10000 6.69 300 10:46 22.03.2022
4719 Clouds 10 1019 44 10000 7.72 320 08:38 22.03.2022
4720 Clouds 11 1019 41 10000 2.24 318 06:53 22.03.2022
4721 Clear 12 1018 39 10000 2.24 0 03:52 22.03.2022
4722 Clear 15 1016 26 10000 8.23 310 00:34 22.03.2022
4723 Clear 17 1015 23 10000 9.77 290 22:42 21.03.2022
4724 Clouds 17 1016 24 10000 10.8 310 21:18 21.03.2022
4725 Clear 17 1016 24 10000 11.32 300 20:42 21.03.2022
4726 Clear 16 1016 26 10000 7.72 280 19:59 21.03.2022
4727 Clear 16 1017 26 10000 8.75 300 19:35 21.03.2022
4728 Clear 15 1018 29 10000 7.72 270 18:46 21.03.2022
4729 Clear 13 1019 35 10000 7.2 280 17:32 21.03.2022
4730 Clear 13 1020 39 10000 4.47 306 16:58 21.03.2022
4731 Clear 12 1020 40 10000 7.2 320 16:24 21.03.2022
4732 Clear 10 1020 45 10000 5.66 290 15:21 21.03.2022
4733 Clear 9 1019 49 10000 4.63 290 14:28 21.03.2022
4734 Clear 7 1019 54 10000 3.13 331 12:53 21.03.2022
4735 Clear 6 1018 54 10000 6.17 290 11:57 21.03.2022
4736 Clear 7 1017 54 10000 6.17 300 10:59 21.03.2022
4737 Clear 7 1016 56 10000 7.72 310 09:42 21.03.2022
4738 Clear 8 1014 58 10000 6.17 320 07:22 21.03.2022
4739 Clouds 8 1013 63 10000 7.72 310 04:54 21.03.2022
4740 Clouds 11 1009 56 10000 8.75 290 00:46 21.03.2022
4741 Clouds 13 1008 56 10000 8.75 280 22:56 20.03.2022
4742 Clouds 13 1008 55 10000 6.69 290 22:22 20.03.2022
4743 Clouds 13 1007 55 10000 8.75 280 21:31 20.03.2022
4744 Clouds 13 1007 55 10000 8.75 280 21:31 20.03.2022
4745 Clouds 13 1007 54 10000 9.26 270 20:48 20.03.2022
4746 Clouds 14 1007 53 10000 9.26 270 20:25 20.03.2022
4747 Clouds 13 1008 54 10000 8.75 260 19:43 20.03.2022
4748 Clouds 13 1008 55 10000 8.75 260 19:19 20.03.2022
4749 Clouds 14 1008 54 10000 7.72 300 17:43 20.03.2022
4750 Clouds 14 1008 54 10000 7.72 300 17:24 20.03.2022
4751 Clouds 14 1008 56 10000 8.23 280 15:57 20.03.2022
4752 Clear 13 1009 59 10000 6.69 260 14:38 20.03.2022
4753 Clear 12 1009 63 10000 5.66 260 13:31 20.03.2022
4754 Clouds 12 1008 69 10000 4.47 360 11:58 20.03.2022
4755 Clouds 13 1007 69 10000 6.17 280 09:59 20.03.2022
4756 Clouds 13 1007 74 10000 4.12 240 08:19 20.03.2022
4757 Clouds 14 1007 84 10000 4.02 360 05:49 20.03.2022
4758 Rain 15 1005 81 10000 5.66 200 03:18 20.03.2022
4759 Clouds 17 1005 69 10000 5.36 360 00:53 20.03.2022
4760 Clear 17 1003 69 10000 4.47 360 23:37 19.03.2022
4761 Clear 18 1005 68 10000 4.63 140 22:25 19.03.2022
4762 Clear 19 1006 66 10000 5.66 150 21:26 19.03.2022
4763 Clear 17 1008 65 10000 4.63 90 19:22 19.03.2022
4764 Clear 17 1009 68 10000 5.14 200 18:38 19.03.2022
4765 Clouds 17 1010 72 10000 4.12 40 17:48 19.03.2022
4766 Clouds 15 1011 80 10000 2.57 40 16:46 19.03.2022
4767 Mist 13 1012 91 9656 3.6 30 15:26 19.03.2022
4768 Mist 11 1012 93 4828 2.24 360 13:45 19.03.2022
4769 Mist 11 1012 93 4828 3.6 30 12:43 19.03.2022
4770 Mist 10 1012 93 9656 3.6 30 12:20 19.03.2022
4771 Mist 10 1013 93 10000 4.63 30 11:45 19.03.2022
4772 Mist 10 1013 92 1609 4.92 360 09:23 19.03.2022
4773 Clouds 10 1015 87 10000 6.17 170 05:44 19.03.2022
4774 Clear 12 1016 81 10000 4.47 360 02:33 19.03.2022
4775 Clear 15 1015 72 10000 4.47 360 23:52 18.03.2022
4776 Clouds 17 1016 71 10000 4.92 360 22:58 18.03.2022
4777 Clear 19 1016 63 10000 6.17 180 22:22 18.03.2022
4778 Clear 22 1016 46 10000 4.63 170 20:31 18.03.2022
4779 Clear 21 1016 51 10000 3.6 210 19:45 18.03.2022
4780 Clear 21 1016 51 10000 3.6 210 19:18 18.03.2022
4781 Clear 17 1017 74 10000 1.34 257 16:59 18.03.2022
4782 Mist 15 1017 80 8047 3.6 330 16:34 18.03.2022
4783 Mist 11 1016 92 4023 3.09 240 14:29 18.03.2022
4784 Mist 10 1016 93 6437 3.09 240 13:41 18.03.2022
4785 Mist 10 1015 92 10000 3.09 260 11:43 18.03.2022
4786 Mist 11 1014 92 10000 4.12 280 10:27 18.03.2022
4787 Mist 11 1013 93 10000 3.09 320 08:50 18.03.2022
4788 Mist 11 1013 93 6437 3.6 300 07:43 18.03.2022
4789 Mist 12 1013 94 1609 0.89 45 05:20 18.03.2022
4790 Mist 12 1013 93 2816 4.12 10 01:55 18.03.2022
4791 Mist 12 1013 93 8047 6.17 40 00:21 18.03.2022
4792 Mist 11 1012 93 9656 6.69 50 22:54 17.03.2022
4793 Mist 11 1012 93 9656 6.69 50 22:21 17.03.2022
4794 Mist 11 1012 91 10000 6.17 30 21:46 17.03.2022
4795 Fog 11 1013 91 10000 7.2 30 20:58 17.03.2022
4796 Mist 11 1014 91 10000 7.2 30 20:30 17.03.2022
4797 Clouds 11 1014 91 10000 5.66 30 19:39 17.03.2022
4798 Mist 11 1016 93 8047 5.66 30 18:55 17.03.2022
4799 Mist 10 1017 91 10000 5.66 30 17:47 17.03.2022
4800 Rain 10 1017 92 10000 5.66 30 16:29 17.03.2022
4801 Rain 9 1018 92 10000 6.17 30 15:43 17.03.2022
4802 Clouds 9 1018 92 10000 7.72 30 15:21 17.03.2022
4803 Mist 8 1019 92 4023 4.63 40 13:48 17.03.2022
4804 Mist 8 1019 91 4023 4.63 20 12:48 17.03.2022
4805 Mist 8 1019 88 10000 5.66 50 11:47 17.03.2022
4806 Mist 8 1019 87 10000 5.66 50 11:22 17.03.2022
4807 Mist 8 1020 90 9656 4.63 50 09:41 17.03.2022
4808 Mist 8 1020 89 10000 4.12 40 08:31 17.03.2022
4809 Clear 8 1021 83 10000 5.14 50 06:25 17.03.2022
4810 Clear 8 1022 81 10000 4.63 30 05:39 17.03.2022
4811 Clear 11 1022 69 10000 5.14 160 00:42 17.03.2022
4812 Clouds 13 1021 61 10000 5.81 360 22:59 16.03.2022
4813 Clear 14 1021 59 10000 5.66 130 22:39 16.03.2022
4814 Clear 14 1021 57 10000 5.66 130 22:19 16.03.2022
4815 Clear 15 1021 54 10000 6.69 150 21:29 16.03.2022
4816 Clear 17 1022 45 10000 4.12 70 19:26 16.03.2022
4817 Clear 17 1023 45 10000 2.68 200 18:55 16.03.2022
4818 Clear 17 1023 45 10000 4.63 80 18:24 16.03.2022
4819 Clear 16 1024 47 10000 4.12 50 17:37 16.03.2022
4820 Clear 16 1024 49 10000 2.57 260 16:50 16.03.2022
4821 Clear 14 1024 52 10000 2.06 0 15:41 16.03.2022
4822 Clear 11 1023 65 10000 2.06 210 13:44 16.03.2022
4823 Clouds 9 1023 69 10000 2.68 228 12:59 16.03.2022
4824 Clear 8 1021 71 10000 0.45 0 11:51 16.03.2022
4825 Clear 9 1021 68 10000 2.06 320 11:19 16.03.2022
4826 Clear 10 1021 63 10000 3.13 271 09:59 16.03.2022
4827 Clear 11 1021 59 10000 3.09 260 08:37 16.03.2022
4828 Clouds 14 1021 45 10000 6.69 320 03:33 16.03.2022
4829 Clear 13 1019 52 10000 5.36 360 00:42 16.03.2022
4830 Clear 15 1019 48 10000 6.69 170 22:37 15.03.2022
4831 Clear 15 1020 46 10000 5.66 170 21:50 15.03.2022
4832 Clear 17 1022 39 10000 4.12 210 19:47 15.03.2022
4833 Clear 16 1023 39 10000 3.09 200 18:45 15.03.2022
4834 Clear 14 1024 45 10000 2.06 230 16:52 15.03.2022
4835 Clear 12 1024 44 10000 2.06 230 16:18 15.03.2022
4836 Clear 10 1025 53 10000 3.58 219 14:57 15.03.2022
4837 Clear 9 1024 56 10000 4.12 230 14:31 15.03.2022
4838 Clear 6 1025 63 10000 3.6 190 13:27 15.03.2022
4839 Clear 5 1025 65 10000 3.13 170 11:57 15.03.2022
4840 Clear 6 1025 63 10000 4.02 176 11:19 15.03.2022
4841 Clear 7 1025 60 10000 3.09 220 09:39 15.03.2022
4842 Clear 7 1026 58 10000 4.47 360 08:32 15.03.2022
4843 Clear 8 1026 58 10000 4.63 220 07:50 15.03.2022
4844 Clear 8 1026 58 10000 3.58 247 06:51 15.03.2022
4845 Clouds 9 1027 56 10000 4.12 170 02:59 15.03.2022
4846 Clear 11 1027 51 10000 5.66 180 23:39 14.03.2022
4847 Clear 11 1027 50 10000 5.66 180 23:21 14.03.2022
4848 Clear 12 1027 43 10000 6.69 160 22:19 14.03.2022
4849 Clear 13 1028 40 10000 6.69 260 21:26 14.03.2022
4850 Clear 13 1029 38 10000 6.69 240 20:35 14.03.2022
4851 Clouds 13 1029 38 10000 5.66 230 19:59 14.03.2022
4852 Clear 11 1029 38 10000 5.66 270 18:42 14.03.2022
4853 Clear 11 1030 39 10000 5.66 270 17:54 14.03.2022
4854 Clouds 9 1030 41 10000 5.66 240 16:58 14.03.2022
4855 Clear 6 1030 47 10000 6.17 250 15:37 14.03.2022
4856 Clear 5 1030 53 10000 6.26 223 14:38 14.03.2022
4857 Clear 1 1028 63 10000 5.66 240 12:22 14.03.2022
4858 Clouds 2 1027 62 10000 5.81 209 10:51 14.03.2022
4859 Clouds 1 1026 59 10000 6.26 360 09:44 14.03.2022
4860 Clouds 1 1026 59 10000 4.47 360 09:21 14.03.2022
4861 Clouds 1 1026 59 10000 5.36 360 08:55 14.03.2022
4862 Clouds 1 1026 58 10000 4.47 360 07:28 14.03.2022
4863 Clouds 0 1026 58 10000 4.92 360 05:45 14.03.2022
4864 Clouds -2 1025 67 10000 6.69 260 01:55 14.03.2022
4865 Clouds -2 1025 69 10000 6.69 260 01:24 14.03.2022
4866 Clouds 0 1022 42 10000 9.26 250 22:43 13.03.2022
4867 Clear 1 1021 39 10000 7.72 250 21:29 13.03.2022
4868 Clear 1 1021 40 10000 7.72 250 20:55 13.03.2022
4869 Clear 1 1022 40 10000 8.75 230 20:30 13.03.2022
4870 Clear 1 1022 42 10000 8.75 260 19:49 13.03.2022
4871 Clear 1 1023 43 10000 8.75 260 19:28 13.03.2022
4872 Clouds 0 1023 44 10000 8.23 220 18:59 13.03.2022
4873 Clouds 0 1023 44 10000 8.23 220 18:59 13.03.2022
4874 Clear 0 1024 44 10000 8.23 240 18:31 13.03.2022
4875 Clear 0 1023 46 10000 8.23 260 17:41 13.03.2022
4876 Clear -1 1023 47 10000 8.23 260 17:19 13.03.2022
4877 Clear -1 1023 47 10000 8.75 280 16:30 13.03.2022
4878 Clear -2 1022 48 10000 7.72 280 15:47 13.03.2022
4879 Clouds -3 1021 52 10000 6.17 280 14:56 13.03.2022
4880 Clear -4 1021 56 10000 6.69 290 13:43 13.03.2022
4881 Clear -5 1020 58 10000 5.66 270 12:55 13.03.2022
4882 Clear -5 1018 56 10000 10.29 300 11:52 13.03.2022
4883 Clear -5 1018 55 10000 10.29 300 11:32 13.03.2022
4884 Clouds -6 1016 55 10000 10.8 290 10:47 13.03.2022
4885 Clouds -5 1015 55 10000 10.8 290 10:24 13.03.2022
4886 Clouds -6 1014 55 10000 9.26 280 09:41 13.03.2022
4887 Clouds -5 1012 53 10000 10.29 270 08:46 13.03.2022
4888 Clouds -5 1010 50 10000 11.32 260 07:42 13.03.2022
4889 Clouds -5 1007 48 10000 13.38 290 05:41 13.03.2022
4890 Clouds -3 1002 54 10000 9.26 300 02:43 13.03.2022
4891 Clouds -4 998 73 1207 12.35 320 23:56 12.03.2022
4892 Snow -3 994 72 10000 11.83 310 22:31 12.03.2022
4893 Rain 0 991 76 10000 14.92 320 20:47 12.03.2022
4894 Rain -1 991 86 10000 12.86 320 19:48 12.03.2022
4895 Rain 0 991 87 10000 11.83 330 19:27 12.03.2022
4896 Snow 0 991 89 6437 9.77 340 18:27 12.03.2022
4897 Mist 1 992 91 4828 10.29 340 17:34 12.03.2022
4898 Rain 2 994 89 10000 11.83 320 16:24 12.03.2022
4899 Rain 7 994 93 6437 6.17 320 15:24 12.03.2022
4900 Rain 7 994 93 4828 4.12 40 14:40 12.03.2022
4901 Rain 7 997 93 4023 3.6 170 13:32 12.03.2022
4902 Clouds 7 1000 92 10000 2.06 140 11:56 12.03.2022
4903 Clouds 7 1000 92 10000 2.24 360 11:38 12.03.2022
4904 Mist 7 1000 91 10000 3.58 360 10:58 12.03.2022
4905 Mist 7 1003 90 10000 3.6 180 09:46 12.03.2022
4906 Clouds 7 1004 90 10000 2.68 360 08:56 12.03.2022
4907 Clouds 7 1007 88 10000 5.81 360 07:27 12.03.2022
4908 Clouds 7 1012 84 10000 3.09 0 03:36 12.03.2022
4909 Clear 7 1014 69 10000 4.12 150 23:56 11.03.2022
4910 Clear 7 1014 69 10000 4.12 150 23:56 11.03.2022
4911 Clear 7 1014 69 10000 4.12 150 23:56 11.03.2022
4912 Clear 8 1014 63 10000 5.14 180 23:18 11.03.2022
4913 Clear 8 1014 63 10000 5.14 180 23:18 11.03.2022
4914 Clear 10 1015 45 10000 6.17 150 21:41 11.03.2022
4915 Clouds 11 1015 42 10000 6.17 150 20:56 11.03.2022
4916 Clear 11 1016 39 10000 5.36 360 20:34 11.03.2022
4917 Clear 11 1017 40 10000 5.66 160 19:52 11.03.2022
4918 Clear 11 1018 38 10000 5.66 160 19:22 11.03.2022
4919 Clear 10 1020 44 10000 3.09 160 17:30 11.03.2022
4920 Clear 9 1020 47 10000 3.09 210 16:36 11.03.2022
4921 Clear 8 1020 51 10000 1.79 168 15:55 11.03.2022
4922 Clear 5 1020 64 10000 2.68 360 14:20 11.03.2022
4923 Clear 3 1020 73 10000 1.79 360 12:45 11.03.2022
4924 Clear 2 1020 72 10000 1.54 250 12:21 11.03.2022
4925 Clear 2 1020 72 10000 0.45 360 11:53 11.03.2022
4926 Clouds 3 1019 71 10000 1.34 360 09:59 11.03.2022
4927 Clouds 2 1020 73 10000 0.89 360 08:56 11.03.2022
4928 Clear 3 1020 70 10000 2.06 260 08:24 11.03.2022
4929 Clear 3 1020 68 10000 2.57 270 07:45 11.03.2022
4930 Clouds 4 1021 67 10000 2.57 200 05:44 11.03.2022
4931 Clear 4 1021 70 10000 2.57 270 03:48 11.03.2022
4932 Clear 8 1020 59 10000 4.12 160 23:38 10.03.2022
4933 Clear 9 1021 55 10000 3.09 90 22:30 10.03.2022
4934 Clear 9 1021 51 10000 3.6 220 21:40 10.03.2022
4935 Clear 9 1020 51 10000 3.6 220 21:18 10.03.2022
4936 Clear 9 1021 54 10000 3.09 10 19:45 10.03.2022
4937 Clear 8 1021 61 10000 2.57 60 18:53 10.03.2022
4938 Haze 6 1023 74 10000 2.06 270 17:28 10.03.2022
4939 Haze 3 1023 84 8047 1.79 264 15:55 10.03.2022
4940 Mist 2 1023 89 6437 2.57 30 14:44 10.03.2022
4941 Mist 0 1023 90 4828 2.57 340 13:21 10.03.2022
4942 Mist 0 1021 89 1609 3.09 60 11:58 10.03.2022
4943 Clear 0 1020 87 10000 2.57 270 10:53 10.03.2022
4944 Clear 0 1019 87 10000 3.09 260 09:18 10.03.2022
4945 Clouds 1 1018 88 10000 4.47 66 07:38 10.03.2022
4946 Rain 2 1017 87 10000 3.6 10 04:36 10.03.2022
4947 Rain 2 1015 90 10000 5.14 360 01:46 10.03.2022
4948 Rain 2 1013 93 6437 5.66 50 23:18 09.03.2022
4949 Mist 1 1013 91 4828 6.17 50 21:49 09.03.2022
4950 Mist 1 1012 91 3219 6.17 50 21:31 09.03.2022
4951 Rain 1 1013 90 6437 6.69 40 19:44 09.03.2022
4952 Snow 1 1014 91 4828 5.14 30 18:33 09.03.2022
4953 Rain 2 1016 91 8047 3.6 110 17:27 09.03.2022
4954 Rain 2 1018 87 10000 5.66 90 16:31 09.03.2022
4955 Rain 3 1019 83 10000 5.66 50 15:19 09.03.2022
4956 Clouds 3 1020 83 10000 5.14 40 13:53 09.03.2022
4957 Clouds 3 1020 80 10000 4.47 360 12:47 09.03.2022
4958 Rain 4 1020 65 10000 4.63 50 11:53 09.03.2022
4959 Rain 4 1020 63 10000 4.63 50 11:35 09.03.2022
4960 Clear 4 1021 59 10000 4.92 360 09:54 09.03.2022
4961 Clear 4 1021 54 10000 2.57 40 08:51 09.03.2022
4962 Clear 4 1023 49 10000 3.09 100 07:38 09.03.2022
4963 Clear 4 1022 43 10000 3.09 10 02:46 09.03.2022
4964 Clear 6 1021 37 10000 4.12 330 00:41 09.03.2022
4965 Clear 8 1020 34 10000 5.66 320 22:47 08.03.2022
4966 Clouds 8 1020 35 10000 5.14 320 21:59 08.03.2022
4967 Clear 8 1020 35 10000 7.72 300 21:23 08.03.2022
4968 Clear 8 1020 35 10000 7.2 360 20:35 08.03.2022
4969 Clear 7 1019 38 10000 1.79 275 19:31 08.03.2022
4970 Clear 7 1019 38 10000 10.8 310 18:44 08.03.2022
4971 Clear 7 1019 37 10000 9.26 310 17:30 08.03.2022
4972 Clouds 6 1018 43 10000 13.89 300 15:45 08.03.2022
4973 Clouds 5 1018 47 10000 14.92 310 14:19 08.03.2022
4974 Clouds 4 1015 51 10000 12.86 300 12:43 08.03.2022
4975 Clouds 5 1014 52 10000 13.38 300 11:45 08.03.2022
4976 Clouds 5 1012 53 10000 12.86 310 10:44 08.03.2022
4977 Clouds 6 1011 53 10000 13.89 310 09:43 08.03.2022
4978 Clouds 8 1007 55 10000 6.71 360 06:59 08.03.2022
4979 Clouds 15 1002 48 10000 10.73 360 04:52 08.03.2022
4980 Clouds 18 1002 69 10000 7.15 174 23:50 07.03.2022
4981 Clouds 21 1003 58 10000 10.29 260 21:54 07.03.2022
4982 Clouds 21 1003 56 10000 12.35 220 21:31 07.03.2022
4983 Clouds 22 1003 55 10000 12.35 220 20:46 07.03.2022
4984 Clouds 21 1004 55 10000 10.29 220 19:55 07.03.2022
4985 Clouds 21 1004 55 10000 10.29 220 19:31 07.03.2022
4986 Clouds 20 1006 57 10000 11.32 210 18:42 07.03.2022
4987 Clear 16 1008 65 10000 7.2 220 17:48 07.03.2022
4988 Clouds 15 1008 73 10000 7.2 220 16:55 07.03.2022
4989 Clear 16 1011 64 10000 5.14 190 15:35 07.03.2022
4990 Clouds 13 1013 71 10000 3.09 230 13:51 07.03.2022
4991 Clear 13 1012 76 10000 3.6 210 12:27 07.03.2022
4992 Clear 13 1012 73 10000 3.6 200 10:38 07.03.2022
4993 Clouds 15 1013 69 10000 2.57 190 08:57 07.03.2022
4994 Clear 16 1013 67 10000 7.6 179 04:43 07.03.2022
4995 Clear 17 1014 73 10000 6.17 210 00:22 07.03.2022
4996 Clear 16 1014 70 10000 8.23 210 23:35 06.03.2022
4997 Clouds 17 1014 69 10000 9.26 220 22:42 06.03.2022
4998 Clouds 17 1015 71 10000 11.32 230 21:47 06.03.2022
4999 Mist 17 1015 75 10000 9.77 230 20:49 06.03.2022
5000 Mist 17 1015 77 10000 8.23 210 20:22 06.03.2022
5001 Rain 14 1016 88 10000 8.05 185 18:56 06.03.2022
5002 Mist 13 1017 89 10000 6.26 360 18:23 06.03.2022
5003 Rain 11 1017 88 10000 7.6 360 17:21 06.03.2022
5004 Rain 10 1018 86 10000 5.14 280 16:41 06.03.2022
5005 Mist 10 1018 84 10000 9.39 360 15:52 06.03.2022
5006 Haze 9 1018 81 10000 3.58 196 14:49 06.03.2022
5007 Haze 8 1018 81 10000 5.81 360 14:31 06.03.2022
5008 Clouds 7 1019 80 10000 6.71 360 13:29 06.03.2022
5009 Clouds 6 1019 78 10000 4.92 360 12:35 06.03.2022
5010 Clouds 6 1021 77 10000 2.06 50 10:59 06.03.2022
5011 Clouds 6 1021 76 10000 2.57 50 10:22 06.03.2022
5012 Clouds 6 1023 76 10000 3.6 60 08:29 06.03.2022
5013 Clouds 6 1023 76 10000 3.6 60 08:29 06.03.2022
5014 Clouds 6 1023 76 10000 3.6 60 08:29 06.03.2022
5015 Clouds 6 1024 75 10000 4.12 60 07:35 06.03.2022
5016 Clouds 6 1026 70 10000 4.02 360 05:40 06.03.2022
5017 Clear 5 1030 65 10000 5.81 360 00:51 06.03.2022
5018 Clear 5 1030 64 10000 5.81 360 00:30 06.03.2022
5019 Clear 6 1030 62 10000 6.17 160 23:21 05.03.2022
5020 Clear 6 1030 59 10000 6.17 140 22:47 05.03.2022
5021 Clouds 7 1030 54 10000 6.17 140 21:56 05.03.2022
5022 Clouds 7 1031 49 10000 5.66 180 21:23 05.03.2022
5023 Clear 7 1032 42 10000 4.12 160 19:44 05.03.2022
5024 Clear 6 1033 39 10000 0.45 184 18:54 05.03.2022
5025 Clear 6 1033 39 10000 3.09 190 18:27 05.03.2022
5026 Clear 4 1034 46 10000 3.09 180 16:34 05.03.2022
5027 Clear 2 1035 51 10000 3.09 250 15:31 05.03.2022
5028 Clear 1 1034 57 10000 2.57 50 14:47 05.03.2022
5029 Clear 1 1034 58 10000 2.57 50 14:29 05.03.2022
5030 Clear -1 1033 60 10000 3.6 40 13:22 05.03.2022
5031 Clear -1 1033 53 10000 0.45 306 11:48 05.03.2022
5032 Clear -1 1033 55 10000 0.89 360 11:19 05.03.2022
5033 Clear -1 1032 53 10000 2.57 220 10:20 05.03.2022
5034 Clear -1 1032 52 10000 2.06 250 09:22 05.03.2022
5035 Clear -1 1032 48 10000 2.57 270 07:38 05.03.2022
5036 Clear -1 1032 44 10000 3.09 310 05:43 05.03.2022
5037 Clouds 0 1031 40 10000 3.13 269 03:49 05.03.2022
5038 Clear 2 1030 34 10000 5.66 200 23:38 04.03.2022
5039 Clear 3 1030 36 10000 7.2 240 22:42 04.03.2022
5040 Clear 3 1030 37 10000 7.2 240 22:19 04.03.2022
5041 Clear 3 1031 35 10000 5.66 270 20:56 04.03.2022
5042 Clear 3 1031 33 10000 6.69 220 20:27 04.03.2022
5043 Clear 2 1032 34 10000 4.12 220 19:36 04.03.2022
5044 Clear 1 1034 36 10000 3.6 250 18:45 04.03.2022
5045 Clear 0 1034 41 10000 2.68 0 17:48 04.03.2022
5046 Clear -1 1034 40 10000 2.57 200 17:28 04.03.2022
5047 Clear -3 1035 45 10000 3.6 240 15:31 04.03.2022
5048 Clear -4 1035 49 10000 4.63 340 14:33 04.03.2022
5049 Clear -6 1035 53 10000 4.63 330 13:26 04.03.2022
5050 Clear -6 1034 52 10000 3.09 0 11:54 04.03.2022
5051 Clear -6 1033 50 10000 3.6 320 10:57 04.03.2022
5052 Clear -6 1033 48 10000 4.63 340 10:18 04.03.2022
5053 Clear -5 1032 43 10000 5.66 330 08:40 04.03.2022
5054 Clear -5 1032 43 10000 5.66 330 08:40 04.03.2022
5055 Clear -5 1032 42 10000 7.2 340 07:41 04.03.2022
5056 Clear -3 1029 36 10000 4.47 45 04:59 04.03.2022
5057 Clear 1 1024 31 10000 1.34 293 00:41 04.03.2022
5058 Clear 4 1020 30 10000 9.77 290 22:39 03.03.2022
5059 Clear 5 1019 31 10000 7.72 340 21:50 03.03.2022
5060 Clear 5 1019 30 10000 7.72 340 21:29 03.03.2022
5061 Clear 6 1018 33 10000 10.29 310 20:21 03.03.2022
5062 Clouds 6 1017 36 10000 9.26 320 18:57 03.03.2022
5063 Clear 5 1018 38 10000 9.77 320 18:24 03.03.2022
5064 Clear 5 1018 39 10000 8.23 300 17:31 03.03.2022
5065 Clear 4 1017 40 10000 8.75 300 16:26 03.03.2022
5066 Clear 5 1016 49 10000 10.29 310 15:32 03.03.2022
5067 Clear 4 1015 59 10000 10.29 320 14:44 03.03.2022
5068 Clear 4 1015 60 10000 10.29 320 14:25 03.03.2022
5069 Clouds 4 1012 72 10000 9.26 320 12:28 03.03.2022
5070 Clouds 6 1011 81 10000 5.36 265 10:56 03.03.2022
5071 Rain 6 1010 80 10000 7.15 360 09:56 03.03.2022
5072 Clouds 7 1009 67 10000 8.94 360 08:42 03.03.2022
5073 Clouds 6 1011 65 10000 4.92 182 06:54 03.03.2022
5074 Clear 6 1012 71 10000 3.09 200 05:20 03.03.2022
5075 Clear 9 1015 41 10000 6.17 270 23:48 02.03.2022
5076 Clear 11 1014 36 10000 4.92 226 22:54 02.03.2022
5077 Clear 11 1014 36 10000 7.2 250 22:33 02.03.2022
5078 Clear 11 1015 38 10000 6.69 290 20:59 02.03.2022
5079 Clear 10 1015 39 10000 6.69 240 20:25 02.03.2022
5080 Clear 10 1015 42 10000 4.63 260 19:38 02.03.2022
5081 Clear 10 1015 43 10000 4.63 260 19:18 02.03.2022
5082 Clear 9 1017 44 10000 5.14 310 18:35 02.03.2022
5083 Clouds 8 1017 48 10000 6.17 300 17:42 02.03.2022
5084 Clear 7 1017 52 10000 4.63 250 16:53 02.03.2022
5085 Clouds 6 1017 55 10000 6.69 320 15:59 02.03.2022
5086 Clear 5 1017 63 10000 4.12 310 14:29 02.03.2022
5087 Clouds 4 1015 68 10000 4.02 324 12:58 02.03.2022
5088 Clouds 4 1016 69 10000 4.63 330 12:35 02.03.2022
5089 Clouds 5 1015 74 10000 4.12 310 11:28 02.03.2022
5090 Clear 5 1014 74 10000 6.69 310 10:50 02.03.2022
5091 Clear 6 1013 73 10000 7.2 290 09:37 02.03.2022
5092 Clouds 6 1013 71 10000 4.63 280 08:44 02.03.2022
5093 Clouds 7 1013 66 10000 4.47 360 07:24 02.03.2022
5094 Clouds 6 1014 72 10000 4.02 360 05:42 02.03.2022
5095 Clouds 6 1014 72 10000 4.02 360 05:42 02.03.2022
5096 Clouds 7 1015 77 10000 4.12 180 00:42 02.03.2022
5097 Clear 7 1015 74 10000 5.66 170 23:35 01.03.2022
5098 Clouds 7 1016 70 10000 6.71 360 22:40 01.03.2022
5099 Clouds 7 1016 69 10000 4.47 360 21:55 01.03.2022
5100 Clouds 7 1018 62 10000 7.72 180 20:44 01.03.2022
5101 Clouds 7 1018 62 10000 7.72 180 20:22 01.03.2022
5102 Clouds 6 1019 59 10000 4.02 240 18:59 01.03.2022
5103 Clouds 5 1021 58 10000 5.66 180 18:26 01.03.2022
5104 Clouds 5 1021 58 10000 3.13 198 17:55 01.03.2022
5105 Clouds 4 1023 55 10000 6.17 190 16:50 01.03.2022
5106 Clouds 3 1023 55 10000 5.36 360 15:51 01.03.2022
5107 Clouds 2 1024 54 10000 5.81 360 14:55 01.03.2022
5108 Clouds 2 1024 54 10000 4.63 190 14:34 01.03.2022
5109 Clouds 0 1025 55 10000 4.47 360 13:27 01.03.2022
5110 Clouds 0 1025 54 10000 2.06 130 12:39 01.03.2022
5111 Clouds -1 1025 54 10000 1.79 360 11:58 01.03.2022
5112 Clouds -2 1027 49 10000 2.57 110 10:26 01.03.2022
5113 Clouds -1 1026 41 10000 3.09 50 08:41 01.03.2022
5114 Clear -1 1026 40 10000 2.57 80 07:36 01.03.2022
5115 Clear -1 1026 37 10000 3.6 30 04:28 01.03.2022
5116 Clouds 0 1026 29 10000 3.09 320 00:59 01.03.2022
5117 Clear 1 1025 27 10000 4.12 320 23:48 28.02.2022
5118 Clouds 2 1025 26 10000 4.12 300 22:58 28.02.2022
5119 Clear 2 1025 25 10000 4.12 320 21:50 28.02.2022
5120 Clear 2 1025 26 10000 4.12 320 21:24 28.02.2022
5121 Clear 1 1025 28 10000 5.66 320 19:52 28.02.2022
5122 Clear 1 1025 29 10000 5.66 320 19:26 28.02.2022
5123 Clear 1 1025 30 10000 6.17 340 18:38 28.02.2022
5124 Clear 0 1026 32 10000 6.69 310 17:24 28.02.2022
5125 Clear -1 1026 34 10000 8.23 320 16:33 28.02.2022
5126 Clear -2 1025 39 10000 8.23 330 15:23 28.02.2022
5127 Clear -2 1025 44 10000 7.72 320 14:31 28.02.2022
5128 Clear -3 1024 45 10000 8.75 330 13:34 28.02.2022
5129 Clear -3 1022 44 10000 7.72 310 12:41 28.02.2022
5130 Clouds -2 1021 45 10000 5.36 340 11:55 28.02.2022
5131 Clear -2 1020 51 10000 7.72 320 10:48 28.02.2022
5132 Clouds -1 1020 53 10000 7.72 320 10:20 28.02.2022
5133 Clouds -1 1019 57 10000 7.2 330 09:32 28.02.2022
5134 Clouds 0 1018 53 10000 7.72 320 08:29 28.02.2022
5135 Clear 0 1017 57 10000 7.72 320 07:28 28.02.2022
5136 Clouds 2 1015 44 10000 7.2 300 04:55 28.02.2022
5137 Clouds 3 1015 40 10000 11.32 310 04:26 28.02.2022
5138 Clouds 8 1011 34 10000 9.77 260 23:42 27.02.2022
5139 Clear 9 1010 33 10000 10.8 270 22:34 27.02.2022
5140 Clear 9 1011 33 10000 6.69 260 21:51 27.02.2022
5141 Clear 9 1011 31 10000 8.75 260 21:21 27.02.2022
5142 Clear 8 1012 32 10000 9.77 270 20:32 27.02.2022
5143 Clouds 8 1012 35 10000 9.77 240 19:58 27.02.2022
5144 Clear 7 1014 35 10000 10.29 270 19:27 27.02.2022
5145 Clear 6 1014 37 10000 10.8 260 18:47 27.02.2022
5146 Clouds 5 1015 41 10000 7.72 280 17:56 27.02.2022
5147 Clear 4 1016 44 10000 10.29 250 17:18 27.02.2022
5148 Clear 3 1018 51 10000 8.23 250 16:21 27.02.2022
5149 Clear -2 1020 65 10000 5.14 270 13:34 27.02.2022
5150 Clear -2 1021 66 10000 5.66 270 12:33 27.02.2022
5151 Clear -2 1021 65 10000 5.14 270 11:27 27.02.2022
5152 Clear -2 1021 63 10000 6.17 260 10:20 27.02.2022
5153 Clear -2 1022 62 10000 5.66 250 09:50 27.02.2022
5154 Clear -2 1022 61 10000 6.71 360 09:20 27.02.2022
5155 Clear -2 1023 60 10000 6.71 360 08:31 27.02.2022
5156 Clear -1 1025 55 10000 6.69 270 05:39 27.02.2022
5157 Clear 0 1026 52 10000 4.02 360 02:45 27.02.2022
5158 Clouds 2 1025 50 10000 5.66 280 23:34 26.02.2022
5159 Clouds 3 1026 47 10000 5.66 270 22:31 26.02.2022
5160 Clouds 3 1026 46 10000 6.17 250 21:19 26.02.2022
5161 Clouds 3 1027 45 10000 5.66 240 20:33 26.02.2022
5162 Clear 2 1027 46 10000 3.6 210 19:52 26.02.2022
5163 Clear 2 1028 45 10000 4.12 310 19:33 26.02.2022
5164 Clear 0 1030 48 10000 4.63 260 17:58 26.02.2022
5165 Clear 0 1030 48 10000 4.63 260 17:30 26.02.2022
5166 Clear -1 1031 52 10000 5.14 300 16:36 26.02.2022
5167 Clear -3 1032 57 10000 4.63 320 15:27 26.02.2022
5168 Clouds -3 1032 59 10000 4.63 310 14:58 26.02.2022
5169 Clear -3 1032 59 10000 4.12 260 14:39 26.02.2022
5170 Clear -4 1032 60 10000 5.66 340 13:46 26.02.2022
5171 Clear -5 1031 61 10000 0.89 284 12:53 26.02.2022
5172 Clear -4 1031 59 10000 5.14 340 11:45 26.02.2022
5173 Clear -4 1030 59 10000 5.14 340 11:24 26.02.2022
5174 Clear -4 1029 60 10000 6.69 320 09:28 26.02.2022
5175 Clear -4 1029 60 10000 7.2 330 08:26 26.02.2022
5176 Clear -2 1027 53 10000 10.29 320 04:22 26.02.2022
5177 Clouds 5 1018 69 10000 7.72 280 23:50 25.02.2022
5178 Drizzle 5 1016 75 10000 9.26 260 22:31 25.02.2022
5179 Clouds 4 1015 79 10000 7.72 260 21:31 25.02.2022
5180 Mist 3 1015 85 10000 7.2 250 20:47 25.02.2022
5181 Mist 3 1014 89 10000 7.2 250 20:25 25.02.2022
5182 Rain 1 1014 91 10000 4.12 50 17:54 25.02.2022
5183 Mist 0 1015 92 10000 7.72 70 16:54 25.02.2022
5184 Snow 0 1016 93 2414 7.2 40 15:55 25.02.2022
5185 Snow 0 1016 92 4828 6.69 50 15:23 25.02.2022
5186 Rain 0 1017 91 6437 10.8 50 14:55 25.02.2022
5187 Rain 0 1018 92 6437 8.23 30 14:24 25.02.2022
5188 Rain 0 1018 91 8047 7.2 40 13:30 25.02.2022
5189 Mist 0 1019 89 8047 6.17 30 12:21 25.02.2022
5190 Rain 0 1020 89 10000 5.66 30 11:21 25.02.2022
5191 Snow 0 1022 89 10000 7.2 50 10:23 25.02.2022
5192 Mist -1 1024 87 4828 7.2 40 09:46 25.02.2022
5193 Snow -1 1026 83 6437 4.12 40 08:41 25.02.2022
5194 Snow -1 1027 72 10000 4.63 100 07:31 25.02.2022
5195 Clouds 0 1029 52 10000 5.14 100 05:42 25.02.2022
5196 Clouds 0 1031 45 10000 5.14 60 02:48 25.02.2022
5197 Clouds 1 1031 38 10000 4.63 80 22:48 24.02.2022
5198 Clouds 1 1030 39 10000 5.66 70 21:51 24.02.2022
5199 Clouds 1 1031 39 10000 5.66 70 21:31 24.02.2022
5200 Clouds 1 1031 40 10000 3.6 20 20:53 24.02.2022
5201 Clouds 1 1032 40 10000 6.17 20 19:38 24.02.2022
5202 Clouds 1 1032 44 10000 5.66 340 18:36 24.02.2022
5203 Clouds 0 1032 44 10000 5.66 340 18:18 24.02.2022
5204 Clouds 0 1032 45 10000 5.66 10 17:33 24.02.2022
5205 Clouds 0 1032 48 10000 5.66 350 16:29 24.02.2022
5206 Clear -1 1032 50 10000 5.14 40 15:46 24.02.2022
5207 Clouds -1 1031 53 10000 6.17 40 14:52 24.02.2022
5208 Clouds -1 1031 54 10000 6.17 40 14:24 24.02.2022
5209 Clear -1 1031 55 10000 6.17 340 13:39 24.02.2022
5210 Clear -1 1031 55 10000 6.17 340 13:39 24.02.2022
5211 Clear -1 1030 54 10000 4.12 350 12:33 24.02.2022
5212 Clear -1 1028 54 10000 5.14 330 10:40 24.02.2022
5213 Clouds 0 1027 54 10000 7.2 350 08:58 24.02.2022
5214 Clear 0 1027 54 10000 7.72 320 08:39 24.02.2022
5215 Clear 2 1025 51 10000 8.23 310 05:52 24.02.2022
5216 Clouds 7 1020 58 10000 5.36 360 01:56 24.02.2022
5217 Clear 19 1013 34 10000 11.83 280 22:38 23.02.2022
5218 Clear 19 1013 34 10000 11.83 280 22:38 23.02.2022
5219 Clouds 20 1013 37 10000 11.32 260 21:40 23.02.2022
5220 Clouds 18 1014 48 10000 10.8 260 20:31 23.02.2022
5221 Clouds 18 1014 63 10000 8.23 250 19:46 23.02.2022
5222 Clouds 18 1014 71 10000 5.14 230 18:32 23.02.2022
5223 Clouds 17 1014 76 10000 5.66 220 17:36 23.02.2022
5224 Clouds 14 1014 83 10000 5.66 240 14:42 23.02.2022
5225 Clouds 14 1014 85 10000 0.45 108 12:45 23.02.2022
5226 Clouds 14 1013 86 10000 4.92 360 11:59 23.02.2022
5227 Clouds 14 1013 86 10000 5.66 230 10:31 23.02.2022
5228 Clouds 14 1013 84 10000 6.26 360 08:59 23.02.2022
5229 Clouds 14 1014 83 10000 5.81 360 08:23 23.02.2022
5230 Clouds 14 1014 84 10000 7.2 200 05:49 23.02.2022
5231 Rain 13 1017 89 10000 12.07 360 00:40 23.02.2022
5232 Rain 12 1018 88 9656 10.73 360 23:38 22.02.2022
5233 Rain 12 1019 87 10000 7.15 360 22:32 22.02.2022
5234 Clouds 11 1020 87 10000 9.39 360 21:49 22.02.2022
5235 Clouds 11 1020 87 10000 8.49 360 21:31 22.02.2022
5236 Clouds 11 1021 86 8047 5.81 360 20:57 22.02.2022
5237 Rain 11 1021 82 8047 4.63 160 20:30 22.02.2022
5238 Rain 10 1022 77 10000 4.63 50 19:42 22.02.2022
5239 Clouds 10 1023 74 10000 4.63 50 19:23 22.02.2022
5240 Clouds 9 1025 77 10000 4.12 50 18:21 22.02.2022
5241 Haze 8 1026 82 9656 4.12 50 17:24 22.02.2022
5242 Mist 7 1026 85 8047 4.12 60 16:41 22.02.2022
5243 Mist 6 1027 88 6437 4.63 40 15:56 22.02.2022
5244 Mist 4 1028 90 6437 5.14 60 14:45 22.02.2022
5245 Mist 3 1027 88 10000 5.66 50 12:44 22.02.2022
5246 Clear 3 1026 89 10000 4.12 40 10:53 22.02.2022
5247 Clear 3 1027 85 10000 3.6 40 08:48 22.02.2022
5248 Clear 3 1027 83 10000 3.09 70 07:27 22.02.2022
5249 Clear 4 1028 82 10000 2.57 40 06:30 22.02.2022
5250 Clouds 5 1026 71 10000 1.54 170 02:45 22.02.2022
5251 Clear 9 1026 50 10000 3.6 130 22:53 21.02.2022
5252 Clear 11 1026 45 10000 4.12 180 21:46 21.02.2022
5253 Clear 11 1025 40 10000 3.09 150 20:37 21.02.2022
5254 Clear 10 1027 44 10000 2.57 200 18:47 21.02.2022
5255 Clear 8 1028 49 10000 3.09 240 17:39 21.02.2022
5256 Clear 3 1028 63 10000 5.66 210 15:25 21.02.2022
5257 Clear 1 1028 68 10000 5.36 360 14:22 21.02.2022
5258 Clear 0 1027 70 10000 4.92 360 13:30 21.02.2022
5259 Clear -1 1027 68 10000 5.36 360 12:24 21.02.2022
5260 Clear -1 1027 68 10000 3.6 240 11:20 21.02.2022
5261 Clear -1 1027 66 10000 5.36 360 09:54 21.02.2022
5262 Clear 0 1027 62 10000 7.15 360 05:35 21.02.2022
5263 Clear 1 1027 45 10000 6.69 170 00:19 21.02.2022
5264 Clear 2 1028 39 10000 6.17 210 22:28 20.02.2022
5265 Clear 2 1028 40 10000 6.17 200 21:43 20.02.2022
5266 Clear 2 1028 40 10000 6.17 200 21:19 20.02.2022
5267 Clear 2 1029 38 10000 6.17 210 20:41 20.02.2022
5268 Clear 1 1030 37 10000 5.66 230 19:42 20.02.2022
5269 Clear 0 1031 39 10000 4.63 230 18:54 20.02.2022
5270 Clear 0 1031 39 10000 4.63 230 18:34 20.02.2022
5271 Clear -1 1031 42 10000 3.09 190 17:53 20.02.2022
5272 Clear -3 1033 45 10000 3.09 0 15:54 20.02.2022
5273 Clear -4 1033 47 10000 4.12 250 14:52 20.02.2022
5274 Clear -6 1032 50 10000 4.63 260 13:53 20.02.2022
5275 Clear -7 1032 49 10000 5.14 280 12:34 20.02.2022
5276 Clear -6 1030 47 10000 7.72 290 10:47 20.02.2022
5277 Clear -6 1030 46 10000 7.72 290 10:20 20.02.2022
5278 Clear -6 1028 46 10000 2.68 335 08:56 20.02.2022
5279 Clear -2 1019 33 10000 12.35 310 01:19 20.02.2022
5280 Clouds -1 1017 32 10000 12.35 320 00:30 20.02.2022
5281 Clouds 1 1014 43 10000 13.38 310 23:19 19.02.2022
5282 Clouds 2 1013 58 10000 11.32 290 22:23 19.02.2022
5283 Clouds 2 1012 69 4828 13.89 260 21:39 19.02.2022
5284 Clouds 3 1011 60 10000 7.2 240 19:58 19.02.2022
5285 Clouds 2 1012 61 10000 7.2 270 19:33 19.02.2022
5286 Clouds 3 1012 49 10000 12.86 240 18:38 19.02.2022
5287 Clouds 3 1013 45 10000 7.72 210 17:37 19.02.2022
5288 Clear 3 1014 45 10000 7.2 210 16:44 19.02.2022
5289 Clear 1 1016 50 10000 7.72 190 15:20 19.02.2022
5290 Clear 0 1016 55 10000 5.66 210 14:52 19.02.2022
5291 Clear -2 1017 58 10000 4.12 220 13:47 19.02.2022
5292 Clear -3 1017 57 10000 3.09 170 11:39 19.02.2022
5293 Clear -3 1018 56 10000 3.09 150 10:30 19.02.2022
5294 Clear -3 1019 54 10000 2.57 10 08:31 19.02.2022
5295 Clear -3 1020 51 10000 4.12 50 06:30 19.02.2022
5296 Clear 2 1014 36 10000 10.29 330 23:45 18.02.2022
5297 Clear 4 1012 36 10000 10.8 320 22:24 18.02.2022
5298 Clear 5 1011 41 10000 5.36 360 20:57 18.02.2022
5299 Clear 6 1009 45 10000 6.26 50 19:55 18.02.2022
5300 Clouds 5 1009 48 10000 12.86 320 18:50 18.02.2022
5301 Clouds 5 1009 51 10000 12.86 320 18:24 18.02.2022
5302 Clouds 5 1009 53 10000 7.6 34 17:55 18.02.2022
5303 Clouds 6 1003 59 10000 13.38 290 15:23 18.02.2022
5304 Clouds 13 996 94 10000 5.14 270 13:56 18.02.2022
5305 Clouds 14 996 79 10000 8.23 260 13:25 18.02.2022
5306 Rain 15 994 85 10000 14.4 250 12:40 18.02.2022
5307 Clouds 16 994 84 10000 10.8 200 11:55 18.02.2022
5308 Clouds 15 995 84 10000 13.38 200 10:24 18.02.2022
5309 Rain 13 1001 88 10000 8.49 360 06:58 18.02.2022
5310 Rain 13 1005 89 10000 8.49 360 05:41 18.02.2022
5311 Clouds 13 1013 71 10000 6.17 180 23:43 17.02.2022
5312 Clouds 14 1015 63 10000 12.35 200 21:50 17.02.2022
5313 Clouds 14 1015 63 10000 12.35 200 21:26 17.02.2022
5314 Clouds 14 1017 59 10000 9.77 220 20:40 17.02.2022
5315 Clouds 14 1020 64 10000 5.66 250 19:52 17.02.2022
5316 Clouds 14 1021 61 10000 4.92 360 18:54 17.02.2022
5317 Clear 13 1022 61 10000 9.77 200 17:55 17.02.2022
5318 Clear 13 1023 61 10000 9.77 220 16:43 17.02.2022
5319 Clouds 12 1024 66 10000 6.69 210 15:40 17.02.2022
5320 Clouds 9 1024 71 10000 5.14 260 14:28 17.02.2022
5321 Clouds 8 1025 79 10000 4.12 240 12:50 17.02.2022
5322 Clouds 8 1025 79 10000 4.63 270 11:30 17.02.2022
5323 Clouds 7 1026 76 10000 5.14 210 09:30 17.02.2022
5324 Clouds 6 1028 73 10000 5.66 200 06:37 17.02.2022
5325 Clear 6 1032 77 10000 3.6 150 23:21 16.02.2022
5326 Clear 6 1034 75 10000 6.17 170 22:20 16.02.2022
5327 Clear 6 1035 67 10000 7.72 170 20:21 16.02.2022
5328 Clear 6 1037 57 10000 6.69 180 18:50 16.02.2022
5329 Clear 5 1039 57 10000 4.12 170 17:54 16.02.2022
5330 Clear 4 1040 58 10000 6.17 190 16:44 16.02.2022
5331 Clear 1 1041 62 10000 5.36 360 15:21 16.02.2022
5332 Clear -1 1040 64 10000 2.24 360 13:38 16.02.2022
5333 Clear -2 1040 62 10000 3.58 360 12:21 16.02.2022
5334 Clear -2 1040 59 10000 4.47 360 11:45 16.02.2022
5335 Clear -3 1040 56 10000 4.92 360 10:34 16.02.2022
5336 Clear -3 1040 55 10000 4.47 360 09:34 16.02.2022
5337 Clear -3 1041 52 10000 3.09 200 06:43 16.02.2022
5338 Clear -2 1039 41 10000 5.14 250 00:37 16.02.2022
5339 Clear -1 1037 35 10000 5.14 270 22:34 15.02.2022
5340 Clear -1 1037 34 10000 3.6 250 21:50 15.02.2022
5341 Clear -1 1037 33 10000 3.6 250 21:29 15.02.2022
5342 Clear -1 1037 34 10000 3.09 0 20:57 15.02.2022
5343 Clear -1 1037 33 10000 4.63 340 20:22 15.02.2022
5344 Snow -2 1037 33 10000 4.63 320 19:43 15.02.2022
5345 Clear -3 1038 37 10000 3.6 290 18:25 15.02.2022
5346 Clear -3 1038 40 10000 3.6 280 17:53 15.02.2022
5347 Clear -4 1038 40 10000 4.63 310 17:28 15.02.2022
5348 Clear -6 1038 49 10000 5.66 310 15:36 15.02.2022
5349 Clear -8 1037 52 10000 2.68 322 13:57 15.02.2022
5350 Clear -9 1036 52 10000 6.69 310 13:25 15.02.2022
5351 Clear -9 1034 50 10000 5.66 290 11:41 15.02.2022
5352 Clear -9 1033 50 10000 7.2 290 10:19 15.02.2022
5353 Clear -9 1032 51 10000 8.23 310 08:42 15.02.2022
5354 Clear -8 1031 48 10000 4.63 320 06:45 15.02.2022
5355 Clear -5 1023 38 10000 7.72 300 23:35 14.02.2022
5356 Clouds -4 1021 39 10000 5.36 341 21:56 14.02.2022
5357 Clouds -4 1020 39 10000 4.02 5 20:52 14.02.2022
5358 Clear -4 1020 39 10000 8.75 290 19:49 14.02.2022
5359 Clear -4 1020 40 10000 8.75 290 19:29 14.02.2022
5360 Clouds -5 1021 44 10000 9.26 310 18:23 14.02.2022
5361 Clear -6 1021 46 10000 10.29 300 17:28 14.02.2022
5362 Clear -7 1021 48 10000 8.75 310 16:33 14.02.2022
5363 Clear -8 1020 52 10000 8.75 320 14:44 14.02.2022
5364 Clear -9 1019 55 10000 4.02 76 13:34 14.02.2022
5365 Clouds -9 1019 55 10000 4.02 294 12:58 14.02.2022
5366 Clear -9 1018 53 10000 6.17 330 12:32 14.02.2022
5367 Clear -8 1018 53 10000 9.26 320 11:38 14.02.2022
5368 Clear -8 1017 53 10000 7.72 320 10:18 14.02.2022
5369 Clear -6 1017 51 10000 8.23 320 08:18 14.02.2022
5370 Clouds -5 1017 51 10000 4.92 360 07:26 14.02.2022
5371 Snow -1 1017 82 4828 4.63 360 22:49 13.02.2022
5372 Snow -1 1017 84 2816 4.63 10 22:30 13.02.2022
5373 Snow -1 1017 86 4023 5.66 30 21:59 13.02.2022
5374 Snow -1 1017 86 4828 6.17 20 21:23 13.02.2022
5375 Mist 0 1018 85 3219 5.66 20 20:27 13.02.2022
5376 Snow 0 1019 87 3219 6.17 360 19:23 13.02.2022
5377 Rain 0 1019 89 2012 6.17 360 18:41 13.02.2022
5378 Mist 0 1021 88 4828 4.63 60 17:32 13.02.2022
5379 Mist 0 1022 90 8047 5.14 20 15:53 13.02.2022
5380 Snow 0 1022 91 1609 4.12 70 14:50 13.02.2022
5381 Snow 0 1021 89 2816 3.6 60 13:39 13.02.2022
5382 Snow -1 1022 89 2414 4.63 10 12:44 13.02.2022
5383 Snow 0 1021 85 1609 5.66 20 10:46 13.02.2022
5384 Snow 0 1021 84 3219 5.66 20 10:27 13.02.2022
5385 Snow 3 1020 61 10000 6.17 360 08:57 13.02.2022
5386 Clouds 6 1019 50 10000 7.2 340 05:27 13.02.2022
5387 Clear 10 1017 39 10000 5.14 260 00:34 13.02.2022
5388 Clouds 12 1016 38 10000 6.26 217 22:58 12.02.2022
5389 Clear 12 1015 36 10000 9.77 270 22:33 12.02.2022
5390 Clear 13 1014 34 10000 9.77 270 21:18 12.02.2022
5391 Clear 14 1013 40 10000 8.75 260 20:25 12.02.2022
5392 Clear 14 1013 42 10000 10.8 260 19:18 12.02.2022
5393 Clear 14 1013 41 10000 8.23 280 18:41 12.02.2022
5394 Clear 14 1013 41 10000 8.23 280 18:23 12.02.2022
5395 Clear 13 1014 46 10000 4.47 280 16:55 12.02.2022
5396 Clear 12 1013 47 10000 5.36 360 16:25 12.02.2022
5397 Clear 11 1013 51 10000 5.14 230 15:32 12.02.2022
5398 Clear 9 1012 54 10000 4.92 162 14:30 12.02.2022
5399 Clear 9 1011 53 10000 4.92 360 12:55 12.02.2022
5400 Clear 9 1010 49 10000 4.12 210 10:35 12.02.2022
5401 Clear 10 1010 48 10000 5.14 210 09:38 12.02.2022
5402 Clear 10 1011 48 10000 6.71 360 08:48 12.02.2022
5403 Clear 10 1011 47 10000 7.15 360 07:50 12.02.2022
5404 Clear 10 1012 48 10000 7.6 360 05:33 12.02.2022
5405 Clear 9 1013 55 10000 5.81 360 02:20 12.02.2022
5406 Clear 9 1013 57 10000 5.14 180 01:44 12.02.2022
5407 Clear 12 1012 47 10000 7.72 170 22:28 11.02.2022
5408 Clear 12 1013 48 10000 8.23 170 21:47 11.02.2022
5409 Clear 13 1013 45 10000 8.75 180 20:39 11.02.2022
5410 Clear 13 1014 38 10000 9.77 190 19:35 11.02.2022
5411 Clouds 13 1014 42 10000 4.47 130 18:59 11.02.2022
5412 Clear 11 1016 39 10000 5.66 200 17:48 11.02.2022
5413 Clear 10 1016 41 10000 5.66 200 17:22 11.02.2022
5414 Clear 7 1016 49 10000 1.34 360 15:56 11.02.2022
5415 Clear 4 1016 62 10000 3.09 160 14:43 11.02.2022
5416 Clouds 3 1016 69 10000 3.09 160 14:20 11.02.2022
5417 Clear 2 1016 66 10000 2.57 360 13:52 11.02.2022
5418 Clear 2 1016 68 10000 2.57 110 13:34 11.02.2022
5419 Clear 2 1015 63 10000 1.54 230 11:41 11.02.2022
5420 Clouds 3 1015 60 10000 0 0 09:57 11.02.2022
5421 Clouds 3 1015 58 10000 1.79 360 08:42 11.02.2022
5422 Clouds 3 1015 58 10000 1.79 360 08:42 11.02.2022
5423 Clouds 4 1015 54 10000 3.6 190 08:22 11.02.2022
5424 Clouds 4 1015 51 10000 3.09 250 06:33 11.02.2022
5425 Clear 7 1014 43 10000 6.69 260 02:26 11.02.2022
5426 Clear 8 1012 43 10000 4.02 281 00:51 11.02.2022
5427 Clouds 10 1011 36 10000 9.26 270 22:49 10.02.2022
5428 Clouds 11 1010 35 10000 8.75 250 21:45 10.02.2022
5429 Clouds 11 1009 35 10000 11.83 250 20:59 10.02.2022
5430 Clouds 11 1010 35 10000 11.83 250 20:35 10.02.2022
5431 Clouds 11 1009 35 10000 10.29 250 19:26 10.02.2022
5432 Clear 11 1010 41 10000 0.45 215 18:45 10.02.2022
5433 Clear 10 1011 56 10000 7.2 230 17:26 10.02.2022
5434 Clear 9 1011 61 10000 5.14 220 16:50 10.02.2022
5435 Clear 6 1012 71 10000 3.58 109 15:51 10.02.2022
5436 Clear 6 1012 73 10000 3.6 210 15:30 10.02.2022
5437 Fog 4 1012 79 10000 4.02 360 14:48 10.02.2022
5438 Fog 3 1012 83 10000 5.36 360 14:24 10.02.2022
5439 Fog 1 1011 85 10000 2.06 200 13:29 10.02.2022
5440 Clouds 1 1010 85 10000 3.09 60 12:45 10.02.2022
5441 Clouds 1 1010 85 10000 3.09 90 11:34 10.02.2022
5442 Clouds 2 1011 83 10000 5.36 360 10:55 10.02.2022
5443 Clouds 2 1012 85 10000 1.79 170 09:59 10.02.2022
5444 Clouds 2 1012 86 10000 3.09 300 09:24 10.02.2022
5445 Clear 2 1013 84 10000 2.57 100 07:28 10.02.2022
5446 Clouds 2 1014 83 10000 2.24 360 04:58 10.02.2022
5447 Clear 3 1015 76 10000 4.47 360 01:51 10.02.2022
5448 Clear 4 1015 73 10000 5.81 360 00:49 10.02.2022
5449 Clear 4 1015 72 10000 4.92 360 00:28 10.02.2022
5450 Clear 5 1015 65 10000 5.14 170 23:23 09.02.2022
5451 Clear 6 1015 58 10000 4.63 160 22:35 09.02.2022
5452 Clear 7 1015 53 10000 5.14 180 21:52 09.02.2022
5453 Clear 7 1016 51 10000 5.14 180 21:29 09.02.2022
5454 Clear 7 1016 48 10000 6.17 180 20:48 09.02.2022
5455 Clear 7 1016 48 10000 6.17 180 20:29 09.02.2022
5456 Clear 7 1016 48 10000 4.63 150 19:54 09.02.2022
5457 Clear 6 1017 45 10000 4.63 180 19:31 09.02.2022
5458 Clear 4 1019 49 10000 3.09 230 17:37 09.02.2022
5459 Clear 3 1019 52 10000 3.6 200 16:52 09.02.2022
5460 Clear 2 1019 59 10000 2.57 250 15:51 09.02.2022
5461 Clear 0 1020 63 10000 3.6 240 14:42 09.02.2022
5462 Clear -2 1019 66 10000 3.09 240 12:28 09.02.2022
5463 Clear -2 1018 65 10000 4.12 250 10:55 09.02.2022
5464 Clear -2 1018 65 10000 4.12 250 10:30 09.02.2022
5465 Clear -2 1019 64 10000 4.47 360 09:40 09.02.2022
5466 Clear -2 1019 64 10000 4.47 360 09:19 09.02.2022
5467 Clear -1 1019 64 10000 4.02 360 07:55 09.02.2022
5468 Clear 0 1018 62 10000 5.36 250 05:30 09.02.2022
5469 Clear 1 1017 60 10000 4.92 360 03:50 09.02.2022
5470 Clear 2 1016 59 10000 4.92 360 00:53 09.02.2022
5471 Clouds 3 1015 57 10000 9.26 310 23:33 08.02.2022
5472 Clouds 3 1014 58 10000 11.32 310 22:47 08.02.2022
5473 Clouds 3 1014 58 10000 11.32 310 22:21 08.02.2022
5474 Clouds 4 1013 56 10000 10.29 310 21:49 08.02.2022
5475 Clouds 4 1013 57 10000 10.29 310 21:21 08.02.2022
5476 Clouds 5 1012 58 10000 10.29 320 20:45 08.02.2022
5477 Clouds 6 1012 55 10000 7.15 360 19:46 08.02.2022
5478 Clear 7 1012 53 10000 6.69 270 18:48 08.02.2022
5479 Clear 6 1013 60 10000 4.63 250 17:43 08.02.2022
5480 Clear 5 1014 70 10000 3.6 250 16:30 08.02.2022
5481 Clear 3 1014 77 10000 4.12 320 15:30 08.02.2022
5482 Clear 3 1014 77 10000 4.12 320 15:30 08.02.2022
5483 Clear 2 1014 83 10000 5.14 320 14:38 08.02.2022
5484 Clouds 2 1013 87 10000 5.66 310 13:24 08.02.2022
5485 Clouds 2 1012 90 10000 5.14 320 11:55 08.02.2022
5486 Clouds 2 1012 91 10000 5.14 330 10:23 08.02.2022
5487 Clouds 2 1012 91 10000 5.14 330 10:23 08.02.2022
5488 Mist 2 1012 92 10000 3.6 340 09:45 08.02.2022
5489 Clouds 2 1013 92 10000 3.6 10 07:55 08.02.2022
5490 Rain 2 1016 92 10000 4.12 50 05:41 08.02.2022
5491 Mist 2 1017 93 6437 3.6 20 04:39 08.02.2022
5492 Rain 2 1017 92 4828 3.6 20 04:21 08.02.2022
5493 Rain 3 1018 92 8047 3.09 340 03:36 08.02.2022
5494 Rain 2 1019 93 8047 2.57 10 03:18 08.02.2022
5495 Mist 2 1019 93 9656 2.57 10 02:59 08.02.2022
5496 Mist 3 1019 93 10000 3.09 20 02:36 08.02.2022
5497 Rain 3 1020 93 10000 3.09 20 02:18 08.02.2022
5498 Mist 3 1019 93 10000 3.09 20 02:18 08.02.2022
5499 Rain 3 1020 93 10000 5.14 360 01:44 08.02.2022
5500 Mist 3 1020 93 10000 5.14 360 01:24 08.02.2022
5501 Mist 3 1020 93 4828 4.63 330 00:55 08.02.2022
5502 Mist 3 1021 93 4828 4.12 360 23:58 07.02.2022
5503 Mist 3 1021 92 4023 3.6 30 23:40 07.02.2022
5504 Mist 3 1021 93 1609 3.6 30 23:18 07.02.2022
5505 Mist 3 1021 92 2816 5.66 350 22:42 07.02.2022
5506 Mist 3 1021 92 10000 5.66 350 22:18 07.02.2022
5507 Mist 3 1021 92 3219 5.14 40 21:43 07.02.2022
5508 Mist 3 1022 92 2816 4.63 50 21:25 07.02.2022
5509 Mist 3 1022 92 6437 4.63 30 20:41 07.02.2022
5510 Mist 3 1023 92 6437 4.63 30 19:56 07.02.2022
5511 Mist 2 1023 91 6437 5.14 40 19:38 07.02.2022
5512 Mist 2 1025 90 8047 5.66 60 18:21 07.02.2022
5513 Rain 1 1027 90 4828 4.12 40 16:53 07.02.2022
5514 Rain 0 1027 89 3219 4.12 20 16:20 07.02.2022
5515 Rain 0 1028 88 4023 4.63 60 15:48 07.02.2022
5516 Clouds 0 1028 82 10000 4.63 60 13:36 07.02.2022
5517 Clouds -1 1028 82 10000 3.09 70 13:18 07.02.2022
5518 Clouds -1 1029 82 10000 0.89 124 11:58 07.02.2022
5519 Clouds -1 1029 82 10000 0.89 124 11:58 07.02.2022
5520 Clouds -1 1029 81 10000 0.45 116 11:37 07.02.2022
5521 Clouds -1 1029 82 10000 3.09 60 10:52 07.02.2022
5522 Clouds -1 1029 82 10000 0.45 74 10:32 07.02.2022
5523 Clouds -1 1030 82 6437 0.45 360 09:53 07.02.2022
5524 Snow -1 1030 79 10000 0.45 86 09:18 07.02.2022
5525 Clouds -2 1030 79 10000 0.45 97 08:39 07.02.2022
5526 Clouds -2 1031 76 10000 0.45 124 07:26 07.02.2022
5527 Clouds -2 1032 77 10000 0.45 113 06:34 07.02.2022
5528 Clear -3 1033 74 10000 0.45 110 03:48 07.02.2022
5529 Clear -2 1034 71 10000 2.06 0 00:46 07.02.2022
5530 Clear -2 1033 68 10000 0.45 147 23:49 06.02.2022
5531 Clouds -1 1033 65 10000 0.89 90 22:55 06.02.2022
5532 Clear -1 1034 61 10000 1.34 207 22:34 06.02.2022
5533 Clear -1 1035 59 10000 0.89 125 21:36 06.02.2022
5534 Clouds -1 1034 58 10000 0.45 134 20:56 06.02.2022
5535 Clouds -1 1035 57 10000 0.45 98 20:32 06.02.2022
5536 Clear -2 1036 55 10000 0.89 114 19:45 06.02.2022
5537 Clear -3 1037 52 10000 0.45 288 18:48 06.02.2022
5538 Clouds -3 1037 53 10000 0.89 151 17:58 06.02.2022
5539 Clear -4 1038 50 10000 0.89 89 17:26 06.02.2022
5540 Clear -4 1038 50 10000 0.89 133 16:48 06.02.2022
5541 Clear -6 1038 52 10000 0.89 122 15:50 06.02.2022
5542 Clear -6 1039 52 10000 0.45 131 15:27 06.02.2022
5543 Clear -7 1038 56 10000 0.45 102 14:50 06.02.2022
5544 Clear -8 1038 59 10000 0.45 113 13:51 06.02.2022
5545 Clear -8 1038 60 10000 0.45 118 13:20 06.02.2022
5546 Clear -9 1036 63 10000 1.79 32 11:39 06.02.2022
5547 Clear -9 1036 64 10000 0.89 321 10:31 06.02.2022
5548 Clear -8 1036 65 10000 3.58 9 09:26 06.02.2022
5549 Clear -8 1036 63 10000 0.89 340 08:41 06.02.2022
5550 Clear -7 1035 59 10000 1.34 292 06:19 06.02.2022
5551 Clear -7 1035 58 10000 0.89 277 04:51 06.02.2022
5552 Clear -6 1033 52 10000 0.89 288 02:25 06.02.2022
5553 Clouds -5 1031 53 10000 0.89 289 00:30 06.02.2022
5554 Clouds -4 1029 52 10000 1.34 286 23:25 05.02.2022
5555 Clouds -3 1027 52 10000 1.34 286 21:43 05.02.2022
5556 Clouds -3 1026 53 10000 0.89 273 20:26 05.02.2022
5557 Clouds -3 1026 55 10000 1.34 282 19:51 05.02.2022
5558 Clouds -3 1025 55 10000 1.34 295 19:33 05.02.2022
5559 Clouds -3 1024 56 10000 1.34 299 18:26 05.02.2022
5560 Clear -3 1024 56 10000 1.79 287 17:33 05.02.2022
5561 Clouds -5 1023 65 10000 1.54 0 15:43 05.02.2022
5562 Clear -5 1023 67 10000 4.47 304 15:25 05.02.2022
5563 Clouds -5 1020 69 10000 0.89 285 13:24 05.02.2022
5564 Clouds -5 1019 69 10000 1.34 291 12:42 05.02.2022
5565 Clouds -5 1018 72 10000 1.34 302 11:29 05.02.2022
5566 Clouds -4 1017 76 10000 2.57 0 10:43 05.02.2022
5567 Clouds -4 1017 78 10000 0.89 266 09:49 05.02.2022
5568 Clouds -4 1016 79 10000 0.89 269 08:34 05.02.2022
5569 Clouds -3 1016 83 10000 0.89 242 06:58 05.02.2022
5570 Clouds -2 1017 85 10000 0.89 269 05:44 05.02.2022
5571 Rain -1 1015 88 10000 0.89 268 01:47 05.02.2022
5572 Rain -1 1015 90 10000 1.34 268 01:18 05.02.2022
5573 Rain -1 1015 90 10000 1.34 268 01:18 05.02.2022
5574 Rain -1 1014 91 10000 5.14 40 00:36 05.02.2022
5575 Rain 0 1013 90 6437 1.34 280 23:33 04.02.2022
5576 Rain 0 1013 91 4828 1.79 271 22:37 04.02.2022
5577 Rain 1 1012 91 4828 0.89 278 21:36 04.02.2022
5578 Mist 1 1012 90 4828 0.89 298 21:18 04.02.2022
5579 Rain 1 1012 89 8047 0.89 296 20:29 04.02.2022
5580 Rain 2 1012 91 10000 4.63 60 18:35 04.02.2022
5581 Rain 2 1013 91 6437 2.06 0 16:20 04.02.2022
5582 Rain 3 1013 92 6437 0.89 264 15:18 04.02.2022
5583 Rain 3 1012 92 6437 0.89 300 14:40 04.02.2022
5584 Clouds 9 1010 95 10000 3.6 270 12:43 04.02.2022
5585 Clouds 11 1010 95 10000 5.66 280 11:44 04.02.2022
5586 Rain 11 1010 94 10000 4.12 270 10:53 04.02.2022
5587 Rain 10 1012 93 10000 4.63 280 09:35 04.02.2022
5588 Clouds 9 1014 89 10000 2.57 0 07:56 04.02.2022
5589 Rain 7 1018 96 10000 1.54 0 03:31 04.02.2022
5590 Rain 7 1019 96 10000 0 0 02:34 04.02.2022
5591 Rain 6 1021 97 8047 0 0 23:40 03.02.2022
5592 Rain 6 1021 96 10000 1.54 130 22:50 03.02.2022
5593 Rain 6 1022 97 10000 0 0 21:51 03.02.2022
5594 Rain 7 1022 96 10000 0 0 21:22 03.02.2022
5595 Mist 6 1023 95 2816 0 0 20:22 03.02.2022
5596 Mist 6 1023 97 4828 0 0 20:22 03.02.2022
5597 Mist 6 1023 97 6437 2.57 170 19:42 03.02.2022
5598 Rain 6 1023 96 6437 2.06 170 18:56 03.02.2022
5599 Mist 6 1023 97 1609 1.54 160 17:59 03.02.2022
5600 Mist 6 1025 96 2816 0 0 16:55 03.02.2022
5601 Mist 5 1025 97 9656 1.54 250 15:28 03.02.2022
5602 Rain 4 1025 96 10000 2.06 260 13:45 03.02.2022
5603 Rain 4 1025 96 10000 2.57 270 12:22 03.02.2022
5604 Clouds 4 1023 97 42 0.89 255 08:56 03.02.2022
5605 Fog 4 1025 96 805 0.45 236 07:41 03.02.2022
5606 Clouds 4 1028 89 10000 2.57 160 00:47 03.02.2022
5607 Mist 4 1028 92 10000 3.09 170 00:22 03.02.2022
5608 Clouds 5 1028 86 10000 3.6 130 22:39 02.02.2022
5609 Clouds 6 1029 82 10000 2.06 140 21:46 02.02.2022
5610 Clouds 6 1029 79 10000 0 0 21:28 02.02.2022
5611 Clouds 7 1029 75 10000 0 0 20:24 02.02.2022
5612 Clouds 6 1030 76 10000 2.06 250 19:46 02.02.2022
5613 Clouds 6 1031 75 10000 0 0 18:56 02.02.2022
5614 Clouds 6 1031 76 10000 1.54 220 18:24 02.02.2022
5615 Clouds 4 1032 78 10000 2.57 30 17:20 02.02.2022
5616 Clouds 4 1032 79 10000 1.54 30 16:56 02.02.2022
5617 Clouds 2 1032 83 10000 3.09 30 15:29 02.02.2022
5618 Clear -1 1032 83 10000 0.45 120 12:31 02.02.2022
5619 Clouds -1 1031 83 10000 3.6 40 11:49 02.02.2022
5620 Clouds -1 1031 83 10000 0.89 108 11:30 02.02.2022
5621 Clear -1 1032 80 10000 0.45 129 08:48 02.02.2022
5622 Clouds 0 1034 72 10000 0.45 97 02:44 02.02.2022
5623 Clear 2 1034 60 10000 0.89 48 22:33 01.02.2022
5624 Clear 2 1033 58 10000 0.89 280 20:51 01.02.2022
5625 Clear 2 1033 58 10000 0.45 106 19:29 01.02.2022
5626 Clear 1 1035 57 10000 0.45 170 17:34 01.02.2022
5627 Clear -1 1035 56 10000 0.45 141 16:21 01.02.2022
5628 Clear -7 1034 66 10000 1.79 66 13:27 01.02.2022
5629 Clear -7 1033 64 10000 1.34 8 12:21 01.02.2022
5630 Clouds -7 1032 67 10000 2.74 22 08:52 01.02.2022
5631 Clear -6 1030 57 10000 3.09 50 02:21 01.02.2022
5632 Clear -3 1029 49 10000 2.06 70 23:38 31.01.2022
5633 Clear -1 1028 45 10000 1.54 0 22:42 31.01.2022
5634 Clear -1 1028 45 10000 0.89 195 21:35 31.01.2022
5635 Clear -1 1028 45 10000 1.34 158 20:35 31.01.2022
5636 Clouds -1 1028 46 10000 0.89 164 19:59 31.01.2022
5637 Snow -1 1029 46 10000 0.45 134 18:47 31.01.2022
5638 Clear -2 1029 48 10000 0.89 333 18:18 31.01.2022
5639 Clear -3 1029 51 10000 1.34 210 17:24 31.01.2022
5640 Clear -4 1028 56 10000 1.34 42 16:25 31.01.2022
5641 Clouds -7 1028 65 10000 0.45 340 14:53 31.01.2022
5642 Clear -9 1025 69 10000 1.54 50 13:43 31.01.2022
5643 Clear -11 1025 71 10000 2.06 70 12:38 31.01.2022
5644 Clear -11 1024 74 10000 3.09 20 11:31 31.01.2022
5645 Clear -10 1024 67 10000 0 0 10:48 31.01.2022
5646 Clouds -9 1023 65 10000 0 0 09:38 31.01.2022
5647 Clouds -9 1024 74 10000 1.44 1 08:57 31.01.2022
5648 Clouds -9 1023 66 10000 0 0 08:38 31.01.2022
5649 Clouds -9 1023 65 10000 0 0 08:19 31.01.2022
5650 Clear -7 1023 55 10000 1.54 310 06:18 31.01.2022
5651 Clear -6 1018 52 10000 2.24 246 00:43 31.01.2022
5652 Clear -4 1016 48 10000 0.45 173 22:34 30.01.2022
5653 Clouds -4 1016 47 10000 0.45 142 21:56 30.01.2022
5654 Clear -4 1015 47 10000 0.45 202 21:37 30.01.2022
5655 Clear -3 1015 47 10000 0.45 355 21:18 30.01.2022
5656 Clear -4 1015 47 10000 0.45 141 20:43 30.01.2022
5657 Clear -4 1015 47 10000 0.89 290 20:25 30.01.2022
5658 Clear -4 1015 51 10000 0.89 201 19:24 30.01.2022
5659 Clear -5 1016 53 10000 0.45 316 18:35 30.01.2022
5660 Clear -6 1016 55 10000 0.89 71 17:53 30.01.2022
5661 Clear -6 1017 56 10000 1.34 310 17:20 30.01.2022
5662 Clear -7 1017 59 10000 0.89 282 16:37 30.01.2022
5663 Clear -8 1017 60 10000 0.89 295 16:19 30.01.2022
5664 Clear -9 1017 60 10000 0.45 344 15:49 30.01.2022
5665 Clear -9 1017 61 10000 2.24 323 15:30 30.01.2022
5666 Clear -10 1016 63 10000 0.45 105 14:45 30.01.2022
5667 Clear -11 1015 63 10000 1.79 309 12:46 30.01.2022
5668 Clear -11 1013 61 10000 3.13 316 11:53 30.01.2022
5669 Clear -11 1012 61 10000 2.68 16 10:29 30.01.2022
5670 Clear -11 1012 60 10000 2.68 4 09:50 30.01.2022
5671 Clouds -11 1012 59 10000 4.47 281 08:52 30.01.2022
5672 Clear -11 1010 53 10000 0.45 282 06:55 30.01.2022
5673 Clouds -8 1006 53 10000 4.92 319 01:56 30.01.2022
5674 Clouds -8 1006 53 10000 4.92 319 01:56 30.01.2022
5675 Clouds -8 1004 53 10000 0.89 282 00:22 30.01.2022
5676 Clouds -8 1003 63 10000 0.89 217 22:58 29.01.2022
5677 Snow -8 1003 72 4828 6.26 291 21:47 29.01.2022
5678 Clouds -8 1003 77 4828 4.47 7 21:23 29.01.2022
5679 Snow -8 1002 83 1207 4.92 305 20:28 29.01.2022
5680 Snow -8 1003 86 805 0.89 273 19:34 29.01.2022
5681 Snow -9 1004 87 805 1.34 312 18:52 29.01.2022
5682 Snow -8 1004 88 1207 1.34 269 18:18 29.01.2022
5683 Snow -8 1005 87 805 1.79 300 17:29 29.01.2022
5684 Snow -8 1006 87 805 2.24 281 15:57 29.01.2022
5685 Snow -8 1006 87 805 2.24 290 14:23 29.01.2022
5686 Snow -7 1006 87 805 1.79 286 13:42 29.01.2022
5687 Snow -7 1006 88 402 1.79 276 13:23 29.01.2022
5688 Fog -6 1007 89 805 2.24 276 11:49 29.01.2022
5689 Snow -6 1007 90 805 2.24 275 11:24 29.01.2022
5690 Snow -4 1010 90 805 1.34 294 08:43 29.01.2022
5691 Fog -2 1012 91 805 1.34 257 06:55 29.01.2022
5692 Haze 0 1017 82 9656 0.89 118 00:36 29.01.2022
5693 Haze 0 1018 81 9656 0.89 302 23:52 28.01.2022
5694 Clouds 0 1018 81 4828 0.45 130 22:50 28.01.2022
5695 Clouds 0 1018 80 4828 0.45 126 22:21 28.01.2022
5696 Clouds 1 1018 80 4023 1.34 348 21:37 28.01.2022
5697 Haze 1 1018 80 4828 1.79 350 20:30 28.01.2022
5698 Clouds 1 1019 82 2414 0.45 129 19:31 28.01.2022
5699 Clouds 0 1019 83 3219 1.34 324 18:43 28.01.2022
5700 Clouds -1 1020 83 4023 0.89 276 16:54 28.01.2022
5701 Clouds -2 1021 80 2012 0.89 306 15:20 28.01.2022
5702 Clouds -1 1021 66 4023 0.89 239 13:52 28.01.2022
5703 Clouds -1 1021 56 10000 0.45 198 12:30 28.01.2022
5704 Clouds -1 1021 56 10000 0.45 242 11:25 28.01.2022
5705 Clouds -1 1021 56 10000 0.89 216 09:52 28.01.2022
5706 Clouds -1 1022 52 10000 1.79 228 08:22 28.01.2022
5707 Clouds -1 1023 50 10000 0.45 62 07:34 28.01.2022
5708 Clouds -2 1025 48 10000 2.24 226 03:57 28.01.2022
5709 Clear -2 1025 49 10000 1.79 224 03:20 28.01.2022
5710 Clear -2 1025 50 10000 1.79 224 02:22 28.01.2022
5711 Clear -2 1025 50 10000 1.79 224 02:22 28.01.2022
5712 Clear -2 1026 50 10000 1.79 250 01:31 28.01.2022
5713 Clouds 0 1025 51 10000 2.68 203 22:52 27.01.2022
5714 Clouds 0 1026 51 10000 0.89 64 21:47 27.01.2022
5715 Clouds 0 1026 52 10000 0.45 75 21:29 27.01.2022
5716 Clouds 0 1027 52 10000 0.45 56 20:26 27.01.2022
5717 Clouds -1 1030 50 10000 0.45 2 18:40 27.01.2022
5718 Clear -2 1031 49 10000 0.45 130 17:55 27.01.2022
5719 Clear -6 1032 56 10000 0.45 114 14:42 27.01.2022
5720 Clear -8 1033 58 10000 0.45 72 13:35 27.01.2022
5721 Clear -8 1032 57 10000 0.89 136 12:39 27.01.2022
5722 Clear -8 1031 54 10000 0.45 104 10:23 27.01.2022
5723 Clear -8 1032 52 10000 0.45 185 08:52 27.01.2022
5724 Clear -7 1032 50 10000 0.89 108 08:30 27.01.2022
5725 Clear -7 1032 50 10000 0.45 100 08:30 27.01.2022
5726 Clear -7 1032 45 10000 1.34 342 05:59 27.01.2022
5727 Clear -5 1031 38 10000 0.45 264 02:36 27.01.2022
5728 Clear -4 1029 34 10000 2.24 286 23:32 26.01.2022
5729 Clouds -3 1027 33 10000 0.89 291 21:57 26.01.2022
5730 Clear -2 1027 33 10000 0.89 332 21:33 26.01.2022
5731 Clear -2 1027 35 10000 0.89 301 20:36 26.01.2022
5732 Clouds -2 1026 36 10000 0.89 294 19:59 26.01.2022
5733 Clear -3 1026 35 10000 1.34 289 19:20 26.01.2022
5734 Clear -3 1027 35 10000 1.34 288 18:45 26.01.2022
5735 Clear -3 1028 38 10000 1.34 292 17:50 26.01.2022
5736 Clear -4 1028 40 10000 1.34 281 17:22 26.01.2022
5737 Clear -4 1028 45 10000 1.79 274 16:31 26.01.2022
5738 Clear -5 1028 49 10000 0.89 281 15:49 26.01.2022
5739 Clear -5 1028 49 10000 0.89 281 15:49 26.01.2022
5740 Clear -6 1027 58 10000 0.89 280 13:58 26.01.2022
5741 Clear -6 1025 55 10000 0.89 277 11:48 26.01.2022
5742 Clear -5 1024 53 10000 0.89 279 10:28 26.01.2022
5743 Clear -5 1024 52 10000 0.89 280 09:46 26.01.2022
5744 Clear -4 1023 50 10000 1.34 277 07:44 26.01.2022
5745 Clear 0 1020 55 10000 0.89 287 01:54 26.01.2022
5746 Clouds 2 1018 55 10000 2.68 330 23:57 25.01.2022
5747 Clouds 4 1017 53 10000 0.89 250 22:57 25.01.2022
5748 Clouds 5 1015 52 10000 0.45 284 22:21 25.01.2022
5749 Clouds 5 1016 52 10000 1.34 287 21:58 25.01.2022
5750 Smoke 5 1014 54 10000 0.45 323 20:46 25.01.2022
5751 Smoke 5 1014 54 10000 0.45 323 20:46 25.01.2022
5752 Smoke 5 1015 54 10000 2.24 28 20:23 25.01.2022
5753 Smoke 5 1014 58 10000 0.45 183 19:50 25.01.2022
5754 Smoke 4 1015 65 10000 0.45 252 18:37 25.01.2022
5755 Smoke 4 1015 67 10000 2.24 282 17:44 25.01.2022
5756 Smoke 3 1015 69 10000 1.34 307 16:35 25.01.2022
5757 Smoke 2 1014 70 10000 2.24 318 15:49 25.01.2022
5758 Smoke 2 1014 71 10000 0.89 313 15:31 25.01.2022
5759 Clouds 2 1014 73 10000 1.79 318 14:57 25.01.2022
5760 Haze 0 1012 75 10000 0.89 276 13:42 25.01.2022
5761 Haze 2 1011 72 9656 0.45 68 10:43 25.01.2022
5762 Clouds 2 1010 71 10000 0.45 270 08:37 25.01.2022
5763 Clouds 2 1010 71 10000 0.45 7 07:29 25.01.2022
5764 Clouds 2 1011 71 10000 0.45 127 06:49 25.01.2022
5765 Clouds 1 1011 68 10000 0.45 78 05:22 25.01.2022
5766 Clouds 0 1013 63 10000 1.79 180 23:37 24.01.2022
5767 Clouds 0 1012 62 10000 0.89 204 23:18 24.01.2022
5768 Clouds 0 1012 62 10000 1.79 180 22:59 24.01.2022
5769 Clouds 0 1012 61 10000 1.34 100 22:41 24.01.2022
5770 Clouds 0 1012 60 10000 0.89 206 21:53 24.01.2022
5771 Clouds 0 1012 60 10000 1.34 168 21:29 24.01.2022
5772 Clouds 0 1013 59 10000 0.45 306 20:30 24.01.2022
5773 Clouds 0 1013 59 10000 1.79 336 19:50 24.01.2022
5774 Clouds 0 1013 59 10000 0.89 336 19:24 24.01.2022
5775 Clouds -1 1014 61 10000 1.34 252 18:18 24.01.2022
5776 Clouds -2 1014 63 10000 0.89 272 17:24 24.01.2022
5777 Clouds -2 1014 66 10000 0.89 297 16:55 24.01.2022
5778 Clouds -2 1014 68 10000 0.89 290 16:19 24.01.2022
5779 Clouds -3 1014 75 10000 0.89 271 14:43 24.01.2022
5780 Haze -2 1012 78 9656 0.89 299 13:24 24.01.2022
5781 Haze -2 1011 81 6437 0.89 300 12:23 24.01.2022
5782 Mist -2 1010 82 10000 1.34 218 10:30 24.01.2022
5783 Clouds -1 1010 82 10000 0.89 258 09:48 24.01.2022
5784 Mist -1 1010 83 10000 0.89 288 08:41 24.01.2022
5785 Mist -1 1009 83 10000 0.45 294 06:41 24.01.2022
5786 Clouds 0 1010 69 10000 1.79 328 01:31 24.01.2022
5787 Clouds 1 1010 57 10000 1.79 288 00:38 24.01.2022
5788 Clouds 1 1010 53 10000 0.89 330 00:20 24.01.2022
5789 Clouds 2 1009 45 10000 0.45 278 22:37 23.01.2022
5790 Clouds 2 1009 43 10000 0.45 142 21:50 23.01.2022
5791 Clouds 2 1009 43 10000 0.45 353 21:26 23.01.2022
5792 Clouds 2 1009 43 10000 0.45 109 20:48 23.01.2022
5793 Clouds 2 1010 44 10000 0.45 163 19:54 23.01.2022
5794 Clouds 2 1011 45 10000 0.45 64 18:52 23.01.2022
5795 Clouds 1 1013 47 10000 0.45 6 17:50 23.01.2022
5796 Clouds -1 1014 48 10000 0.45 177 16:48 23.01.2022
5797 Clouds -3 1015 49 10000 0.45 182 15:18 23.01.2022
5798 Clear -4 1016 50 10000 0.45 254 14:32 23.01.2022
5799 Clear -5 1016 50 10000 0.45 115 13:27 23.01.2022
5800 Clear -5 1016 49 10000 0.45 294 12:36 23.01.2022
5801 Clear -5 1016 48 10000 0.45 18 12:18 23.01.2022
5802 Clear -5 1016 47 10000 0.45 169 11:24 23.01.2022
5803 Clear -5 1017 48 10000 1.34 252 10:57 23.01.2022
5804 Clouds -5 1017 46 10000 0.45 300 10:21 23.01.2022
5805 Clouds -4 1018 45 10000 0.45 92 09:22 23.01.2022
5806 Clouds -4 1020 50 10000 0.45 276 05:59 23.01.2022
5807 Clear -4 1021 54 10000 1.34 354 03:20 23.01.2022
5808 Clear -4 1022 57 10000 0.89 204 01:36 23.01.2022
5809 Clear -3 1023 55 10000 0.45 345 00:42 23.01.2022
5810 Clouds -3 1024 55 10000 0.45 264 23:57 22.01.2022
5811 Clear -2 1024 51 10000 1.34 294 22:48 22.01.2022
5812 Clear -1 1024 48 10000 1.79 312 22:19 22.01.2022
5813 Clear -1 1025 51 10000 0.45 247 20:29 22.01.2022
5814 Clear -2 1026 51 10000 0.45 54 19:37 22.01.2022
5815 Clear -3 1027 52 10000 0.45 160 18:37 22.01.2022
5816 Clear -3 1027 52 10000 0.45 160 18:37 22.01.2022
5817 Clouds -4 1029 52 10000 0.89 288 17:45 22.01.2022
5818 Clear -5 1030 54 10000 0.89 281 17:19 22.01.2022
5819 Clear -5 1030 55 10000 0.45 264 16:54 22.01.2022
5820 Clear -8 1031 55 10000 2.24 0 15:45 22.01.2022
5821 Clear -10 1031 57 10000 0.45 178 14:42 22.01.2022
5822 Clear -11 1031 56 10000 0.45 255 13:28 22.01.2022
5823 Clear -11 1031 54 10000 0.45 112 12:37 22.01.2022
5824 Clear -11 1031 54 10000 0.45 138 12:19 22.01.2022
5825 Clouds -10 1031 54 10000 0.89 221 10:54 22.01.2022
5826 Clear -10 1031 53 10000 0.89 178 10:23 22.01.2022
5827 Clouds -10 1032 53 10000 0.45 191 08:56 22.01.2022
5828 Clear -9 1032 52 10000 0.89 218 08:38 22.01.2022
5829 Clear -8 1034 50 10000 0.89 165 06:46 22.01.2022
5830 Clear -7 1035 42 10000 2.68 42 02:40 22.01.2022
5831 Clear -6 1034 42 10000 0.45 199 23:50 21.01.2022
5832 Clear -6 1034 42 10000 0.45 149 23:21 21.01.2022
5833 Clear -5 1034 40 10000 0.45 216 21:34 21.01.2022
5834 Clear -6 1034 42 10000 0.89 272 19:35 21.01.2022
5835 Clouds -7 1034 47 10000 0.89 271 17:53 21.01.2022
5836 Clear -9 1035 50 10000 1.34 274 16:37 21.01.2022
5837 Clear -9 1035 52 10000 1.79 276 15:23 21.01.2022
5838 Clear -10 1033 55 10000 0.89 270 12:50 21.01.2022
5839 Clear -9 1031 54 10000 0.89 277 11:29 21.01.2022
5840 Clouds -9 1031 54 10000 1.34 275 10:51 21.01.2022
5841 Clear -9 1031 54 10000 1.34 275 09:24 21.01.2022
5842 Clear -8 1030 53 10000 2.24 286 08:20 21.01.2022
5843 Clear -5 1028 50 10000 0.89 275 04:36 21.01.2022
5844 Clear 0 1023 51 10000 0.89 285 22:53 20.01.2022
5845 Clear 1 1022 56 10000 0.89 277 21:49 20.01.2022
5846 Clear 1 1021 57 10000 1.34 311 21:28 20.01.2022
5847 Clouds 1 1021 70 10000 0.89 271 19:56 20.01.2022
5848 Clouds 1 1021 73 10000 0.89 102 19:19 20.01.2022
5849 Snow 0 1021 89 1207 1.34 315 17:46 20.01.2022
5850 Mist 0 1021 90 1207 0.89 294 16:35 20.01.2022
5851 Snow 1 1020 89 2816 1.34 268 15:40 20.01.2022
5852 Rain 2 1019 89 6437 1.79 12 14:40 20.01.2022
5853 Rain 3 1018 90 9656 0.89 300 13:21 20.01.2022
5854 Rain 4 1017 89 10000 0.89 294 12:31 20.01.2022
5855 Rain 4 1016 86 9656 0.89 270 11:20 20.01.2022
5856 Rain 4 1016 81 10000 0.45 351 10:37 20.01.2022
5857 Rain 6 1016 62 10000 0.89 296 09:29 20.01.2022
5858 Clouds 6 1015 59 10000 0.45 276 07:33 20.01.2022
5859 Clouds 7 1015 52 10000 0.45 13 00:43 20.01.2022
5860 Clear 8 1014 46 10000 0.45 91 22:52 19.01.2022
5861 Clear 9 1015 44 10000 0.45 316 21:48 19.01.2022
5862 Clear 9 1015 44 10000 2.24 218 21:23 19.01.2022
5863 Clear 9 1015 43 10000 0.45 2 20:46 19.01.2022
5864 Clear 8 1016 45 10000 0.45 79 19:42 19.01.2022
5865 Clear 6 1017 53 10000 0.45 105 18:18 19.01.2022
5866 Clear 5 1018 58 10000 0.45 107 17:44 19.01.2022
5867 Clear 4 1020 62 10000 0.89 63 16:46 19.01.2022
5868 Clouds 1 1021 67 10000 0.45 86 14:42 19.01.2022
5869 Clouds -1 1021 66 10000 0.45 47 12:41 19.01.2022
5870 Clear -1 1021 71 10000 0.45 153 11:39 19.01.2022
5871 Clear -2 1022 70 10000 0.45 288 10:20 19.01.2022
5872 Clear -2 1022 69 10000 1.34 121 09:34 19.01.2022
5873 Clear -3 1023 65 10000 0.45 244 06:35 19.01.2022
5874 Clear -1 1021 54 10000 0.45 293 02:38 19.01.2022
5875 Clouds 1 1018 44 10000 0.89 284 23:19 18.01.2022
5876 Clouds 2 1016 42 10000 1.34 249 22:19 18.01.2022
5877 Clouds 3 1015 41 10000 1.79 306 20:58 18.01.2022
5878 Clouds 2 1014 43 10000 0.89 298 19:54 18.01.2022
5879 Clouds 2 1013 44 10000 1.34 194 19:36 18.01.2022
5880 Clouds 2 1012 45 10000 0.89 292 18:51 18.01.2022
5881 Clouds 2 1012 46 10000 1.34 303 17:58 18.01.2022
5882 Clouds 2 1012 50 10000 5.36 288 16:40 18.01.2022
5883 Clouds 1 1011 56 10000 0.89 260 15:41 18.01.2022
5884 Clouds 1 1010 57 10000 0.89 267 15:21 18.01.2022
5885 Clouds -1 1006 59 10000 0.89 311 12:33 18.01.2022
5886 Clouds -1 1004 58 10000 1.34 331 10:47 18.01.2022
5887 Clouds -1 1002 54 10000 1.34 29 08:59 18.01.2022
5888 Clouds 1 1000 61 10000 1.34 178 07:51 18.01.2022
5889 Clouds 2 992 71 10000 0.89 119 02:34 18.01.2022
5890 Clouds 2 988 76 10000 0.89 98 23:39 17.01.2022
5891 Clouds 3 988 72 10000 0.89 86 22:27 17.01.2022
5892 Clouds 3 987 74 10000 0.89 90 21:35 17.01.2022
5893 Clouds 3 986 76 10000 0.89 85 20:24 17.01.2022
5894 Clouds 3 986 79 10000 0.45 47 18:30 17.01.2022
5895 Clouds 3 986 81 10000 0.89 23 17:44 17.01.2022
5896 Mist 4 986 82 10000 0.45 95 16:44 17.01.2022
5897 Rain 4 986 86 8047 0.45 25 15:22 17.01.2022
5898 Clouds 4 986 84 10000 0.89 70 14:56 17.01.2022
5899 Clouds 6 986 82 10000 0.89 58 13:26 17.01.2022
5900 Rain 6 986 85 10000 0.89 43 12:56 17.01.2022
5901 Mist 5 987 92 8047 0.89 105 11:49 17.01.2022
5902 Rain 6 989 94 2414 1.79 99 10:25 17.01.2022
5903 Rain 6 989 94 2414 1.79 99 10:25 17.01.2022
5904 Rain 6 991 92 4023 1.79 92 09:34 17.01.2022
5905 Rain 5 998 91 4828 2.68 103 07:43 17.01.2022
5906 Rain 4 1000 92 4023 2.24 109 07:18 17.01.2022
5907 Snow -1 1018 78 10000 0.89 138 00:56 17.01.2022
5908 Clouds -3 1022 78 10000 4.02 40 22:30 16.01.2022
5909 Clouds -3 1025 67 10000 0.89 133 20:36 16.01.2022
5910 Clouds -5 1027 65 10000 0.45 305 18:53 16.01.2022
5911 Clouds -6 1028 63 10000 0.45 164 17:59 16.01.2022
5912 Clouds -7 1029 61 10000 0.45 150 17:23 16.01.2022
5913 Clouds -7 1030 61 10000 0.45 170 16:38 16.01.2022
5914 Clear -10 1031 57 10000 0.45 120 14:50 16.01.2022
5915 Clear -11 1031 60 10000 0.45 116 14:27 16.01.2022
5916 Clear -12 1030 56 10000 0.45 150 12:49 16.01.2022
5917 Clear -12 1029 56 10000 0.89 122 11:43 16.01.2022
5918 Clear -11 1029 57 10000 0.45 141 10:55 16.01.2022
5919 Clear -12 1029 57 10000 0.45 269 10:26 16.01.2022
5920 Clear -11 1029 57 10000 0.45 244 09:52 16.01.2022
5921 Clear -12 1029 57 10000 0.45 180 09:22 16.01.2022
5922 Clear -12 1030 56 10000 0.89 277 08:38 16.01.2022
5923 Clear -9 1029 49 10000 0.89 284 03:21 16.01.2022
5924 Clear -8 1028 40 10000 0.89 6 23:50 15.01.2022
5925 Clear -7 1027 37 10000 0.89 271 22:19 15.01.2022
5926 Clear -7 1026 36 10000 0.89 285 21:19 15.01.2022
5927 Clear -7 1026 35 10000 0.89 283 20:40 15.01.2022
5928 Clear -7 1026 36 10000 0.89 275 19:30 15.01.2022
5929 Clear -8 1026 38 10000 0.89 277 18:45 15.01.2022
5930 Clear -9 1026 42 10000 1.34 280 17:29 15.01.2022
5931 Clouds -10 1025 51 10000 1.34 280 15:59 15.01.2022
5932 Clouds -12 1024 55 10000 2.24 336 13:56 15.01.2022
5933 Clear -11 1022 55 10000 4.02 340 12:18 15.01.2022
5934 Clear -10 1019 55 10000 0.89 269 10:38 15.01.2022
5935 Smoke -8 1017 58 10000 1.34 290 08:31 15.01.2022
5936 Clouds 1 1011 64 10000 1.79 277 00:35 15.01.2022
5937 Clouds 5 1009 62 10000 1.34 277 21:52 14.01.2022
5938 Clouds 5 1009 62 10000 1.34 277 21:52 14.01.2022
5939 Clear 5 1008 60 10000 2.24 281 20:41 14.01.2022
5940 Clear 6 1008 60 10000 1.79 279 20:21 14.01.2022
5941 Clear 6 1008 62 10000 1.79 281 18:49 14.01.2022
5942 Clear 6 1008 62 10000 2.24 278 18:20 14.01.2022
5943 Clear 6 1009 67 10000 2.24 283 16:50 14.01.2022
5944 Clear 4 1009 68 10000 2.24 283 15:39 14.01.2022
5945 Clear 3 1009 71 10000 1.79 295 14:42 14.01.2022
5946 Clear 3 1009 77 10000 3.58 53 13:36 14.01.2022
5947 Clear 3 1009 80 10000 0.89 30 12:28 14.01.2022
5948 Clouds 3 1009 81 10000 0.89 318 10:53 14.01.2022
5949 Clouds 3 1010 82 10000 1.79 48 09:44 14.01.2022
5950 Clouds 3 1010 80 10000 0.89 239 08:44 14.01.2022
5951 Clear 3 1011 76 10000 0.89 158 06:45 14.01.2022
5952 Clear 3 1014 74 10000 2.24 18 01:20 14.01.2022
5953 Clear 5 1013 72 10000 0.45 120 23:19 13.01.2022
5954 Clear 7 1014 62 10000 2.06 90 21:38 13.01.2022
5955 Clear 7 1014 59 10000 2.06 90 21:19 13.01.2022
5956 Clear 7 1015 49 10000 2.57 0 19:40 13.01.2022
5957 Clear 7 1015 50 10000 2.57 0 19:22 13.01.2022
5958 Clear 7 1015 50 10000 2.57 0 19:22 13.01.2022
5959 Clouds 6 1016 59 10000 1.19 12 17:52 13.01.2022
5960 Clouds 4 1018 62 10000 1.79 301 16:21 13.01.2022
5961 Clouds 2 1018 65 10000 0.89 312 15:37 13.01.2022
5962 Clouds 1 1018 71 10000 1.54 310 14:46 13.01.2022
5963 Clouds -1 1017 75 10000 0.89 276 12:45 13.01.2022
5964 Clear 0 1017 73 10000 1.54 40 10:25 13.01.2022
5965 Clear -1 1018 69 10000 0.45 223 09:20 13.01.2022
5966 Clear -1 1018 69 10000 0.45 223 09:20 13.01.2022
5967 Clouds -1 1018 72 10000 0.45 0 08:27 13.01.2022
5968 Clouds -1 1019 69 10000 0.89 186 07:24 13.01.2022
5969 Clouds -1 1020 65 10000 1.34 224 05:59 13.01.2022
5970 Clouds 0 1020 62 10000 5.36 228 05:19 13.01.2022
5971 Clouds 0 1021 61 10000 3.58 180 02:33 13.01.2022
5972 Clouds 1 1020 59 10000 4.47 201 00:55 13.01.2022
5973 Clouds 2 1019 54 10000 0.89 276 23:49 12.01.2022
5974 Clouds 2 1019 54 10000 0.89 276 23:49 12.01.2022
5975 Clear 3 1019 52 10000 3.58 198 23:24 12.01.2022
5976 Clear 4 1019 49 10000 1.34 290 21:58 12.01.2022
5977 Clear 4 1019 48 10000 1.34 276 21:23 12.01.2022
5978 Clear 4 1019 47 10000 0.45 120 20:57 12.01.2022
5979 Clear 4 1020 47 10000 4.47 313 19:55 12.01.2022
5980 Clear 3 1021 51 10000 0.45 145 18:43 12.01.2022
5981 Clear 2 1021 54 10000 0.45 148 17:50 12.01.2022
5982 Clear 0 1023 58 10000 0.89 30 16:39 12.01.2022
5983 Clear -3 1024 59 10000 0.89 22 14:49 12.01.2022
5984 Clear -4 1025 59 10000 0.45 106 13:34 12.01.2022
5985 Clear -5 1026 62 10000 0.45 6 12:34 12.01.2022
5986 Clear -7 1030 52 10000 0.45 348 08:50 12.01.2022
5987 Clouds -7 1031 52 10000 0.45 110 07:52 12.01.2022
5988 Clear -7 1031 51 10000 0.45 64 07:32 12.01.2022
5989 Clear -8 1035 40 10000 1.34 330 01:26 12.01.2022
5990 Clear -7 1035 38 10000 1.79 288 23:25 11.01.2022
5991 Clear -7 1034 37 10000 0.45 306 22:24 11.01.2022
5992 Clear -6 1033 37 10000 1.34 286 21:28 11.01.2022
5993 Clear -6 1033 37 10000 0.89 292 20:35 11.01.2022
5994 Clouds -7 1032 41 10000 1.34 276 18:52 11.01.2022
5995 Clear -8 1034 42 10000 0.89 299 17:46 11.01.2022
5996 Clear -8 1034 42 10000 1.34 281 16:39 11.01.2022
5997 Clear -8 1034 43 10000 1.79 294 16:18 11.01.2022
5998 Clear -9 1032 47 10000 0.89 261 14:48 11.01.2022
5999 Clear -9 1032 48 10000 1.79 289 14:30 11.01.2022
6000 Clear -9 1031 51 10000 1.34 283 13:46 11.01.2022
6001 Clear -9 1031 52 10000 0.89 204 13:25 11.01.2022
6002 Clear -8 1030 53 10000 8.05 302 12:24 11.01.2022
6003 Clear -8 1027 48 10000 0.89 281 10:31 11.01.2022
6004 Clouds -6 1024 60 10000 1.34 309 07:50 11.01.2022
6005 Clouds -4 1021 56 10000 6.71 264 03:51 11.01.2022
6006 Clouds -3 1021 48 10000 4.47 269 00:27 11.01.2022
6007 Clear -3 1021 47 10000 7.6 278 23:39 10.01.2022
6008 Clouds -2 1020 44 10000 8.05 274 22:20 10.01.2022
6009 Clouds -2 1020 44 10000 9.39 257 21:57 10.01.2022
6010 Clouds -2 1020 43 10000 0.89 314 21:33 10.01.2022
6011 Clouds -1 1019 43 10000 1.34 308 20:59 10.01.2022
6012 Clouds -1 1019 43 10000 0.89 218 20:41 10.01.2022
6013 Clouds -1 1019 42 10000 0.89 309 20:19 10.01.2022
6014 Clouds -1 1019 41 10000 0.89 318 19:38 10.01.2022
6015 Clouds -1 1019 40 10000 1.34 285 19:19 10.01.2022
6016 Clouds -1 1020 42 10000 0.89 305 18:46 10.01.2022
6017 Clear -2 1021 45 10000 1.34 281 16:48 10.01.2022
6018 Clear -2 1022 46 10000 9.39 310 16:26 10.01.2022
6019 Clouds -2 1021 51 10000 0.89 299 14:43 10.01.2022
6020 Clouds -2 1020 53 10000 0.89 235 13:35 10.01.2022
6021 Clouds 0 1018 54 10000 0.89 302 11:56 10.01.2022
6022 Clouds 1 1017 58 10000 10.28 304 10:49 10.01.2022
6023 Clouds 2 1017 69 10000 5.36 360 09:40 10.01.2022
6024 Clouds 4 1015 87 10000 0.45 98 05:52 10.01.2022
6025 Rain 3 1015 90 8047 0.45 107 02:38 10.01.2022
6026 Rain 3 1016 90 9656 0.45 43 01:21 10.01.2022
6027 Rain 3 1016 87 6437 0.45 111 00:21 10.01.2022
6028 Rain 3 1017 82 10000 0.45 21 22:47 09.01.2022
6029 Rain 4 1017 81 10000 0.45 69 22:21 09.01.2022
6030 Clouds 4 1017 79 10000 0.45 75 21:41 09.01.2022
6031 Rain 4 1017 78 10000 0.45 65 21:22 09.01.2022
6032 Rain 4 1018 75 10000 0.45 56 20:47 09.01.2022
6033 Clouds 4 1018 74 10000 0.45 81 20:29 09.01.2022
6034 Clouds 4 1019 73 10000 0.45 93 19:42 09.01.2022
6035 Clouds 4 1020 73 10000 0.45 80 19:21 09.01.2022
6036 Clouds 4 1020 72 10000 0.45 44 18:49 09.01.2022
6037 Clouds 3 1020 72 10000 0.45 43 18:30 09.01.2022
6038 Clouds 3 1023 71 10000 0.89 65 17:30 09.01.2022
6039 Clouds 3 1024 70 10000 0.45 23 16:51 09.01.2022
6040 Clouds 2 1025 71 10000 0.45 120 15:52 09.01.2022
6041 Clouds 2 1026 70 10000 0.45 66 15:33 09.01.2022
6042 Clouds 1 1026 72 10000 0.45 16 14:40 09.01.2022
6043 Clouds 0 1027 72 10000 0.89 84 13:50 09.01.2022
6044 Clouds 0 1028 71 10000 0.45 18 12:44 09.01.2022
6045 Clouds -1 1029 69 10000 0.45 8 11:48 09.01.2022
6046 Clouds -2 1031 65 10000 0.89 37 09:59 09.01.2022
6047 Clouds -2 1032 64 10000 0.45 41 09:41 09.01.2022
6048 Clear -3 1034 61 10000 0.45 100 08:30 09.01.2022
6049 Clear -4 1036 51 10000 4.47 219 02:48 09.01.2022
6050 Clear -4 1037 52 10000 2.68 231 01:21 09.01.2022
6051 Clear -3 1036 45 10000 0.45 158 23:38 08.01.2022
6052 Clouds -2 1036 46 10000 0.89 258 22:59 08.01.2022
6053 Clear -1 1036 40 10000 1.79 319 21:33 08.01.2022
6054 Clouds -1 1035 41 10000 0.45 294 20:58 08.01.2022
6055 Clear -1 1035 41 10000 0.45 277 20:39 08.01.2022
6056 Clear -1 1036 41 10000 0.89 283 20:19 08.01.2022
6057 Clear -2 1035 48 10000 0.89 304 18:21 08.01.2022
6058 Clear -4 1036 50 10000 0.89 259 17:21 08.01.2022
6059 Clear -5 1036 57 10000 8.49 295 15:51 08.01.2022
6060 Clear -6 1034 60 10000 0.89 273 14:43 08.01.2022
6061 Clear -7 1033 62 10000 5.36 307 13:25 08.01.2022
6062 Clear -6 1030 62 10000 3.58 290 11:25 08.01.2022
6063 Clear -6 1029 60 10000 7.15 293 10:25 08.01.2022
6064 Clear -6 1027 59 10000 6.71 300 09:47 08.01.2022
6065 Clear -5 1024 57 10000 1.34 319 07:21 08.01.2022
6066 Clear -3 1020 63 10000 0.89 336 02:50 08.01.2022
6067 Snow -2 1017 64 10000 0.89 59 00:41 08.01.2022
6068 Clouds -1 1014 56 10000 1.34 46 22:47 07.01.2022
6069 Clouds 0 1011 57 10000 1.34 322 20:58 07.01.2022
6070 Clouds 0 1010 59 10000 1.34 316 20:19 07.01.2022
6071 Rain 1 1010 62 10000 1.79 301 19:23 07.01.2022
6072 Haze 1 1009 63 8047 0.89 286 18:44 07.01.2022
6073 Snow 0 1010 72 4828 0.89 122 17:28 07.01.2022
6074 Haze -1 1010 81 4828 0.89 255 16:39 07.01.2022
6075 Snow -2 1009 92 805 5.81 328 14:29 07.01.2022
6076 Snow -2 1008 94 805 4.47 311 13:41 07.01.2022
6077 Snow -2 1008 93 805 4.47 318 12:49 07.01.2022
6078 Snow -2 1008 91 805 6.26 308 12:49 07.01.2022
6079 Snow -2 1008 90 402 0.45 118 09:46 07.01.2022
6080 Clouds 1 1013 52 10000 0.89 286 02:57 07.01.2022
6081 Clear 1 1015 51 10000 1.34 269 01:56 07.01.2022
6082 Clear 1 1015 51 10000 2.24 253 01:28 07.01.2022
6083 Clouds 1 1015 51 10000 2.24 302 00:59 07.01.2022
6084 Clear 1 1015 49 10000 3.58 282 00:28 07.01.2022
6085 Clear 3 1012 43 10000 0.45 285 21:39 06.01.2022
6086 Clear 4 1013 43 10000 0.45 197 20:25 06.01.2022
6087 Clouds 4 1013 44 10000 0.45 235 19:54 06.01.2022
6088 Clear 3 1013 43 10000 0.45 47 19:28 06.01.2022
6089 Clear 3 1013 46 10000 0.89 136 17:51 06.01.2022
6090 Clear 3 1013 47 10000 0.89 100 17:19 06.01.2022
6091 Clear 2 1013 50 10000 8.05 275 16:21 06.01.2022
6092 Clear 2 1012 53 10000 5.36 274 15:40 06.01.2022
6093 Clear 2 1013 52 10000 7.15 281 15:19 06.01.2022
6094 Clear 2 1011 57 10000 0.89 101 14:19 06.01.2022
6095 Clouds 2 1010 70 10000 0.45 261 12:59 06.01.2022
6096 Clouds 2 1009 82 10000 2.24 276 11:58 06.01.2022
6097 Clear 2 1009 83 10000 1.79 278 11:29 06.01.2022
6098 Clear 3 1007 85 10000 0.45 276 09:33 06.01.2022
6099 Clouds 5 1007 86 10000 0.89 246 01:57 06.01.2022
6100 Clouds 6 1007 87 10000 3.13 169 23:54 05.01.2022
6101 Clouds 7 1008 87 10000 0.89 195 23:21 05.01.2022
6102 Clouds 7 1009 88 10000 0.45 187 22:41 05.01.2022
6103 Clouds 7 1008 89 10000 1.79 141 21:59 05.01.2022
6104 Clouds 7 1008 88 10000 0.45 84 21:23 05.01.2022
6105 Clouds 6 1009 89 10000 0.45 60 20:30 05.01.2022
6106 Clouds 5 1010 90 10000 0.45 61 19:29 05.01.2022
6107 Mist 4 1012 90 6437 0.45 45 18:20 05.01.2022
6108 Rain 3 1015 90 8047 0.45 69 16:56 05.01.2022
6109 Rain 2 1016 90 9656 0.45 11 16:18 05.01.2022
6110 Rain 1 1016 90 8047 3.58 139 14:56 05.01.2022
6111 Rain 0 1018 84 10000 0.45 355 13:34 05.01.2022
6112 Rain -1 1020 80 10000 2.24 287 12:20 05.01.2022
6113 Clear -1 1024 70 10000 2.68 238 08:35 05.01.2022
6114 Clear -2 1025 66 10000 0.45 84 06:46 05.01.2022
6115 Clear -1 1028 54 10000 3.13 207 01:46 05.01.2022
6116 Clouds 0 1028 48 10000 4.47 188 23:43 04.01.2022
6117 Clear 0 1028 48 10000 3.58 205 23:21 04.01.2022
6118 Clear 1 1028 45 10000 3.58 215 21:41 04.01.2022
6119 Clear 1 1028 47 10000 0.45 36 20:42 04.01.2022
6120 Clear 0 1028 48 10000 0.45 70 18:39 04.01.2022
6121 Clear -2 1030 51 10000 2.24 227 17:33 04.01.2022
6122 Clouds -4 1031 54 10000 0.45 305 16:38 04.01.2022
6123 Clear -5 1031 60 10000 2.68 328 15:25 04.01.2022
6124 Clear -6 1030 64 10000 0.45 263 14:38 04.01.2022
6125 Clear -7 1030 64 10000 4.92 281 13:56 04.01.2022
6126 Clear -7 1029 63 10000 0.89 296 12:23 04.01.2022
6127 Clear -7 1028 59 10000 0.45 253 10:24 04.01.2022
6128 Clear -6 1026 59 10000 1.34 293 08:57 04.01.2022
6129 Clear -6 1025 61 10000 1.34 286 06:28 04.01.2022
6130 Clear -3 1020 44 10000 1.79 291 00:43 04.01.2022
6131 Snow -3 1019 45 10000 2.24 285 23:56 03.01.2022
6132 Snow -2 1017 50 10000 2.68 280 22:28 03.01.2022
6133 Snow -2 1017 53 10000 1.79 284 21:41 03.01.2022
6134 Snow -2 1017 53 10000 1.79 276 21:41 03.01.2022
6135 Snow -2 1016 51 10000 1.79 279 20:42 03.01.2022
6136 Snow -2 1016 48 10000 1.34 259 19:43 03.01.2022
6137 Snow -2 1018 45 10000 0.45 274 18:31 03.01.2022
6138 Snow -1 1020 47 10000 1.34 243 17:34 03.01.2022
6139 Snow -1 1020 48 10000 1.34 203 16:56 03.01.2022
6140 Snow -1 1019 54 10000 1.79 278 14:33 03.01.2022
6141 Snow 0 1019 65 10000 1.34 226 13:25 03.01.2022
6142 Clouds 0 1019 67 10000 0.89 269 12:28 03.01.2022
6143 Clouds 1 1019 64 10000 0.89 161 11:30 03.01.2022
6144 Clouds 2 1019 66 10000 1.79 286 09:41 03.01.2022
6145 Clouds 2 1019 67 10000 0.89 267 08:18 03.01.2022
6146 Clouds 3 1015 70 10000 0.89 285 05:21 03.01.2022
6147 Clouds 8 1008 71 10000 4.47 307 23:45 02.01.2022
6148 Clouds 9 1008 74 10000 2.68 265 22:57 02.01.2022
6149 Clouds 10 1006 76 10000 3.13 325 22:38 02.01.2022
6150 Clouds 12 1005 76 10000 1.34 5 21:26 02.01.2022
6151 Clouds 14 1003 81 10000 0.45 266 20:30 02.01.2022
6152 Clouds 14 1003 85 10000 0.45 248 19:52 02.01.2022
6153 Clouds 14 1003 87 10000 0.45 169 19:25 02.01.2022
6154 Clouds 13 1003 91 10000 4.02 253 18:31 02.01.2022
6155 Mist 13 1003 93 10000 4.47 264 17:43 02.01.2022
6156 Mist 12 1003 94 10000 0.45 70 17:21 02.01.2022
6157 Mist 12 1003 94 10000 2.68 234 16:33 02.01.2022
6158 Mist 12 1003 95 9656 1.34 184 15:51 02.01.2022
6159 Mist 11 1002 94 9656 1.79 233 13:58 02.01.2022
6160 Mist 11 1001 94 2816 0.45 159 12:34 02.01.2022
6161 Mist 11 1001 95 4828 0.45 299 11:56 02.01.2022
6162 Mist 11 1000 95 2816 1.79 294 10:59 02.01.2022
6163 Mist 11 1001 94 9656 0.45 266 10:26 02.01.2022
6164 Mist 11 1000 94 8047 0.45 135 08:22 02.01.2022
6165 Rain 12 1004 93 4023 0.45 117 03:22 02.01.2022
6166 Rain 12 1006 93 10000 1.34 217 23:56 01.01.2022
6167 Rain 12 1006 93 10000 0.45 182 23:36 01.01.2022
6168 Mist 12 1006 92 10000 1.34 163 22:44 01.01.2022
6169 Mist 12 1006 92 10000 1.79 156 22:18 01.01.2022
6170 Mist 13 1006 92 10000 0.45 127 21:43 01.01.2022
6171 Clouds 13 1006 93 10000 1.79 122 20:51 01.01.2022
6172 Rain 12 1007 93 10000 0.45 208 19:55 01.01.2022
6173 Rain 12 1008 94 4828 0.45 104 18:58 01.01.2022
6174 Rain 12 1009 94 10000 0.89 238 17:56 01.01.2022
6175 Rain 11 1011 93 9656 1.79 238 16:35 01.01.2022
6176 Rain 11 1011 93 4828 0.45 62 15:57 01.01.2022
6177 Rain 10 1010 94 4828 3.13 167 14:56 01.01.2022
6178 Rain 10 1010 93 8047 1.34 136 13:42 01.01.2022
6179 Mist 10 1010 93 1207 1.34 111 12:43 01.01.2022
6180 Mist 10 1011 93 10000 2.24 119 11:47 01.01.2022
6181 Mist 10 1011 93 9656 0.89 96 11:20 01.01.2022
6182 Mist 10 1012 91 9656 3.13 130 09:49 01.01.2022
6183 Mist 10 1012 91 9656 4.02 118 09:21 01.01.2022
6184 Mist 10 1013 91 8047 0.89 105 08:24 01.01.2022
6185 Mist 10 1013 91 6437 1.79 150 07:41 01.01.2022
6186 Clouds 10 1013 91 10000 4.47 165 06:45 01.01.2022
6187 Mist 10 1013 90 10000 2.24 145 05:26 01.01.2022
6188 Mist 10 1014 90 9656 1.79 152 04:37 01.01.2022
6189 Mist 10 1014 89 9656 2.68 189 00:53 01.01.2022
6190 Mist 10 1014 87 9656 2.24 159 23:22 31.12.2021
6191 Mist 10 1014 86 10000 3.13 153 21:52 31.12.2021
6192 Clouds 11 1013 84 10000 0.45 100 20:33 31.12.2021
6193 Clouds 11 1013 85 10000 0.45 132 19:30 31.12.2021
6194 Haze 11 1014 79 9656 1.54 0 18:32 31.12.2021
6195 Haze 11 1014 84 9656 3.58 172 17:38 31.12.2021
6196 Haze 11 1014 84 9656 3.58 172 17:18 31.12.2021
6197 Mist 10 1015 87 10000 0.45 54 16:24 31.12.2021
6198 Mist 10 1015 90 10000 0.45 34 15:56 31.12.2021
6199 Mist 9 1015 91 8047 1.79 158 15:28 31.12.2021
6200 Mist 9 1015 92 3219 1.79 168 14:52 31.12.2021
6201 Mist 9 1015 92 10000 1.34 205 14:29 31.12.2021
6202 Mist 9 1014 93 9656 0.89 179 13:36 31.12.2021
6203 Mist 9 1014 94 9656 0.45 172 12:45 31.12.2021
6204 Mist 9 1013 93 9656 1.34 167 11:47 31.12.2021
6205 Mist 9 1013 93 4828 0.89 171 11:29 31.12.2021
6206 Mist 9 1013 93 6437 1.34 159 10:35 31.12.2021
6207 Mist 9 1013 92 8047 1.79 163 09:54 31.12.2021
6208 Mist 9 1013 92 8047 1.79 168 09:32 31.12.2021
6209 Mist 9 1014 92 9656 1.79 155 08:27 31.12.2021
6210 Mist 9 1013 92 9656 2.68 139 07:31 31.12.2021
6211 Clouds 8 1013 86 10000 2.24 245 23:32 30.12.2021
6212 Haze 9 1012 85 9656 1.34 44 22:33 30.12.2021
6213 Haze 9 1012 84 9656 0.89 29 21:56 30.12.2021
6214 Clouds 9 1013 84 10000 0.45 116 21:37 30.12.2021
6215 Haze 9 1013 85 9656 3.58 23 20:47 30.12.2021
6216 Haze 9 1013 85 9656 0.45 135 20:27 30.12.2021
6217 Clouds 9 1013 85 10000 3.58 20 19:48 30.12.2021
6218 Mist 9 1013 86 9656 0.45 289 18:51 30.12.2021
6219 Mist 8 1014 87 10000 2.68 31 18:20 30.12.2021
6220 Mist 7 1015 90 6437 1.79 27 16:27 30.12.2021
6221 Mist 7 1015 91 4828 1.79 281 15:52 30.12.2021
6222 Mist 7 1015 91 4828 1.79 281 15:52 30.12.2021
6223 Mist 6 1015 92 2816 0.89 329 14:41 30.12.2021
6224 Mist 6 1015 92 4828 1.34 298 14:19 30.12.2021
6225 Mist 6 1014 92 4023 1.79 293 13:23 30.12.2021
6226 Mist 6 1013 92 4023 3.13 326 11:34 30.12.2021
6227 Rain 6 1013 92 3219 0.45 101 10:27 30.12.2021
6228 Rain 6 1014 92 4023 0.45 121 09:27 30.12.2021
6229 Mist 6 1014 89 4023 0.89 93 06:55 30.12.2021
6230 Mist 6 1015 88 6437 0.45 74 04:25 30.12.2021
6231 Mist 6 1016 89 6437 0.45 127 03:40 30.12.2021
6232 Mist 6 1015 89 6437 0.45 115 01:56 30.12.2021
6233 Mist 6 1014 89 8047 0.45 112 23:36 29.12.2021
6234 Mist 6 1013 89 6437 0.89 14 22:32 29.12.2021
6235 Mist 6 1013 88 6437 0.45 216 21:54 29.12.2021
6236 Mist 6 1013 88 8047 0.45 19 20:56 29.12.2021
6237 Mist 6 1012 88 8047 2.57 60 20:25 29.12.2021
6238 Mist 6 1012 87 6437 0.45 113 19:31 29.12.2021
6239 Mist 6 1012 90 9656 0.45 257 18:35 29.12.2021
6240 Mist 6 1012 90 9656 0.45 121 17:41 29.12.2021
6241 Mist 6 1012 90 9656 0.89 98 17:20 29.12.2021
6242 Mist 5 1012 90 4828 0.45 247 16:19 29.12.2021
6243 Mist 5 1012 88 6437 0.45 113 15:21 29.12.2021
6244 Clouds 5 1010 89 10000 0.89 98 12:57 29.12.2021
6245 Clouds 5 1010 89 10000 0.45 157 12:32 29.12.2021
6246 Mist 5 1010 89 9656 0.45 115 11:23 29.12.2021
6247 Clouds 5 1009 88 10000 0.45 84 09:30 29.12.2021
6248 Rain 5 1010 86 10000 0.89 116 07:30 29.12.2021
6249 Rain 5 1011 81 6437 0.45 111 06:32 29.12.2021
6250 Rain 6 1011 75 9656 1.34 82 05:56 29.12.2021
6251 Clouds 6 1012 68 10000 0.45 314 04:58 29.12.2021
6252 Clouds 7 1012 65 10000 0.89 312 00:45 29.12.2021
6253 Clouds 7 1013 66 10000 1.79 282 23:58 28.12.2021
6254 Clouds 7 1012 64 10000 3.13 273 22:57 28.12.2021
6255 Clouds 8 1011 65 10000 2.24 277 22:25 28.12.2021
6256 Clouds 8 1010 64 10000 2.24 253 21:54 28.12.2021
6257 Clouds 8 1010 64 10000 2.68 264 21:35 28.12.2021
6258 Clouds 8 1009 64 10000 0.45 27 20:32 28.12.2021
6259 Clouds 7 1010 72 10000 0.45 151 18:54 28.12.2021
6260 Clear 7 1010 73 10000 0.45 299 18:28 28.12.2021
6261 Clear 7 1011 76 10000 0.45 302 17:42 28.12.2021
6262 Clear 6 1012 81 10000 4.92 280 16:25 28.12.2021
6263 Mist 5 1012 86 10000 1.79 293 15:41 28.12.2021
6264 Clouds 4 1012 88 10000 1.79 272 14:57 28.12.2021
6265 Clouds 4 1012 88 10000 1.79 272 14:57 28.12.2021
6266 Mist 4 1011 88 10000 2.24 260 14:38 28.12.2021
6267 Fog 3 1011 89 10000 2.24 266 14:20 28.12.2021
6268 Mist 3 1011 89 8047 0.89 253 13:38 28.12.2021
6269 Mist 3 1011 89 8047 0.89 253 13:38 28.12.2021
6270 Mist 3 1010 91 4828 2.68 262 12:57 28.12.2021
6271 Mist 3 1010 91 4828 4.02 269 12:38 28.12.2021
6272 Mist 3 1009 90 9656 0.45 115 10:52 28.12.2021
6273 Mist 3 1009 88 9656 0.89 282 07:40 28.12.2021
6274 Clouds 2 1010 88 10000 0.45 80 06:40 28.12.2021
6275 Clouds 3 1016 64 10000 2.68 129 23:42 27.12.2021
6276 Clouds 3 1016 63 10000 0.45 117 22:53 27.12.2021
6277 Clouds 3 1016 60 10000 0.45 145 21:33 27.12.2021
6278 Clouds 3 1016 59 10000 0.45 210 20:46 27.12.2021
6279 Clouds 3 1016 59 10000 0.89 260 19:57 27.12.2021
6280 Clouds 3 1017 58 10000 0.89 265 19:39 27.12.2021
6281 Clouds 2 1018 58 10000 2.24 294 18:23 27.12.2021
6282 Rain 2 1018 60 10000 0.45 103 17:46 27.12.2021
6283 Rain 1 1021 62 10000 3.13 13 16:38 27.12.2021
6284 Rain 1 1020 61 10000 4.92 22 15:51 27.12.2021
6285 Clear 1 1019 64 10000 5.81 17 14:32 27.12.2021
6286 Clear 1 1019 64 10000 5.36 20 13:39 27.12.2021
6287 Clouds 0 1020 68 10000 1.79 304 11:53 27.12.2021
6288 Clear 1 1019 63 10000 0.89 297 10:29 27.12.2021
6289 Clear 1 1019 62 10000 2.24 301 09:47 27.12.2021
6290 Clear 3 1019 59 10000 0.45 252 07:35 27.12.2021
6291 Clear 3 1018 59 10000 0.89 330 06:56 27.12.2021
6292 Clear 5 1017 54 10000 8.94 309 02:18 27.12.2021
6293 Clouds 6 1015 59 10000 4.92 333 23:58 26.12.2021
6294 Clouds 6 1015 57 10000 1.34 303 23:35 26.12.2021
6295 Clear 7 1014 55 10000 1.34 290 22:23 26.12.2021
6296 Clouds 9 1013 50 10000 1.34 297 20:54 26.12.2021
6297 Clear 9 1012 51 10000 1.79 297 19:47 26.12.2021
6298 Clear 9 1012 52 10000 0.89 275 18:24 26.12.2021
6299 Clouds 8 1012 57 10000 0.89 280 16:55 26.12.2021
6300 Clear 7 1011 64 10000 0.89 267 14:28 26.12.2021
6301 Clouds 6 1010 66 10000 0.89 276 13:40 26.12.2021
6302 Clouds 7 1010 66 10000 0.45 257 13:19 26.12.2021
6303 Clear 7 1009 67 10000 0.89 281 12:33 26.12.2021
6304 Clear 8 1005 70 10000 0.89 283 10:42 26.12.2021
6305 Clouds 9 1005 73 10000 1.79 297 09:25 26.12.2021
6306 Clouds 10 1005 75 10000 9.39 306 08:44 26.12.2021
6307 Clouds 10 1003 77 10000 0.89 300 07:58 26.12.2021
6308 Haze 8 1000 84 9656 0.45 148 01:30 26.12.2021
6309 Clouds 8 999 84 10000 2.24 302 23:58 25.12.2021
6310 Mist 8 999 83 10000 2.24 314 23:27 25.12.2021
6311 Mist 8 998 83 10000 2.24 239 22:28 25.12.2021
6312 Clouds 8 998 87 10000 3.58 264 21:00 25.12.2021
6313 Mist 6 999 91 6437 0.89 264 19:28 25.12.2021
6314 Mist 6 1000 92 4828 0.89 143 18:57 25.12.2021
6315 Mist 5 1000 92 2414 0.45 231 18:21 25.12.2021
6316 Rain 4 1002 92 2414 0.45 360 16:42 25.12.2021
6317 Rain 4 1003 90 1609 1.34 296 15:26 25.12.2021
6318 Mist 3 1004 90 4023 2.68 304 13:43 25.12.2021
6319 Rain 3 1005 89 10000 0.45 105 11:54 25.12.2021
6320 Rain 3 1008 87 8047 0.45 111 10:32 25.12.2021
6321 Rain 3 1009 84 10000 0.89 106 09:48 25.12.2021
6322 Clear 2 1014 80 10000 0.45 129 05:39 25.12.2021
6323 Clear 2 1016 78 10000 3.58 51 01:31 25.12.2021
6324 Clouds 2 1017 77 10000 0.89 54 23:55 24.12.2021
6325 Clear 4 1017 72 10000 0.45 285 21:46 24.12.2021
6326 Clouds 3 1017 77 10000 0.45 127 19:26 24.12.2021
6327 Mist 3 1018 80 10000 0.89 273 18:34 24.12.2021
6328 Clouds 2 1019 84 10000 3.13 292 16:40 24.12.2021
6329 Rain 1 1018 85 10000 0.45 132 15:49 24.12.2021
6330 Rain 1 1018 85 10000 0.45 114 15:20 24.12.2021
6331 Clouds 1 1018 83 10000 0.45 78 14:33 24.12.2021
6332 Clouds 0 1018 84 10000 0.89 103 13:50 24.12.2021
6333 Clouds 0 1018 84 10000 0.45 105 13:32 24.12.2021
6334 Clouds 0 1018 84 10000 0.89 82 12:39 24.12.2021
6335 Snow 0 1018 84 10000 0.89 122 11:43 24.12.2021
6336 Snow 0 1018 84 10000 0.89 96 11:24 24.12.2021
6337 Snow 0 1019 82 9656 0.45 115 10:35 24.12.2021
6338 Snow 1 1022 56 10000 1.79 116 08:48 24.12.2021
6339 Clouds 0 1021 55 10000 0.45 92 07:58 24.12.2021
6340 Clouds 0 1020 55 7127 3.13 115 06:59 24.12.2021
6341 Clear 0 1023 48 10000 1.34 304 00:22 24.12.2021
6342 Clear 1 1022 48 10000 3.58 344 23:50 23.12.2021
6343 Clouds 1 1022 47 10000 3.58 300 22:53 23.12.2021
6344 Clear 2 1022 45 10000 0.45 286 22:24 23.12.2021
6345 Clear 2 1022 46 10000 0.45 295 21:41 23.12.2021
6346 Clear 3 1021 45 10000 0.89 297 20:31 23.12.2021
6347 Clouds 2 1021 46 10000 0.89 294 19:30 23.12.2021
6348 Clouds 2 1022 49 10000 0.89 293 18:27 23.12.2021
6349 Clouds 2 1022 51 10000 0.89 231 17:46 23.12.2021
6350 Clouds 1 1022 51 10000 0.89 286 16:27 23.12.2021
6351 Clouds 1 1022 50 10000 0.89 262 15:54 23.12.2021
6352 Clouds 0 1022 50 10000 0.45 291 15:30 23.12.2021
6353 Clouds 0 1021 52 10000 0.89 329 14:42 23.12.2021
6354 Clear -1 1020 54 10000 5.36 288 13:49 23.12.2021
6355 Clear -1 1019 56 10000 0.89 179 12:39 23.12.2021
6356 Clear 0 1018 53 10000 7.6 304 10:36 23.12.2021
6357 Clouds 0 1017 52 10000 10.28 301 09:34 23.12.2021
6358 Clouds 0 1016 52 10000 5.36 302 08:58 23.12.2021
6359 Clear 1 1014 49 10000 0.89 8 06:23 23.12.2021
6360 Clouds 1 1011 47 10000 1.34 306 03:28 23.12.2021
6361 Clouds 5 1005 51 10000 0.89 281 22:55 22.12.2021
6362 Clouds 6 1004 48 10000 0.89 100 22:23 22.12.2021
6363 Clear 7 1003 47 10000 0.45 320 21:53 22.12.2021
6364 Clear 7 1003 46 10000 0.89 274 21:27 22.12.2021
6365 Clear 8 1001 48 10000 1.79 298 20:41 22.12.2021
6366 Clear 8 1001 51 10000 1.34 311 19:59 22.12.2021
6367 Clouds 8 1000 53 10000 1.34 264 18:57 22.12.2021
6368 Clear 7 1001 61 10000 0.89 284 17:39 22.12.2021
6369 Clouds 6 1002 70 10000 0.45 164 16:34 22.12.2021
6370 Clouds 5 1002 82 10000 0.45 116 15:36 22.12.2021
6371 Clouds 4 1002 91 10000 0.45 253 13:23 22.12.2021
6372 Mist 4 1003 91 2414 0.45 272 12:19 22.12.2021
6373 Mist 4 1004 86 4828 0.45 138 09:53 22.12.2021
6374 Mist 4 1004 85 4828 0.45 110 09:33 22.12.2021
6375 Clouds 4 1007 76 10000 0.45 155 07:22 22.12.2021
6376 Clouds 4 1010 70 10000 0.45 96 05:41 22.12.2021
6377 Clouds 4 1011 69 10000 0.45 116 05:22 22.12.2021
6378 Clouds 4 1011 70 10000 0.45 111 04:45 22.12.2021
6379 Clouds 4 1012 70 10000 0.45 127 04:22 22.12.2021
6380 Clouds 4 1013 67 10000 0.45 146 03:32 22.12.2021
6381 Clear 3 1014 60 10000 0.45 132 00:29 22.12.2021
6382 Clouds 4 1015 59 10000 2.24 110 22:51 21.12.2021
6383 Clear 5 1016 57 10000 0.89 49 22:27 21.12.2021
6384 Clear 5 1016 55 10000 0.89 174 21:43 21.12.2021
6385 Clouds 5 1016 56 10000 0.45 79 20:54 21.12.2021
6386 Clear 5 1017 54 10000 1.54 0 20:20 21.12.2021
6387 Clear 5 1018 53 10000 0.89 235 19:41 21.12.2021
6388 Clear 5 1019 54 10000 0.45 199 18:43 21.12.2021
6389 Clear 4 1019 55 10000 1.79 0 18:21 21.12.2021
6390 Clear 4 1020 56 10000 0.89 278 17:40 21.12.2021
6391 Clear 1 1021 62 10000 0.45 258 15:47 21.12.2021
6392 Clear 0 1021 64 10000 0.45 281 15:20 21.12.2021
6393 Clear -1 1020 68 10000 1.79 250 13:50 21.12.2021
6394 Clear -1 1020 69 10000 0.45 74 13:29 21.12.2021
6395 Clear -1 1020 70 10000 0.45 94 10:56 21.12.2021
6396 Clear -1 1020 69 10000 3.58 253 10:21 21.12.2021
6397 Clear 0 1021 68 10000 0.45 97 09:19 21.12.2021
6398 Clear 0 1022 64 10000 0.45 112 07:55 21.12.2021
6399 Clear 0 1022 64 10000 0.45 48 07:26 21.12.2021
6400 Clear 0 1023 60 10000 0.45 107 05:31 21.12.2021
6401 Clear 1 1024 52 10000 0.45 28 02:40 21.12.2021
6402 Clear 1 1025 49 10000 4.02 190 23:58 20.12.2021
6403 Clear 1 1025 49 10000 4.47 169 23:27 20.12.2021
6404 Clear 2 1025 47 10000 0.45 344 22:28 20.12.2021
6405 Clear 2 1025 47 10000 0.45 344 22:28 20.12.2021
6406 Clear 3 1025 46 10000 4.92 150 21:47 20.12.2021
6407 Clear 3 1025 44 10000 0.45 95 21:23 20.12.2021
6408 Clear 3 1026 44 10000 0.45 328 20:44 20.12.2021
6409 Clouds 3 1025 47 10000 3.13 198 19:53 20.12.2021
6410 Clear 2 1026 44 10000 0.45 313 19:31 20.12.2021
6411 Clouds 2 1027 47 10000 1.34 264 18:54 20.12.2021
6412 Clear 1 1028 53 10000 1.34 163 17:52 20.12.2021
6413 Clear 0 1028 54 10000 0.45 131 17:25 20.12.2021
6414 Clear -1 1029 54 10000 0.89 292 16:40 20.12.2021
6415 Clear -2 1029 59 10000 1.79 300 15:50 20.12.2021
6416 Clear -3 1029 62 10000 0.45 259 14:51 20.12.2021
6417 Clear -4 1027 65 10000 3.13 316 12:53 20.12.2021
6418 Clear -3 1026 63 10000 0.89 276 11:19 20.12.2021
6419 Clear -3 1026 62 10000 4.47 321 09:47 20.12.2021
6420 Clear -3 1026 61 10000 4.47 316 09:29 20.12.2021
6421 Clear -3 1026 60 10000 1.34 285 08:42 20.12.2021
6422 Clear -3 1026 59 10000 4.02 357 07:49 20.12.2021
6423 Clear -2 1025 60 10000 0.89 281 07:29 20.12.2021
6424 Clear -1 1025 59 10000 7.6 315 04:24 20.12.2021
6425 Clouds 1 1021 55 10000 5.81 306 23:58 19.12.2021
6426 Clear 2 1020 54 10000 0.89 272 22:45 19.12.2021
6427 Clear 3 1020 54 10000 1.34 290 21:50 19.12.2021
6428 Clear 3 1019 54 10000 1.34 276 21:29 19.12.2021
6429 Clear 3 1018 55 10000 1.79 290 20:31 19.12.2021
6430 Clouds 4 1018 55 10000 1.79 292 19:49 19.12.2021
6431 Clouds 4 1018 56 10000 1.34 255 19:22 19.12.2021
6432 Clear 3 1018 59 10000 1.34 284 18:29 19.12.2021
6433 Clear 3 1018 59 10000 1.34 284 18:29 19.12.2021
6434 Clouds 3 1018 61 10000 1.34 292 17:52 19.12.2021
6435 Clear 4 1018 59 10000 1.34 291 17:19 19.12.2021
6436 Clouds 4 1018 64 10000 0.89 288 16:26 19.12.2021
6437 Clouds 4 1017 64 10000 1.34 301 15:42 19.12.2021
6438 Clouds 4 1017 65 10000 1.79 271 15:20 19.12.2021
6439 Clouds 4 1016 66 10000 1.34 297 14:41 19.12.2021
6440 Clouds 5 1015 70 10000 1.34 302 13:22 19.12.2021
6441 Clouds 5 1014 73 10000 1.79 305 12:36 19.12.2021
6442 Clouds 5 1013 73 10000 0.89 278 12:18 19.12.2021
6443 Clouds 6 1012 81 10000 1.34 303 11:19 19.12.2021
6444 Mist 7 1010 91 10000 0.89 294 10:25 19.12.2021
6445 Mist 7 1010 93 9656 0.45 250 09:41 19.12.2021
6446 Mist 7 1010 93 4828 0.45 295 08:35 19.12.2021
6447 Mist 7 1009 92 4828 0.89 277 04:45 19.12.2021
6448 Mist 7 1009 92 4828 0.89 277 04:45 19.12.2021
6449 Mist 7 1012 91 2414 1.34 285 01:22 19.12.2021
6450 Mist 7 1013 91 4023 0.45 267 00:52 19.12.2021
6451 Mist 6 1014 89 3219 0.89 111 22:36 18.12.2021
6452 Mist 6 1015 88 9656 0.45 134 21:57 18.12.2021
6453 Mist 6 1015 86 10000 0.89 141 21:35 18.12.2021
6454 Clouds 6 1016 85 10000 0.45 149 20:44 18.12.2021
6455 Clouds 6 1016 85 10000 0.45 96 20:18 18.12.2021
6456 Clouds 5 1018 83 10000 0.45 163 19:20 18.12.2021
6457 Mist 5 1018 86 10000 0.45 73 18:21 18.12.2021
6458 Mist 5 1020 84 8047 0.45 102 17:48 18.12.2021
6459 Rain 4 1021 86 4023 0.45 105 16:26 18.12.2021
6460 Rain 4 1021 86 4023 0.45 105 16:26 18.12.2021
6461 Mist 4 1022 83 8047 0.45 127 15:27 18.12.2021
6462 Clouds 5 1022 79 10000 0.45 92 14:48 18.12.2021
6463 Rain 5 1022 64 10000 0.45 95 13:21 18.12.2021
6464 Clouds 6 1022 57 10000 1.79 31 11:22 18.12.2021
6465 Rain 7 1022 49 10000 3.58 7 09:40 18.12.2021
6466 Clear 7 1022 42 10000 5.36 350 08:47 18.12.2021
6467 Clear 8 1022 39 10000 0.45 271 08:24 18.12.2021
6468 Clouds 8 1022 37 10000 0.45 240 03:58 18.12.2021
6469 Clouds 11 1021 28 10000 4.02 276 00:30 18.12.2021
6470 Clear 12 1020 26 10000 2.24 273 23:46 17.12.2021
6471 Clouds 14 1018 24 10000 0.45 188 21:58 17.12.2021
6472 Clear 14 1018 22 10000 0.89 76 21:20 17.12.2021
6473 Clear 15 1018 21 10000 0.45 46 20:41 17.12.2021
6474 Clear 15 1018 22 10000 0.45 4 19:28 17.12.2021
6475 Clear 15 1018 23 10000 0.45 93 18:39 17.12.2021
6476 Clear 14 1019 25 10000 0.45 16 17:40 17.12.2021
6477 Clear 14 1019 30 10000 1.34 302 16:50 17.12.2021
6478 Clear 14 1019 31 10000 8.94 291 16:25 17.12.2021
6479 Clear 14 1018 38 10000 4.92 288 15:25 17.12.2021
6480 Clear 13 1017 43 10000 0.45 98 14:41 17.12.2021
6481 Clear 14 1016 48 10000 0.45 318 13:22 17.12.2021
6482 Clear 14 1015 62 10000 0.45 14 12:21 17.12.2021
6483 Clear 14 1015 62 10000 0.45 14 12:21 17.12.2021
6484 Clear 13 1012 70 10000 1.79 274 10:38 17.12.2021
6485 Clear 13 1012 69 10000 1.34 300 09:44 17.12.2021
6486 Clear 14 1012 68 10000 1.34 185 08:31 17.12.2021
6487 Clear 14 1012 67 10000 0.45 69 07:20 17.12.2021
6488 Clear 14 1013 65 10000 0.45 88 04:40 17.12.2021
6489 Clouds 15 1014 58 10000 2.24 213 23:58 16.12.2021
6490 Clear 15 1014 50 10000 3.13 247 22:24 16.12.2021
6491 Clear 16 1015 48 10000 2.68 224 21:51 16.12.2021
6492 Clear 16 1015 47 10000 0.45 103 21:30 16.12.2021
6493 Clear 16 1015 48 10000 0.45 81 20:31 16.12.2021
6494 Clear 16 1015 50 10000 0.45 38 19:49 16.12.2021
6495 Clouds 16 1016 52 10000 0.45 351 18:41 16.12.2021
6496 Clouds 15 1017 55 10000 0.45 82 17:57 16.12.2021
6497 Clouds 15 1018 56 10000 0.45 82 17:31 16.12.2021
6498 Clouds 14 1019 63 10000 0.45 61 16:23 16.12.2021
6499 Clouds 12 1020 77 10000 0.45 19 14:54 16.12.2021
6500 Clouds 12 1021 82 10000 0.45 11 13:43 16.12.2021
6501 Clouds 12 1021 84 10000 0.45 64 11:21 16.12.2021
6502 Clouds 12 1021 85 10000 0.45 39 11:00 16.12.2021
6503 Clouds 12 1021 84 10000 0.45 32 10:27 16.12.2021
6504 Clouds 12 1023 84 10000 0.45 61 08:37 16.12.2021
6505 Clouds 12 1024 84 10000 0.45 62 06:22 16.12.2021
6506 Clouds 10 1028 78 10000 2.68 109 02:54 16.12.2021
6507 Drizzle 11 1031 71 10000 0.45 234 23:35 15.12.2021
6508 Clouds 11 1032 67 10000 0.45 96 22:48 15.12.2021
6509 Clouds 11 1032 67 10000 0.45 138 21:57 15.12.2021
6510 Clouds 11 1032 65 10000 1.34 128 21:28 15.12.2021
6511 Clouds 11 1033 64 10000 0.89 97 20:31 15.12.2021
6512 Clouds 12 1032 64 10000 0.89 84 19:52 15.12.2021
6513 Clear 11 1035 57 10000 0.89 153 18:39 15.12.2021
6514 Clouds 11 1035 57 10000 0.89 147 17:56 15.12.2021
6515 Clear 10 1036 56 10000 1.34 131 17:37 15.12.2021
6516 Clear 9 1036 57 10000 1.34 96 16:35 15.12.2021
6517 Clear 7 1038 56 10000 0.45 120 15:47 15.12.2021
6518 Clear 6 1038 57 10000 0.45 128 15:29 15.12.2021
6519 Clear 6 1038 57 10000 0.89 99 14:43 15.12.2021
6520 Clouds 4 1038 56 10000 0.45 91 12:52 15.12.2021
6521 Clear 4 1038 56 10000 0.45 72 10:49 15.12.2021
6522 Clear 5 1038 56 10000 0.45 127 09:28 15.12.2021
6523 Clear 5 1037 51 10000 0.45 112 07:44 15.12.2021
6524 Clear 7 1036 35 10000 0.45 116 02:40 15.12.2021
6525 Clear 8 1035 31 10000 3.13 333 23:44 14.12.2021
6526 Clear 10 1034 31 10000 3.13 18 22:49 14.12.2021
6527 Clear 10 1034 31 10000 3.13 18 22:49 14.12.2021
6528 Clear 10 1034 30 10000 0.45 277 22:30 14.12.2021
6529 Clear 12 1033 33 10000 0.45 285 21:24 14.12.2021
6530 Clear 11 1032 39 10000 0.89 287 19:44 14.12.2021
6531 Clear 11 1032 40 10000 0.89 306 19:21 14.12.2021
6532 Clear 11 1032 42 10000 0.89 299 18:34 14.12.2021
6533 Clear 10 1033 46 10000 0.89 283 17:34 14.12.2021
6534 Clear 10 1032 48 10000 0.45 281 16:43 14.12.2021
6535 Clouds 9 1032 50 10000 0.45 252 15:52 14.12.2021
6536 Clear 6 1029 51 10000 1.34 298 13:33 14.12.2021
6537 Clear 6 1028 48 10000 1.34 300 12:41 14.12.2021
6538 Clear 6 1027 44 10000 0.89 284 11:24 14.12.2021
6539 Clear 6 1027 42 10000 1.79 270 10:27 14.12.2021
6540 Clouds 6 1026 42 10000 1.79 300 09:53 14.12.2021
6541 Clear 6 1026 40 10000 1.34 281 08:40 14.12.2021
6542 Clear 7 1025 40 10000 1.34 282 08:20 14.12.2021
6543 Clear 7 1025 39 10000 2.68 283 06:27 14.12.2021
6544 Clear 10 1023 32 10000 0.45 99 23:39 13.12.2021
6545 Clear 11 1022 33 10000 0.45 109 21:57 13.12.2021
6546 Clear 11 1022 32 10000 0.45 49 21:34 13.12.2021
6547 Clear 12 1022 32 10000 0.45 63 20:50 13.12.2021
6548 Clear 11 1022 34 10000 0.45 276 19:59 13.12.2021
6549 Clear 11 1023 35 10000 0.45 101 19:27 13.12.2021
6550 Clear 9 1025 40 10000 0.45 98 17:27 13.12.2021
6551 Clear 8 1026 43 10000 0.45 146 16:24 13.12.2021
6552 Clear 7 1025 46 10000 0.45 23 15:43 13.12.2021
6553 Clouds 4 1025 51 10000 0.45 109 13:57 13.12.2021
6554 Clear 4 1025 51 10000 0.45 300 13:31 13.12.2021
6555 Clear 4 1025 49 10000 0.45 81 12:39 13.12.2021
6556 Clear 4 1025 47 10000 0.45 145 11:44 13.12.2021
6557 Clear 4 1025 47 10000 4.92 264 11:24 13.12.2021
6558 Clear 4 1025 47 10000 0.45 92 10:21 13.12.2021
6559 Clear 4 1024 48 10000 0.45 65 08:43 13.12.2021
6560 Clear 5 1025 45 10000 1.34 222 05:38 13.12.2021
6561 Clear 5 1024 46 10000 3.58 266 03:57 13.12.2021
6562 Clear 7 1022 46 10000 0.45 104 23:55 12.12.2021
6563 Clear 9 1021 39 10000 6.26 262 21:57 12.12.2021
6564 Clear 9 1020 34 10000 0.89 321 20:49 12.12.2021
6565 Clear 9 1020 33 10000 0.89 80 19:35 12.12.2021
6566 Clear 8 1020 38 10000 0.89 294 17:58 12.12.2021
6567 Clear 7 1020 38 10000 1.79 298 16:29 12.12.2021
6568 Clouds 7 1019 40 10000 0.89 270 15:54 12.12.2021
6569 Clear 6 1019 43 10000 10.28 295 15:28 12.12.2021
6570 Clear 6 1018 48 10000 0.45 193 14:46 12.12.2021
6571 Clouds 6 1017 48 10000 0.45 297 13:56 12.12.2021
6572 Clear 6 1016 46 10000 0.89 281 12:48 12.12.2021
6573 Clear 7 1014 45 10000 1.34 310 11:45 12.12.2021
6574 Clear 7 1014 45 10000 0.45 210 11:27 12.12.2021
6575 Clear 7 1013 46 10000 0.89 298 10:44 12.12.2021
6576 Clouds 7 1012 51 10000 0.89 295 09:58 12.12.2021
6577 Clouds 8 1010 51 10000 1.34 298 08:44 12.12.2021
6578 Clouds 10 1007 53 10000 1.34 268 07:25 12.12.2021
6579 Rain 13 1003 71 10000 0.45 135 05:29 12.12.2021
6580 Rain 15 1002 82 10000 5.81 270 04:19 12.12.2021
6581 Clouds 18 1002 80 10000 0.45 68 00:54 12.12.2021
6582 Clouds 17 1003 80 10000 0.89 27 22:56 11.12.2021
6583 Clouds 17 1003 80 10000 1.34 35 22:20 11.12.2021
6584 Clouds 16 1003 82 10000 0.89 309 21:35 11.12.2021
6585 Clouds 15 1004 86 10000 0.45 67 20:18 11.12.2021
6586 Mist 15 1005 89 10000 0.45 101 19:21 11.12.2021
6587 Mist 14 1006 90 10000 7.6 205 18:45 11.12.2021
6588 Mist 14 1006 92 3219 0.45 69 17:54 11.12.2021
6589 Clouds 12 1009 93 10000 0.45 106 15:59 11.12.2021
6590 Mist 12 1010 93 4828 0.45 88 15:40 11.12.2021
6591 Mist 10 1011 93 4828 1.34 129 14:36 11.12.2021
6592 Mist 7 1013 91 3219 0.45 331 12:31 11.12.2021
6593 Mist 7 1015 90 2816 2.24 117 10:50 11.12.2021
6594 Rain 7 1017 83 10000 2.68 109 09:43 11.12.2021
6595 Clouds 6 1020 73 10000 2.68 17 03:58 11.12.2021
6596 Clouds 6 1021 68 10000 0.45 155 00:48 11.12.2021
6597 Clear 7 1021 64 10000 0.89 230 23:44 10.12.2021
6598 Clear 8 1020 60 10000 1.54 330 22:47 10.12.2021
6599 Clouds 9 1020 59 10000 0.89 162 21:51 10.12.2021
6600 Clouds 9 1020 58 10000 0.89 78 20:32 10.12.2021
6601 Clouds 9 1020 57 10000 0.89 278 19:19 10.12.2021
6602 Clouds 9 1021 59 10000 0.45 91 17:50 10.12.2021
6603 Clouds 8 1022 59 10000 0.45 45 16:41 10.12.2021
6604 Clouds 7 1022 62 10000 0.45 309 15:47 10.12.2021
6605 Clouds 6 1022 64 10000 0.45 17 15:28 10.12.2021
6606 Clouds 6 1022 68 10000 0.45 126 14:56 10.12.2021
6607 Clouds 5 1021 69 10000 5.81 157 13:50 10.12.2021
6608 Clouds 5 1021 67 10000 0.45 109 13:18 10.12.2021
6609 Clouds 4 1021 65 10000 0.45 107 12:23 10.12.2021
6610 Clouds 4 1022 62 10000 0.45 291 11:27 10.12.2021
6611 Clouds 3 1023 59 10000 3.58 194 09:54 10.12.2021
6612 Clouds 3 1023 59 10000 3.58 194 09:54 10.12.2021
6613 Clouds 3 1023 54 10000 5.36 195 08:23 10.12.2021
6614 Clear 3 1024 54 10000 3.58 174 05:46 10.12.2021
6615 Clouds 3 1025 50 10000 2.68 218 02:47 10.12.2021
6616 Clear 2 1023 49 10000 1.34 252 23:44 09.12.2021
6617 Clear 3 1023 48 10000 1.34 360 22:50 09.12.2021
6618 Clear 3 1023 48 10000 1.79 312 22:24 09.12.2021
6619 Clear 3 1023 47 10000 1.34 279 21:48 09.12.2021
6620 Clear 4 1023 47 10000 0.45 332 20:41 09.12.2021
6621 Clear 4 1023 47 10000 0.45 273 20:20 09.12.2021
6622 Clear 4 1023 47 10000 0.45 292 19:21 09.12.2021
6623 Clear 3 1023 48 10000 0.89 293 18:35 09.12.2021
6624 Clouds 3 1022 50 10000 0.89 310 17:51 09.12.2021
6625 Clear 3 1023 50 10000 1.34 299 17:25 09.12.2021
6626 Clear 3 1023 50 10000 1.34 299 17:25 09.12.2021
6627 Clouds 2 1023 54 10000 0.89 276 16:53 09.12.2021
6628 Clear 1 1023 58 10000 5.81 296 15:31 09.12.2021
6629 Clear 0 1022 61 10000 0.89 341 14:46 09.12.2021
6630 Clear -1 1021 65 10000 2.24 291 13:19 09.12.2021
6631 Clear -1 1021 65 10000 2.24 288 12:35 09.12.2021
6632 Clear 0 1020 65 10000 0.89 284 11:21 09.12.2021
6633 Clear 0 1017 68 10000 0.89 321 08:54 09.12.2021
6634 Clouds 1 1015 79 10000 4.47 284 06:21 09.12.2021
6635 Snow 1 1013 88 4023 3.58 289 03:40 09.12.2021
6636 Clouds 4 1012 70 10000 2.68 309 23:43 08.12.2021
6637 Clouds 4 1012 69 10000 2.68 311 23:21 08.12.2021
6638 Clouds 4 1012 70 10000 2.24 340 22:47 08.12.2021
6639 Clouds 5 1012 69 10000 4.92 311 21:42 08.12.2021
6640 Clouds 5 1012 68 10000 4.92 311 21:24 08.12.2021
6641 Clouds 5 1012 68 10000 4.02 304 19:58 08.12.2021
6642 Clouds 5 1014 67 10000 3.58 314 19:34 08.12.2021
6643 Clouds 5 1015 66 10000 2.68 320 18:46 08.12.2021
6644 Clouds 4 1017 64 10000 2.24 356 17:37 08.12.2021
6645 Clouds 4 1018 64 10000 1.34 61 15:57 08.12.2021
6646 Clouds 3 1018 63 10000 0.45 144 15:28 08.12.2021
6647 Clouds 3 1019 64 10000 1.34 44 14:40 08.12.2021
6648 Clear 2 1020 63 10000 0.89 293 11:36 08.12.2021
6649 Clouds 2 1020 60 10000 1.34 79 10:32 08.12.2021
6650 Clouds 2 1020 59 10000 0.45 119 09:25 08.12.2021
6651 Clear 2 1021 58 10000 0.45 278 07:26 08.12.2021
6652 Clouds 2 1022 57 10000 1.79 281 04:57 08.12.2021
6653 Clear 4 1022 50 10000 2.68 269 23:34 07.12.2021
6654 Clouds 5 1021 49 10000 4.02 289 21:55 07.12.2021
6655 Clouds</